<?xml version="1.0" encoding="UTF-8" standalone="no" ?>
<gpx xmlns="http://www.topografix.com/GPX/1/1" xmlns:xsi="http://www.w3.org/2001/XMLSchema-instance" xsi:schemaLocation="http://www.topografix.com/GPX/1/1 http://www.topografix.com/GPX/1/1/gpx.xsd" version="1.1" creator="VisuGPX - https://www.visugpx.com">
  <metadata>
    <name>Chevreuse - Haute Vallée de Chevreuse</name>
  </metadata>
  <trk>
    <name><![CDATA[Chevreuse - Haute Vallée de Chevreuse_1]]></name>
    <trkseg>
      <trkpt lat="48.70582" lon="2.04004">
        <ele>79.2</ele>
        <time>2022-02-06T08:26:55Z</time>
      </trkpt>
      <trkpt lat="48.70578" lon="2.04004">
        <ele>76</ele>
        <time>2022-02-06T08:27:37Z</time>
      </trkpt>
      <trkpt lat="48.70575" lon="2.03999">
        <ele>74.1</ele>
        <time>2022-02-06T08:29:14Z</time>
      </trkpt>
      <trkpt lat="48.70575" lon="2.0399">
        <ele>74</ele>
        <time>2022-02-06T08:29:25Z</time>
      </trkpt>
      <trkpt lat="48.70578" lon="2.03984">
        <ele>73</ele>
        <time>2022-02-06T08:29:30Z</time>
      </trkpt>
      <trkpt lat="48.70582" lon="2.03978">
        <ele>73.4</ele>
        <time>2022-02-06T08:29:34Z</time>
      </trkpt>
      <trkpt lat="48.70584" lon="2.03972">
        <ele>74.5</ele>
        <time>2022-02-06T08:29:38Z</time>
      </trkpt>
      <trkpt lat="48.70581" lon="2.03967">
        <ele>75.9</ele>
        <time>2022-02-06T08:29:42Z</time>
      </trkpt>
      <trkpt lat="48.70575" lon="2.03963">
        <ele>75.3</ele>
        <time>2022-02-06T08:29:45Z</time>
      </trkpt>
      <trkpt lat="48.70569" lon="2.03959">
        <ele>74</ele>
        <time>2022-02-06T08:29:49Z</time>
      </trkpt>
      <trkpt lat="48.70564" lon="2.03958">
        <ele>73</ele>
        <time>2022-02-06T08:29:52Z</time>
      </trkpt>
      <trkpt lat="48.70561" lon="2.03964">
        <ele>72.3</ele>
        <time>2022-02-06T08:29:56Z</time>
      </trkpt>
      <trkpt lat="48.70559" lon="2.03972">
        <ele>71.7</ele>
        <time>2022-02-06T08:30:00Z</time>
      </trkpt>
      <trkpt lat="48.70557" lon="2.03978">
        <ele>71.1</ele>
        <time>2022-02-06T08:30:03Z</time>
      </trkpt>
      <trkpt lat="48.70556" lon="2.03986">
        <ele>70.7</ele>
        <time>2022-02-06T08:30:08Z</time>
      </trkpt>
      <trkpt lat="48.70555" lon="2.03994">
        <ele>71.9</ele>
        <time>2022-02-06T08:30:13Z</time>
      </trkpt>
      <trkpt lat="48.70554" lon="2.04001">
        <ele>73.3</ele>
        <time>2022-02-06T08:30:17Z</time>
      </trkpt>
      <trkpt lat="48.7055" lon="2.04007">
        <ele>73.9</ele>
        <time>2022-02-06T08:30:22Z</time>
      </trkpt>
      <trkpt lat="48.70547" lon="2.04013">
        <ele>74.4</ele>
        <time>2022-02-06T08:30:26Z</time>
      </trkpt>
      <trkpt lat="48.70546" lon="2.0402">
        <ele>74.2</ele>
        <time>2022-02-06T08:30:32Z</time>
      </trkpt>
      <trkpt lat="48.70541" lon="2.04022">
        <ele>73.5</ele>
        <time>2022-02-06T08:30:38Z</time>
      </trkpt>
      <trkpt lat="48.70542" lon="2.04015">
        <ele>75.1</ele>
        <time>2022-02-06T08:30:47Z</time>
      </trkpt>
      <trkpt lat="48.70538" lon="2.04009">
        <ele>76.1</ele>
        <time>2022-02-06T08:31:09Z</time>
      </trkpt>
      <trkpt lat="48.70534" lon="2.04006">
        <ele>75.9</ele>
        <time>2022-02-06T08:31:13Z</time>
      </trkpt>
      <trkpt lat="48.70529" lon="2.04002">
        <ele>74.7</ele>
        <time>2022-02-06T08:31:17Z</time>
      </trkpt>
      <trkpt lat="48.70526" lon="2.03998">
        <ele>73.2</ele>
        <time>2022-02-06T08:31:22Z</time>
      </trkpt>
      <trkpt lat="48.70521" lon="2.03993">
        <ele>71.9</ele>
        <time>2022-02-06T08:31:27Z</time>
      </trkpt>
      <trkpt lat="48.70519" lon="2.03987">
        <ele>71.5</ele>
        <time>2022-02-06T08:31:32Z</time>
      </trkpt>
      <trkpt lat="48.70515" lon="2.03982">
        <ele>71.4</ele>
        <time>2022-02-06T08:31:36Z</time>
      </trkpt>
      <trkpt lat="48.70511" lon="2.03979">
        <ele>71.3</ele>
        <time>2022-02-06T08:31:40Z</time>
      </trkpt>
      <trkpt lat="48.70506" lon="2.03979">
        <ele>70.5</ele>
        <time>2022-02-06T08:31:45Z</time>
      </trkpt>
      <trkpt lat="48.70501" lon="2.03979">
        <ele>69.5</ele>
        <time>2022-02-06T08:31:49Z</time>
      </trkpt>
      <trkpt lat="48.70496" lon="2.0398">
        <ele>68.3</ele>
        <time>2022-02-06T08:31:55Z</time>
      </trkpt>
      <trkpt lat="48.70491" lon="2.03978">
        <ele>67.5</ele>
        <time>2022-02-06T08:31:59Z</time>
      </trkpt>
      <trkpt lat="48.70486" lon="2.03974">
        <ele>67.4</ele>
        <time>2022-02-06T08:32:04Z</time>
      </trkpt>
      <trkpt lat="48.70482" lon="2.03969">
        <ele>67.7</ele>
        <time>2022-02-06T08:32:07Z</time>
      </trkpt>
      <trkpt lat="48.70479" lon="2.03964">
        <ele>68.2</ele>
        <time>2022-02-06T08:32:10Z</time>
      </trkpt>
      <trkpt lat="48.70476" lon="2.03959">
        <ele>68.8</ele>
        <time>2022-02-06T08:32:14Z</time>
      </trkpt>
      <trkpt lat="48.70473" lon="2.03954">
        <ele>69.7</ele>
        <time>2022-02-06T08:32:17Z</time>
      </trkpt>
      <trkpt lat="48.70468" lon="2.03948">
        <ele>70.5</ele>
        <time>2022-02-06T08:32:22Z</time>
      </trkpt>
      <trkpt lat="48.70468" lon="2.03939">
        <ele>70.1</ele>
        <time>2022-02-06T08:32:26Z</time>
      </trkpt>
      <trkpt lat="48.70469" lon="2.03931">
        <ele>69.2</ele>
        <time>2022-02-06T08:32:31Z</time>
      </trkpt>
      <trkpt lat="48.70469" lon="2.03924">
        <ele>68.3</ele>
        <time>2022-02-06T08:32:35Z</time>
      </trkpt>
      <trkpt lat="48.70466" lon="2.03919">
        <ele>68.1</ele>
        <time>2022-02-06T08:32:39Z</time>
      </trkpt>
      <trkpt lat="48.70462" lon="2.03926">
        <ele>68.4</ele>
        <time>2022-02-06T08:32:44Z</time>
      </trkpt>
      <trkpt lat="48.70461" lon="2.03932">
        <ele>68.9</ele>
        <time>2022-02-06T08:32:48Z</time>
      </trkpt>
      <trkpt lat="48.70458" lon="2.0394">
        <ele>69</ele>
        <time>2022-02-06T08:32:52Z</time>
      </trkpt>
      <trkpt lat="48.70455" lon="2.03947">
        <ele>69.4</ele>
        <time>2022-02-06T08:32:57Z</time>
      </trkpt>
      <trkpt lat="48.70452" lon="2.03953">
        <ele>70.1</ele>
        <time>2022-02-06T08:33:01Z</time>
      </trkpt>
      <trkpt lat="48.70448" lon="2.03959">
        <ele>71.5</ele>
        <time>2022-02-06T08:33:05Z</time>
      </trkpt>
      <trkpt lat="48.70445" lon="2.03964">
        <ele>72.3</ele>
        <time>2022-02-06T08:33:09Z</time>
      </trkpt>
      <trkpt lat="48.70442" lon="2.0397">
        <ele>72.8</ele>
        <time>2022-02-06T08:33:13Z</time>
      </trkpt>
      <trkpt lat="48.70439" lon="2.03978">
        <ele>73.4</ele>
        <time>2022-02-06T08:33:18Z</time>
      </trkpt>
      <trkpt lat="48.70437" lon="2.03985">
        <ele>74.2</ele>
        <time>2022-02-06T08:33:22Z</time>
      </trkpt>
      <trkpt lat="48.70435" lon="2.03994">
        <ele>74.8</ele>
        <time>2022-02-06T08:33:26Z</time>
      </trkpt>
      <trkpt lat="48.70434" lon="2.04002">
        <ele>75.4</ele>
        <time>2022-02-06T08:33:31Z</time>
      </trkpt>
      <trkpt lat="48.70433" lon="2.04009">
        <ele>76.4</ele>
        <time>2022-02-06T08:33:35Z</time>
      </trkpt>
      <trkpt lat="48.70431" lon="2.04017">
        <ele>77.6</ele>
        <time>2022-02-06T08:33:39Z</time>
      </trkpt>
      <trkpt lat="48.70429" lon="2.04024">
        <ele>78.1</ele>
        <time>2022-02-06T08:33:44Z</time>
      </trkpt>
      <trkpt lat="48.70428" lon="2.04033">
        <ele>78.8</ele>
        <time>2022-02-06T08:33:49Z</time>
      </trkpt>
      <trkpt lat="48.70426" lon="2.0404">
        <ele>79.1</ele>
        <time>2022-02-06T08:33:53Z</time>
      </trkpt>
      <trkpt lat="48.70424" lon="2.04048">
        <ele>78.7</ele>
        <time>2022-02-06T08:33:58Z</time>
      </trkpt>
      <trkpt lat="48.70424" lon="2.04056">
        <ele>78.5</ele>
        <time>2022-02-06T08:34:02Z</time>
      </trkpt>
      <trkpt lat="48.70423" lon="2.04063">
        <ele>78.1</ele>
        <time>2022-02-06T08:34:06Z</time>
      </trkpt>
      <trkpt lat="48.70421" lon="2.04071">
        <ele>77.7</ele>
        <time>2022-02-06T08:34:11Z</time>
      </trkpt>
      <trkpt lat="48.70421" lon="2.0408">
        <ele>77.8</ele>
        <time>2022-02-06T08:34:15Z</time>
      </trkpt>
      <trkpt lat="48.7042" lon="2.04087">
        <ele>78.8</ele>
        <time>2022-02-06T08:34:18Z</time>
      </trkpt>
      <trkpt lat="48.70419" lon="2.04096">
        <ele>79.6</ele>
        <time>2022-02-06T08:34:22Z</time>
      </trkpt>
      <trkpt lat="48.70418" lon="2.04105">
        <ele>79</ele>
        <time>2022-02-06T08:34:27Z</time>
      </trkpt>
      <trkpt lat="48.70416" lon="2.04113">
        <ele>78.4</ele>
        <time>2022-02-06T08:34:31Z</time>
      </trkpt>
      <trkpt lat="48.70415" lon="2.0412">
        <ele>79.3</ele>
        <time>2022-02-06T08:34:36Z</time>
      </trkpt>
      <trkpt lat="48.70414" lon="2.04128">
        <ele>80.7</ele>
        <time>2022-02-06T08:34:40Z</time>
      </trkpt>
      <trkpt lat="48.70413" lon="2.04137">
        <ele>81.3</ele>
        <time>2022-02-06T08:34:44Z</time>
      </trkpt>
      <trkpt lat="48.70411" lon="2.04145">
        <ele>82.3</ele>
        <time>2022-02-06T08:34:49Z</time>
      </trkpt>
      <trkpt lat="48.7041" lon="2.04154">
        <ele>83.8</ele>
        <time>2022-02-06T08:34:53Z</time>
      </trkpt>
      <trkpt lat="48.7041" lon="2.04162">
        <ele>83.8</ele>
        <time>2022-02-06T08:34:57Z</time>
      </trkpt>
      <trkpt lat="48.7041" lon="2.0417">
        <ele>84.1</ele>
        <time>2022-02-06T08:35:02Z</time>
      </trkpt>
      <trkpt lat="48.7041" lon="2.04179">
        <ele>85.6</ele>
        <time>2022-02-06T08:35:06Z</time>
      </trkpt>
      <trkpt lat="48.70409" lon="2.04186">
        <ele>85.9</ele>
        <time>2022-02-06T08:35:10Z</time>
      </trkpt>
      <trkpt lat="48.70408" lon="2.04195">
        <ele>85.1</ele>
        <time>2022-02-06T08:35:14Z</time>
      </trkpt>
      <trkpt lat="48.70408" lon="2.04203">
        <ele>84.6</ele>
        <time>2022-02-06T08:35:19Z</time>
      </trkpt>
      <trkpt lat="48.70407" lon="2.04212">
        <ele>84.7</ele>
        <time>2022-02-06T08:35:23Z</time>
      </trkpt>
      <trkpt lat="48.70406" lon="2.0422">
        <ele>84.5</ele>
        <time>2022-02-06T08:35:27Z</time>
      </trkpt>
      <trkpt lat="48.70405" lon="2.04228">
        <ele>84.8</ele>
        <time>2022-02-06T08:35:32Z</time>
      </trkpt>
      <trkpt lat="48.70407" lon="2.04234">
        <ele>83.5</ele>
        <time>2022-02-06T08:35:39Z</time>
      </trkpt>
      <trkpt lat="48.70404" lon="2.0424">
        <ele>82.5</ele>
        <time>2022-02-06T08:35:43Z</time>
      </trkpt>
      <trkpt lat="48.70399" lon="2.04235">
        <ele>80.8</ele>
        <time>2022-02-06T08:35:52Z</time>
      </trkpt>
      <trkpt lat="48.70399" lon="2.04228">
        <ele>80.4</ele>
        <time>2022-02-06T08:35:55Z</time>
      </trkpt>
      <trkpt lat="48.70396" lon="2.04235">
        <ele>77.4</ele>
        <time>2022-02-06T08:36:12Z</time>
      </trkpt>
      <trkpt lat="48.70395" lon="2.04243">
        <ele>77.2</ele>
        <time>2022-02-06T08:36:16Z</time>
      </trkpt>
      <trkpt lat="48.70395" lon="2.04251">
        <ele>77</ele>
        <time>2022-02-06T08:36:19Z</time>
      </trkpt>
      <trkpt lat="48.70392" lon="2.04259">
        <ele>77.1</ele>
        <time>2022-02-06T08:36:24Z</time>
      </trkpt>
      <trkpt lat="48.70389" lon="2.04264">
        <ele>77.3</ele>
        <time>2022-02-06T08:36:27Z</time>
      </trkpt>
      <trkpt lat="48.70385" lon="2.04271">
        <ele>77.4</ele>
        <time>2022-02-06T08:36:31Z</time>
      </trkpt>
      <trkpt lat="48.70382" lon="2.04276">
        <ele>77.2</ele>
        <time>2022-02-06T08:36:34Z</time>
      </trkpt>
      <trkpt lat="48.70377" lon="2.04279">
        <ele>77.1</ele>
        <time>2022-02-06T08:36:37Z</time>
      </trkpt>
      <trkpt lat="48.70372" lon="2.04283">
        <ele>77.5</ele>
        <time>2022-02-06T08:36:41Z</time>
      </trkpt>
      <trkpt lat="48.70368" lon="2.04286">
        <ele>77.5</ele>
        <time>2022-02-06T08:36:45Z</time>
      </trkpt>
      <trkpt lat="48.70363" lon="2.04289">
        <ele>76.8</ele>
        <time>2022-02-06T08:36:49Z</time>
      </trkpt>
      <trkpt lat="48.70359" lon="2.0429">
        <ele>76.3</ele>
        <time>2022-02-06T08:36:54Z</time>
      </trkpt>
      <trkpt lat="48.70354" lon="2.04293">
        <ele>79</ele>
        <time>2022-02-06T08:36:59Z</time>
      </trkpt>
      <trkpt lat="48.7035" lon="2.04297">
        <ele>80.1</ele>
        <time>2022-02-06T08:37:03Z</time>
      </trkpt>
      <trkpt lat="48.70346" lon="2.04302">
        <ele>80.3</ele>
        <time>2022-02-06T08:37:07Z</time>
      </trkpt>
      <trkpt lat="48.70342" lon="2.04307">
        <ele>80.8</ele>
        <time>2022-02-06T08:37:11Z</time>
      </trkpt>
      <trkpt lat="48.70341" lon="2.04314">
        <ele>81.4</ele>
        <time>2022-02-06T08:37:14Z</time>
      </trkpt>
      <trkpt lat="48.70338" lon="2.04321">
        <ele>81.9</ele>
        <time>2022-02-06T08:37:19Z</time>
      </trkpt>
      <trkpt lat="48.70336" lon="2.04329">
        <ele>83.1</ele>
        <time>2022-02-06T08:37:23Z</time>
      </trkpt>
      <trkpt lat="48.70336" lon="2.04337">
        <ele>84.5</ele>
        <time>2022-02-06T08:37:27Z</time>
      </trkpt>
      <trkpt lat="48.70336" lon="2.04345">
        <ele>85</ele>
        <time>2022-02-06T08:37:32Z</time>
      </trkpt>
      <trkpt lat="48.70334" lon="2.04352">
        <ele>84.7</ele>
        <time>2022-02-06T08:37:37Z</time>
      </trkpt>
      <trkpt lat="48.70329" lon="2.04346">
        <ele>84.2</ele>
        <time>2022-02-06T08:37:41Z</time>
      </trkpt>
      <trkpt lat="48.70325" lon="2.04333">
        <ele>83.9</ele>
        <time>2022-02-06T08:37:46Z</time>
      </trkpt>
      <trkpt lat="48.70323" lon="2.04325">
        <ele>84</ele>
        <time>2022-02-06T08:37:51Z</time>
      </trkpt>
      <trkpt lat="48.70322" lon="2.04317">
        <ele>84.2</ele>
        <time>2022-02-06T08:37:57Z</time>
      </trkpt>
      <trkpt lat="48.70322" lon="2.0431">
        <ele>84.8</ele>
        <time>2022-02-06T08:38:02Z</time>
      </trkpt>
      <trkpt lat="48.7032" lon="2.04303">
        <ele>85.2</ele>
        <time>2022-02-06T08:38:07Z</time>
      </trkpt>
      <trkpt lat="48.70319" lon="2.04295">
        <ele>85.2</ele>
        <time>2022-02-06T08:38:11Z</time>
      </trkpt>
      <trkpt lat="48.70316" lon="2.0429">
        <ele>84.9</ele>
        <time>2022-02-06T08:38:15Z</time>
      </trkpt>
      <trkpt lat="48.70313" lon="2.04284">
        <ele>84.4</ele>
        <time>2022-02-06T08:38:18Z</time>
      </trkpt>
      <trkpt lat="48.70313" lon="2.04277">
        <ele>83.9</ele>
        <time>2022-02-06T08:38:23Z</time>
      </trkpt>
      <trkpt lat="48.70313" lon="2.04268">
        <ele>84.9</ele>
        <time>2022-02-06T08:38:27Z</time>
      </trkpt>
      <trkpt lat="48.70313" lon="2.04261">
        <ele>85.5</ele>
        <time>2022-02-06T08:38:31Z</time>
      </trkpt>
      <trkpt lat="48.70311" lon="2.04254">
        <ele>85.8</ele>
        <time>2022-02-06T08:38:35Z</time>
      </trkpt>
      <trkpt lat="48.7031" lon="2.04245">
        <ele>85.8</ele>
        <time>2022-02-06T08:38:40Z</time>
      </trkpt>
      <trkpt lat="48.70307" lon="2.04237">
        <ele>85.9</ele>
        <time>2022-02-06T08:38:44Z</time>
      </trkpt>
      <trkpt lat="48.70305" lon="2.0423">
        <ele>86.3</ele>
        <time>2022-02-06T08:38:48Z</time>
      </trkpt>
      <trkpt lat="48.70304" lon="2.04222">
        <ele>86.1</ele>
        <time>2022-02-06T08:38:53Z</time>
      </trkpt>
      <trkpt lat="48.70304" lon="2.04214">
        <ele>85.5</ele>
        <time>2022-02-06T08:38:57Z</time>
      </trkpt>
      <trkpt lat="48.70307" lon="2.04208">
        <ele>85.3</ele>
        <time>2022-02-06T08:39:02Z</time>
      </trkpt>
      <trkpt lat="48.70306" lon="2.04201">
        <ele>85.6</ele>
        <time>2022-02-06T08:39:05Z</time>
      </trkpt>
      <trkpt lat="48.70303" lon="2.04194">
        <ele>86.4</ele>
        <time>2022-02-06T08:39:08Z</time>
      </trkpt>
      <trkpt lat="48.70301" lon="2.04188">
        <ele>87.2</ele>
        <time>2022-02-06T08:39:11Z</time>
      </trkpt>
      <trkpt lat="48.703" lon="2.04181">
        <ele>87.8</ele>
        <time>2022-02-06T08:39:14Z</time>
      </trkpt>
      <trkpt lat="48.70296" lon="2.04174">
        <ele>87.9</ele>
        <time>2022-02-06T08:39:18Z</time>
      </trkpt>
      <trkpt lat="48.70293" lon="2.04167">
        <ele>87.9</ele>
        <time>2022-02-06T08:39:23Z</time>
      </trkpt>
      <trkpt lat="48.70292" lon="2.0416">
        <ele>87.7</ele>
        <time>2022-02-06T08:39:26Z</time>
      </trkpt>
      <trkpt lat="48.70292" lon="2.04153">
        <ele>87.9</ele>
        <time>2022-02-06T08:39:29Z</time>
      </trkpt>
      <trkpt lat="48.70292" lon="2.04145">
        <ele>88.4</ele>
        <time>2022-02-06T08:39:34Z</time>
      </trkpt>
      <trkpt lat="48.70291" lon="2.04136">
        <ele>89.4</ele>
        <time>2022-02-06T08:39:38Z</time>
      </trkpt>
      <trkpt lat="48.70289" lon="2.04127">
        <ele>90.2</ele>
        <time>2022-02-06T08:39:42Z</time>
      </trkpt>
      <trkpt lat="48.70288" lon="2.04119">
        <ele>90.8</ele>
        <time>2022-02-06T08:39:47Z</time>
      </trkpt>
      <trkpt lat="48.70287" lon="2.04111">
        <ele>91.4</ele>
        <time>2022-02-06T08:39:51Z</time>
      </trkpt>
      <trkpt lat="48.70286" lon="2.04103">
        <ele>91.7</ele>
        <time>2022-02-06T08:39:55Z</time>
      </trkpt>
      <trkpt lat="48.70285" lon="2.04096">
        <ele>92</ele>
        <time>2022-02-06T08:39:58Z</time>
      </trkpt>
      <trkpt lat="48.70284" lon="2.04089">
        <ele>92.5</ele>
        <time>2022-02-06T08:40:02Z</time>
      </trkpt>
      <trkpt lat="48.70282" lon="2.04081">
        <ele>93</ele>
        <time>2022-02-06T08:40:06Z</time>
      </trkpt>
      <trkpt lat="48.70281" lon="2.04073">
        <ele>93.3</ele>
        <time>2022-02-06T08:40:10Z</time>
      </trkpt>
      <trkpt lat="48.70279" lon="2.04065">
        <ele>93.7</ele>
        <time>2022-02-06T08:40:14Z</time>
      </trkpt>
      <trkpt lat="48.70277" lon="2.04058">
        <ele>94</ele>
        <time>2022-02-06T08:40:19Z</time>
      </trkpt>
      <trkpt lat="48.70276" lon="2.0405">
        <ele>94.1</ele>
        <time>2022-02-06T08:40:23Z</time>
      </trkpt>
      <trkpt lat="48.70276" lon="2.04041">
        <ele>94.1</ele>
        <time>2022-02-06T08:40:28Z</time>
      </trkpt>
      <trkpt lat="48.70274" lon="2.04035">
        <ele>93.6</ele>
        <time>2022-02-06T08:40:33Z</time>
      </trkpt>
      <trkpt lat="48.70268" lon="2.04037">
        <ele>92.7</ele>
        <time>2022-02-06T08:40:49Z</time>
      </trkpt>
      <trkpt lat="48.70263" lon="2.04037">
        <ele>90.6</ele>
        <time>2022-02-06T08:43:19Z</time>
      </trkpt>
      <trkpt lat="48.70258" lon="2.04035">
        <ele>90.8</ele>
        <time>2022-02-06T08:43:24Z</time>
      </trkpt>
      <trkpt lat="48.70253" lon="2.04037">
        <ele>90.6</ele>
        <time>2022-02-06T08:43:27Z</time>
      </trkpt>
      <trkpt lat="48.70248" lon="2.04041">
        <ele>90.6</ele>
        <time>2022-02-06T08:43:32Z</time>
      </trkpt>
      <trkpt lat="48.70244" lon="2.04043">
        <ele>90.7</ele>
        <time>2022-02-06T08:43:35Z</time>
      </trkpt>
      <trkpt lat="48.70238" lon="2.04046">
        <ele>91.1</ele>
        <time>2022-02-06T08:43:39Z</time>
      </trkpt>
      <trkpt lat="48.70233" lon="2.04047">
        <ele>91.1</ele>
        <time>2022-02-06T08:43:44Z</time>
      </trkpt>
      <trkpt lat="48.70228" lon="2.04049">
        <ele>91</ele>
        <time>2022-02-06T08:43:48Z</time>
      </trkpt>
      <trkpt lat="48.70222" lon="2.0405">
        <ele>91.3</ele>
        <time>2022-02-06T08:43:52Z</time>
      </trkpt>
      <trkpt lat="48.70217" lon="2.04051">
        <ele>91.8</ele>
        <time>2022-02-06T08:43:57Z</time>
      </trkpt>
      <trkpt lat="48.70211" lon="2.04052">
        <ele>92.6</ele>
        <time>2022-02-06T08:44:02Z</time>
      </trkpt>
      <trkpt lat="48.70206" lon="2.04055">
        <ele>93.3</ele>
        <time>2022-02-06T08:44:06Z</time>
      </trkpt>
      <trkpt lat="48.70201" lon="2.04057">
        <ele>93.8</ele>
        <time>2022-02-06T08:44:11Z</time>
      </trkpt>
      <trkpt lat="48.70196" lon="2.04059">
        <ele>94.1</ele>
        <time>2022-02-06T08:44:15Z</time>
      </trkpt>
      <trkpt lat="48.70191" lon="2.04061">
        <ele>94.6</ele>
        <time>2022-02-06T08:44:20Z</time>
      </trkpt>
      <trkpt lat="48.70186" lon="2.04062">
        <ele>95.6</ele>
        <time>2022-02-06T08:44:24Z</time>
      </trkpt>
      <trkpt lat="48.7018" lon="2.04064">
        <ele>96.1</ele>
        <time>2022-02-06T08:44:28Z</time>
      </trkpt>
      <trkpt lat="48.70175" lon="2.04066">
        <ele>95.7</ele>
        <time>2022-02-06T08:44:33Z</time>
      </trkpt>
      <trkpt lat="48.7017" lon="2.04068">
        <ele>95.3</ele>
        <time>2022-02-06T08:44:37Z</time>
      </trkpt>
      <trkpt lat="48.70165" lon="2.04071">
        <ele>95.3</ele>
        <time>2022-02-06T08:44:42Z</time>
      </trkpt>
      <trkpt lat="48.70159" lon="2.04072">
        <ele>96.2</ele>
        <time>2022-02-06T08:44:46Z</time>
      </trkpt>
      <trkpt lat="48.70154" lon="2.04073">
        <ele>97.3</ele>
        <time>2022-02-06T08:44:51Z</time>
      </trkpt>
      <trkpt lat="48.70149" lon="2.04073">
        <ele>98.1</ele>
        <time>2022-02-06T08:44:55Z</time>
      </trkpt>
      <trkpt lat="48.70144" lon="2.04075">
        <ele>99.3</ele>
        <time>2022-02-06T08:44:59Z</time>
      </trkpt>
      <trkpt lat="48.70139" lon="2.04075">
        <ele>100.5</ele>
        <time>2022-02-06T08:45:04Z</time>
      </trkpt>
      <trkpt lat="48.70134" lon="2.04076">
        <ele>101.1</ele>
        <time>2022-02-06T08:45:08Z</time>
      </trkpt>
      <trkpt lat="48.70129" lon="2.04079">
        <ele>101.3</ele>
        <time>2022-02-06T08:45:12Z</time>
      </trkpt>
      <trkpt lat="48.70123" lon="2.0408">
        <ele>101.3</ele>
        <time>2022-02-06T08:45:17Z</time>
      </trkpt>
      <trkpt lat="48.70118" lon="2.04081">
        <ele>101.7</ele>
        <time>2022-02-06T08:45:21Z</time>
      </trkpt>
      <trkpt lat="48.70112" lon="2.04082">
        <ele>102.6</ele>
        <time>2022-02-06T08:45:25Z</time>
      </trkpt>
      <trkpt lat="48.70107" lon="2.04082">
        <ele>103.7</ele>
        <time>2022-02-06T08:45:29Z</time>
      </trkpt>
      <trkpt lat="48.70102" lon="2.04084">
        <ele>104.9</ele>
        <time>2022-02-06T08:45:34Z</time>
      </trkpt>
      <trkpt lat="48.70096" lon="2.04086">
        <ele>105.9</ele>
        <time>2022-02-06T08:45:38Z</time>
      </trkpt>
      <trkpt lat="48.7009" lon="2.04088">
        <ele>107.5</ele>
        <time>2022-02-06T08:45:42Z</time>
      </trkpt>
      <trkpt lat="48.70085" lon="2.04088">
        <ele>108.4</ele>
        <time>2022-02-06T08:45:47Z</time>
      </trkpt>
      <trkpt lat="48.7008" lon="2.04087">
        <ele>108.4</ele>
        <time>2022-02-06T08:45:50Z</time>
      </trkpt>
      <trkpt lat="48.70075" lon="2.04085">
        <ele>107.7</ele>
        <time>2022-02-06T08:45:54Z</time>
      </trkpt>
      <trkpt lat="48.70069" lon="2.04083">
        <ele>106.9</ele>
        <time>2022-02-06T08:45:59Z</time>
      </trkpt>
      <trkpt lat="48.70065" lon="2.04082">
        <ele>106.2</ele>
        <time>2022-02-06T08:46:02Z</time>
      </trkpt>
      <trkpt lat="48.70059" lon="2.04081">
        <ele>106.3</ele>
        <time>2022-02-06T08:46:06Z</time>
      </trkpt>
      <trkpt lat="48.70054" lon="2.04079">
        <ele>107</ele>
        <time>2022-02-06T08:46:11Z</time>
      </trkpt>
      <trkpt lat="48.70049" lon="2.04074">
        <ele>109</ele>
        <time>2022-02-06T08:46:15Z</time>
      </trkpt>
      <trkpt lat="48.70044" lon="2.04073">
        <ele>111.1</ele>
        <time>2022-02-06T08:46:20Z</time>
      </trkpt>
      <trkpt lat="48.70039" lon="2.04072">
        <ele>112.5</ele>
        <time>2022-02-06T08:46:24Z</time>
      </trkpt>
      <trkpt lat="48.70035" lon="2.0407">
        <ele>115.4</ele>
        <time>2022-02-06T08:46:29Z</time>
      </trkpt>
      <trkpt lat="48.7003" lon="2.04068">
        <ele>118.1</ele>
        <time>2022-02-06T08:46:34Z</time>
      </trkpt>
      <trkpt lat="48.70025" lon="2.0407">
        <ele>117.8</ele>
        <time>2022-02-06T08:46:39Z</time>
      </trkpt>
      <trkpt lat="48.7002" lon="2.0407">
        <ele>117.8</ele>
        <time>2022-02-06T08:46:43Z</time>
      </trkpt>
      <trkpt lat="48.70016" lon="2.04068">
        <ele>119.7</ele>
        <time>2022-02-06T08:46:48Z</time>
      </trkpt>
      <trkpt lat="48.70011" lon="2.04065">
        <ele>123.1</ele>
        <time>2022-02-06T08:46:53Z</time>
      </trkpt>
      <trkpt lat="48.70006" lon="2.04064">
        <ele>126</ele>
        <time>2022-02-06T08:46:58Z</time>
      </trkpt>
      <trkpt lat="48.70002" lon="2.0406">
        <ele>128.1</ele>
        <time>2022-02-06T08:47:02Z</time>
      </trkpt>
      <trkpt lat="48.69997" lon="2.04058">
        <ele>128.9</ele>
        <time>2022-02-06T08:47:07Z</time>
      </trkpt>
      <trkpt lat="48.69992" lon="2.0406">
        <ele>130</ele>
        <time>2022-02-06T08:47:11Z</time>
      </trkpt>
      <trkpt lat="48.69987" lon="2.04062">
        <ele>131.1</ele>
        <time>2022-02-06T08:47:15Z</time>
      </trkpt>
      <trkpt lat="48.69982" lon="2.04064">
        <ele>131.8</ele>
        <time>2022-02-06T08:47:21Z</time>
      </trkpt>
      <trkpt lat="48.69977" lon="2.04066">
        <ele>132.4</ele>
        <time>2022-02-06T08:47:26Z</time>
      </trkpt>
      <trkpt lat="48.69976" lon="2.04058">
        <ele>130.5</ele>
        <time>2022-02-06T08:47:43Z</time>
      </trkpt>
      <trkpt lat="48.69974" lon="2.04052">
        <ele>129.1</ele>
        <time>2022-02-06T08:47:50Z</time>
      </trkpt>
      <trkpt lat="48.69973" lon="2.04045">
        <ele>129.3</ele>
        <time>2022-02-06T08:47:56Z</time>
      </trkpt>
      <trkpt lat="48.69968" lon="2.04042">
        <ele>129.6</ele>
        <time>2022-02-06T08:48:08Z</time>
      </trkpt>
      <trkpt lat="48.69964" lon="2.04036">
        <ele>129.8</ele>
        <time>2022-02-06T08:48:15Z</time>
      </trkpt>
      <trkpt lat="48.6996" lon="2.04032">
        <ele>130.8</ele>
        <time>2022-02-06T08:48:20Z</time>
      </trkpt>
      <trkpt lat="48.69955" lon="2.04029">
        <ele>132.4</ele>
        <time>2022-02-06T08:48:27Z</time>
      </trkpt>
      <trkpt lat="48.69951" lon="2.04032">
        <ele>133.3</ele>
        <time>2022-02-06T08:48:37Z</time>
      </trkpt>
      <trkpt lat="48.69948" lon="2.04027">
        <ele>133.8</ele>
        <time>2022-02-06T08:48:41Z</time>
      </trkpt>
      <trkpt lat="48.69943" lon="2.0403">
        <ele>136.6</ele>
        <time>2022-02-06T08:48:48Z</time>
      </trkpt>
      <trkpt lat="48.69938" lon="2.04031">
        <ele>138.6</ele>
        <time>2022-02-06T08:48:54Z</time>
      </trkpt>
      <trkpt lat="48.69934" lon="2.04026">
        <ele>139.1</ele>
        <time>2022-02-06T08:49:00Z</time>
      </trkpt>
      <trkpt lat="48.69929" lon="2.04023">
        <ele>137.3</ele>
        <time>2022-02-06T08:49:08Z</time>
      </trkpt>
      <trkpt lat="48.69924" lon="2.04021">
        <ele>136.1</ele>
        <time>2022-02-06T08:49:12Z</time>
      </trkpt>
      <trkpt lat="48.6992" lon="2.04018">
        <ele>135.4</ele>
        <time>2022-02-06T08:49:15Z</time>
      </trkpt>
      <trkpt lat="48.69916" lon="2.04012">
        <ele>135</ele>
        <time>2022-02-06T08:49:20Z</time>
      </trkpt>
      <trkpt lat="48.69912" lon="2.04007">
        <ele>134.7</ele>
        <time>2022-02-06T08:49:24Z</time>
      </trkpt>
      <trkpt lat="48.69908" lon="2.04003">
        <ele>134.4</ele>
        <time>2022-02-06T08:49:29Z</time>
      </trkpt>
      <trkpt lat="48.69904" lon="2.03997">
        <ele>135.1</ele>
        <time>2022-02-06T08:49:34Z</time>
      </trkpt>
      <trkpt lat="48.699" lon="2.03992">
        <ele>136</ele>
        <time>2022-02-06T08:49:38Z</time>
      </trkpt>
      <trkpt lat="48.69896" lon="2.03987">
        <ele>136.8</ele>
        <time>2022-02-06T08:49:43Z</time>
      </trkpt>
      <trkpt lat="48.69896" lon="2.03981">
        <ele>137.3</ele>
        <time>2022-02-06T08:49:54Z</time>
      </trkpt>
      <trkpt lat="48.69889" lon="2.03983">
        <ele>135.5</ele>
        <time>2022-02-06T08:50:01Z</time>
      </trkpt>
      <trkpt lat="48.69884" lon="2.03982">
        <ele>134.5</ele>
        <time>2022-02-06T08:50:06Z</time>
      </trkpt>
      <trkpt lat="48.69879" lon="2.03982">
        <ele>134.6</ele>
        <time>2022-02-06T08:50:12Z</time>
      </trkpt>
      <trkpt lat="48.69874" lon="2.03981">
        <ele>135.7</ele>
        <time>2022-02-06T08:50:18Z</time>
      </trkpt>
      <trkpt lat="48.6987" lon="2.03979">
        <ele>136.5</ele>
        <time>2022-02-06T08:50:25Z</time>
      </trkpt>
      <trkpt lat="48.69864" lon="2.03977">
        <ele>136.6</ele>
        <time>2022-02-06T08:50:30Z</time>
      </trkpt>
      <trkpt lat="48.6986" lon="2.03974">
        <ele>137.1</ele>
        <time>2022-02-06T08:50:35Z</time>
      </trkpt>
      <trkpt lat="48.69855" lon="2.03972">
        <ele>138.4</ele>
        <time>2022-02-06T08:50:40Z</time>
      </trkpt>
      <trkpt lat="48.69851" lon="2.03968">
        <ele>140.9</ele>
        <time>2022-02-06T08:50:46Z</time>
      </trkpt>
      <trkpt lat="48.69847" lon="2.03965">
        <ele>142.4</ele>
        <time>2022-02-06T08:50:50Z</time>
      </trkpt>
      <trkpt lat="48.69842" lon="2.03961">
        <ele>145.6</ele>
        <time>2022-02-06T08:50:56Z</time>
      </trkpt>
      <trkpt lat="48.69838" lon="2.03957">
        <ele>148.2</ele>
        <time>2022-02-06T08:51:02Z</time>
      </trkpt>
      <trkpt lat="48.69833" lon="2.03954">
        <ele>148.6</ele>
        <time>2022-02-06T08:51:08Z</time>
      </trkpt>
      <trkpt lat="48.69827" lon="2.03952">
        <ele>148.7</ele>
        <time>2022-02-06T08:51:14Z</time>
      </trkpt>
      <trkpt lat="48.69823" lon="2.03949">
        <ele>149.2</ele>
        <time>2022-02-06T08:51:18Z</time>
      </trkpt>
      <trkpt lat="48.69818" lon="2.03947">
        <ele>150.3</ele>
        <time>2022-02-06T08:51:24Z</time>
      </trkpt>
      <trkpt lat="48.69813" lon="2.03944">
        <ele>150.4</ele>
        <time>2022-02-06T08:51:30Z</time>
      </trkpt>
      <trkpt lat="48.69809" lon="2.03941">
        <ele>151.5</ele>
        <time>2022-02-06T08:51:35Z</time>
      </trkpt>
      <trkpt lat="48.69805" lon="2.03937">
        <ele>155.6</ele>
        <time>2022-02-06T08:51:40Z</time>
      </trkpt>
      <trkpt lat="48.69802" lon="2.03932">
        <ele>157.2</ele>
        <time>2022-02-06T08:51:45Z</time>
      </trkpt>
      <trkpt lat="48.69798" lon="2.03928">
        <ele>156.9</ele>
        <time>2022-02-06T08:51:50Z</time>
      </trkpt>
      <trkpt lat="48.69793" lon="2.03926">
        <ele>156.9</ele>
        <time>2022-02-06T08:51:54Z</time>
      </trkpt>
      <trkpt lat="48.69788" lon="2.03922">
        <ele>157.4</ele>
        <time>2022-02-06T08:51:59Z</time>
      </trkpt>
      <trkpt lat="48.69783" lon="2.03917">
        <ele>158.5</ele>
        <time>2022-02-06T08:52:03Z</time>
      </trkpt>
      <trkpt lat="48.69779" lon="2.03913">
        <ele>160.1</ele>
        <time>2022-02-06T08:52:06Z</time>
      </trkpt>
      <trkpt lat="48.69775" lon="2.0391">
        <ele>161.4</ele>
        <time>2022-02-06T08:52:09Z</time>
      </trkpt>
      <trkpt lat="48.69771" lon="2.03906">
        <ele>161.9</ele>
        <time>2022-02-06T08:52:13Z</time>
      </trkpt>
      <trkpt lat="48.69767" lon="2.03903">
        <ele>162.1</ele>
        <time>2022-02-06T08:52:16Z</time>
      </trkpt>
      <trkpt lat="48.69762" lon="2.03899">
        <ele>161.9</ele>
        <time>2022-02-06T08:52:20Z</time>
      </trkpt>
      <trkpt lat="48.69757" lon="2.03896">
        <ele>161.2</ele>
        <time>2022-02-06T08:52:25Z</time>
      </trkpt>
      <trkpt lat="48.69753" lon="2.03895">
        <ele>161.4</ele>
        <time>2022-02-06T08:52:30Z</time>
      </trkpt>
      <trkpt lat="48.69747" lon="2.03894">
        <ele>161.1</ele>
        <time>2022-02-06T08:52:35Z</time>
      </trkpt>
      <trkpt lat="48.69742" lon="2.03894">
        <ele>161.2</ele>
        <time>2022-02-06T08:52:41Z</time>
      </trkpt>
      <trkpt lat="48.69737" lon="2.03892">
        <ele>162.9</ele>
        <time>2022-02-06T08:52:47Z</time>
      </trkpt>
      <trkpt lat="48.69732" lon="2.03888">
        <ele>164.4</ele>
        <time>2022-02-06T08:52:51Z</time>
      </trkpt>
      <trkpt lat="48.69728" lon="2.03884">
        <ele>165.3</ele>
        <time>2022-02-06T08:52:56Z</time>
      </trkpt>
      <trkpt lat="48.69724" lon="2.0388">
        <ele>165.1</ele>
        <time>2022-02-06T08:53:00Z</time>
      </trkpt>
      <trkpt lat="48.69719" lon="2.03877">
        <ele>165</ele>
        <time>2022-02-06T08:53:03Z</time>
      </trkpt>
      <trkpt lat="48.69715" lon="2.03873">
        <ele>164</ele>
        <time>2022-02-06T08:53:07Z</time>
      </trkpt>
      <trkpt lat="48.6971" lon="2.0387">
        <ele>163</ele>
        <time>2022-02-06T08:53:12Z</time>
      </trkpt>
      <trkpt lat="48.69706" lon="2.03867">
        <ele>163.1</ele>
        <time>2022-02-06T08:53:16Z</time>
      </trkpt>
      <trkpt lat="48.697" lon="2.03863">
        <ele>164.5</ele>
        <time>2022-02-06T08:53:20Z</time>
      </trkpt>
      <trkpt lat="48.69695" lon="2.0386">
        <ele>165.8</ele>
        <time>2022-02-06T08:53:24Z</time>
      </trkpt>
      <trkpt lat="48.6969" lon="2.03856">
        <ele>166</ele>
        <time>2022-02-06T08:53:29Z</time>
      </trkpt>
      <trkpt lat="48.69686" lon="2.03852">
        <ele>166.3</ele>
        <time>2022-02-06T08:53:33Z</time>
      </trkpt>
      <trkpt lat="48.69682" lon="2.03849">
        <ele>166.1</ele>
        <time>2022-02-06T08:53:37Z</time>
      </trkpt>
      <trkpt lat="48.69677" lon="2.03845">
        <ele>166</ele>
        <time>2022-02-06T08:53:40Z</time>
      </trkpt>
      <trkpt lat="48.69673" lon="2.03841">
        <ele>166.3</ele>
        <time>2022-02-06T08:53:44Z</time>
      </trkpt>
      <trkpt lat="48.69668" lon="2.03837">
        <ele>167.9</ele>
        <time>2022-02-06T08:53:48Z</time>
      </trkpt>
      <trkpt lat="48.69665" lon="2.03833">
        <ele>168.9</ele>
        <time>2022-02-06T08:53:51Z</time>
      </trkpt>
      <trkpt lat="48.6966" lon="2.03829">
        <ele>170.4</ele>
        <time>2022-02-06T08:53:55Z</time>
      </trkpt>
      <trkpt lat="48.69655" lon="2.03826">
        <ele>171.6</ele>
        <time>2022-02-06T08:54:00Z</time>
      </trkpt>
      <trkpt lat="48.69649" lon="2.03824">
        <ele>172</ele>
        <time>2022-02-06T08:54:03Z</time>
      </trkpt>
      <trkpt lat="48.69645" lon="2.0382">
        <ele>172.5</ele>
        <time>2022-02-06T08:54:07Z</time>
      </trkpt>
      <trkpt lat="48.69639" lon="2.03817">
        <ele>172.9</ele>
        <time>2022-02-06T08:54:12Z</time>
      </trkpt>
      <trkpt lat="48.69634" lon="2.03815">
        <ele>172</ele>
        <time>2022-02-06T08:54:15Z</time>
      </trkpt>
      <trkpt lat="48.69629" lon="2.03814">
        <ele>170.2</ele>
        <time>2022-02-06T08:54:19Z</time>
      </trkpt>
      <trkpt lat="48.69625" lon="2.03812">
        <ele>168.6</ele>
        <time>2022-02-06T08:54:22Z</time>
      </trkpt>
      <trkpt lat="48.6962" lon="2.03809">
        <ele>168</ele>
        <time>2022-02-06T08:54:26Z</time>
      </trkpt>
      <trkpt lat="48.69615" lon="2.03807">
        <ele>167.9</ele>
        <time>2022-02-06T08:54:29Z</time>
      </trkpt>
      <trkpt lat="48.69609" lon="2.03804">
        <ele>167.8</ele>
        <time>2022-02-06T08:54:33Z</time>
      </trkpt>
      <trkpt lat="48.69604" lon="2.03801">
        <ele>167.8</ele>
        <time>2022-02-06T08:54:37Z</time>
      </trkpt>
      <trkpt lat="48.69599" lon="2.03799">
        <ele>168</ele>
        <time>2022-02-06T08:54:41Z</time>
      </trkpt>
      <trkpt lat="48.69594" lon="2.03796">
        <ele>168.3</ele>
        <time>2022-02-06T08:54:45Z</time>
      </trkpt>
      <trkpt lat="48.69589" lon="2.03794">
        <ele>167.9</ele>
        <time>2022-02-06T08:54:49Z</time>
      </trkpt>
      <trkpt lat="48.69585" lon="2.03792">
        <ele>167.8</ele>
        <time>2022-02-06T08:54:52Z</time>
      </trkpt>
      <trkpt lat="48.6958" lon="2.03789">
        <ele>168.1</ele>
        <time>2022-02-06T08:54:57Z</time>
      </trkpt>
      <trkpt lat="48.69576" lon="2.03785">
        <ele>168.4</ele>
        <time>2022-02-06T08:55:00Z</time>
      </trkpt>
      <trkpt lat="48.69571" lon="2.0378">
        <ele>168.8</ele>
        <time>2022-02-06T08:55:03Z</time>
      </trkpt>
      <trkpt lat="48.69566" lon="2.03775">
        <ele>169.4</ele>
        <time>2022-02-06T08:55:07Z</time>
      </trkpt>
      <trkpt lat="48.69562" lon="2.03771">
        <ele>169.7</ele>
        <time>2022-02-06T08:55:11Z</time>
      </trkpt>
      <trkpt lat="48.69558" lon="2.03767">
        <ele>170.6</ele>
        <time>2022-02-06T08:55:14Z</time>
      </trkpt>
      <trkpt lat="48.69554" lon="2.03763">
        <ele>170.9</ele>
        <time>2022-02-06T08:55:18Z</time>
      </trkpt>
      <trkpt lat="48.69549" lon="2.03759">
        <ele>171.9</ele>
        <time>2022-02-06T08:55:21Z</time>
      </trkpt>
      <trkpt lat="48.69544" lon="2.03755">
        <ele>172.1</ele>
        <time>2022-02-06T08:55:25Z</time>
      </trkpt>
      <trkpt lat="48.69539" lon="2.03752">
        <ele>172.3</ele>
        <time>2022-02-06T08:55:29Z</time>
      </trkpt>
      <trkpt lat="48.69534" lon="2.0375">
        <ele>172.3</ele>
        <time>2022-02-06T08:55:32Z</time>
      </trkpt>
      <trkpt lat="48.69529" lon="2.03747">
        <ele>172.5</ele>
        <time>2022-02-06T08:55:36Z</time>
      </trkpt>
      <trkpt lat="48.69521" lon="2.03741">
        <ele>174.9</ele>
        <time>2022-02-06T08:55:43Z</time>
      </trkpt>
      <trkpt lat="48.69517" lon="2.03738">
        <ele>174.8</ele>
        <time>2022-02-06T08:55:47Z</time>
      </trkpt>
      <trkpt lat="48.69512" lon="2.03734">
        <ele>174.1</ele>
        <time>2022-02-06T08:55:50Z</time>
      </trkpt>
      <trkpt lat="48.69507" lon="2.0373">
        <ele>172.7</ele>
        <time>2022-02-06T08:55:54Z</time>
      </trkpt>
      <trkpt lat="48.69502" lon="2.03728">
        <ele>171.3</ele>
        <time>2022-02-06T08:55:58Z</time>
      </trkpt>
      <trkpt lat="48.69497" lon="2.03725">
        <ele>171.4</ele>
        <time>2022-02-06T08:56:02Z</time>
      </trkpt>
      <trkpt lat="48.69491" lon="2.0372">
        <ele>171.8</ele>
        <time>2022-02-06T08:56:08Z</time>
      </trkpt>
      <trkpt lat="48.69486" lon="2.03717">
        <ele>171.9</ele>
        <time>2022-02-06T08:56:11Z</time>
      </trkpt>
      <trkpt lat="48.6948" lon="2.03714">
        <ele>172</ele>
        <time>2022-02-06T08:56:15Z</time>
      </trkpt>
      <trkpt lat="48.69473" lon="2.0371">
        <ele>173.6</ele>
        <time>2022-02-06T08:56:22Z</time>
      </trkpt>
      <trkpt lat="48.69463" lon="2.03704">
        <ele>175.6</ele>
        <time>2022-02-06T08:56:29Z</time>
      </trkpt>
      <trkpt lat="48.69459" lon="2.03702">
        <ele>175.2</ele>
        <time>2022-02-06T08:56:33Z</time>
      </trkpt>
      <trkpt lat="48.69454" lon="2.037">
        <ele>173.3</ele>
        <time>2022-02-06T08:56:36Z</time>
      </trkpt>
      <trkpt lat="48.69449" lon="2.03696">
        <ele>169.6</ele>
        <time>2022-02-06T08:56:40Z</time>
      </trkpt>
      <trkpt lat="48.69445" lon="2.03692">
        <ele>165.2</ele>
        <time>2022-02-06T08:56:44Z</time>
      </trkpt>
      <trkpt lat="48.6944" lon="2.03686">
        <ele>162</ele>
        <time>2022-02-06T08:56:48Z</time>
      </trkpt>
      <trkpt lat="48.69436" lon="2.03683">
        <ele>161.6</ele>
        <time>2022-02-06T08:56:52Z</time>
      </trkpt>
      <trkpt lat="48.69431" lon="2.03679">
        <ele>161.5</ele>
        <time>2022-02-06T08:56:56Z</time>
      </trkpt>
      <trkpt lat="48.69425" lon="2.03674">
        <ele>161.2</ele>
        <time>2022-02-06T08:57:01Z</time>
      </trkpt>
      <trkpt lat="48.6942" lon="2.03672">
        <ele>161.2</ele>
        <time>2022-02-06T08:57:05Z</time>
      </trkpt>
      <trkpt lat="48.69415" lon="2.03669">
        <ele>161.8</ele>
        <time>2022-02-06T08:57:12Z</time>
      </trkpt>
      <trkpt lat="48.69411" lon="2.03664">
        <ele>160.8</ele>
        <time>2022-02-06T08:57:21Z</time>
      </trkpt>
      <trkpt lat="48.69407" lon="2.03661">
        <ele>161.4</ele>
        <time>2022-02-06T08:57:24Z</time>
      </trkpt>
      <trkpt lat="48.69402" lon="2.03657">
        <ele>162.7</ele>
        <time>2022-02-06T08:57:28Z</time>
      </trkpt>
      <trkpt lat="48.69397" lon="2.03655">
        <ele>163.3</ele>
        <time>2022-02-06T08:57:31Z</time>
      </trkpt>
      <trkpt lat="48.69392" lon="2.03653">
        <ele>163.3</ele>
        <time>2022-02-06T08:57:34Z</time>
      </trkpt>
      <trkpt lat="48.69387" lon="2.03651">
        <ele>162.7</ele>
        <time>2022-02-06T08:57:37Z</time>
      </trkpt>
      <trkpt lat="48.69382" lon="2.03649">
        <ele>162.8</ele>
        <time>2022-02-06T08:57:41Z</time>
      </trkpt>
      <trkpt lat="48.69378" lon="2.03646">
        <ele>162.8</ele>
        <time>2022-02-06T08:57:43Z</time>
      </trkpt>
      <trkpt lat="48.69374" lon="2.03644">
        <ele>162.7</ele>
        <time>2022-02-06T08:57:47Z</time>
      </trkpt>
      <trkpt lat="48.69369" lon="2.03642">
        <ele>161.7</ele>
        <time>2022-02-06T08:57:50Z</time>
      </trkpt>
      <trkpt lat="48.69364" lon="2.0364">
        <ele>160.6</ele>
        <time>2022-02-06T08:57:53Z</time>
      </trkpt>
      <trkpt lat="48.69359" lon="2.03637">
        <ele>159.7</ele>
        <time>2022-02-06T08:57:57Z</time>
      </trkpt>
      <trkpt lat="48.69346" lon="2.03627">
        <ele>160.6</ele>
        <time>2022-02-06T08:58:09Z</time>
      </trkpt>
      <trkpt lat="48.69341" lon="2.03625">
        <ele>159.8</ele>
        <time>2022-02-06T08:58:12Z</time>
      </trkpt>
      <trkpt lat="48.69336" lon="2.03624">
        <ele>159.2</ele>
        <time>2022-02-06T08:58:15Z</time>
      </trkpt>
      <trkpt lat="48.69332" lon="2.03622">
        <ele>159.2</ele>
        <time>2022-02-06T08:58:18Z</time>
      </trkpt>
      <trkpt lat="48.69326" lon="2.03619">
        <ele>159.3</ele>
        <time>2022-02-06T08:58:23Z</time>
      </trkpt>
      <trkpt lat="48.69321" lon="2.03615">
        <ele>159.3</ele>
        <time>2022-02-06T08:58:27Z</time>
      </trkpt>
      <trkpt lat="48.69308" lon="2.036">
        <ele>155.6</ele>
        <time>2022-02-06T08:58:40Z</time>
      </trkpt>
      <trkpt lat="48.69304" lon="2.03597">
        <ele>152.7</ele>
        <time>2022-02-06T08:58:43Z</time>
      </trkpt>
      <trkpt lat="48.69288" lon="2.03577">
        <ele>152</ele>
        <time>2022-02-06T08:58:57Z</time>
      </trkpt>
      <trkpt lat="48.69277" lon="2.03571">
        <ele>152.2</ele>
        <time>2022-02-06T08:59:05Z</time>
      </trkpt>
      <trkpt lat="48.69273" lon="2.03568">
        <ele>152.3</ele>
        <time>2022-02-06T08:59:08Z</time>
      </trkpt>
      <trkpt lat="48.69269" lon="2.03566">
        <ele>152.3</ele>
        <time>2022-02-06T08:59:12Z</time>
      </trkpt>
      <trkpt lat="48.69264" lon="2.03564">
        <ele>151.6</ele>
        <time>2022-02-06T08:59:15Z</time>
      </trkpt>
      <trkpt lat="48.69258" lon="2.03562">
        <ele>150.7</ele>
        <time>2022-02-06T08:59:20Z</time>
      </trkpt>
      <trkpt lat="48.69253" lon="2.0356">
        <ele>149.9</ele>
        <time>2022-02-06T08:59:24Z</time>
      </trkpt>
      <trkpt lat="48.69247" lon="2.03557">
        <ele>149.1</ele>
        <time>2022-02-06T08:59:29Z</time>
      </trkpt>
      <trkpt lat="48.69243" lon="2.03554">
        <ele>148.2</ele>
        <time>2022-02-06T08:59:32Z</time>
      </trkpt>
      <trkpt lat="48.69238" lon="2.03552">
        <ele>146.4</ele>
        <time>2022-02-06T08:59:36Z</time>
      </trkpt>
      <trkpt lat="48.69233" lon="2.0355">
        <ele>145.9</ele>
        <time>2022-02-06T08:59:39Z</time>
      </trkpt>
      <trkpt lat="48.69228" lon="2.03546">
        <ele>146.5</ele>
        <time>2022-02-06T08:59:44Z</time>
      </trkpt>
      <trkpt lat="48.69223" lon="2.03542">
        <ele>148.4</ele>
        <time>2022-02-06T08:59:48Z</time>
      </trkpt>
      <trkpt lat="48.69219" lon="2.03539">
        <ele>149.1</ele>
        <time>2022-02-06T08:59:52Z</time>
      </trkpt>
      <trkpt lat="48.69215" lon="2.03536">
        <ele>148.8</ele>
        <time>2022-02-06T08:59:56Z</time>
      </trkpt>
      <trkpt lat="48.6921" lon="2.03535">
        <ele>149</ele>
        <time>2022-02-06T09:00:01Z</time>
      </trkpt>
      <trkpt lat="48.69204" lon="2.03532">
        <ele>149.8</ele>
        <time>2022-02-06T09:00:05Z</time>
      </trkpt>
      <trkpt lat="48.69201" lon="2.03529">
        <ele>150.9</ele>
        <time>2022-02-06T09:00:08Z</time>
      </trkpt>
      <trkpt lat="48.69202" lon="2.03522">
        <ele>152.8</ele>
        <time>2022-02-06T09:00:12Z</time>
      </trkpt>
      <trkpt lat="48.69207" lon="2.03521">
        <ele>157.3</ele>
        <time>2022-02-06T09:00:22Z</time>
      </trkpt>
      <trkpt lat="48.69203" lon="2.03517">
        <ele>156.6</ele>
        <time>2022-02-06T09:00:47Z</time>
      </trkpt>
      <trkpt lat="48.69198" lon="2.03513">
        <ele>155</ele>
        <time>2022-02-06T09:00:52Z</time>
      </trkpt>
      <trkpt lat="48.69193" lon="2.03509">
        <ele>153.9</ele>
        <time>2022-02-06T09:00:55Z</time>
      </trkpt>
      <trkpt lat="48.69188" lon="2.03507">
        <ele>152.9</ele>
        <time>2022-02-06T09:00:58Z</time>
      </trkpt>
      <trkpt lat="48.69183" lon="2.03508">
        <ele>152.9</ele>
        <time>2022-02-06T09:01:14Z</time>
      </trkpt>
      <trkpt lat="48.69177" lon="2.03507">
        <ele>153.5</ele>
        <time>2022-02-06T09:01:18Z</time>
      </trkpt>
      <trkpt lat="48.69159" lon="2.03491">
        <ele>154</ele>
        <time>2022-02-06T09:01:29Z</time>
      </trkpt>
      <trkpt lat="48.69154" lon="2.03484">
        <ele>154.5</ele>
        <time>2022-02-06T09:01:33Z</time>
      </trkpt>
      <trkpt lat="48.69151" lon="2.03477">
        <ele>154.4</ele>
        <time>2022-02-06T09:01:37Z</time>
      </trkpt>
      <trkpt lat="48.69147" lon="2.03471">
        <ele>153.7</ele>
        <time>2022-02-06T09:01:42Z</time>
      </trkpt>
      <trkpt lat="48.69143" lon="2.03464">
        <ele>153.1</ele>
        <time>2022-02-06T09:01:46Z</time>
      </trkpt>
      <trkpt lat="48.6914" lon="2.03458">
        <ele>152.5</ele>
        <time>2022-02-06T09:01:50Z</time>
      </trkpt>
      <trkpt lat="48.69136" lon="2.03454">
        <ele>152</ele>
        <time>2022-02-06T09:01:54Z</time>
      </trkpt>
      <trkpt lat="48.69132" lon="2.0345">
        <ele>151.8</ele>
        <time>2022-02-06T09:01:57Z</time>
      </trkpt>
      <trkpt lat="48.69128" lon="2.03445">
        <ele>152.1</ele>
        <time>2022-02-06T09:02:01Z</time>
      </trkpt>
      <trkpt lat="48.69125" lon="2.03439">
        <ele>152.8</ele>
        <time>2022-02-06T09:02:05Z</time>
      </trkpt>
      <trkpt lat="48.69122" lon="2.03433">
        <ele>153.9</ele>
        <time>2022-02-06T09:02:10Z</time>
      </trkpt>
      <trkpt lat="48.69119" lon="2.03426">
        <ele>154.8</ele>
        <time>2022-02-06T09:02:14Z</time>
      </trkpt>
      <trkpt lat="48.69116" lon="2.03419">
        <ele>155</ele>
        <time>2022-02-06T09:02:18Z</time>
      </trkpt>
      <trkpt lat="48.69116" lon="2.0341">
        <ele>155</ele>
        <time>2022-02-06T09:02:24Z</time>
      </trkpt>
      <trkpt lat="48.69117" lon="2.03403">
        <ele>154.9</ele>
        <time>2022-02-06T09:02:28Z</time>
      </trkpt>
      <trkpt lat="48.6912" lon="2.03394">
        <ele>154.7</ele>
        <time>2022-02-06T09:02:33Z</time>
      </trkpt>
      <trkpt lat="48.69122" lon="2.03386">
        <ele>155.4</ele>
        <time>2022-02-06T09:02:37Z</time>
      </trkpt>
      <trkpt lat="48.69124" lon="2.03378">
        <ele>156.5</ele>
        <time>2022-02-06T09:02:41Z</time>
      </trkpt>
      <trkpt lat="48.69124" lon="2.0337">
        <ele>157.1</ele>
        <time>2022-02-06T09:02:46Z</time>
      </trkpt>
      <trkpt lat="48.69126" lon="2.03364">
        <ele>157.1</ele>
        <time>2022-02-06T09:02:49Z</time>
      </trkpt>
      <trkpt lat="48.69127" lon="2.03356">
        <ele>157.6</ele>
        <time>2022-02-06T09:02:55Z</time>
      </trkpt>
      <trkpt lat="48.69132" lon="2.03355">
        <ele>156.9</ele>
        <time>2022-02-06T09:03:27Z</time>
      </trkpt>
      <trkpt lat="48.69133" lon="2.03348">
        <ele>154.9</ele>
        <time>2022-02-06T09:03:32Z</time>
      </trkpt>
      <trkpt lat="48.69134" lon="2.03341">
        <ele>152.8</ele>
        <time>2022-02-06T09:03:40Z</time>
      </trkpt>
      <trkpt lat="48.69135" lon="2.03332">
        <ele>152.8</ele>
        <time>2022-02-06T09:03:45Z</time>
      </trkpt>
      <trkpt lat="48.69136" lon="2.03324">
        <ele>152.9</ele>
        <time>2022-02-06T09:03:50Z</time>
      </trkpt>
      <trkpt lat="48.69139" lon="2.03317">
        <ele>153.2</ele>
        <time>2022-02-06T09:03:57Z</time>
      </trkpt>
      <trkpt lat="48.69138" lon="2.0331">
        <ele>153</ele>
        <time>2022-02-06T09:04:04Z</time>
      </trkpt>
      <trkpt lat="48.69138" lon="2.03302">
        <ele>153.7</ele>
        <time>2022-02-06T09:04:12Z</time>
      </trkpt>
      <trkpt lat="48.69143" lon="2.03301">
        <ele>155.6</ele>
        <time>2022-02-06T09:04:41Z</time>
      </trkpt>
      <trkpt lat="48.69138" lon="2.03302">
        <ele>155.4</ele>
        <time>2022-02-06T09:06:53Z</time>
      </trkpt>
      <trkpt lat="48.6914" lon="2.03294">
        <ele>157.3</ele>
        <time>2022-02-06T09:07:04Z</time>
      </trkpt>
      <trkpt lat="48.6914" lon="2.03286">
        <ele>156.7</ele>
        <time>2022-02-06T09:07:09Z</time>
      </trkpt>
      <trkpt lat="48.69142" lon="2.03278">
        <ele>155.3</ele>
        <time>2022-02-06T09:07:14Z</time>
      </trkpt>
      <trkpt lat="48.69145" lon="2.0327">
        <ele>154.3</ele>
        <time>2022-02-06T09:07:18Z</time>
      </trkpt>
      <trkpt lat="48.69148" lon="2.03263">
        <ele>154.2</ele>
        <time>2022-02-06T09:07:22Z</time>
      </trkpt>
      <trkpt lat="48.6915" lon="2.03255">
        <ele>154.8</ele>
        <time>2022-02-06T09:07:27Z</time>
      </trkpt>
      <trkpt lat="48.69151" lon="2.03247">
        <ele>155.6</ele>
        <time>2022-02-06T09:07:31Z</time>
      </trkpt>
      <trkpt lat="48.69152" lon="2.0324">
        <ele>157</ele>
        <time>2022-02-06T09:07:34Z</time>
      </trkpt>
      <trkpt lat="48.69153" lon="2.03233">
        <ele>156.9</ele>
        <time>2022-02-06T09:07:38Z</time>
      </trkpt>
      <trkpt lat="48.69155" lon="2.03225">
        <ele>155.6</ele>
        <time>2022-02-06T09:07:43Z</time>
      </trkpt>
      <trkpt lat="48.69155" lon="2.03218">
        <ele>155</ele>
        <time>2022-02-06T09:07:46Z</time>
      </trkpt>
      <trkpt lat="48.69155" lon="2.0321">
        <ele>155.5</ele>
        <time>2022-02-06T09:07:50Z</time>
      </trkpt>
      <trkpt lat="48.69154" lon="2.03202">
        <ele>155.6</ele>
        <time>2022-02-06T09:07:54Z</time>
      </trkpt>
      <trkpt lat="48.69152" lon="2.03195">
        <ele>155.3</ele>
        <time>2022-02-06T09:07:58Z</time>
      </trkpt>
      <trkpt lat="48.69151" lon="2.03186">
        <ele>154.6</ele>
        <time>2022-02-06T09:08:02Z</time>
      </trkpt>
      <trkpt lat="48.6915" lon="2.03178">
        <ele>154.5</ele>
        <time>2022-02-06T09:08:07Z</time>
      </trkpt>
      <trkpt lat="48.69149" lon="2.0317">
        <ele>155.5</ele>
        <time>2022-02-06T09:08:11Z</time>
      </trkpt>
      <trkpt lat="48.69148" lon="2.03163">
        <ele>157.1</ele>
        <time>2022-02-06T09:08:15Z</time>
      </trkpt>
      <trkpt lat="48.69146" lon="2.03154">
        <ele>158.2</ele>
        <time>2022-02-06T09:08:20Z</time>
      </trkpt>
      <trkpt lat="48.69146" lon="2.03146">
        <ele>158.3</ele>
        <time>2022-02-06T09:08:24Z</time>
      </trkpt>
      <trkpt lat="48.69147" lon="2.03138">
        <ele>157.9</ele>
        <time>2022-02-06T09:08:28Z</time>
      </trkpt>
      <trkpt lat="48.69148" lon="2.03131">
        <ele>157.5</ele>
        <time>2022-02-06T09:08:31Z</time>
      </trkpt>
      <trkpt lat="48.69148" lon="2.03122">
        <ele>157</ele>
        <time>2022-02-06T09:08:36Z</time>
      </trkpt>
      <trkpt lat="48.69146" lon="2.03114">
        <ele>156.6</ele>
        <time>2022-02-06T09:08:39Z</time>
      </trkpt>
      <trkpt lat="48.69144" lon="2.03107">
        <ele>156.9</ele>
        <time>2022-02-06T09:08:43Z</time>
      </trkpt>
      <trkpt lat="48.69142" lon="2.031">
        <ele>157.5</ele>
        <time>2022-02-06T09:08:46Z</time>
      </trkpt>
      <trkpt lat="48.69139" lon="2.03093">
        <ele>157.8</ele>
        <time>2022-02-06T09:08:51Z</time>
      </trkpt>
      <trkpt lat="48.69136" lon="2.03086">
        <ele>157</ele>
        <time>2022-02-06T09:08:54Z</time>
      </trkpt>
      <trkpt lat="48.69133" lon="2.03078">
        <ele>156.3</ele>
        <time>2022-02-06T09:08:57Z</time>
      </trkpt>
      <trkpt lat="48.69129" lon="2.03072">
        <ele>155.9</ele>
        <time>2022-02-06T09:09:00Z</time>
      </trkpt>
      <trkpt lat="48.69123" lon="2.03055">
        <ele>156</ele>
        <time>2022-02-06T09:09:08Z</time>
      </trkpt>
      <trkpt lat="48.6912" lon="2.03047">
        <ele>156.3</ele>
        <time>2022-02-06T09:09:12Z</time>
      </trkpt>
      <trkpt lat="48.69119" lon="2.0304">
        <ele>156.5</ele>
        <time>2022-02-06T09:09:16Z</time>
      </trkpt>
      <trkpt lat="48.69116" lon="2.03033">
        <ele>156.2</ele>
        <time>2022-02-06T09:09:20Z</time>
      </trkpt>
      <trkpt lat="48.69113" lon="2.03026">
        <ele>155.3</ele>
        <time>2022-02-06T09:09:24Z</time>
      </trkpt>
      <trkpt lat="48.69111" lon="2.03021">
        <ele>154.6</ele>
        <time>2022-02-06T09:09:28Z</time>
      </trkpt>
      <trkpt lat="48.69108" lon="2.03014">
        <ele>155.4</ele>
        <time>2022-02-06T09:09:32Z</time>
      </trkpt>
      <trkpt lat="48.69106" lon="2.03008">
        <ele>156.8</ele>
        <time>2022-02-06T09:09:36Z</time>
      </trkpt>
      <trkpt lat="48.69104" lon="2.03001">
        <ele>158.3</ele>
        <time>2022-02-06T09:09:41Z</time>
      </trkpt>
      <trkpt lat="48.69103" lon="2.02993">
        <ele>159.8</ele>
        <time>2022-02-06T09:09:45Z</time>
      </trkpt>
      <trkpt lat="48.69101" lon="2.02986">
        <ele>160.2</ele>
        <time>2022-02-06T09:09:49Z</time>
      </trkpt>
      <trkpt lat="48.69098" lon="2.02979">
        <ele>160.8</ele>
        <time>2022-02-06T09:09:54Z</time>
      </trkpt>
      <trkpt lat="48.69096" lon="2.02972">
        <ele>161.6</ele>
        <time>2022-02-06T09:09:58Z</time>
      </trkpt>
      <trkpt lat="48.69095" lon="2.02965">
        <ele>161.8</ele>
        <time>2022-02-06T09:10:02Z</time>
      </trkpt>
      <trkpt lat="48.69094" lon="2.02958">
        <ele>161.6</ele>
        <time>2022-02-06T09:10:07Z</time>
      </trkpt>
      <trkpt lat="48.69093" lon="2.02951">
        <ele>162</ele>
        <time>2022-02-06T09:10:10Z</time>
      </trkpt>
      <trkpt lat="48.69091" lon="2.02945">
        <ele>162.5</ele>
        <time>2022-02-06T09:10:14Z</time>
      </trkpt>
      <trkpt lat="48.69089" lon="2.02938">
        <ele>162.5</ele>
        <time>2022-02-06T09:10:17Z</time>
      </trkpt>
      <trkpt lat="48.69087" lon="2.02932">
        <ele>162</ele>
        <time>2022-02-06T09:10:21Z</time>
      </trkpt>
      <trkpt lat="48.69085" lon="2.02924">
        <ele>161.4</ele>
        <time>2022-02-06T09:10:25Z</time>
      </trkpt>
      <trkpt lat="48.69083" lon="2.02917">
        <ele>161.4</ele>
        <time>2022-02-06T09:10:29Z</time>
      </trkpt>
      <trkpt lat="48.69081" lon="2.0291">
        <ele>161.8</ele>
        <time>2022-02-06T09:10:33Z</time>
      </trkpt>
      <trkpt lat="48.69079" lon="2.02903">
        <ele>162</ele>
        <time>2022-02-06T09:10:37Z</time>
      </trkpt>
      <trkpt lat="48.69076" lon="2.02897">
        <ele>162.9</ele>
        <time>2022-02-06T09:10:41Z</time>
      </trkpt>
      <trkpt lat="48.69073" lon="2.02891">
        <ele>163.6</ele>
        <time>2022-02-06T09:10:45Z</time>
      </trkpt>
      <trkpt lat="48.69071" lon="2.02883">
        <ele>164.5</ele>
        <time>2022-02-06T09:10:49Z</time>
      </trkpt>
      <trkpt lat="48.69069" lon="2.02876">
        <ele>165.1</ele>
        <time>2022-02-06T09:10:53Z</time>
      </trkpt>
      <trkpt lat="48.69066" lon="2.02869">
        <ele>165.4</ele>
        <time>2022-02-06T09:10:58Z</time>
      </trkpt>
      <trkpt lat="48.69063" lon="2.02862">
        <ele>165.3</ele>
        <time>2022-02-06T09:11:01Z</time>
      </trkpt>
      <trkpt lat="48.6906" lon="2.02855">
        <ele>165</ele>
        <time>2022-02-06T09:11:06Z</time>
      </trkpt>
      <trkpt lat="48.69058" lon="2.02847">
        <ele>164</ele>
        <time>2022-02-06T09:11:10Z</time>
      </trkpt>
      <trkpt lat="48.69055" lon="2.0284">
        <ele>162.5</ele>
        <time>2022-02-06T09:11:14Z</time>
      </trkpt>
      <trkpt lat="48.69053" lon="2.02834">
        <ele>160.7</ele>
        <time>2022-02-06T09:11:17Z</time>
      </trkpt>
      <trkpt lat="48.69051" lon="2.02826">
        <ele>159.6</ele>
        <time>2022-02-06T09:11:22Z</time>
      </trkpt>
      <trkpt lat="48.69049" lon="2.02819">
        <ele>159.5</ele>
        <time>2022-02-06T09:11:26Z</time>
      </trkpt>
      <trkpt lat="48.69046" lon="2.02812">
        <ele>159</ele>
        <time>2022-02-06T09:11:30Z</time>
      </trkpt>
      <trkpt lat="48.69043" lon="2.02805">
        <ele>158</ele>
        <time>2022-02-06T09:11:34Z</time>
      </trkpt>
      <trkpt lat="48.69039" lon="2.028">
        <ele>157.6</ele>
        <time>2022-02-06T09:11:38Z</time>
      </trkpt>
      <trkpt lat="48.69036" lon="2.02795">
        <ele>158.8</ele>
        <time>2022-02-06T09:11:42Z</time>
      </trkpt>
      <trkpt lat="48.69035" lon="2.02788">
        <ele>159</ele>
        <time>2022-02-06T09:11:44Z</time>
      </trkpt>
      <trkpt lat="48.69032" lon="2.02779">
        <ele>159.2</ele>
        <time>2022-02-06T09:11:47Z</time>
      </trkpt>
      <trkpt lat="48.6903" lon="2.02771">
        <ele>158.6</ele>
        <time>2022-02-06T09:11:52Z</time>
      </trkpt>
      <trkpt lat="48.69029" lon="2.02764">
        <ele>158.6</ele>
        <time>2022-02-06T09:11:56Z</time>
      </trkpt>
      <trkpt lat="48.6903" lon="2.02755">
        <ele>158.2</ele>
        <time>2022-02-06T09:12:00Z</time>
      </trkpt>
      <trkpt lat="48.69031" lon="2.02748">
        <ele>157.6</ele>
        <time>2022-02-06T09:12:06Z</time>
      </trkpt>
      <trkpt lat="48.69029" lon="2.02741">
        <ele>158.8</ele>
        <time>2022-02-06T09:12:13Z</time>
      </trkpt>
      <trkpt lat="48.69034" lon="2.02737">
        <ele>160.5</ele>
        <time>2022-02-06T09:12:17Z</time>
      </trkpt>
      <trkpt lat="48.6904" lon="2.02736">
        <ele>161.7</ele>
        <time>2022-02-06T09:12:20Z</time>
      </trkpt>
      <trkpt lat="48.69045" lon="2.02736">
        <ele>162.7</ele>
        <time>2022-02-06T09:12:23Z</time>
      </trkpt>
      <trkpt lat="48.6905" lon="2.02735">
        <ele>163.3</ele>
        <time>2022-02-06T09:12:29Z</time>
      </trkpt>
      <trkpt lat="48.69056" lon="2.02735">
        <ele>163.2</ele>
        <time>2022-02-06T09:12:34Z</time>
      </trkpt>
      <trkpt lat="48.69061" lon="2.02737">
        <ele>163.3</ele>
        <time>2022-02-06T09:12:38Z</time>
      </trkpt>
      <trkpt lat="48.69066" lon="2.02734">
        <ele>164.6</ele>
        <time>2022-02-06T09:12:43Z</time>
      </trkpt>
      <trkpt lat="48.69069" lon="2.02727">
        <ele>165.9</ele>
        <time>2022-02-06T09:12:46Z</time>
      </trkpt>
      <trkpt lat="48.6907" lon="2.0272">
        <ele>166.8</ele>
        <time>2022-02-06T09:12:48Z</time>
      </trkpt>
      <trkpt lat="48.69071" lon="2.02711">
        <ele>166.2</ele>
        <time>2022-02-06T09:12:52Z</time>
      </trkpt>
      <trkpt lat="48.69073" lon="2.02703">
        <ele>166.2</ele>
        <time>2022-02-06T09:12:55Z</time>
      </trkpt>
      <trkpt lat="48.69077" lon="2.02699">
        <ele>165.3</ele>
        <time>2022-02-06T09:12:59Z</time>
      </trkpt>
      <trkpt lat="48.69082" lon="2.02697">
        <ele>166.4</ele>
        <time>2022-02-06T09:13:02Z</time>
      </trkpt>
      <trkpt lat="48.69088" lon="2.02696">
        <ele>167.7</ele>
        <time>2022-02-06T09:13:06Z</time>
      </trkpt>
      <trkpt lat="48.69093" lon="2.02694">
        <ele>170.2</ele>
        <time>2022-02-06T09:13:10Z</time>
      </trkpt>
      <trkpt lat="48.69099" lon="2.02694">
        <ele>172.8</ele>
        <time>2022-02-06T09:13:15Z</time>
      </trkpt>
      <trkpt lat="48.69104" lon="2.02694">
        <ele>174</ele>
        <time>2022-02-06T09:13:19Z</time>
      </trkpt>
      <trkpt lat="48.69108" lon="2.02696">
        <ele>174.7</ele>
        <time>2022-02-06T09:13:26Z</time>
      </trkpt>
      <trkpt lat="48.69114" lon="2.02691">
        <ele>174.3</ele>
        <time>2022-02-06T09:13:30Z</time>
      </trkpt>
      <trkpt lat="48.69118" lon="2.02684">
        <ele>173.1</ele>
        <time>2022-02-06T09:13:34Z</time>
      </trkpt>
      <trkpt lat="48.69121" lon="2.02676">
        <ele>173.6</ele>
        <time>2022-02-06T09:13:37Z</time>
      </trkpt>
      <trkpt lat="48.69124" lon="2.02671">
        <ele>172.7</ele>
        <time>2022-02-06T09:13:40Z</time>
      </trkpt>
      <trkpt lat="48.69129" lon="2.02668">
        <ele>172</ele>
        <time>2022-02-06T09:13:45Z</time>
      </trkpt>
      <trkpt lat="48.69134" lon="2.02668">
        <ele>170.3</ele>
        <time>2022-02-06T09:13:49Z</time>
      </trkpt>
      <trkpt lat="48.69138" lon="2.02666">
        <ele>172</ele>
        <time>2022-02-06T09:13:53Z</time>
      </trkpt>
      <trkpt lat="48.69142" lon="2.02662">
        <ele>174.7</ele>
        <time>2022-02-06T09:13:56Z</time>
      </trkpt>
      <trkpt lat="48.69147" lon="2.02663">
        <ele>177</ele>
        <time>2022-02-06T09:14:01Z</time>
      </trkpt>
      <trkpt lat="48.69147" lon="2.0267">
        <ele>175.6</ele>
        <time>2022-02-06T09:14:04Z</time>
      </trkpt>
      <trkpt lat="48.69152" lon="2.0267">
        <ele>167.9</ele>
        <time>2022-02-06T09:14:13Z</time>
      </trkpt>
      <trkpt lat="48.69163" lon="2.02659">
        <ele>162.9</ele>
        <time>2022-02-06T09:14:24Z</time>
      </trkpt>
      <trkpt lat="48.69167" lon="2.02656">
        <ele>161</ele>
        <time>2022-02-06T09:14:28Z</time>
      </trkpt>
      <trkpt lat="48.69171" lon="2.02653">
        <ele>160.2</ele>
        <time>2022-02-06T09:14:32Z</time>
      </trkpt>
      <trkpt lat="48.69176" lon="2.02649">
        <ele>159</ele>
        <time>2022-02-06T09:14:36Z</time>
      </trkpt>
      <trkpt lat="48.69181" lon="2.02647">
        <ele>158.2</ele>
        <time>2022-02-06T09:14:40Z</time>
      </trkpt>
      <trkpt lat="48.69187" lon="2.02647">
        <ele>158.3</ele>
        <time>2022-02-06T09:14:45Z</time>
      </trkpt>
      <trkpt lat="48.69192" lon="2.02647">
        <ele>158.1</ele>
        <time>2022-02-06T09:14:50Z</time>
      </trkpt>
      <trkpt lat="48.69197" lon="2.02649">
        <ele>156.2</ele>
        <time>2022-02-06T09:14:55Z</time>
      </trkpt>
      <trkpt lat="48.69202" lon="2.02651">
        <ele>154.6</ele>
        <time>2022-02-06T09:14:59Z</time>
      </trkpt>
      <trkpt lat="48.69207" lon="2.02649">
        <ele>153.7</ele>
        <time>2022-02-06T09:15:04Z</time>
      </trkpt>
      <trkpt lat="48.69212" lon="2.0265">
        <ele>153.4</ele>
        <time>2022-02-06T09:15:08Z</time>
      </trkpt>
      <trkpt lat="48.69216" lon="2.02649">
        <ele>152.9</ele>
        <time>2022-02-06T09:15:13Z</time>
      </trkpt>
      <trkpt lat="48.69222" lon="2.02649">
        <ele>151.3</ele>
        <time>2022-02-06T09:15:18Z</time>
      </trkpt>
      <trkpt lat="48.69228" lon="2.02648">
        <ele>149.7</ele>
        <time>2022-02-06T09:15:24Z</time>
      </trkpt>
      <trkpt lat="48.69233" lon="2.02646">
        <ele>148.4</ele>
        <time>2022-02-06T09:15:28Z</time>
      </trkpt>
      <trkpt lat="48.69237" lon="2.02642">
        <ele>148.3</ele>
        <time>2022-02-06T09:15:32Z</time>
      </trkpt>
      <trkpt lat="48.69241" lon="2.02635">
        <ele>149.2</ele>
        <time>2022-02-06T09:15:38Z</time>
      </trkpt>
      <trkpt lat="48.69244" lon="2.02629">
        <ele>148.9</ele>
        <time>2022-02-06T09:15:43Z</time>
      </trkpt>
      <trkpt lat="48.69248" lon="2.02625">
        <ele>146.9</ele>
        <time>2022-02-06T09:15:47Z</time>
      </trkpt>
      <trkpt lat="48.69252" lon="2.02622">
        <ele>145.2</ele>
        <time>2022-02-06T09:15:52Z</time>
      </trkpt>
      <trkpt lat="48.69257" lon="2.02621">
        <ele>144.8</ele>
        <time>2022-02-06T09:15:56Z</time>
      </trkpt>
      <trkpt lat="48.69262" lon="2.0262">
        <ele>145.9</ele>
        <time>2022-02-06T09:16:02Z</time>
      </trkpt>
      <trkpt lat="48.69266" lon="2.02616">
        <ele>146.4</ele>
        <time>2022-02-06T09:16:06Z</time>
      </trkpt>
      <trkpt lat="48.6927" lon="2.02612">
        <ele>146.2</ele>
        <time>2022-02-06T09:16:11Z</time>
      </trkpt>
      <trkpt lat="48.69273" lon="2.02607">
        <ele>146.1</ele>
        <time>2022-02-06T09:16:15Z</time>
      </trkpt>
      <trkpt lat="48.69277" lon="2.02604">
        <ele>146.3</ele>
        <time>2022-02-06T09:16:21Z</time>
      </trkpt>
      <trkpt lat="48.69282" lon="2.02604">
        <ele>145.5</ele>
        <time>2022-02-06T09:16:26Z</time>
      </trkpt>
      <trkpt lat="48.69288" lon="2.02603">
        <ele>145.3</ele>
        <time>2022-02-06T09:16:32Z</time>
      </trkpt>
      <trkpt lat="48.69293" lon="2.026">
        <ele>146</ele>
        <time>2022-02-06T09:16:38Z</time>
      </trkpt>
      <trkpt lat="48.69298" lon="2.02597">
        <ele>145.1</ele>
        <time>2022-02-06T09:16:42Z</time>
      </trkpt>
      <trkpt lat="48.69302" lon="2.02593">
        <ele>142.6</ele>
        <time>2022-02-06T09:16:48Z</time>
      </trkpt>
      <trkpt lat="48.69307" lon="2.02592">
        <ele>141.5</ele>
        <time>2022-02-06T09:16:53Z</time>
      </trkpt>
      <trkpt lat="48.69312" lon="2.02593">
        <ele>140.2</ele>
        <time>2022-02-06T09:16:57Z</time>
      </trkpt>
      <trkpt lat="48.69318" lon="2.02593">
        <ele>138.5</ele>
        <time>2022-02-06T09:17:03Z</time>
      </trkpt>
      <trkpt lat="48.69323" lon="2.02591">
        <ele>137.9</ele>
        <time>2022-02-06T09:17:07Z</time>
      </trkpt>
      <trkpt lat="48.69328" lon="2.02593">
        <ele>136.9</ele>
        <time>2022-02-06T09:17:12Z</time>
      </trkpt>
      <trkpt lat="48.69333" lon="2.02596">
        <ele>135.8</ele>
        <time>2022-02-06T09:17:17Z</time>
      </trkpt>
      <trkpt lat="48.69337" lon="2.02599">
        <ele>135.2</ele>
        <time>2022-02-06T09:17:21Z</time>
      </trkpt>
      <trkpt lat="48.69342" lon="2.02602">
        <ele>135.2</ele>
        <time>2022-02-06T09:17:26Z</time>
      </trkpt>
      <trkpt lat="48.69346" lon="2.02605">
        <ele>134.9</ele>
        <time>2022-02-06T09:17:30Z</time>
      </trkpt>
      <trkpt lat="48.6935" lon="2.02607">
        <ele>134.1</ele>
        <time>2022-02-06T09:17:34Z</time>
      </trkpt>
      <trkpt lat="48.69356" lon="2.02609">
        <ele>131.9</ele>
        <time>2022-02-06T09:17:39Z</time>
      </trkpt>
      <trkpt lat="48.6936" lon="2.02607">
        <ele>130.2</ele>
        <time>2022-02-06T09:17:44Z</time>
      </trkpt>
      <trkpt lat="48.69365" lon="2.02605">
        <ele>129.2</ele>
        <time>2022-02-06T09:17:49Z</time>
      </trkpt>
      <trkpt lat="48.6937" lon="2.02602">
        <ele>126.7</ele>
        <time>2022-02-06T09:17:55Z</time>
      </trkpt>
      <trkpt lat="48.69375" lon="2.026">
        <ele>125.7</ele>
        <time>2022-02-06T09:18:01Z</time>
      </trkpt>
      <trkpt lat="48.6938" lon="2.02599">
        <ele>125.9</ele>
        <time>2022-02-06T09:18:07Z</time>
      </trkpt>
      <trkpt lat="48.69385" lon="2.02598">
        <ele>126</ele>
        <time>2022-02-06T09:18:13Z</time>
      </trkpt>
      <trkpt lat="48.6939" lon="2.02598">
        <ele>126.1</ele>
        <time>2022-02-06T09:18:19Z</time>
      </trkpt>
      <trkpt lat="48.69395" lon="2.02597">
        <ele>124.4</ele>
        <time>2022-02-06T09:18:23Z</time>
      </trkpt>
      <trkpt lat="48.694" lon="2.02595">
        <ele>120.1</ele>
        <time>2022-02-06T09:18:29Z</time>
      </trkpt>
      <trkpt lat="48.69405" lon="2.02594">
        <ele>118.6</ele>
        <time>2022-02-06T09:18:34Z</time>
      </trkpt>
      <trkpt lat="48.6941" lon="2.02593">
        <ele>117.6</ele>
        <time>2022-02-06T09:18:39Z</time>
      </trkpt>
      <trkpt lat="48.69415" lon="2.02591">
        <ele>115.1</ele>
        <time>2022-02-06T09:18:45Z</time>
      </trkpt>
      <trkpt lat="48.69419" lon="2.02587">
        <ele>114</ele>
        <time>2022-02-06T09:18:51Z</time>
      </trkpt>
      <trkpt lat="48.69422" lon="2.02579">
        <ele>112.8</ele>
        <time>2022-02-06T09:18:57Z</time>
      </trkpt>
      <trkpt lat="48.69422" lon="2.02572">
        <ele>109.8</ele>
        <time>2022-02-06T09:19:02Z</time>
      </trkpt>
      <trkpt lat="48.69426" lon="2.02566">
        <ele>106.4</ele>
        <time>2022-02-06T09:19:10Z</time>
      </trkpt>
      <trkpt lat="48.6943" lon="2.02563">
        <ele>104.7</ele>
        <time>2022-02-06T09:19:18Z</time>
      </trkpt>
      <trkpt lat="48.69435" lon="2.0256">
        <ele>102.8</ele>
        <time>2022-02-06T09:19:25Z</time>
      </trkpt>
      <trkpt lat="48.6944" lon="2.02557">
        <ele>102.1</ele>
        <time>2022-02-06T09:19:33Z</time>
      </trkpt>
      <trkpt lat="48.69444" lon="2.02554">
        <ele>101.5</ele>
        <time>2022-02-06T09:19:39Z</time>
      </trkpt>
      <trkpt lat="48.69448" lon="2.0255">
        <ele>100.8</ele>
        <time>2022-02-06T09:19:47Z</time>
      </trkpt>
      <trkpt lat="48.69449" lon="2.02543">
        <ele>102.5</ele>
        <time>2022-02-06T09:21:24Z</time>
      </trkpt>
      <trkpt lat="48.69443" lon="2.02542">
        <ele>101.5</ele>
        <time>2022-02-06T09:23:35Z</time>
      </trkpt>
      <trkpt lat="48.69448" lon="2.0254">
        <ele>99.7</ele>
        <time>2022-02-06T09:24:09Z</time>
      </trkpt>
      <trkpt lat="48.69453" lon="2.02536">
        <ele>97.6</ele>
        <time>2022-02-06T09:24:13Z</time>
      </trkpt>
      <trkpt lat="48.69457" lon="2.02533">
        <ele>95.5</ele>
        <time>2022-02-06T09:24:16Z</time>
      </trkpt>
      <trkpt lat="48.69462" lon="2.02529">
        <ele>93.5</ele>
        <time>2022-02-06T09:24:21Z</time>
      </trkpt>
      <trkpt lat="48.69465" lon="2.02524">
        <ele>92.2</ele>
        <time>2022-02-06T09:24:25Z</time>
      </trkpt>
      <trkpt lat="48.69467" lon="2.02517">
        <ele>90.2</ele>
        <time>2022-02-06T09:24:31Z</time>
      </trkpt>
      <trkpt lat="48.6947" lon="2.0251">
        <ele>88</ele>
        <time>2022-02-06T09:24:36Z</time>
      </trkpt>
      <trkpt lat="48.69473" lon="2.02504">
        <ele>86.4</ele>
        <time>2022-02-06T09:24:42Z</time>
      </trkpt>
      <trkpt lat="48.69476" lon="2.02497">
        <ele>85.5</ele>
        <time>2022-02-06T09:24:47Z</time>
      </trkpt>
      <trkpt lat="48.69479" lon="2.0249">
        <ele>83.3</ele>
        <time>2022-02-06T09:24:53Z</time>
      </trkpt>
      <trkpt lat="48.69481" lon="2.02483">
        <ele>79.9</ele>
        <time>2022-02-06T09:24:58Z</time>
      </trkpt>
      <trkpt lat="48.69484" lon="2.02477">
        <ele>77.8</ele>
        <time>2022-02-06T09:25:04Z</time>
      </trkpt>
      <trkpt lat="48.69488" lon="2.0247">
        <ele>76.8</ele>
        <time>2022-02-06T09:25:09Z</time>
      </trkpt>
      <trkpt lat="48.69491" lon="2.02463">
        <ele>75.4</ele>
        <time>2022-02-06T09:25:14Z</time>
      </trkpt>
      <trkpt lat="48.69494" lon="2.02456">
        <ele>73.8</ele>
        <time>2022-02-06T09:25:21Z</time>
      </trkpt>
      <trkpt lat="48.69496" lon="2.02448">
        <ele>73.7</ele>
        <time>2022-02-06T09:25:26Z</time>
      </trkpt>
      <trkpt lat="48.69498" lon="2.02442">
        <ele>73.8</ele>
        <time>2022-02-06T09:25:32Z</time>
      </trkpt>
      <trkpt lat="48.69501" lon="2.02435">
        <ele>72.3</ele>
        <time>2022-02-06T09:25:37Z</time>
      </trkpt>
      <trkpt lat="48.69502" lon="2.02428">
        <ele>70.3</ele>
        <time>2022-02-06T09:25:43Z</time>
      </trkpt>
      <trkpt lat="48.69502" lon="2.0242">
        <ele>68.4</ele>
        <time>2022-02-06T09:25:47Z</time>
      </trkpt>
      <trkpt lat="48.69503" lon="2.02411">
        <ele>67.5</ele>
        <time>2022-02-06T09:25:50Z</time>
      </trkpt>
      <trkpt lat="48.69505" lon="2.02403">
        <ele>68</ele>
        <time>2022-02-06T09:25:53Z</time>
      </trkpt>
      <trkpt lat="48.69508" lon="2.02397">
        <ele>69.3</ele>
        <time>2022-02-06T09:25:56Z</time>
      </trkpt>
      <trkpt lat="48.69511" lon="2.02392">
        <ele>71.7</ele>
        <time>2022-02-06T09:25:58Z</time>
      </trkpt>
      <trkpt lat="48.69516" lon="2.02386">
        <ele>74.8</ele>
        <time>2022-02-06T09:26:01Z</time>
      </trkpt>
      <trkpt lat="48.6952" lon="2.02381">
        <ele>76.5</ele>
        <time>2022-02-06T09:26:05Z</time>
      </trkpt>
      <trkpt lat="48.69525" lon="2.02375">
        <ele>76.5</ele>
        <time>2022-02-06T09:26:09Z</time>
      </trkpt>
      <trkpt lat="48.69529" lon="2.02368">
        <ele>75.7</ele>
        <time>2022-02-06T09:26:13Z</time>
      </trkpt>
      <trkpt lat="48.69532" lon="2.02363">
        <ele>74.6</ele>
        <time>2022-02-06T09:26:16Z</time>
      </trkpt>
      <trkpt lat="48.69535" lon="2.02357">
        <ele>74</ele>
        <time>2022-02-06T09:26:20Z</time>
      </trkpt>
      <trkpt lat="48.69539" lon="2.02352">
        <ele>73.7</ele>
        <time>2022-02-06T09:26:23Z</time>
      </trkpt>
      <trkpt lat="48.69542" lon="2.02346">
        <ele>74.4</ele>
        <time>2022-02-06T09:26:27Z</time>
      </trkpt>
      <trkpt lat="48.69545" lon="2.02341">
        <ele>75.4</ele>
        <time>2022-02-06T09:26:30Z</time>
      </trkpt>
      <trkpt lat="48.69548" lon="2.02335">
        <ele>75.7</ele>
        <time>2022-02-06T09:26:33Z</time>
      </trkpt>
      <trkpt lat="48.69551" lon="2.02326">
        <ele>75.2</ele>
        <time>2022-02-06T09:26:37Z</time>
      </trkpt>
      <trkpt lat="48.69552" lon="2.02318">
        <ele>75</ele>
        <time>2022-02-06T09:26:42Z</time>
      </trkpt>
      <trkpt lat="48.69554" lon="2.0231">
        <ele>76.1</ele>
        <time>2022-02-06T09:26:46Z</time>
      </trkpt>
      <trkpt lat="48.69556" lon="2.02303">
        <ele>76.8</ele>
        <time>2022-02-06T09:26:49Z</time>
      </trkpt>
      <trkpt lat="48.69559" lon="2.02295">
        <ele>77.3</ele>
        <time>2022-02-06T09:26:53Z</time>
      </trkpt>
      <trkpt lat="48.69561" lon="2.02288">
        <ele>77.9</ele>
        <time>2022-02-06T09:26:56Z</time>
      </trkpt>
      <trkpt lat="48.69563" lon="2.0228">
        <ele>78.7</ele>
        <time>2022-02-06T09:27:01Z</time>
      </trkpt>
      <trkpt lat="48.69565" lon="2.02272">
        <ele>79.1</ele>
        <time>2022-02-06T09:27:05Z</time>
      </trkpt>
      <trkpt lat="48.69568" lon="2.02265">
        <ele>79.4</ele>
        <time>2022-02-06T09:27:09Z</time>
      </trkpt>
      <trkpt lat="48.69571" lon="2.02259">
        <ele>80.5</ele>
        <time>2022-02-06T09:27:13Z</time>
      </trkpt>
      <trkpt lat="48.69573" lon="2.02253">
        <ele>82.1</ele>
        <time>2022-02-06T09:27:18Z</time>
      </trkpt>
      <trkpt lat="48.69575" lon="2.02246">
        <ele>83.1</ele>
        <time>2022-02-06T09:27:22Z</time>
      </trkpt>
      <trkpt lat="48.69577" lon="2.02238">
        <ele>82</ele>
        <time>2022-02-06T09:27:27Z</time>
      </trkpt>
      <trkpt lat="48.69577" lon="2.02229">
        <ele>79</ele>
        <time>2022-02-06T09:27:31Z</time>
      </trkpt>
      <trkpt lat="48.69578" lon="2.02221">
        <ele>78</ele>
        <time>2022-02-06T09:27:35Z</time>
      </trkpt>
      <trkpt lat="48.69579" lon="2.02213">
        <ele>78.2</ele>
        <time>2022-02-06T09:27:39Z</time>
      </trkpt>
      <trkpt lat="48.69582" lon="2.02205">
        <ele>78.9</ele>
        <time>2022-02-06T09:27:43Z</time>
      </trkpt>
      <trkpt lat="48.69585" lon="2.02198">
        <ele>80</ele>
        <time>2022-02-06T09:27:47Z</time>
      </trkpt>
      <trkpt lat="48.69588" lon="2.02191">
        <ele>81.1</ele>
        <time>2022-02-06T09:27:52Z</time>
      </trkpt>
      <trkpt lat="48.69592" lon="2.02185">
        <ele>81.3</ele>
        <time>2022-02-06T09:27:56Z</time>
      </trkpt>
      <trkpt lat="48.69595" lon="2.02178">
        <ele>81.8</ele>
        <time>2022-02-06T09:28:01Z</time>
      </trkpt>
      <trkpt lat="48.69597" lon="2.02172">
        <ele>82.6</ele>
        <time>2022-02-06T09:28:04Z</time>
      </trkpt>
      <trkpt lat="48.696" lon="2.02164">
        <ele>83.1</ele>
        <time>2022-02-06T09:28:09Z</time>
      </trkpt>
      <trkpt lat="48.69602" lon="2.02158">
        <ele>83.1</ele>
        <time>2022-02-06T09:28:12Z</time>
      </trkpt>
      <trkpt lat="48.69605" lon="2.02152">
        <ele>83.4</ele>
        <time>2022-02-06T09:28:15Z</time>
      </trkpt>
      <trkpt lat="48.69607" lon="2.02144">
        <ele>83.3</ele>
        <time>2022-02-06T09:28:20Z</time>
      </trkpt>
      <trkpt lat="48.6961" lon="2.02136">
        <ele>83.6</ele>
        <time>2022-02-06T09:28:24Z</time>
      </trkpt>
      <trkpt lat="48.69613" lon="2.0213">
        <ele>84</ele>
        <time>2022-02-06T09:28:28Z</time>
      </trkpt>
      <trkpt lat="48.69617" lon="2.02124">
        <ele>85.8</ele>
        <time>2022-02-06T09:28:32Z</time>
      </trkpt>
      <trkpt lat="48.69621" lon="2.02118">
        <ele>87.5</ele>
        <time>2022-02-06T09:28:36Z</time>
      </trkpt>
      <trkpt lat="48.69625" lon="2.02112">
        <ele>88.3</ele>
        <time>2022-02-06T09:28:41Z</time>
      </trkpt>
      <trkpt lat="48.69629" lon="2.02109">
        <ele>88.3</ele>
        <time>2022-02-06T09:28:44Z</time>
      </trkpt>
      <trkpt lat="48.69634" lon="2.02105">
        <ele>89.3</ele>
        <time>2022-02-06T09:28:48Z</time>
      </trkpt>
      <trkpt lat="48.69639" lon="2.02101">
        <ele>90.1</ele>
        <time>2022-02-06T09:28:52Z</time>
      </trkpt>
      <trkpt lat="48.69643" lon="2.02096">
        <ele>90.9</ele>
        <time>2022-02-06T09:28:57Z</time>
      </trkpt>
      <trkpt lat="48.69648" lon="2.02092">
        <ele>90.7</ele>
        <time>2022-02-06T09:29:01Z</time>
      </trkpt>
      <trkpt lat="48.69653" lon="2.0209">
        <ele>90.3</ele>
        <time>2022-02-06T09:29:06Z</time>
      </trkpt>
      <trkpt lat="48.69657" lon="2.02088">
        <ele>91.8</ele>
        <time>2022-02-06T09:29:10Z</time>
      </trkpt>
      <trkpt lat="48.69663" lon="2.02085">
        <ele>94.4</ele>
        <time>2022-02-06T09:29:15Z</time>
      </trkpt>
      <trkpt lat="48.69667" lon="2.02082">
        <ele>95.8</ele>
        <time>2022-02-06T09:29:20Z</time>
      </trkpt>
      <trkpt lat="48.69672" lon="2.02078">
        <ele>97.2</ele>
        <time>2022-02-06T09:29:24Z</time>
      </trkpt>
      <trkpt lat="48.69677" lon="2.02075">
        <ele>97.5</ele>
        <time>2022-02-06T09:29:27Z</time>
      </trkpt>
      <trkpt lat="48.69681" lon="2.02071">
        <ele>96.8</ele>
        <time>2022-02-06T09:29:32Z</time>
      </trkpt>
      <trkpt lat="48.69686" lon="2.02067">
        <ele>96.6</ele>
        <time>2022-02-06T09:29:36Z</time>
      </trkpt>
      <trkpt lat="48.6969" lon="2.02064">
        <ele>97.6</ele>
        <time>2022-02-06T09:29:41Z</time>
      </trkpt>
      <trkpt lat="48.69695" lon="2.02062">
        <ele>98.2</ele>
        <time>2022-02-06T09:29:45Z</time>
      </trkpt>
      <trkpt lat="48.69699" lon="2.02059">
        <ele>98.3</ele>
        <time>2022-02-06T09:29:49Z</time>
      </trkpt>
      <trkpt lat="48.69704" lon="2.02056">
        <ele>98.4</ele>
        <time>2022-02-06T09:29:53Z</time>
      </trkpt>
      <trkpt lat="48.6971" lon="2.02055">
        <ele>100.3</ele>
        <time>2022-02-06T09:29:58Z</time>
      </trkpt>
      <trkpt lat="48.69716" lon="2.02053">
        <ele>102.5</ele>
        <time>2022-02-06T09:30:03Z</time>
      </trkpt>
      <trkpt lat="48.69721" lon="2.02051">
        <ele>104.1</ele>
        <time>2022-02-06T09:30:07Z</time>
      </trkpt>
      <trkpt lat="48.69726" lon="2.02048">
        <ele>105.6</ele>
        <time>2022-02-06T09:30:12Z</time>
      </trkpt>
      <trkpt lat="48.69731" lon="2.02045">
        <ele>105.8</ele>
        <time>2022-02-06T09:30:16Z</time>
      </trkpt>
      <trkpt lat="48.69736" lon="2.02043">
        <ele>105</ele>
        <time>2022-02-06T09:30:21Z</time>
      </trkpt>
      <trkpt lat="48.69741" lon="2.02041">
        <ele>104.7</ele>
        <time>2022-02-06T09:30:25Z</time>
      </trkpt>
      <trkpt lat="48.69747" lon="2.02038">
        <ele>104.5</ele>
        <time>2022-02-06T09:30:30Z</time>
      </trkpt>
      <trkpt lat="48.69752" lon="2.02036">
        <ele>105.5</ele>
        <time>2022-02-06T09:30:33Z</time>
      </trkpt>
      <trkpt lat="48.69757" lon="2.02034">
        <ele>106.4</ele>
        <time>2022-02-06T09:30:38Z</time>
      </trkpt>
      <trkpt lat="48.69762" lon="2.02031">
        <ele>106.2</ele>
        <time>2022-02-06T09:30:42Z</time>
      </trkpt>
      <trkpt lat="48.69767" lon="2.02028">
        <ele>105.2</ele>
        <time>2022-02-06T09:30:46Z</time>
      </trkpt>
      <trkpt lat="48.69772" lon="2.02025">
        <ele>104.9</ele>
        <time>2022-02-06T09:30:51Z</time>
      </trkpt>
      <trkpt lat="48.69777" lon="2.02022">
        <ele>105.3</ele>
        <time>2022-02-06T09:30:55Z</time>
      </trkpt>
      <trkpt lat="48.69782" lon="2.02019">
        <ele>105.6</ele>
        <time>2022-02-06T09:30:59Z</time>
      </trkpt>
      <trkpt lat="48.69787" lon="2.02017">
        <ele>104.5</ele>
        <time>2022-02-06T09:31:03Z</time>
      </trkpt>
      <trkpt lat="48.69792" lon="2.02013">
        <ele>102.8</ele>
        <time>2022-02-06T09:31:08Z</time>
      </trkpt>
      <trkpt lat="48.69797" lon="2.02008">
        <ele>101.6</ele>
        <time>2022-02-06T09:31:13Z</time>
      </trkpt>
      <trkpt lat="48.69801" lon="2.02003">
        <ele>100.7</ele>
        <time>2022-02-06T09:31:17Z</time>
      </trkpt>
      <trkpt lat="48.69806" lon="2.01999">
        <ele>100.3</ele>
        <time>2022-02-06T09:31:21Z</time>
      </trkpt>
      <trkpt lat="48.6981" lon="2.01994">
        <ele>98.8</ele>
        <time>2022-02-06T09:31:25Z</time>
      </trkpt>
      <trkpt lat="48.69815" lon="2.01988">
        <ele>97.1</ele>
        <time>2022-02-06T09:31:30Z</time>
      </trkpt>
      <trkpt lat="48.69819" lon="2.01981">
        <ele>95.5</ele>
        <time>2022-02-06T09:31:34Z</time>
      </trkpt>
      <trkpt lat="48.69822" lon="2.01974">
        <ele>94.4</ele>
        <time>2022-02-06T09:31:39Z</time>
      </trkpt>
      <trkpt lat="48.69826" lon="2.01968">
        <ele>93.4</ele>
        <time>2022-02-06T09:31:43Z</time>
      </trkpt>
      <trkpt lat="48.6983" lon="2.01962">
        <ele>92.9</ele>
        <time>2022-02-06T09:31:47Z</time>
      </trkpt>
      <trkpt lat="48.69833" lon="2.01956">
        <ele>93.1</ele>
        <time>2022-02-06T09:31:51Z</time>
      </trkpt>
      <trkpt lat="48.69837" lon="2.01949">
        <ele>92.6</ele>
        <time>2022-02-06T09:31:56Z</time>
      </trkpt>
      <trkpt lat="48.6984" lon="2.01942">
        <ele>91.8</ele>
        <time>2022-02-06T09:32:00Z</time>
      </trkpt>
      <trkpt lat="48.69843" lon="2.01935">
        <ele>91.6</ele>
        <time>2022-02-06T09:32:04Z</time>
      </trkpt>
      <trkpt lat="48.69846" lon="2.01928">
        <ele>92.8</ele>
        <time>2022-02-06T09:32:08Z</time>
      </trkpt>
      <trkpt lat="48.69849" lon="2.01921">
        <ele>93.3</ele>
        <time>2022-02-06T09:32:12Z</time>
      </trkpt>
      <trkpt lat="48.69851" lon="2.01913">
        <ele>93.3</ele>
        <time>2022-02-06T09:32:17Z</time>
      </trkpt>
      <trkpt lat="48.69853" lon="2.01906">
        <ele>92.7</ele>
        <time>2022-02-06T09:32:21Z</time>
      </trkpt>
      <trkpt lat="48.69856" lon="2.019">
        <ele>92.5</ele>
        <time>2022-02-06T09:32:24Z</time>
      </trkpt>
      <trkpt lat="48.69859" lon="2.01895">
        <ele>92.4</ele>
        <time>2022-02-06T09:32:28Z</time>
      </trkpt>
      <trkpt lat="48.69863" lon="2.0189">
        <ele>92.5</ele>
        <time>2022-02-06T09:32:31Z</time>
      </trkpt>
      <trkpt lat="48.69866" lon="2.01883">
        <ele>92.4</ele>
        <time>2022-02-06T09:32:35Z</time>
      </trkpt>
      <trkpt lat="48.69868" lon="2.01875">
        <ele>91.9</ele>
        <time>2022-02-06T09:32:39Z</time>
      </trkpt>
      <trkpt lat="48.6987" lon="2.01868">
        <ele>91</ele>
        <time>2022-02-06T09:32:42Z</time>
      </trkpt>
      <trkpt lat="48.69873" lon="2.0186">
        <ele>90.5</ele>
        <time>2022-02-06T09:32:47Z</time>
      </trkpt>
      <trkpt lat="48.69876" lon="2.01853">
        <ele>89.7</ele>
        <time>2022-02-06T09:32:51Z</time>
      </trkpt>
      <trkpt lat="48.69879" lon="2.01846">
        <ele>88.8</ele>
        <time>2022-02-06T09:32:55Z</time>
      </trkpt>
      <trkpt lat="48.69882" lon="2.0184">
        <ele>88</ele>
        <time>2022-02-06T09:32:59Z</time>
      </trkpt>
      <trkpt lat="48.69885" lon="2.01835">
        <ele>87.2</ele>
        <time>2022-02-06T09:33:03Z</time>
      </trkpt>
      <trkpt lat="48.69888" lon="2.0183">
        <ele>86.9</ele>
        <time>2022-02-06T09:33:07Z</time>
      </trkpt>
      <trkpt lat="48.69891" lon="2.01823">
        <ele>87.4</ele>
        <time>2022-02-06T09:33:11Z</time>
      </trkpt>
      <trkpt lat="48.69894" lon="2.01816">
        <ele>87.6</ele>
        <time>2022-02-06T09:33:16Z</time>
      </trkpt>
      <trkpt lat="48.69897" lon="2.0181">
        <ele>87.6</ele>
        <time>2022-02-06T09:33:19Z</time>
      </trkpt>
      <trkpt lat="48.69899" lon="2.01802">
        <ele>87.6</ele>
        <time>2022-02-06T09:33:23Z</time>
      </trkpt>
      <trkpt lat="48.69901" lon="2.01794">
        <ele>87.5</ele>
        <time>2022-02-06T09:33:27Z</time>
      </trkpt>
      <trkpt lat="48.69904" lon="2.01788">
        <ele>87.4</ele>
        <time>2022-02-06T09:33:31Z</time>
      </trkpt>
      <trkpt lat="48.69906" lon="2.01781">
        <ele>86.9</ele>
        <time>2022-02-06T09:33:35Z</time>
      </trkpt>
      <trkpt lat="48.69909" lon="2.01775">
        <ele>85.7</ele>
        <time>2022-02-06T09:33:39Z</time>
      </trkpt>
      <trkpt lat="48.69912" lon="2.01769">
        <ele>85</ele>
        <time>2022-02-06T09:33:43Z</time>
      </trkpt>
      <trkpt lat="48.69914" lon="2.01763">
        <ele>84.9</ele>
        <time>2022-02-06T09:33:47Z</time>
      </trkpt>
      <trkpt lat="48.69916" lon="2.01757">
        <ele>84.4</ele>
        <time>2022-02-06T09:33:50Z</time>
      </trkpt>
      <trkpt lat="48.6992" lon="2.0175">
        <ele>83.4</ele>
        <time>2022-02-06T09:33:55Z</time>
      </trkpt>
      <trkpt lat="48.69923" lon="2.01743">
        <ele>82.3</ele>
        <time>2022-02-06T09:33:59Z</time>
      </trkpt>
      <trkpt lat="48.69926" lon="2.01736">
        <ele>81.1</ele>
        <time>2022-02-06T09:34:03Z</time>
      </trkpt>
      <trkpt lat="48.69929" lon="2.01729">
        <ele>80.5</ele>
        <time>2022-02-06T09:34:08Z</time>
      </trkpt>
      <trkpt lat="48.69932" lon="2.01723">
        <ele>80.2</ele>
        <time>2022-02-06T09:34:11Z</time>
      </trkpt>
      <trkpt lat="48.69935" lon="2.01715">
        <ele>80.2</ele>
        <time>2022-02-06T09:34:16Z</time>
      </trkpt>
      <trkpt lat="48.69937" lon="2.01709">
        <ele>79.1</ele>
        <time>2022-02-06T09:34:19Z</time>
      </trkpt>
      <trkpt lat="48.69939" lon="2.01703">
        <ele>78.4</ele>
        <time>2022-02-06T09:34:23Z</time>
      </trkpt>
      <trkpt lat="48.69943" lon="2.01697">
        <ele>78</ele>
        <time>2022-02-06T09:34:27Z</time>
      </trkpt>
      <trkpt lat="48.69946" lon="2.0169">
        <ele>77.7</ele>
        <time>2022-02-06T09:34:31Z</time>
      </trkpt>
      <trkpt lat="48.69949" lon="2.01685">
        <ele>77</ele>
        <time>2022-02-06T09:34:34Z</time>
      </trkpt>
      <trkpt lat="48.69952" lon="2.01678">
        <ele>76.8</ele>
        <time>2022-02-06T09:34:38Z</time>
      </trkpt>
      <trkpt lat="48.69955" lon="2.01671">
        <ele>76.9</ele>
        <time>2022-02-06T09:34:42Z</time>
      </trkpt>
      <trkpt lat="48.69958" lon="2.01664">
        <ele>77.3</ele>
        <time>2022-02-06T09:34:46Z</time>
      </trkpt>
      <trkpt lat="48.69961" lon="2.01657">
        <ele>77.3</ele>
        <time>2022-02-06T09:34:50Z</time>
      </trkpt>
      <trkpt lat="48.69964" lon="2.01649">
        <ele>77.5</ele>
        <time>2022-02-06T09:34:55Z</time>
      </trkpt>
      <trkpt lat="48.69967" lon="2.01643">
        <ele>78.5</ele>
        <time>2022-02-06T09:34:58Z</time>
      </trkpt>
      <trkpt lat="48.69972" lon="2.01639">
        <ele>79.4</ele>
        <time>2022-02-06T09:35:03Z</time>
      </trkpt>
      <trkpt lat="48.69977" lon="2.01638">
        <ele>79</ele>
        <time>2022-02-06T09:35:06Z</time>
      </trkpt>
      <trkpt lat="48.69983" lon="2.01639">
        <ele>77.9</ele>
        <time>2022-02-06T09:35:11Z</time>
      </trkpt>
      <trkpt lat="48.69988" lon="2.0164">
        <ele>77.2</ele>
        <time>2022-02-06T09:35:14Z</time>
      </trkpt>
      <trkpt lat="48.69993" lon="2.01641">
        <ele>76.5</ele>
        <time>2022-02-06T09:35:18Z</time>
      </trkpt>
      <trkpt lat="48.69998" lon="2.0164">
        <ele>75.7</ele>
        <time>2022-02-06T09:35:21Z</time>
      </trkpt>
      <trkpt lat="48.70003" lon="2.01637">
        <ele>75</ele>
        <time>2022-02-06T09:35:25Z</time>
      </trkpt>
      <trkpt lat="48.70008" lon="2.01633">
        <ele>75.4</ele>
        <time>2022-02-06T09:35:28Z</time>
      </trkpt>
      <trkpt lat="48.70012" lon="2.01626">
        <ele>77.2</ele>
        <time>2022-02-06T09:35:31Z</time>
      </trkpt>
      <trkpt lat="48.70015" lon="2.0162">
        <ele>80</ele>
        <time>2022-02-06T09:35:34Z</time>
      </trkpt>
      <trkpt lat="48.70018" lon="2.01613">
        <ele>81.9</ele>
        <time>2022-02-06T09:35:37Z</time>
      </trkpt>
      <trkpt lat="48.7002" lon="2.01607">
        <ele>83.6</ele>
        <time>2022-02-06T09:35:40Z</time>
      </trkpt>
      <trkpt lat="48.70021" lon="2.01599">
        <ele>84.7</ele>
        <time>2022-02-06T09:35:43Z</time>
      </trkpt>
      <trkpt lat="48.70022" lon="2.01592">
        <ele>85.2</ele>
        <time>2022-02-06T09:35:46Z</time>
      </trkpt>
      <trkpt lat="48.70022" lon="2.01585">
        <ele>84.8</ele>
        <time>2022-02-06T09:35:49Z</time>
      </trkpt>
      <trkpt lat="48.70023" lon="2.01576">
        <ele>83.6</ele>
        <time>2022-02-06T09:35:53Z</time>
      </trkpt>
      <trkpt lat="48.70022" lon="2.01568">
        <ele>82.7</ele>
        <time>2022-02-06T09:35:56Z</time>
      </trkpt>
      <trkpt lat="48.70023" lon="2.0156">
        <ele>82</ele>
        <time>2022-02-06T09:36:01Z</time>
      </trkpt>
      <trkpt lat="48.70023" lon="2.01552">
        <ele>82.2</ele>
        <time>2022-02-06T09:36:04Z</time>
      </trkpt>
      <trkpt lat="48.70024" lon="2.01545">
        <ele>82.2</ele>
        <time>2022-02-06T09:36:07Z</time>
      </trkpt>
      <trkpt lat="48.70024" lon="2.01536">
        <ele>81.6</ele>
        <time>2022-02-06T09:36:12Z</time>
      </trkpt>
      <trkpt lat="48.70023" lon="2.01527">
        <ele>80.4</ele>
        <time>2022-02-06T09:36:16Z</time>
      </trkpt>
      <trkpt lat="48.70022" lon="2.01519">
        <ele>79.9</ele>
        <time>2022-02-06T09:36:20Z</time>
      </trkpt>
      <trkpt lat="48.70021" lon="2.0151">
        <ele>80.2</ele>
        <time>2022-02-06T09:36:25Z</time>
      </trkpt>
      <trkpt lat="48.70021" lon="2.01503">
        <ele>79.8</ele>
        <time>2022-02-06T09:36:28Z</time>
      </trkpt>
      <trkpt lat="48.7002" lon="2.01495">
        <ele>78.6</ele>
        <time>2022-02-06T09:36:32Z</time>
      </trkpt>
      <trkpt lat="48.70021" lon="2.01486">
        <ele>78.4</ele>
        <time>2022-02-06T09:36:37Z</time>
      </trkpt>
      <trkpt lat="48.70023" lon="2.01478">
        <ele>78.4</ele>
        <time>2022-02-06T09:36:41Z</time>
      </trkpt>
      <trkpt lat="48.70025" lon="2.01471">
        <ele>77.2</ele>
        <time>2022-02-06T09:36:46Z</time>
      </trkpt>
      <trkpt lat="48.70028" lon="2.01464">
        <ele>75.6</ele>
        <time>2022-02-06T09:36:50Z</time>
      </trkpt>
      <trkpt lat="48.70031" lon="2.01458">
        <ele>74.3</ele>
        <time>2022-02-06T09:36:54Z</time>
      </trkpt>
      <trkpt lat="48.70034" lon="2.01452">
        <ele>72.9</ele>
        <time>2022-02-06T09:36:58Z</time>
      </trkpt>
      <trkpt lat="48.70038" lon="2.01446">
        <ele>71.8</ele>
        <time>2022-02-06T09:37:03Z</time>
      </trkpt>
      <trkpt lat="48.70041" lon="2.01442">
        <ele>71.1</ele>
        <time>2022-02-06T09:37:06Z</time>
      </trkpt>
      <trkpt lat="48.70046" lon="2.01437">
        <ele>70.2</ele>
        <time>2022-02-06T09:37:11Z</time>
      </trkpt>
      <trkpt lat="48.70049" lon="2.01432">
        <ele>69.5</ele>
        <time>2022-02-06T09:37:15Z</time>
      </trkpt>
      <trkpt lat="48.70053" lon="2.01427">
        <ele>69.3</ele>
        <time>2022-02-06T09:37:19Z</time>
      </trkpt>
      <trkpt lat="48.70056" lon="2.01422">
        <ele>69.5</ele>
        <time>2022-02-06T09:37:23Z</time>
      </trkpt>
      <trkpt lat="48.70061" lon="2.01415">
        <ele>69.6</ele>
        <time>2022-02-06T09:37:28Z</time>
      </trkpt>
      <trkpt lat="48.70064" lon="2.0141">
        <ele>69.3</ele>
        <time>2022-02-06T09:37:32Z</time>
      </trkpt>
      <trkpt lat="48.70068" lon="2.01405">
        <ele>68.8</ele>
        <time>2022-02-06T09:37:37Z</time>
      </trkpt>
      <trkpt lat="48.70072" lon="2.01399">
        <ele>68.5</ele>
        <time>2022-02-06T09:37:41Z</time>
      </trkpt>
      <trkpt lat="48.70076" lon="2.01395">
        <ele>67.9</ele>
        <time>2022-02-06T09:37:44Z</time>
      </trkpt>
      <trkpt lat="48.7008" lon="2.01389">
        <ele>67.7</ele>
        <time>2022-02-06T09:37:48Z</time>
      </trkpt>
      <trkpt lat="48.70083" lon="2.01383">
        <ele>67.5</ele>
        <time>2022-02-06T09:37:53Z</time>
      </trkpt>
      <trkpt lat="48.70086" lon="2.01377">
        <ele>67.3</ele>
        <time>2022-02-06T09:37:57Z</time>
      </trkpt>
      <trkpt lat="48.7009" lon="2.01372">
        <ele>67.3</ele>
        <time>2022-02-06T09:38:01Z</time>
      </trkpt>
      <trkpt lat="48.70094" lon="2.01366">
        <ele>67.6</ele>
        <time>2022-02-06T09:38:05Z</time>
      </trkpt>
      <trkpt lat="48.70098" lon="2.01361">
        <ele>67.8</ele>
        <time>2022-02-06T09:38:10Z</time>
      </trkpt>
      <trkpt lat="48.70103" lon="2.01357">
        <ele>68</ele>
        <time>2022-02-06T09:38:14Z</time>
      </trkpt>
      <trkpt lat="48.70107" lon="2.01352">
        <ele>68.4</ele>
        <time>2022-02-06T09:38:19Z</time>
      </trkpt>
      <trkpt lat="48.7011" lon="2.01347">
        <ele>68.2</ele>
        <time>2022-02-06T09:38:22Z</time>
      </trkpt>
      <trkpt lat="48.70113" lon="2.01342">
        <ele>67.6</ele>
        <time>2022-02-06T09:38:25Z</time>
      </trkpt>
      <trkpt lat="48.70117" lon="2.01335">
        <ele>66.1</ele>
        <time>2022-02-06T09:38:30Z</time>
      </trkpt>
      <trkpt lat="48.7012" lon="2.01328">
        <ele>65.4</ele>
        <time>2022-02-06T09:38:34Z</time>
      </trkpt>
      <trkpt lat="48.70124" lon="2.01321">
        <ele>65.8</ele>
        <time>2022-02-06T09:38:38Z</time>
      </trkpt>
      <trkpt lat="48.70128" lon="2.01315">
        <ele>67.4</ele>
        <time>2022-02-06T09:38:42Z</time>
      </trkpt>
      <trkpt lat="48.70132" lon="2.01309">
        <ele>68.4</ele>
        <time>2022-02-06T09:38:45Z</time>
      </trkpt>
      <trkpt lat="48.70136" lon="2.01305">
        <ele>69.1</ele>
        <time>2022-02-06T09:38:48Z</time>
      </trkpt>
      <trkpt lat="48.70141" lon="2.013">
        <ele>69.2</ele>
        <time>2022-02-06T09:38:52Z</time>
      </trkpt>
      <trkpt lat="48.70147" lon="2.01298">
        <ele>69.4</ele>
        <time>2022-02-06T09:38:57Z</time>
      </trkpt>
      <trkpt lat="48.70152" lon="2.01297">
        <ele>69.4</ele>
        <time>2022-02-06T09:39:00Z</time>
      </trkpt>
      <trkpt lat="48.70157" lon="2.01298">
        <ele>69.5</ele>
        <time>2022-02-06T09:39:03Z</time>
      </trkpt>
      <trkpt lat="48.70161" lon="2.01299">
        <ele>69.9</ele>
        <time>2022-02-06T09:39:07Z</time>
      </trkpt>
      <trkpt lat="48.70167" lon="2.01302">
        <ele>71.8</ele>
        <time>2022-02-06T09:39:10Z</time>
      </trkpt>
      <trkpt lat="48.70171" lon="2.01303">
        <ele>73.8</ele>
        <time>2022-02-06T09:39:13Z</time>
      </trkpt>
      <trkpt lat="48.70176" lon="2.01304">
        <ele>75.3</ele>
        <time>2022-02-06T09:39:17Z</time>
      </trkpt>
      <trkpt lat="48.70177" lon="2.01297">
        <ele>77.2</ele>
        <time>2022-02-06T09:39:22Z</time>
      </trkpt>
      <trkpt lat="48.70182" lon="2.01297">
        <ele>78.7</ele>
        <time>2022-02-06T09:39:31Z</time>
      </trkpt>
      <trkpt lat="48.70186" lon="2.01301">
        <ele>79.7</ele>
        <time>2022-02-06T09:39:36Z</time>
      </trkpt>
      <trkpt lat="48.70189" lon="2.01307">
        <ele>80.7</ele>
        <time>2022-02-06T09:39:41Z</time>
      </trkpt>
      <trkpt lat="48.70193" lon="2.01311">
        <ele>81.9</ele>
        <time>2022-02-06T09:39:48Z</time>
      </trkpt>
      <trkpt lat="48.70198" lon="2.01312">
        <ele>82.6</ele>
        <time>2022-02-06T09:40:03Z</time>
      </trkpt>
      <trkpt lat="48.70203" lon="2.01314">
        <ele>82.3</ele>
        <time>2022-02-06T09:40:09Z</time>
      </trkpt>
      <trkpt lat="48.70208" lon="2.01316">
        <ele>82.6</ele>
        <time>2022-02-06T09:40:14Z</time>
      </trkpt>
      <trkpt lat="48.70212" lon="2.0132">
        <ele>83</ele>
        <time>2022-02-06T09:40:28Z</time>
      </trkpt>
      <trkpt lat="48.70217" lon="2.01322">
        <ele>81.3</ele>
        <time>2022-02-06T09:40:32Z</time>
      </trkpt>
      <trkpt lat="48.70221" lon="2.01325">
        <ele>80.3</ele>
        <time>2022-02-06T09:40:36Z</time>
      </trkpt>
      <trkpt lat="48.70226" lon="2.01327">
        <ele>79.5</ele>
        <time>2022-02-06T09:40:42Z</time>
      </trkpt>
      <trkpt lat="48.7023" lon="2.01331">
        <ele>78.5</ele>
        <time>2022-02-06T09:40:46Z</time>
      </trkpt>
      <trkpt lat="48.70234" lon="2.01334">
        <ele>77.8</ele>
        <time>2022-02-06T09:40:49Z</time>
      </trkpt>
      <trkpt lat="48.7024" lon="2.01335">
        <ele>77.3</ele>
        <time>2022-02-06T09:40:53Z</time>
      </trkpt>
      <trkpt lat="48.70244" lon="2.01336">
        <ele>77.1</ele>
        <time>2022-02-06T09:40:56Z</time>
      </trkpt>
      <trkpt lat="48.7025" lon="2.01337">
        <ele>76.7</ele>
        <time>2022-02-06T09:40:59Z</time>
      </trkpt>
      <trkpt lat="48.70254" lon="2.01339">
        <ele>76.5</ele>
        <time>2022-02-06T09:41:02Z</time>
      </trkpt>
      <trkpt lat="48.70259" lon="2.01341">
        <ele>76.8</ele>
        <time>2022-02-06T09:41:05Z</time>
      </trkpt>
      <trkpt lat="48.70263" lon="2.01342">
        <ele>78.8</ele>
        <time>2022-02-06T09:41:09Z</time>
      </trkpt>
      <trkpt lat="48.70268" lon="2.01345">
        <ele>82.1</ele>
        <time>2022-02-06T09:41:13Z</time>
      </trkpt>
      <trkpt lat="48.70273" lon="2.01348">
        <ele>84.5</ele>
        <time>2022-02-06T09:41:18Z</time>
      </trkpt>
      <trkpt lat="48.70278" lon="2.01352">
        <ele>86.2</ele>
        <time>2022-02-06T09:41:22Z</time>
      </trkpt>
      <trkpt lat="48.70282" lon="2.01357">
        <ele>88</ele>
        <time>2022-02-06T09:41:26Z</time>
      </trkpt>
      <trkpt lat="48.70287" lon="2.0136">
        <ele>89.6</ele>
        <time>2022-02-06T09:41:31Z</time>
      </trkpt>
      <trkpt lat="48.70292" lon="2.01362">
        <ele>87.1</ele>
        <time>2022-02-06T09:41:41Z</time>
      </trkpt>
      <trkpt lat="48.70297" lon="2.01366">
        <ele>84.4</ele>
        <time>2022-02-06T09:41:46Z</time>
      </trkpt>
      <trkpt lat="48.70303" lon="2.01369">
        <ele>83.6</ele>
        <time>2022-02-06T09:41:49Z</time>
      </trkpt>
      <trkpt lat="48.70307" lon="2.01372">
        <ele>84</ele>
        <time>2022-02-06T09:41:51Z</time>
      </trkpt>
      <trkpt lat="48.70312" lon="2.01374">
        <ele>84.5</ele>
        <time>2022-02-06T09:41:55Z</time>
      </trkpt>
      <trkpt lat="48.70317" lon="2.01377">
        <ele>85.5</ele>
        <time>2022-02-06T09:41:59Z</time>
      </trkpt>
      <trkpt lat="48.70321" lon="2.01381">
        <ele>85.2</ele>
        <time>2022-02-06T09:42:03Z</time>
      </trkpt>
      <trkpt lat="48.70325" lon="2.01387">
        <ele>85.4</ele>
        <time>2022-02-06T09:42:08Z</time>
      </trkpt>
      <trkpt lat="48.70344" lon="2.01401">
        <ele>85.7</ele>
        <time>2022-02-06T09:42:25Z</time>
      </trkpt>
      <trkpt lat="48.70348" lon="2.01407">
        <ele>87.8</ele>
        <time>2022-02-06T09:42:30Z</time>
      </trkpt>
      <trkpt lat="48.70352" lon="2.01412">
        <ele>88.8</ele>
        <time>2022-02-06T09:42:34Z</time>
      </trkpt>
      <trkpt lat="48.70357" lon="2.0141">
        <ele>89.7</ele>
        <time>2022-02-06T09:42:38Z</time>
      </trkpt>
      <trkpt lat="48.70359" lon="2.01403">
        <ele>90</ele>
        <time>2022-02-06T09:42:42Z</time>
      </trkpt>
      <trkpt lat="48.70359" lon="2.01394">
        <ele>89.9</ele>
        <time>2022-02-06T09:42:46Z</time>
      </trkpt>
      <trkpt lat="48.70359" lon="2.01386">
        <ele>89</ele>
        <time>2022-02-06T09:42:51Z</time>
      </trkpt>
      <trkpt lat="48.70359" lon="2.01378">
        <ele>88</ele>
        <time>2022-02-06T09:42:55Z</time>
      </trkpt>
      <trkpt lat="48.70361" lon="2.01371">
        <ele>87.1</ele>
        <time>2022-02-06T09:43:00Z</time>
      </trkpt>
      <trkpt lat="48.70364" lon="2.01364">
        <ele>86.7</ele>
        <time>2022-02-06T09:43:04Z</time>
      </trkpt>
      <trkpt lat="48.70367" lon="2.01359">
        <ele>87.1</ele>
        <time>2022-02-06T09:43:09Z</time>
      </trkpt>
      <trkpt lat="48.70372" lon="2.01352">
        <ele>88.8</ele>
        <time>2022-02-06T09:43:13Z</time>
      </trkpt>
      <trkpt lat="48.70375" lon="2.01346">
        <ele>90.1</ele>
        <time>2022-02-06T09:43:16Z</time>
      </trkpt>
      <trkpt lat="48.70377" lon="2.01338">
        <ele>90.9</ele>
        <time>2022-02-06T09:43:20Z</time>
      </trkpt>
      <trkpt lat="48.7038" lon="2.01332">
        <ele>91</ele>
        <time>2022-02-06T09:43:23Z</time>
      </trkpt>
      <trkpt lat="48.70383" lon="2.01325">
        <ele>91.6</ele>
        <time>2022-02-06T09:43:27Z</time>
      </trkpt>
      <trkpt lat="48.70386" lon="2.01317">
        <ele>92.1</ele>
        <time>2022-02-06T09:43:32Z</time>
      </trkpt>
      <trkpt lat="48.70388" lon="2.01311">
        <ele>92.1</ele>
        <time>2022-02-06T09:43:35Z</time>
      </trkpt>
      <trkpt lat="48.7039" lon="2.01305">
        <ele>92</ele>
        <time>2022-02-06T09:43:39Z</time>
      </trkpt>
      <trkpt lat="48.70393" lon="2.01299">
        <ele>92.2</ele>
        <time>2022-02-06T09:43:42Z</time>
      </trkpt>
      <trkpt lat="48.70395" lon="2.01291">
        <ele>92.8</ele>
        <time>2022-02-06T09:43:46Z</time>
      </trkpt>
      <trkpt lat="48.70395" lon="2.01283">
        <ele>93.7</ele>
        <time>2022-02-06T09:43:51Z</time>
      </trkpt>
      <trkpt lat="48.70397" lon="2.01274">
        <ele>95.1</ele>
        <time>2022-02-06T09:43:55Z</time>
      </trkpt>
      <trkpt lat="48.70398" lon="2.01267">
        <ele>96.1</ele>
        <time>2022-02-06T09:43:58Z</time>
      </trkpt>
      <trkpt lat="48.70399" lon="2.0126">
        <ele>97.3</ele>
        <time>2022-02-06T09:44:01Z</time>
      </trkpt>
      <trkpt lat="48.704" lon="2.01253">
        <ele>98.2</ele>
        <time>2022-02-06T09:44:05Z</time>
      </trkpt>
      <trkpt lat="48.70403" lon="2.01247">
        <ele>98.4</ele>
        <time>2022-02-06T09:44:09Z</time>
      </trkpt>
      <trkpt lat="48.70409" lon="2.01248">
        <ele>96.7</ele>
        <time>2022-02-06T09:44:15Z</time>
      </trkpt>
      <trkpt lat="48.70411" lon="2.01254">
        <ele>95.9</ele>
        <time>2022-02-06T09:44:20Z</time>
      </trkpt>
      <trkpt lat="48.70409" lon="2.01262">
        <ele>95.1</ele>
        <time>2022-02-06T09:45:54Z</time>
      </trkpt>
      <trkpt lat="48.70414" lon="2.01258">
        <ele>93.8</ele>
        <time>2022-02-06T09:46:08Z</time>
      </trkpt>
      <trkpt lat="48.70416" lon="2.0125">
        <ele>92.9</ele>
        <time>2022-02-06T09:46:12Z</time>
      </trkpt>
      <trkpt lat="48.70418" lon="2.01242">
        <ele>92.2</ele>
        <time>2022-02-06T09:46:16Z</time>
      </trkpt>
      <trkpt lat="48.7042" lon="2.01235">
        <ele>91.5</ele>
        <time>2022-02-06T09:46:20Z</time>
      </trkpt>
      <trkpt lat="48.70423" lon="2.01228">
        <ele>91.1</ele>
        <time>2022-02-06T09:46:24Z</time>
      </trkpt>
      <trkpt lat="48.70427" lon="2.01224">
        <ele>91.1</ele>
        <time>2022-02-06T09:46:28Z</time>
      </trkpt>
      <trkpt lat="48.70431" lon="2.01219">
        <ele>90.3</ele>
        <time>2022-02-06T09:46:32Z</time>
      </trkpt>
      <trkpt lat="48.70435" lon="2.01213">
        <ele>88.8</ele>
        <time>2022-02-06T09:46:37Z</time>
      </trkpt>
      <trkpt lat="48.70437" lon="2.01206">
        <ele>88</ele>
        <time>2022-02-06T09:46:42Z</time>
      </trkpt>
      <trkpt lat="48.70437" lon="2.01199">
        <ele>87.9</ele>
        <time>2022-02-06T09:46:46Z</time>
      </trkpt>
      <trkpt lat="48.70435" lon="2.01192">
        <ele>87.6</ele>
        <time>2022-02-06T09:46:50Z</time>
      </trkpt>
      <trkpt lat="48.70436" lon="2.01184">
        <ele>87.6</ele>
        <time>2022-02-06T09:46:54Z</time>
      </trkpt>
      <trkpt lat="48.70439" lon="2.01178">
        <ele>87.8</ele>
        <time>2022-02-06T09:46:58Z</time>
      </trkpt>
      <trkpt lat="48.70441" lon="2.01172">
        <ele>87.9</ele>
        <time>2022-02-06T09:47:02Z</time>
      </trkpt>
      <trkpt lat="48.7044" lon="2.01164">
        <ele>88.3</ele>
        <time>2022-02-06T09:47:07Z</time>
      </trkpt>
      <trkpt lat="48.70441" lon="2.01156">
        <ele>90</ele>
        <time>2022-02-06T09:47:14Z</time>
      </trkpt>
      <trkpt lat="48.70443" lon="2.01148">
        <ele>92.5</ele>
        <time>2022-02-06T09:47:20Z</time>
      </trkpt>
      <trkpt lat="48.70446" lon="2.01142">
        <ele>97.1</ele>
        <time>2022-02-06T09:47:28Z</time>
      </trkpt>
      <trkpt lat="48.70448" lon="2.01136">
        <ele>99</ele>
        <time>2022-02-06T09:47:34Z</time>
      </trkpt>
      <trkpt lat="48.70452" lon="2.01131">
        <ele>100.7</ele>
        <time>2022-02-06T09:47:39Z</time>
      </trkpt>
      <trkpt lat="48.70457" lon="2.01129">
        <ele>102.1</ele>
        <time>2022-02-06T09:47:44Z</time>
      </trkpt>
      <trkpt lat="48.70463" lon="2.01131">
        <ele>101.4</ele>
        <time>2022-02-06T09:47:49Z</time>
      </trkpt>
      <trkpt lat="48.70468" lon="2.01131">
        <ele>99.9</ele>
        <time>2022-02-06T09:47:53Z</time>
      </trkpt>
      <trkpt lat="48.70474" lon="2.01131">
        <ele>98.1</ele>
        <time>2022-02-06T09:47:58Z</time>
      </trkpt>
      <trkpt lat="48.70478" lon="2.01132">
        <ele>97.6</ele>
        <time>2022-02-06T09:48:03Z</time>
      </trkpt>
      <trkpt lat="48.70483" lon="2.01128">
        <ele>98.1</ele>
        <time>2022-02-06T09:48:11Z</time>
      </trkpt>
      <trkpt lat="48.70483" lon="2.0112">
        <ele>97.8</ele>
        <time>2022-02-06T09:48:14Z</time>
      </trkpt>
      <trkpt lat="48.70483" lon="2.01112">
        <ele>97.2</ele>
        <time>2022-02-06T09:48:18Z</time>
      </trkpt>
      <trkpt lat="48.70488" lon="2.0111">
        <ele>97.2</ele>
        <time>2022-02-06T09:48:25Z</time>
      </trkpt>
      <trkpt lat="48.70494" lon="2.01107">
        <ele>98.3</ele>
        <time>2022-02-06T09:48:30Z</time>
      </trkpt>
      <trkpt lat="48.70499" lon="2.01106">
        <ele>99.8</ele>
        <time>2022-02-06T09:48:34Z</time>
      </trkpt>
      <trkpt lat="48.70505" lon="2.01105">
        <ele>100.6</ele>
        <time>2022-02-06T09:48:38Z</time>
      </trkpt>
      <trkpt lat="48.70511" lon="2.01105">
        <ele>102</ele>
        <time>2022-02-06T09:48:43Z</time>
      </trkpt>
      <trkpt lat="48.70515" lon="2.01109">
        <ele>110.5</ele>
        <time>2022-02-06T09:49:11Z</time>
      </trkpt>
      <trkpt lat="48.7052" lon="2.0111">
        <ele>113.3</ele>
        <time>2022-02-06T09:49:17Z</time>
      </trkpt>
      <trkpt lat="48.70524" lon="2.01111">
        <ele>117.2</ele>
        <time>2022-02-06T09:49:28Z</time>
      </trkpt>
      <trkpt lat="48.7053" lon="2.0111">
        <ele>118.3</ele>
        <time>2022-02-06T09:49:34Z</time>
      </trkpt>
      <trkpt lat="48.70535" lon="2.01109">
        <ele>121.6</ele>
        <time>2022-02-06T09:49:39Z</time>
      </trkpt>
      <trkpt lat="48.7054" lon="2.01111">
        <ele>123.5</ele>
        <time>2022-02-06T09:49:43Z</time>
      </trkpt>
      <trkpt lat="48.70545" lon="2.0111">
        <ele>123.3</ele>
        <time>2022-02-06T09:49:50Z</time>
      </trkpt>
      <trkpt lat="48.70549" lon="2.01105">
        <ele>126.2</ele>
        <time>2022-02-06T09:49:56Z</time>
      </trkpt>
      <trkpt lat="48.70551" lon="2.01098">
        <ele>128.6</ele>
        <time>2022-02-06T09:50:00Z</time>
      </trkpt>
      <trkpt lat="48.70553" lon="2.01091">
        <ele>130.3</ele>
        <time>2022-02-06T09:50:05Z</time>
      </trkpt>
      <trkpt lat="48.70558" lon="2.01089">
        <ele>129.9</ele>
        <time>2022-02-06T09:50:10Z</time>
      </trkpt>
      <trkpt lat="48.70562" lon="2.01087">
        <ele>130.1</ele>
        <time>2022-02-06T09:50:15Z</time>
      </trkpt>
      <trkpt lat="48.70567" lon="2.01086">
        <ele>130.7</ele>
        <time>2022-02-06T09:50:21Z</time>
      </trkpt>
      <trkpt lat="48.70572" lon="2.01089">
        <ele>132.3</ele>
        <time>2022-02-06T09:50:26Z</time>
      </trkpt>
      <trkpt lat="48.70576" lon="2.01093">
        <ele>135.3</ele>
        <time>2022-02-06T09:50:34Z</time>
      </trkpt>
      <trkpt lat="48.70581" lon="2.01095">
        <ele>137.6</ele>
        <time>2022-02-06T09:50:43Z</time>
      </trkpt>
      <trkpt lat="48.70586" lon="2.01095">
        <ele>137.2</ele>
        <time>2022-02-06T09:50:51Z</time>
      </trkpt>
      <trkpt lat="48.7059" lon="2.01093">
        <ele>141.5</ele>
        <time>2022-02-06T09:50:59Z</time>
      </trkpt>
      <trkpt lat="48.70595" lon="2.01091">
        <ele>145.5</ele>
        <time>2022-02-06T09:51:07Z</time>
      </trkpt>
      <trkpt lat="48.70599" lon="2.01088">
        <ele>148.2</ele>
        <time>2022-02-06T09:51:16Z</time>
      </trkpt>
      <trkpt lat="48.70603" lon="2.01086">
        <ele>150.6</ele>
        <time>2022-02-06T09:51:23Z</time>
      </trkpt>
      <trkpt lat="48.70609" lon="2.01087">
        <ele>152.3</ele>
        <time>2022-02-06T09:51:29Z</time>
      </trkpt>
      <trkpt lat="48.70614" lon="2.01086">
        <ele>151.2</ele>
        <time>2022-02-06T09:51:34Z</time>
      </trkpt>
      <trkpt lat="48.70619" lon="2.01087">
        <ele>149.7</ele>
        <time>2022-02-06T09:51:41Z</time>
      </trkpt>
      <trkpt lat="48.70623" lon="2.01089">
        <ele>147.4</ele>
        <time>2022-02-06T09:51:49Z</time>
      </trkpt>
      <trkpt lat="48.70624" lon="2.01081">
        <ele>148.2</ele>
        <time>2022-02-06T09:51:57Z</time>
      </trkpt>
      <trkpt lat="48.70622" lon="2.01074">
        <ele>149.1</ele>
        <time>2022-02-06T09:52:01Z</time>
      </trkpt>
      <trkpt lat="48.70619" lon="2.01066">
        <ele>149.8</ele>
        <time>2022-02-06T09:52:05Z</time>
      </trkpt>
      <trkpt lat="48.70617" lon="2.01059">
        <ele>150.4</ele>
        <time>2022-02-06T09:52:10Z</time>
      </trkpt>
      <trkpt lat="48.70614" lon="2.01053">
        <ele>150.7</ele>
        <time>2022-02-06T09:52:15Z</time>
      </trkpt>
      <trkpt lat="48.70611" lon="2.01046">
        <ele>150.6</ele>
        <time>2022-02-06T09:52:22Z</time>
      </trkpt>
      <trkpt lat="48.70617" lon="2.01044">
        <ele>151.1</ele>
        <time>2022-02-06T09:52:28Z</time>
      </trkpt>
      <trkpt lat="48.70619" lon="2.0105">
        <ele>150.7</ele>
        <time>2022-02-06T09:52:39Z</time>
      </trkpt>
      <trkpt lat="48.70619" lon="2.01043">
        <ele>151</ele>
        <time>2022-02-06T09:53:05Z</time>
      </trkpt>
      <trkpt lat="48.70618" lon="2.01051">
        <ele>148.3</ele>
        <time>2022-02-06T09:54:33Z</time>
      </trkpt>
      <trkpt lat="48.70615" lon="2.01056">
        <ele>147</ele>
        <time>2022-02-06T09:54:38Z</time>
      </trkpt>
      <trkpt lat="48.7061" lon="2.01059">
        <ele>146.2</ele>
        <time>2022-02-06T09:54:42Z</time>
      </trkpt>
      <trkpt lat="48.70615" lon="2.01061">
        <ele>142</ele>
        <time>2022-02-06T09:56:56Z</time>
      </trkpt>
      <trkpt lat="48.70617" lon="2.01067">
        <ele>143.9</ele>
        <time>2022-02-06T09:57:04Z</time>
      </trkpt>
      <trkpt lat="48.70622" lon="2.01065">
        <ele>145.4</ele>
        <time>2022-02-06T09:57:20Z</time>
      </trkpt>
      <trkpt lat="48.70618" lon="2.01061">
        <ele>143.2</ele>
        <time>2022-02-06T09:57:29Z</time>
      </trkpt>
      <trkpt lat="48.70621" lon="2.01056">
        <ele>144.1</ele>
        <time>2022-02-06T10:00:43Z</time>
      </trkpt>
      <trkpt lat="48.70622" lon="2.01049">
        <ele>144.2</ele>
        <time>2022-02-06T10:01:24Z</time>
      </trkpt>
      <trkpt lat="48.70622" lon="2.01041">
        <ele>143.4</ele>
        <time>2022-02-06T10:01:29Z</time>
      </trkpt>
      <trkpt lat="48.70623" lon="2.01032">
        <ele>143</ele>
        <time>2022-02-06T10:01:33Z</time>
      </trkpt>
      <trkpt lat="48.70624" lon="2.01026">
        <ele>142.5</ele>
        <time>2022-02-06T10:01:36Z</time>
      </trkpt>
      <trkpt lat="48.70624" lon="2.01017">
        <ele>142.5</ele>
        <time>2022-02-06T10:01:40Z</time>
      </trkpt>
      <trkpt lat="48.70624" lon="2.0101">
        <ele>143.3</ele>
        <time>2022-02-06T10:01:44Z</time>
      </trkpt>
      <trkpt lat="48.70625" lon="2.01001">
        <ele>145.7</ele>
        <time>2022-02-06T10:01:50Z</time>
      </trkpt>
      <trkpt lat="48.70625" lon="2.00993">
        <ele>147.4</ele>
        <time>2022-02-06T10:01:55Z</time>
      </trkpt>
      <trkpt lat="48.70623" lon="2.00984">
        <ele>147.5</ele>
        <time>2022-02-06T10:01:59Z</time>
      </trkpt>
      <trkpt lat="48.70623" lon="2.00977">
        <ele>147</ele>
        <time>2022-02-06T10:02:03Z</time>
      </trkpt>
      <trkpt lat="48.70623" lon="2.00968">
        <ele>146.3</ele>
        <time>2022-02-06T10:02:09Z</time>
      </trkpt>
      <trkpt lat="48.70622" lon="2.00961">
        <ele>148.8</ele>
        <time>2022-02-06T10:02:16Z</time>
      </trkpt>
      <trkpt lat="48.7062" lon="2.00953">
        <ele>153.1</ele>
        <time>2022-02-06T10:02:25Z</time>
      </trkpt>
      <trkpt lat="48.70622" lon="2.00945">
        <ele>155.3</ele>
        <time>2022-02-06T10:02:31Z</time>
      </trkpt>
      <trkpt lat="48.70623" lon="2.00937">
        <ele>158.1</ele>
        <time>2022-02-06T10:02:37Z</time>
      </trkpt>
      <trkpt lat="48.70622" lon="2.0093">
        <ele>160.3</ele>
        <time>2022-02-06T10:02:43Z</time>
      </trkpt>
      <trkpt lat="48.70624" lon="2.00922">
        <ele>160.6</ele>
        <time>2022-02-06T10:02:50Z</time>
      </trkpt>
      <trkpt lat="48.70625" lon="2.00915">
        <ele>159.7</ele>
        <time>2022-02-06T10:02:54Z</time>
      </trkpt>
      <trkpt lat="48.70627" lon="2.00908">
        <ele>156.6</ele>
        <time>2022-02-06T10:03:00Z</time>
      </trkpt>
      <trkpt lat="48.70629" lon="2.00901">
        <ele>154.3</ele>
        <time>2022-02-06T10:03:05Z</time>
      </trkpt>
      <trkpt lat="48.70632" lon="2.00893">
        <ele>153.6</ele>
        <time>2022-02-06T10:03:11Z</time>
      </trkpt>
      <trkpt lat="48.70635" lon="2.00887">
        <ele>153.4</ele>
        <time>2022-02-06T10:03:15Z</time>
      </trkpt>
      <trkpt lat="48.70636" lon="2.0088">
        <ele>153</ele>
        <time>2022-02-06T10:03:20Z</time>
      </trkpt>
      <trkpt lat="48.70638" lon="2.00874">
        <ele>153.9</ele>
        <time>2022-02-06T10:03:25Z</time>
      </trkpt>
      <trkpt lat="48.70641" lon="2.00868">
        <ele>155.7</ele>
        <time>2022-02-06T10:03:30Z</time>
      </trkpt>
      <trkpt lat="48.70644" lon="2.0086">
        <ele>157.1</ele>
        <time>2022-02-06T10:03:36Z</time>
      </trkpt>
      <trkpt lat="48.70646" lon="2.00854">
        <ele>156.9</ele>
        <time>2022-02-06T10:03:40Z</time>
      </trkpt>
      <trkpt lat="48.70648" lon="2.00847">
        <ele>156.1</ele>
        <time>2022-02-06T10:03:45Z</time>
      </trkpt>
      <trkpt lat="48.7065" lon="2.00839">
        <ele>154</ele>
        <time>2022-02-06T10:03:50Z</time>
      </trkpt>
      <trkpt lat="48.70651" lon="2.00832">
        <ele>152.3</ele>
        <time>2022-02-06T10:03:53Z</time>
      </trkpt>
      <trkpt lat="48.70653" lon="2.00825">
        <ele>150.9</ele>
        <time>2022-02-06T10:03:58Z</time>
      </trkpt>
      <trkpt lat="48.70654" lon="2.00816">
        <ele>149.9</ele>
        <time>2022-02-06T10:04:03Z</time>
      </trkpt>
      <trkpt lat="48.70655" lon="2.00808">
        <ele>149.6</ele>
        <time>2022-02-06T10:04:08Z</time>
      </trkpt>
      <trkpt lat="48.70656" lon="2.008">
        <ele>149.3</ele>
        <time>2022-02-06T10:04:12Z</time>
      </trkpt>
      <trkpt lat="48.70658" lon="2.00793">
        <ele>149.2</ele>
        <time>2022-02-06T10:04:17Z</time>
      </trkpt>
      <trkpt lat="48.7066" lon="2.00786">
        <ele>150.5</ele>
        <time>2022-02-06T10:04:21Z</time>
      </trkpt>
      <trkpt lat="48.70662" lon="2.00779">
        <ele>153</ele>
        <time>2022-02-06T10:04:26Z</time>
      </trkpt>
      <trkpt lat="48.70665" lon="2.00772">
        <ele>154.6</ele>
        <time>2022-02-06T10:04:30Z</time>
      </trkpt>
      <trkpt lat="48.70667" lon="2.00764">
        <ele>155.5</ele>
        <time>2022-02-06T10:04:35Z</time>
      </trkpt>
      <trkpt lat="48.7067" lon="2.00756">
        <ele>156.4</ele>
        <time>2022-02-06T10:04:40Z</time>
      </trkpt>
      <trkpt lat="48.70671" lon="2.00749">
        <ele>156.7</ele>
        <time>2022-02-06T10:04:44Z</time>
      </trkpt>
      <trkpt lat="48.70672" lon="2.00741">
        <ele>156.2</ele>
        <time>2022-02-06T10:04:49Z</time>
      </trkpt>
      <trkpt lat="48.70675" lon="2.00735">
        <ele>154.7</ele>
        <time>2022-02-06T10:04:54Z</time>
      </trkpt>
      <trkpt lat="48.70678" lon="2.00728">
        <ele>153.8</ele>
        <time>2022-02-06T10:04:58Z</time>
      </trkpt>
      <trkpt lat="48.70679" lon="2.0072">
        <ele>153.7</ele>
        <time>2022-02-06T10:05:03Z</time>
      </trkpt>
      <trkpt lat="48.7068" lon="2.00711">
        <ele>153.8</ele>
        <time>2022-02-06T10:05:07Z</time>
      </trkpt>
      <trkpt lat="48.70681" lon="2.00704">
        <ele>153.5</ele>
        <time>2022-02-06T10:05:11Z</time>
      </trkpt>
      <trkpt lat="48.70682" lon="2.00696">
        <ele>152.5</ele>
        <time>2022-02-06T10:05:15Z</time>
      </trkpt>
      <trkpt lat="48.70683" lon="2.00689">
        <ele>151.9</ele>
        <time>2022-02-06T10:05:19Z</time>
      </trkpt>
      <trkpt lat="48.70686" lon="2.00683">
        <ele>152.1</ele>
        <time>2022-02-06T10:05:22Z</time>
      </trkpt>
      <trkpt lat="48.7069" lon="2.00677">
        <ele>152.3</ele>
        <time>2022-02-06T10:05:27Z</time>
      </trkpt>
      <trkpt lat="48.70692" lon="2.00669">
        <ele>152.4</ele>
        <time>2022-02-06T10:05:31Z</time>
      </trkpt>
      <trkpt lat="48.70695" lon="2.00662">
        <ele>151.9</ele>
        <time>2022-02-06T10:05:36Z</time>
      </trkpt>
      <trkpt lat="48.70699" lon="2.00657">
        <ele>151.6</ele>
        <time>2022-02-06T10:05:40Z</time>
      </trkpt>
      <trkpt lat="48.70702" lon="2.00651">
        <ele>151.3</ele>
        <time>2022-02-06T10:05:44Z</time>
      </trkpt>
      <trkpt lat="48.70705" lon="2.00645">
        <ele>150.9</ele>
        <time>2022-02-06T10:05:50Z</time>
      </trkpt>
      <trkpt lat="48.70709" lon="2.00638">
        <ele>151.1</ele>
        <time>2022-02-06T10:05:54Z</time>
      </trkpt>
      <trkpt lat="48.70713" lon="2.00633">
        <ele>151.2</ele>
        <time>2022-02-06T10:05:58Z</time>
      </trkpt>
      <trkpt lat="48.70716" lon="2.00627">
        <ele>151.3</ele>
        <time>2022-02-06T10:06:02Z</time>
      </trkpt>
      <trkpt lat="48.70721" lon="2.00622">
        <ele>151</ele>
        <time>2022-02-06T10:06:09Z</time>
      </trkpt>
      <trkpt lat="48.70725" lon="2.00615">
        <ele>150</ele>
        <time>2022-02-06T10:06:13Z</time>
      </trkpt>
      <trkpt lat="48.70729" lon="2.00609">
        <ele>149.6</ele>
        <time>2022-02-06T10:06:18Z</time>
      </trkpt>
      <trkpt lat="48.70733" lon="2.00604">
        <ele>150.4</ele>
        <time>2022-02-06T10:06:22Z</time>
      </trkpt>
      <trkpt lat="48.70737" lon="2.00599">
        <ele>151.1</ele>
        <time>2022-02-06T10:06:25Z</time>
      </trkpt>
      <trkpt lat="48.70756" lon="2.00562">
        <ele>148.5</ele>
        <time>2022-02-06T10:06:57Z</time>
      </trkpt>
      <trkpt lat="48.7076" lon="2.00557">
        <ele>148.3</ele>
        <time>2022-02-06T10:07:01Z</time>
      </trkpt>
      <trkpt lat="48.70764" lon="2.00552">
        <ele>148.5</ele>
        <time>2022-02-06T10:07:04Z</time>
      </trkpt>
      <trkpt lat="48.70767" lon="2.00546">
        <ele>148.4</ele>
        <time>2022-02-06T10:07:08Z</time>
      </trkpt>
      <trkpt lat="48.70769" lon="2.0054">
        <ele>148</ele>
        <time>2022-02-06T10:07:11Z</time>
      </trkpt>
      <trkpt lat="48.70773" lon="2.00534">
        <ele>147.5</ele>
        <time>2022-02-06T10:07:16Z</time>
      </trkpt>
      <trkpt lat="48.70777" lon="2.00529">
        <ele>148.5</ele>
        <time>2022-02-06T10:07:20Z</time>
      </trkpt>
      <trkpt lat="48.7078" lon="2.00521">
        <ele>150</ele>
        <time>2022-02-06T10:07:25Z</time>
      </trkpt>
      <trkpt lat="48.70783" lon="2.00515">
        <ele>150.5</ele>
        <time>2022-02-06T10:07:28Z</time>
      </trkpt>
      <trkpt lat="48.70787" lon="2.0051">
        <ele>150.4</ele>
        <time>2022-02-06T10:07:31Z</time>
      </trkpt>
      <trkpt lat="48.70791" lon="2.00504">
        <ele>150.5</ele>
        <time>2022-02-06T10:07:36Z</time>
      </trkpt>
      <trkpt lat="48.70795" lon="2.00499">
        <ele>151.6</ele>
        <time>2022-02-06T10:07:40Z</time>
      </trkpt>
      <trkpt lat="48.708" lon="2.00497">
        <ele>153.3</ele>
        <time>2022-02-06T10:07:43Z</time>
      </trkpt>
      <trkpt lat="48.70806" lon="2.00497">
        <ele>155.5</ele>
        <time>2022-02-06T10:07:46Z</time>
      </trkpt>
      <trkpt lat="48.70812" lon="2.00498">
        <ele>157.3</ele>
        <time>2022-02-06T10:07:50Z</time>
      </trkpt>
      <trkpt lat="48.70818" lon="2.00497">
        <ele>158.2</ele>
        <time>2022-02-06T10:07:54Z</time>
      </trkpt>
      <trkpt lat="48.70822" lon="2.00493">
        <ele>158.7</ele>
        <time>2022-02-06T10:07:56Z</time>
      </trkpt>
      <trkpt lat="48.70826" lon="2.00487">
        <ele>159.3</ele>
        <time>2022-02-06T10:08:00Z</time>
      </trkpt>
      <trkpt lat="48.70829" lon="2.00481">
        <ele>159.9</ele>
        <time>2022-02-06T10:08:03Z</time>
      </trkpt>
      <trkpt lat="48.70831" lon="2.00474">
        <ele>160.6</ele>
        <time>2022-02-06T10:08:07Z</time>
      </trkpt>
      <trkpt lat="48.70831" lon="2.00467">
        <ele>161</ele>
        <time>2022-02-06T10:08:10Z</time>
      </trkpt>
      <trkpt lat="48.7083" lon="2.0046">
        <ele>160.9</ele>
        <time>2022-02-06T10:08:13Z</time>
      </trkpt>
      <trkpt lat="48.70832" lon="2.00454">
        <ele>160.6</ele>
        <time>2022-02-06T10:08:18Z</time>
      </trkpt>
      <trkpt lat="48.70836" lon="2.00451">
        <ele>160.7</ele>
        <time>2022-02-06T10:08:21Z</time>
      </trkpt>
      <trkpt lat="48.70839" lon="2.00446">
        <ele>161.3</ele>
        <time>2022-02-06T10:08:24Z</time>
      </trkpt>
      <trkpt lat="48.7084" lon="2.00439">
        <ele>161.7</ele>
        <time>2022-02-06T10:08:27Z</time>
      </trkpt>
      <trkpt lat="48.70841" lon="2.00432">
        <ele>161.6</ele>
        <time>2022-02-06T10:08:30Z</time>
      </trkpt>
      <trkpt lat="48.70842" lon="2.00425">
        <ele>160.9</ele>
        <time>2022-02-06T10:08:35Z</time>
      </trkpt>
      <trkpt lat="48.70843" lon="2.00418">
        <ele>159.5</ele>
        <time>2022-02-06T10:08:39Z</time>
      </trkpt>
      <trkpt lat="48.70844" lon="2.00409">
        <ele>158.8</ele>
        <time>2022-02-06T10:08:45Z</time>
      </trkpt>
      <trkpt lat="48.70845" lon="2.00401">
        <ele>160.2</ele>
        <time>2022-02-06T10:08:50Z</time>
      </trkpt>
      <trkpt lat="48.70844" lon="2.00394">
        <ele>162</ele>
        <time>2022-02-06T10:08:54Z</time>
      </trkpt>
      <trkpt lat="48.70846" lon="2.00386">
        <ele>163.5</ele>
        <time>2022-02-06T10:08:58Z</time>
      </trkpt>
      <trkpt lat="48.70847" lon="2.00379">
        <ele>165.3</ele>
        <time>2022-02-06T10:09:03Z</time>
      </trkpt>
      <trkpt lat="48.7085" lon="2.00373">
        <ele>165</ele>
        <time>2022-02-06T10:09:07Z</time>
      </trkpt>
      <trkpt lat="48.70854" lon="2.00369">
        <ele>162.3</ele>
        <time>2022-02-06T10:09:12Z</time>
      </trkpt>
      <trkpt lat="48.70859" lon="2.00364">
        <ele>161.2</ele>
        <time>2022-02-06T10:09:17Z</time>
      </trkpt>
      <trkpt lat="48.70863" lon="2.0036">
        <ele>161.4</ele>
        <time>2022-02-06T10:09:22Z</time>
      </trkpt>
      <trkpt lat="48.70867" lon="2.00354">
        <ele>160.9</ele>
        <time>2022-02-06T10:09:28Z</time>
      </trkpt>
      <trkpt lat="48.70871" lon="2.00351">
        <ele>160.2</ele>
        <time>2022-02-06T10:09:32Z</time>
      </trkpt>
      <trkpt lat="48.70877" lon="2.00353">
        <ele>158.9</ele>
        <time>2022-02-06T10:09:37Z</time>
      </trkpt>
      <trkpt lat="48.70879" lon="2.00358">
        <ele>158.6</ele>
        <time>2022-02-06T10:09:42Z</time>
      </trkpt>
      <trkpt lat="48.70882" lon="2.00364">
        <ele>159.3</ele>
        <time>2022-02-06T10:09:45Z</time>
      </trkpt>
      <trkpt lat="48.70885" lon="2.0037">
        <ele>160.4</ele>
        <time>2022-02-06T10:09:49Z</time>
      </trkpt>
      <trkpt lat="48.70889" lon="2.00376">
        <ele>160.8</ele>
        <time>2022-02-06T10:09:54Z</time>
      </trkpt>
      <trkpt lat="48.70894" lon="2.00375">
        <ele>160.2</ele>
        <time>2022-02-06T10:09:59Z</time>
      </trkpt>
      <trkpt lat="48.70897" lon="2.00367">
        <ele>159.2</ele>
        <time>2022-02-06T10:10:05Z</time>
      </trkpt>
      <trkpt lat="48.70899" lon="2.0036">
        <ele>158.7</ele>
        <time>2022-02-06T10:10:10Z</time>
      </trkpt>
      <trkpt lat="48.70901" lon="2.00353">
        <ele>158.6</ele>
        <time>2022-02-06T10:10:14Z</time>
      </trkpt>
      <trkpt lat="48.70902" lon="2.00346">
        <ele>159</ele>
        <time>2022-02-06T10:10:18Z</time>
      </trkpt>
      <trkpt lat="48.70904" lon="2.00338">
        <ele>158.9</ele>
        <time>2022-02-06T10:10:23Z</time>
      </trkpt>
      <trkpt lat="48.70906" lon="2.0033">
        <ele>158.5</ele>
        <time>2022-02-06T10:10:28Z</time>
      </trkpt>
      <trkpt lat="48.70907" lon="2.00324">
        <ele>155.6</ele>
        <time>2022-02-06T10:10:32Z</time>
      </trkpt>
      <trkpt lat="48.70903" lon="2.00324">
        <ele>148.9</ele>
        <time>2022-02-06T10:10:47Z</time>
      </trkpt>
      <trkpt lat="48.70905" lon="2.00312">
        <ele>147.6</ele>
        <time>2022-02-06T10:11:03Z</time>
      </trkpt>
      <trkpt lat="48.70906" lon="2.00304">
        <ele>144.9</ele>
        <time>2022-02-06T10:11:08Z</time>
      </trkpt>
      <trkpt lat="48.70908" lon="2.00297">
        <ele>143.7</ele>
        <time>2022-02-06T10:11:11Z</time>
      </trkpt>
      <trkpt lat="48.70911" lon="2.00289">
        <ele>143.2</ele>
        <time>2022-02-06T10:11:15Z</time>
      </trkpt>
      <trkpt lat="48.70914" lon="2.00283">
        <ele>143.2</ele>
        <time>2022-02-06T10:11:20Z</time>
      </trkpt>
      <trkpt lat="48.70917" lon="2.00277">
        <ele>143.1</ele>
        <time>2022-02-06T10:11:23Z</time>
      </trkpt>
      <trkpt lat="48.7092" lon="2.00271">
        <ele>143.6</ele>
        <time>2022-02-06T10:11:26Z</time>
      </trkpt>
      <trkpt lat="48.7092" lon="2.00262">
        <ele>144.3</ele>
        <time>2022-02-06T10:11:31Z</time>
      </trkpt>
      <trkpt lat="48.7092" lon="2.00255">
        <ele>143.9</ele>
        <time>2022-02-06T10:11:34Z</time>
      </trkpt>
      <trkpt lat="48.70922" lon="2.00248">
        <ele>143.2</ele>
        <time>2022-02-06T10:11:38Z</time>
      </trkpt>
      <trkpt lat="48.70925" lon="2.00241">
        <ele>142.2</ele>
        <time>2022-02-06T10:11:42Z</time>
      </trkpt>
      <trkpt lat="48.70927" lon="2.00233">
        <ele>140.4</ele>
        <time>2022-02-06T10:11:47Z</time>
      </trkpt>
      <trkpt lat="48.70929" lon="2.00225">
        <ele>139.9</ele>
        <time>2022-02-06T10:11:52Z</time>
      </trkpt>
      <trkpt lat="48.70931" lon="2.00217">
        <ele>140.4</ele>
        <time>2022-02-06T10:11:56Z</time>
      </trkpt>
      <trkpt lat="48.70932" lon="2.0021">
        <ele>140.7</ele>
        <time>2022-02-06T10:12:00Z</time>
      </trkpt>
      <trkpt lat="48.70934" lon="2.00203">
        <ele>141.3</ele>
        <time>2022-02-06T10:12:04Z</time>
      </trkpt>
      <trkpt lat="48.70936" lon="2.00197">
        <ele>141.2</ele>
        <time>2022-02-06T10:12:08Z</time>
      </trkpt>
      <trkpt lat="48.70939" lon="2.0019">
        <ele>140.8</ele>
        <time>2022-02-06T10:12:13Z</time>
      </trkpt>
      <trkpt lat="48.70941" lon="2.00183">
        <ele>140.7</ele>
        <time>2022-02-06T10:12:16Z</time>
      </trkpt>
      <trkpt lat="48.70943" lon="2.00176">
        <ele>143</ele>
        <time>2022-02-06T10:12:20Z</time>
      </trkpt>
      <trkpt lat="48.70945" lon="2.0017">
        <ele>146.4</ele>
        <time>2022-02-06T10:12:24Z</time>
      </trkpt>
      <trkpt lat="48.70943" lon="2.00162">
        <ele>150.2</ele>
        <time>2022-02-06T10:12:31Z</time>
      </trkpt>
      <trkpt lat="48.70943" lon="2.00153">
        <ele>155.5</ele>
        <time>2022-02-06T10:12:37Z</time>
      </trkpt>
      <trkpt lat="48.70941" lon="2.00146">
        <ele>158</ele>
        <time>2022-02-06T10:12:40Z</time>
      </trkpt>
      <trkpt lat="48.70935" lon="2.00144">
        <ele>159</ele>
        <time>2022-02-06T10:12:44Z</time>
      </trkpt>
      <trkpt lat="48.7093" lon="2.00146">
        <ele>158.8</ele>
        <time>2022-02-06T10:12:49Z</time>
      </trkpt>
      <trkpt lat="48.70925" lon="2.00148">
        <ele>158.7</ele>
        <time>2022-02-06T10:12:52Z</time>
      </trkpt>
      <trkpt lat="48.7092" lon="2.00148">
        <ele>158.8</ele>
        <time>2022-02-06T10:12:57Z</time>
      </trkpt>
      <trkpt lat="48.70915" lon="2.00148">
        <ele>160.5</ele>
        <time>2022-02-06T10:13:01Z</time>
      </trkpt>
      <trkpt lat="48.7091" lon="2.0015">
        <ele>161.8</ele>
        <time>2022-02-06T10:13:07Z</time>
      </trkpt>
      <trkpt lat="48.70905" lon="2.00152">
        <ele>161.5</ele>
        <time>2022-02-06T10:13:10Z</time>
      </trkpt>
      <trkpt lat="48.709" lon="2.00152">
        <ele>161.2</ele>
        <time>2022-02-06T10:13:15Z</time>
      </trkpt>
      <trkpt lat="48.70895" lon="2.0015">
        <ele>162.7</ele>
        <time>2022-02-06T10:13:19Z</time>
      </trkpt>
      <trkpt lat="48.70891" lon="2.00147">
        <ele>165</ele>
        <time>2022-02-06T10:13:24Z</time>
      </trkpt>
      <trkpt lat="48.70895" lon="2.00148">
        <ele>168.5</ele>
        <time>2022-02-06T10:14:07Z</time>
      </trkpt>
      <trkpt lat="48.70891" lon="2.00144">
        <ele>166.9</ele>
        <time>2022-02-06T10:14:53Z</time>
      </trkpt>
      <trkpt lat="48.70887" lon="2.00138">
        <ele>164.9</ele>
        <time>2022-02-06T10:14:59Z</time>
      </trkpt>
      <trkpt lat="48.70883" lon="2.00132">
        <ele>165</ele>
        <time>2022-02-06T10:15:02Z</time>
      </trkpt>
      <trkpt lat="48.7088" lon="2.00126">
        <ele>166.2</ele>
        <time>2022-02-06T10:15:05Z</time>
      </trkpt>
      <trkpt lat="48.70877" lon="2.0012">
        <ele>166.7</ele>
        <time>2022-02-06T10:15:08Z</time>
      </trkpt>
      <trkpt lat="48.70876" lon="2.00113">
        <ele>167.3</ele>
        <time>2022-02-06T10:15:11Z</time>
      </trkpt>
      <trkpt lat="48.70877" lon="2.00104">
        <ele>167.1</ele>
        <time>2022-02-06T10:15:16Z</time>
      </trkpt>
      <trkpt lat="48.70876" lon="2.00097">
        <ele>166.8</ele>
        <time>2022-02-06T10:15:21Z</time>
      </trkpt>
      <trkpt lat="48.70881" lon="2.00099">
        <ele>164.1</ele>
        <time>2022-02-06T10:15:47Z</time>
      </trkpt>
      <trkpt lat="48.70886" lon="2.00096">
        <ele>163.5</ele>
        <time>2022-02-06T10:15:58Z</time>
      </trkpt>
      <trkpt lat="48.7089" lon="2.00092">
        <ele>162.3</ele>
        <time>2022-02-06T10:16:06Z</time>
      </trkpt>
      <trkpt lat="48.70895" lon="2.0009">
        <ele>162.4</ele>
        <time>2022-02-06T10:16:41Z</time>
      </trkpt>
      <trkpt lat="48.70898" lon="2.00084">
        <ele>162.2</ele>
        <time>2022-02-06T10:16:45Z</time>
      </trkpt>
      <trkpt lat="48.70901" lon="2.00078">
        <ele>161.7</ele>
        <time>2022-02-06T10:16:48Z</time>
      </trkpt>
      <trkpt lat="48.70904" lon="2.00072">
        <ele>161</ele>
        <time>2022-02-06T10:16:53Z</time>
      </trkpt>
      <trkpt lat="48.70907" lon="2.00066">
        <ele>159.7</ele>
        <time>2022-02-06T10:16:57Z</time>
      </trkpt>
      <trkpt lat="48.70909" lon="2.00058">
        <ele>159</ele>
        <time>2022-02-06T10:17:01Z</time>
      </trkpt>
      <trkpt lat="48.7091" lon="2.0005">
        <ele>158.1</ele>
        <time>2022-02-06T10:17:04Z</time>
      </trkpt>
      <trkpt lat="48.70911" lon="2.00042">
        <ele>157.2</ele>
        <time>2022-02-06T10:17:09Z</time>
      </trkpt>
      <trkpt lat="48.70913" lon="2.00034">
        <ele>156.5</ele>
        <time>2022-02-06T10:17:15Z</time>
      </trkpt>
      <trkpt lat="48.70916" lon="2.00028">
        <ele>155.9</ele>
        <time>2022-02-06T10:17:19Z</time>
      </trkpt>
      <trkpt lat="48.70919" lon="2.00022">
        <ele>155.9</ele>
        <time>2022-02-06T10:17:25Z</time>
      </trkpt>
      <trkpt lat="48.70922" lon="2.00016">
        <ele>156</ele>
        <time>2022-02-06T10:17:29Z</time>
      </trkpt>
      <trkpt lat="48.70926" lon="2.00009">
        <ele>156.3</ele>
        <time>2022-02-06T10:17:34Z</time>
      </trkpt>
      <trkpt lat="48.70929" lon="2.00002">
        <ele>156.6</ele>
        <time>2022-02-06T10:17:38Z</time>
      </trkpt>
      <trkpt lat="48.70931" lon="1.99995">
        <ele>157.5</ele>
        <time>2022-02-06T10:17:44Z</time>
      </trkpt>
      <trkpt lat="48.70935" lon="1.9999">
        <ele>157.3</ele>
        <time>2022-02-06T10:17:51Z</time>
      </trkpt>
      <trkpt lat="48.7094" lon="1.99984">
        <ele>158.2</ele>
        <time>2022-02-06T10:17:56Z</time>
      </trkpt>
      <trkpt lat="48.70935" lon="1.99986">
        <ele>160.6</ele>
        <time>2022-02-06T10:18:06Z</time>
      </trkpt>
      <trkpt lat="48.70938" lon="1.99978">
        <ele>161.4</ele>
        <time>2022-02-06T10:18:11Z</time>
      </trkpt>
      <trkpt lat="48.70942" lon="1.99972">
        <ele>161.1</ele>
        <time>2022-02-06T10:18:14Z</time>
      </trkpt>
      <trkpt lat="48.70947" lon="1.99964">
        <ele>161.7</ele>
        <time>2022-02-06T10:18:17Z</time>
      </trkpt>
      <trkpt lat="48.70951" lon="1.99958">
        <ele>162.2</ele>
        <time>2022-02-06T10:18:19Z</time>
      </trkpt>
      <trkpt lat="48.70954" lon="1.99953">
        <ele>162.7</ele>
        <time>2022-02-06T10:18:20Z</time>
      </trkpt>
      <trkpt lat="48.70958" lon="1.99946">
        <ele>163.2</ele>
        <time>2022-02-06T10:18:22Z</time>
      </trkpt>
      <trkpt lat="48.70962" lon="1.99939">
        <ele>163.8</ele>
        <time>2022-02-06T10:18:24Z</time>
      </trkpt>
      <trkpt lat="48.70966" lon="1.99934">
        <ele>163.8</ele>
        <time>2022-02-06T10:18:26Z</time>
      </trkpt>
      <trkpt lat="48.7097" lon="1.99931">
        <ele>163.7</ele>
        <time>2022-02-06T10:18:29Z</time>
      </trkpt>
      <trkpt lat="48.70974" lon="1.99925">
        <ele>164.4</ele>
        <time>2022-02-06T10:18:33Z</time>
      </trkpt>
      <trkpt lat="48.70979" lon="1.99919">
        <ele>165.3</ele>
        <time>2022-02-06T10:18:36Z</time>
      </trkpt>
      <trkpt lat="48.70984" lon="1.99916">
        <ele>165.2</ele>
        <time>2022-02-06T10:18:41Z</time>
      </trkpt>
      <trkpt lat="48.70989" lon="1.99908">
        <ele>164.6</ele>
        <time>2022-02-06T10:18:46Z</time>
      </trkpt>
      <trkpt lat="48.70993" lon="1.99904">
        <ele>165</ele>
        <time>2022-02-06T10:18:49Z</time>
      </trkpt>
      <trkpt lat="48.70997" lon="1.99898">
        <ele>165.8</ele>
        <time>2022-02-06T10:18:53Z</time>
      </trkpt>
      <trkpt lat="48.71" lon="1.99893">
        <ele>167.3</ele>
        <time>2022-02-06T10:18:57Z</time>
      </trkpt>
      <trkpt lat="48.71004" lon="1.99887">
        <ele>168.5</ele>
        <time>2022-02-06T10:19:01Z</time>
      </trkpt>
      <trkpt lat="48.71007" lon="1.99881">
        <ele>169.5</ele>
        <time>2022-02-06T10:19:04Z</time>
      </trkpt>
      <trkpt lat="48.71011" lon="1.99877">
        <ele>169.6</ele>
        <time>2022-02-06T10:19:07Z</time>
      </trkpt>
      <trkpt lat="48.71015" lon="1.99872">
        <ele>170.3</ele>
        <time>2022-02-06T10:19:11Z</time>
      </trkpt>
      <trkpt lat="48.71018" lon="1.99864">
        <ele>170.6</ele>
        <time>2022-02-06T10:19:15Z</time>
      </trkpt>
      <trkpt lat="48.7102" lon="1.99858">
        <ele>171.5</ele>
        <time>2022-02-06T10:19:18Z</time>
      </trkpt>
      <trkpt lat="48.71022" lon="1.99852">
        <ele>172.2</ele>
        <time>2022-02-06T10:19:22Z</time>
      </trkpt>
      <trkpt lat="48.712" lon="1.99579">
        <ele>167.1</ele>
        <time>2022-02-06T10:22:39Z</time>
      </trkpt>
      <trkpt lat="48.71205" lon="1.99575">
        <ele>166.6</ele>
        <time>2022-02-06T10:22:42Z</time>
      </trkpt>
      <trkpt lat="48.71208" lon="1.99571">
        <ele>166.6</ele>
        <time>2022-02-06T10:22:46Z</time>
      </trkpt>
      <trkpt lat="48.71212" lon="1.99565">
        <ele>166.5</ele>
        <time>2022-02-06T10:22:50Z</time>
      </trkpt>
      <trkpt lat="48.71217" lon="1.99561">
        <ele>166.4</ele>
        <time>2022-02-06T10:22:53Z</time>
      </trkpt>
      <trkpt lat="48.71221" lon="1.99558">
        <ele>166.4</ele>
        <time>2022-02-06T10:22:56Z</time>
      </trkpt>
      <trkpt lat="48.71225" lon="1.99553">
        <ele>166.9</ele>
        <time>2022-02-06T10:23:00Z</time>
      </trkpt>
      <trkpt lat="48.71229" lon="1.9955">
        <ele>167.4</ele>
        <time>2022-02-06T10:23:04Z</time>
      </trkpt>
      <trkpt lat="48.71233" lon="1.99547">
        <ele>167.5</ele>
        <time>2022-02-06T10:23:07Z</time>
      </trkpt>
      <trkpt lat="48.71238" lon="1.99544">
        <ele>167.3</ele>
        <time>2022-02-06T10:23:11Z</time>
      </trkpt>
      <trkpt lat="48.71242" lon="1.99538">
        <ele>166.9</ele>
        <time>2022-02-06T10:23:15Z</time>
      </trkpt>
      <trkpt lat="48.71247" lon="1.99535">
        <ele>166.7</ele>
        <time>2022-02-06T10:23:19Z</time>
      </trkpt>
      <trkpt lat="48.7125" lon="1.99529">
        <ele>166.6</ele>
        <time>2022-02-06T10:23:23Z</time>
      </trkpt>
      <trkpt lat="48.71254" lon="1.99525">
        <ele>166.8</ele>
        <time>2022-02-06T10:23:27Z</time>
      </trkpt>
      <trkpt lat="48.71259" lon="1.99523">
        <ele>167.6</ele>
        <time>2022-02-06T10:23:31Z</time>
      </trkpt>
      <trkpt lat="48.71263" lon="1.99518">
        <ele>169</ele>
        <time>2022-02-06T10:23:36Z</time>
      </trkpt>
      <trkpt lat="48.71276" lon="1.99508">
        <ele>170.1</ele>
        <time>2022-02-06T10:23:47Z</time>
      </trkpt>
      <trkpt lat="48.7128" lon="1.99505">
        <ele>169.5</ele>
        <time>2022-02-06T10:23:50Z</time>
      </trkpt>
      <trkpt lat="48.71286" lon="1.99503">
        <ele>168.5</ele>
        <time>2022-02-06T10:23:54Z</time>
      </trkpt>
      <trkpt lat="48.71291" lon="1.99501">
        <ele>168.2</ele>
        <time>2022-02-06T10:23:58Z</time>
      </trkpt>
      <trkpt lat="48.71299" lon="1.99499">
        <ele>170.1</ele>
        <time>2022-02-06T10:24:06Z</time>
      </trkpt>
      <trkpt lat="48.71304" lon="1.99496">
        <ele>170.9</ele>
        <time>2022-02-06T10:24:10Z</time>
      </trkpt>
      <trkpt lat="48.7131" lon="1.99494">
        <ele>171</ele>
        <time>2022-02-06T10:24:13Z</time>
      </trkpt>
      <trkpt lat="48.71315" lon="1.99492">
        <ele>171.7</ele>
        <time>2022-02-06T10:24:16Z</time>
      </trkpt>
      <trkpt lat="48.7132" lon="1.99489">
        <ele>172.3</ele>
        <time>2022-02-06T10:24:19Z</time>
      </trkpt>
      <trkpt lat="48.71329" lon="1.99482">
        <ele>172.4</ele>
        <time>2022-02-06T10:24:26Z</time>
      </trkpt>
      <trkpt lat="48.71335" lon="1.99479">
        <ele>171.7</ele>
        <time>2022-02-06T10:24:31Z</time>
      </trkpt>
      <trkpt lat="48.71339" lon="1.99481">
        <ele>171.9</ele>
        <time>2022-02-06T10:24:33Z</time>
      </trkpt>
      <trkpt lat="48.71344" lon="1.99479">
        <ele>171.5</ele>
        <time>2022-02-06T10:24:36Z</time>
      </trkpt>
      <trkpt lat="48.7135" lon="1.99476">
        <ele>172.2</ele>
        <time>2022-02-06T10:24:40Z</time>
      </trkpt>
      <trkpt lat="48.71354" lon="1.99474">
        <ele>171.9</ele>
        <time>2022-02-06T10:24:44Z</time>
      </trkpt>
      <trkpt lat="48.7136" lon="1.99472">
        <ele>172</ele>
        <time>2022-02-06T10:24:47Z</time>
      </trkpt>
      <trkpt lat="48.71364" lon="1.9947">
        <ele>171.6</ele>
        <time>2022-02-06T10:24:51Z</time>
      </trkpt>
      <trkpt lat="48.7137" lon="1.99468">
        <ele>171.3</ele>
        <time>2022-02-06T10:24:54Z</time>
      </trkpt>
      <trkpt lat="48.71374" lon="1.99465">
        <ele>170.5</ele>
        <time>2022-02-06T10:24:58Z</time>
      </trkpt>
      <trkpt lat="48.71379" lon="1.99462">
        <ele>169.7</ele>
        <time>2022-02-06T10:25:01Z</time>
      </trkpt>
      <trkpt lat="48.71384" lon="1.99459">
        <ele>169.4</ele>
        <time>2022-02-06T10:25:05Z</time>
      </trkpt>
      <trkpt lat="48.71389" lon="1.99456">
        <ele>169.1</ele>
        <time>2022-02-06T10:25:09Z</time>
      </trkpt>
      <trkpt lat="48.71394" lon="1.99452">
        <ele>168.9</ele>
        <time>2022-02-06T10:25:13Z</time>
      </trkpt>
      <trkpt lat="48.71399" lon="1.99447">
        <ele>168.4</ele>
        <time>2022-02-06T10:25:18Z</time>
      </trkpt>
      <trkpt lat="48.71402" lon="1.99443">
        <ele>169.1</ele>
        <time>2022-02-06T10:25:22Z</time>
      </trkpt>
      <trkpt lat="48.71407" lon="1.99438">
        <ele>169.3</ele>
        <time>2022-02-06T10:25:27Z</time>
      </trkpt>
      <trkpt lat="48.71411" lon="1.99435">
        <ele>168.9</ele>
        <time>2022-02-06T10:25:31Z</time>
      </trkpt>
      <trkpt lat="48.71417" lon="1.99433">
        <ele>168.6</ele>
        <time>2022-02-06T10:25:35Z</time>
      </trkpt>
      <trkpt lat="48.71421" lon="1.99431">
        <ele>169</ele>
        <time>2022-02-06T10:25:40Z</time>
      </trkpt>
      <trkpt lat="48.71426" lon="1.99429">
        <ele>169.3</ele>
        <time>2022-02-06T10:25:43Z</time>
      </trkpt>
      <trkpt lat="48.71431" lon="1.99426">
        <ele>169.1</ele>
        <time>2022-02-06T10:25:47Z</time>
      </trkpt>
      <trkpt lat="48.71435" lon="1.99423">
        <ele>167.7</ele>
        <time>2022-02-06T10:25:51Z</time>
      </trkpt>
      <trkpt lat="48.71441" lon="1.9942">
        <ele>165.7</ele>
        <time>2022-02-06T10:25:56Z</time>
      </trkpt>
      <trkpt lat="48.71445" lon="1.99418">
        <ele>165.3</ele>
        <time>2022-02-06T10:26:00Z</time>
      </trkpt>
      <trkpt lat="48.7145" lon="1.99414">
        <ele>165.1</ele>
        <time>2022-02-06T10:26:05Z</time>
      </trkpt>
      <trkpt lat="48.71452" lon="1.99407">
        <ele>164.4</ele>
        <time>2022-02-06T10:26:09Z</time>
      </trkpt>
      <trkpt lat="48.71458" lon="1.99405">
        <ele>162.9</ele>
        <time>2022-02-06T10:26:15Z</time>
      </trkpt>
      <trkpt lat="48.71463" lon="1.99406">
        <ele>162</ele>
        <time>2022-02-06T10:26:19Z</time>
      </trkpt>
      <trkpt lat="48.71468" lon="1.99407">
        <ele>161.5</ele>
        <time>2022-02-06T10:26:23Z</time>
      </trkpt>
      <trkpt lat="48.71473" lon="1.99406">
        <ele>160.8</ele>
        <time>2022-02-06T10:26:28Z</time>
      </trkpt>
      <trkpt lat="48.71479" lon="1.99404">
        <ele>159.8</ele>
        <time>2022-02-06T10:26:32Z</time>
      </trkpt>
      <trkpt lat="48.71484" lon="1.99402">
        <ele>159.1</ele>
        <time>2022-02-06T10:26:37Z</time>
      </trkpt>
      <trkpt lat="48.71488" lon="1.994">
        <ele>158.8</ele>
        <time>2022-02-06T10:26:40Z</time>
      </trkpt>
      <trkpt lat="48.71494" lon="1.99398">
        <ele>159</ele>
        <time>2022-02-06T10:26:45Z</time>
      </trkpt>
      <trkpt lat="48.71498" lon="1.99398">
        <ele>160.4</ele>
        <time>2022-02-06T10:26:51Z</time>
      </trkpt>
      <trkpt lat="48.71504" lon="1.99398">
        <ele>161.6</ele>
        <time>2022-02-06T10:26:55Z</time>
      </trkpt>
      <trkpt lat="48.71502" lon="1.9939">
        <ele>162.5</ele>
        <time>2022-02-06T10:27:08Z</time>
      </trkpt>
      <trkpt lat="48.71497" lon="1.99392">
        <ele>161.4</ele>
        <time>2022-02-06T10:27:12Z</time>
      </trkpt>
      <trkpt lat="48.71492" lon="1.99389">
        <ele>160.6</ele>
        <time>2022-02-06T10:27:16Z</time>
      </trkpt>
      <trkpt lat="48.71489" lon="1.99395">
        <ele>160.1</ele>
        <time>2022-02-06T10:27:34Z</time>
      </trkpt>
      <trkpt lat="48.71487" lon="1.99401">
        <ele>159.1</ele>
        <time>2022-02-06T10:27:46Z</time>
      </trkpt>
      <trkpt lat="48.71482" lon="1.99404">
        <ele>159.8</ele>
        <time>2022-02-06T10:28:05Z</time>
      </trkpt>
      <trkpt lat="48.71477" lon="1.99405">
        <ele>159.5</ele>
        <time>2022-02-06T10:28:13Z</time>
      </trkpt>
      <trkpt lat="48.71473" lon="1.99409">
        <ele>159.5</ele>
        <time>2022-02-06T10:28:20Z</time>
      </trkpt>
      <trkpt lat="48.71468" lon="1.99412">
        <ele>159.8</ele>
        <time>2022-02-06T10:28:24Z</time>
      </trkpt>
      <trkpt lat="48.71463" lon="1.9941">
        <ele>162.9</ele>
        <time>2022-02-06T10:28:34Z</time>
      </trkpt>
      <trkpt lat="48.71458" lon="1.99412">
        <ele>161.7</ele>
        <time>2022-02-06T10:28:44Z</time>
      </trkpt>
      <trkpt lat="48.71458" lon="1.9942">
        <ele>158</ele>
        <time>2022-02-06T10:29:10Z</time>
      </trkpt>
      <trkpt lat="48.71462" lon="1.99417">
        <ele>158.4</ele>
        <time>2022-02-06T10:29:17Z</time>
      </trkpt>
      <trkpt lat="48.71467" lon="1.99416">
        <ele>158.5</ele>
        <time>2022-02-06T10:29:22Z</time>
      </trkpt>
      <trkpt lat="48.71461" lon="1.99416">
        <ele>155.7</ele>
        <time>2022-02-06T10:30:30Z</time>
      </trkpt>
      <trkpt lat="48.71457" lon="1.99414">
        <ele>156.1</ele>
        <time>2022-02-06T10:30:34Z</time>
      </trkpt>
      <trkpt lat="48.71453" lon="1.99411">
        <ele>152.8</ele>
        <time>2022-02-06T10:31:08Z</time>
      </trkpt>
      <trkpt lat="48.71447" lon="1.99411">
        <ele>152.5</ele>
        <time>2022-02-06T10:31:13Z</time>
      </trkpt>
      <trkpt lat="48.71443" lon="1.9941">
        <ele>151.7</ele>
        <time>2022-02-06T10:31:18Z</time>
      </trkpt>
      <trkpt lat="48.71438" lon="1.99408">
        <ele>150.6</ele>
        <time>2022-02-06T10:31:23Z</time>
      </trkpt>
      <trkpt lat="48.71433" lon="1.99404">
        <ele>150</ele>
        <time>2022-02-06T10:31:27Z</time>
      </trkpt>
      <trkpt lat="48.71428" lon="1.99401">
        <ele>150</ele>
        <time>2022-02-06T10:31:31Z</time>
      </trkpt>
      <trkpt lat="48.71423" lon="1.99397">
        <ele>150.5</ele>
        <time>2022-02-06T10:31:35Z</time>
      </trkpt>
      <trkpt lat="48.71418" lon="1.99395">
        <ele>153.1</ele>
        <time>2022-02-06T10:31:41Z</time>
      </trkpt>
      <trkpt lat="48.71413" lon="1.99391">
        <ele>153.6</ele>
        <time>2022-02-06T10:31:43Z</time>
      </trkpt>
      <trkpt lat="48.71406" lon="1.99388">
        <ele>153.9</ele>
        <time>2022-02-06T10:31:45Z</time>
      </trkpt>
      <trkpt lat="48.71401" lon="1.99385">
        <ele>153.8</ele>
        <time>2022-02-06T10:31:48Z</time>
      </trkpt>
      <trkpt lat="48.71397" lon="1.9938">
        <ele>153.2</ele>
        <time>2022-02-06T10:31:51Z</time>
      </trkpt>
      <trkpt lat="48.71392" lon="1.99376">
        <ele>152.1</ele>
        <time>2022-02-06T10:31:55Z</time>
      </trkpt>
      <trkpt lat="48.71387" lon="1.99374">
        <ele>152</ele>
        <time>2022-02-06T10:31:59Z</time>
      </trkpt>
      <trkpt lat="48.71382" lon="1.99371">
        <ele>152.5</ele>
        <time>2022-02-06T10:32:02Z</time>
      </trkpt>
      <trkpt lat="48.71378" lon="1.99369">
        <ele>154.2</ele>
        <time>2022-02-06T10:32:06Z</time>
      </trkpt>
      <trkpt lat="48.71373" lon="1.99365">
        <ele>156.7</ele>
        <time>2022-02-06T10:32:09Z</time>
      </trkpt>
      <trkpt lat="48.7137" lon="1.99371">
        <ele>156.3</ele>
        <time>2022-02-06T10:32:13Z</time>
      </trkpt>
      <trkpt lat="48.71364" lon="1.99369">
        <ele>151.3</ele>
        <time>2022-02-06T10:32:20Z</time>
      </trkpt>
      <trkpt lat="48.7136" lon="1.99364">
        <ele>149</ele>
        <time>2022-02-06T10:32:23Z</time>
      </trkpt>
      <trkpt lat="48.71355" lon="1.99359">
        <ele>147.2</ele>
        <time>2022-02-06T10:32:28Z</time>
      </trkpt>
      <trkpt lat="48.71351" lon="1.99356">
        <ele>147.4</ele>
        <time>2022-02-06T10:32:31Z</time>
      </trkpt>
      <trkpt lat="48.71345" lon="1.99352">
        <ele>148.9</ele>
        <time>2022-02-06T10:32:35Z</time>
      </trkpt>
      <trkpt lat="48.71341" lon="1.99347">
        <ele>151.1</ele>
        <time>2022-02-06T10:32:38Z</time>
      </trkpt>
      <trkpt lat="48.71335" lon="1.99342">
        <ele>152.2</ele>
        <time>2022-02-06T10:32:43Z</time>
      </trkpt>
      <trkpt lat="48.7133" lon="1.9934">
        <ele>152.1</ele>
        <time>2022-02-06T10:32:46Z</time>
      </trkpt>
      <trkpt lat="48.71325" lon="1.99336">
        <ele>151.8</ele>
        <time>2022-02-06T10:32:49Z</time>
      </trkpt>
      <trkpt lat="48.7132" lon="1.99331">
        <ele>152.2</ele>
        <time>2022-02-06T10:32:52Z</time>
      </trkpt>
      <trkpt lat="48.71315" lon="1.99328">
        <ele>153.7</ele>
        <time>2022-02-06T10:32:56Z</time>
      </trkpt>
      <trkpt lat="48.7131" lon="1.99324">
        <ele>155.8</ele>
        <time>2022-02-06T10:32:59Z</time>
      </trkpt>
      <trkpt lat="48.71305" lon="1.99321">
        <ele>157.6</ele>
        <time>2022-02-06T10:33:02Z</time>
      </trkpt>
      <trkpt lat="48.713" lon="1.99317">
        <ele>158.3</ele>
        <time>2022-02-06T10:33:05Z</time>
      </trkpt>
      <trkpt lat="48.71296" lon="1.99312">
        <ele>158.9</ele>
        <time>2022-02-06T10:33:09Z</time>
      </trkpt>
      <trkpt lat="48.71293" lon="1.99305">
        <ele>160.3</ele>
        <time>2022-02-06T10:33:15Z</time>
      </trkpt>
      <trkpt lat="48.71289" lon="1.99299">
        <ele>161.8</ele>
        <time>2022-02-06T10:33:19Z</time>
      </trkpt>
      <trkpt lat="48.71285" lon="1.99295">
        <ele>163.1</ele>
        <time>2022-02-06T10:33:24Z</time>
      </trkpt>
      <trkpt lat="48.71283" lon="1.99288">
        <ele>163.5</ele>
        <time>2022-02-06T10:33:28Z</time>
      </trkpt>
      <trkpt lat="48.71285" lon="1.99282">
        <ele>163.6</ele>
        <time>2022-02-06T10:33:31Z</time>
      </trkpt>
      <trkpt lat="48.71287" lon="1.99276">
        <ele>163.7</ele>
        <time>2022-02-06T10:33:35Z</time>
      </trkpt>
      <trkpt lat="48.71279" lon="1.99274">
        <ele>163.6</ele>
        <time>2022-02-06T10:33:39Z</time>
      </trkpt>
      <trkpt lat="48.71275" lon="1.9927">
        <ele>163.3</ele>
        <time>2022-02-06T10:33:42Z</time>
      </trkpt>
      <trkpt lat="48.7127" lon="1.99265">
        <ele>162.7</ele>
        <time>2022-02-06T10:33:46Z</time>
      </trkpt>
      <trkpt lat="48.71265" lon="1.99263">
        <ele>162.2</ele>
        <time>2022-02-06T10:33:50Z</time>
      </trkpt>
      <trkpt lat="48.7126" lon="1.99263">
        <ele>162</ele>
        <time>2022-02-06T10:33:55Z</time>
      </trkpt>
      <trkpt lat="48.71255" lon="1.99263">
        <ele>161.4</ele>
        <time>2022-02-06T10:34:00Z</time>
      </trkpt>
      <trkpt lat="48.71249" lon="1.99261">
        <ele>160.8</ele>
        <time>2022-02-06T10:34:04Z</time>
      </trkpt>
      <trkpt lat="48.71244" lon="1.99257">
        <ele>160.6</ele>
        <time>2022-02-06T10:34:09Z</time>
      </trkpt>
      <trkpt lat="48.71242" lon="1.99249">
        <ele>161</ele>
        <time>2022-02-06T10:34:12Z</time>
      </trkpt>
      <trkpt lat="48.71241" lon="1.99241">
        <ele>160.6</ele>
        <time>2022-02-06T10:34:15Z</time>
      </trkpt>
      <trkpt lat="48.7124" lon="1.99233">
        <ele>160.3</ele>
        <time>2022-02-06T10:34:19Z</time>
      </trkpt>
      <trkpt lat="48.71238" lon="1.99225">
        <ele>160</ele>
        <time>2022-02-06T10:34:24Z</time>
      </trkpt>
      <trkpt lat="48.71238" lon="1.99216">
        <ele>159.8</ele>
        <time>2022-02-06T10:34:28Z</time>
      </trkpt>
      <trkpt lat="48.71238" lon="1.99209">
        <ele>159.2</ele>
        <time>2022-02-06T10:34:32Z</time>
      </trkpt>
      <trkpt lat="48.71232" lon="1.99209">
        <ele>156.4</ele>
        <time>2022-02-06T10:34:37Z</time>
      </trkpt>
      <trkpt lat="48.71228" lon="1.99216">
        <ele>153.7</ele>
        <time>2022-02-06T10:34:40Z</time>
      </trkpt>
      <trkpt lat="48.71225" lon="1.99223">
        <ele>151.7</ele>
        <time>2022-02-06T10:34:43Z</time>
      </trkpt>
      <trkpt lat="48.71222" lon="1.9923">
        <ele>151.2</ele>
        <time>2022-02-06T10:34:46Z</time>
      </trkpt>
      <trkpt lat="48.71219" lon="1.99237">
        <ele>151.2</ele>
        <time>2022-02-06T10:34:51Z</time>
      </trkpt>
      <trkpt lat="48.71217" lon="1.99244">
        <ele>150.8</ele>
        <time>2022-02-06T10:34:55Z</time>
      </trkpt>
      <trkpt lat="48.71214" lon="1.99251">
        <ele>151.4</ele>
        <time>2022-02-06T10:34:59Z</time>
      </trkpt>
      <trkpt lat="48.71211" lon="1.99256">
        <ele>153.2</ele>
        <time>2022-02-06T10:35:02Z</time>
      </trkpt>
      <trkpt lat="48.71207" lon="1.99264">
        <ele>153.8</ele>
        <time>2022-02-06T10:35:07Z</time>
      </trkpt>
      <trkpt lat="48.71205" lon="1.99271">
        <ele>151.8</ele>
        <time>2022-02-06T10:35:12Z</time>
      </trkpt>
      <trkpt lat="48.71201" lon="1.99275">
        <ele>149.4</ele>
        <time>2022-02-06T10:35:17Z</time>
      </trkpt>
      <trkpt lat="48.71195" lon="1.99274">
        <ele>148.4</ele>
        <time>2022-02-06T10:35:21Z</time>
      </trkpt>
      <trkpt lat="48.7119" lon="1.99273">
        <ele>148.1</ele>
        <time>2022-02-06T10:35:25Z</time>
      </trkpt>
      <trkpt lat="48.71185" lon="1.99273">
        <ele>147.8</ele>
        <time>2022-02-06T10:35:30Z</time>
      </trkpt>
      <trkpt lat="48.7118" lon="1.99271">
        <ele>146</ele>
        <time>2022-02-06T10:35:34Z</time>
      </trkpt>
      <trkpt lat="48.71175" lon="1.99267">
        <ele>143.7</ele>
        <time>2022-02-06T10:35:38Z</time>
      </trkpt>
      <trkpt lat="48.71171" lon="1.99267">
        <ele>143.4</ele>
        <time>2022-02-06T10:35:41Z</time>
      </trkpt>
      <trkpt lat="48.71166" lon="1.99268">
        <ele>142.9</ele>
        <time>2022-02-06T10:35:45Z</time>
      </trkpt>
      <trkpt lat="48.71162" lon="1.99271">
        <ele>141.4</ele>
        <time>2022-02-06T10:35:48Z</time>
      </trkpt>
      <trkpt lat="48.71158" lon="1.99277">
        <ele>139.2</ele>
        <time>2022-02-06T10:35:51Z</time>
      </trkpt>
      <trkpt lat="48.71156" lon="1.99284">
        <ele>137.4</ele>
        <time>2022-02-06T10:35:54Z</time>
      </trkpt>
      <trkpt lat="48.71152" lon="1.99291">
        <ele>136.4</ele>
        <time>2022-02-06T10:35:58Z</time>
      </trkpt>
      <trkpt lat="48.71148" lon="1.99294">
        <ele>135.9</ele>
        <time>2022-02-06T10:36:01Z</time>
      </trkpt>
      <trkpt lat="48.71143" lon="1.99297">
        <ele>135.2</ele>
        <time>2022-02-06T10:36:06Z</time>
      </trkpt>
      <trkpt lat="48.71137" lon="1.99297">
        <ele>135.1</ele>
        <time>2022-02-06T10:36:10Z</time>
      </trkpt>
      <trkpt lat="48.71132" lon="1.99297">
        <ele>135.2</ele>
        <time>2022-02-06T10:36:14Z</time>
      </trkpt>
      <trkpt lat="48.71127" lon="1.99296">
        <ele>134.9</ele>
        <time>2022-02-06T10:36:18Z</time>
      </trkpt>
      <trkpt lat="48.71122" lon="1.99292">
        <ele>133.7</ele>
        <time>2022-02-06T10:36:22Z</time>
      </trkpt>
      <trkpt lat="48.71118" lon="1.99289">
        <ele>133.1</ele>
        <time>2022-02-06T10:36:28Z</time>
      </trkpt>
      <trkpt lat="48.71113" lon="1.99287">
        <ele>132.3</ele>
        <time>2022-02-06T10:36:33Z</time>
      </trkpt>
      <trkpt lat="48.71109" lon="1.9929">
        <ele>131.3</ele>
        <time>2022-02-06T10:36:38Z</time>
      </trkpt>
      <trkpt lat="48.71106" lon="1.99297">
        <ele>129.4</ele>
        <time>2022-02-06T10:36:44Z</time>
      </trkpt>
      <trkpt lat="48.71104" lon="1.99303">
        <ele>128.1</ele>
        <time>2022-02-06T10:36:50Z</time>
      </trkpt>
      <trkpt lat="48.71103" lon="1.9931">
        <ele>128.4</ele>
        <time>2022-02-06T10:36:54Z</time>
      </trkpt>
      <trkpt lat="48.71103" lon="1.99318">
        <ele>128.2</ele>
        <time>2022-02-06T10:36:58Z</time>
      </trkpt>
      <trkpt lat="48.71103" lon="1.99327">
        <ele>127.6</ele>
        <time>2022-02-06T10:37:03Z</time>
      </trkpt>
      <trkpt lat="48.71103" lon="1.99335">
        <ele>127.6</ele>
        <time>2022-02-06T10:37:07Z</time>
      </trkpt>
      <trkpt lat="48.71103" lon="1.99343">
        <ele>127.7</ele>
        <time>2022-02-06T10:37:11Z</time>
      </trkpt>
      <trkpt lat="48.71103" lon="1.99351">
        <ele>128.8</ele>
        <time>2022-02-06T10:37:14Z</time>
      </trkpt>
      <trkpt lat="48.71101" lon="1.99358">
        <ele>130.2</ele>
        <time>2022-02-06T10:37:18Z</time>
      </trkpt>
      <trkpt lat="48.71096" lon="1.99362">
        <ele>131.4</ele>
        <time>2022-02-06T10:37:22Z</time>
      </trkpt>
      <trkpt lat="48.71091" lon="1.99365">
        <ele>129.3</ele>
        <time>2022-02-06T10:37:27Z</time>
      </trkpt>
      <trkpt lat="48.71087" lon="1.99363">
        <ele>125.2</ele>
        <time>2022-02-06T10:37:30Z</time>
      </trkpt>
      <trkpt lat="48.71083" lon="1.99358">
        <ele>121.1</ele>
        <time>2022-02-06T10:37:34Z</time>
      </trkpt>
      <trkpt lat="48.71083" lon="1.9935">
        <ele>118.3</ele>
        <time>2022-02-06T10:37:38Z</time>
      </trkpt>
      <trkpt lat="48.71079" lon="1.99346">
        <ele>119</ele>
        <time>2022-02-06T10:37:43Z</time>
      </trkpt>
      <trkpt lat="48.71076" lon="1.99351">
        <ele>119.6</ele>
        <time>2022-02-06T10:37:47Z</time>
      </trkpt>
      <trkpt lat="48.71075" lon="1.99358">
        <ele>118.7</ele>
        <time>2022-02-06T10:37:52Z</time>
      </trkpt>
      <trkpt lat="48.7107" lon="1.99361">
        <ele>115</ele>
        <time>2022-02-06T10:37:59Z</time>
      </trkpt>
      <trkpt lat="48.71071" lon="1.99354">
        <ele>113.5</ele>
        <time>2022-02-06T10:38:04Z</time>
      </trkpt>
      <trkpt lat="48.71076" lon="1.99348">
        <ele>113.5</ele>
        <time>2022-02-06T10:38:08Z</time>
      </trkpt>
      <trkpt lat="48.71071" lon="1.99351">
        <ele>116.3</ele>
        <time>2022-02-06T10:38:31Z</time>
      </trkpt>
      <trkpt lat="48.71066" lon="1.99352">
        <ele>115</ele>
        <time>2022-02-06T10:38:37Z</time>
      </trkpt>
      <trkpt lat="48.71061" lon="1.99351">
        <ele>114.2</ele>
        <time>2022-02-06T10:38:41Z</time>
      </trkpt>
      <trkpt lat="48.71057" lon="1.99347">
        <ele>114.1</ele>
        <time>2022-02-06T10:38:44Z</time>
      </trkpt>
      <trkpt lat="48.71052" lon="1.99345">
        <ele>113.8</ele>
        <time>2022-02-06T10:38:49Z</time>
      </trkpt>
      <trkpt lat="48.71047" lon="1.99346">
        <ele>113.1</ele>
        <time>2022-02-06T10:38:54Z</time>
      </trkpt>
      <trkpt lat="48.71043" lon="1.99343">
        <ele>112.4</ele>
        <time>2022-02-06T10:38:58Z</time>
      </trkpt>
      <trkpt lat="48.71038" lon="1.99341">
        <ele>111.6</ele>
        <time>2022-02-06T10:39:03Z</time>
      </trkpt>
      <trkpt lat="48.71034" lon="1.99345">
        <ele>110</ele>
        <time>2022-02-06T10:39:09Z</time>
      </trkpt>
      <trkpt lat="48.71028" lon="1.99347">
        <ele>107.7</ele>
        <time>2022-02-06T10:39:14Z</time>
      </trkpt>
      <trkpt lat="48.71023" lon="1.99346">
        <ele>105.1</ele>
        <time>2022-02-06T10:39:18Z</time>
      </trkpt>
      <trkpt lat="48.71018" lon="1.99343">
        <ele>103.6</ele>
        <time>2022-02-06T10:39:23Z</time>
      </trkpt>
      <trkpt lat="48.71013" lon="1.99343">
        <ele>102.7</ele>
        <time>2022-02-06T10:39:27Z</time>
      </trkpt>
      <trkpt lat="48.71008" lon="1.99344">
        <ele>101.3</ele>
        <time>2022-02-06T10:39:33Z</time>
      </trkpt>
      <trkpt lat="48.71002" lon="1.99344">
        <ele>99.9</ele>
        <time>2022-02-06T10:39:38Z</time>
      </trkpt>
      <trkpt lat="48.70997" lon="1.99344">
        <ele>99.7</ele>
        <time>2022-02-06T10:39:41Z</time>
      </trkpt>
      <trkpt lat="48.70993" lon="1.99346">
        <ele>99.4</ele>
        <time>2022-02-06T10:39:46Z</time>
      </trkpt>
      <trkpt lat="48.70997" lon="1.99344">
        <ele>92.7</ele>
        <time>2022-02-06T10:40:00Z</time>
      </trkpt>
      <trkpt lat="48.71" lon="1.99338">
        <ele>91.6</ele>
        <time>2022-02-06T10:40:09Z</time>
      </trkpt>
      <trkpt lat="48.71005" lon="1.99333">
        <ele>92.5</ele>
        <time>2022-02-06T10:40:42Z</time>
      </trkpt>
      <trkpt lat="48.71008" lon="1.99327">
        <ele>93.3</ele>
        <time>2022-02-06T10:40:46Z</time>
      </trkpt>
      <trkpt lat="48.7101" lon="1.9932">
        <ele>93.8</ele>
        <time>2022-02-06T10:40:49Z</time>
      </trkpt>
      <trkpt lat="48.71011" lon="1.99312">
        <ele>94.1</ele>
        <time>2022-02-06T10:40:54Z</time>
      </trkpt>
      <trkpt lat="48.71015" lon="1.99308">
        <ele>94.1</ele>
        <time>2022-02-06T10:40:59Z</time>
      </trkpt>
      <trkpt lat="48.71018" lon="1.99302">
        <ele>94.2</ele>
        <time>2022-02-06T10:41:02Z</time>
      </trkpt>
      <trkpt lat="48.71024" lon="1.99301">
        <ele>94.2</ele>
        <time>2022-02-06T10:41:06Z</time>
      </trkpt>
      <trkpt lat="48.71027" lon="1.99293">
        <ele>94.1</ele>
        <time>2022-02-06T10:41:11Z</time>
      </trkpt>
      <trkpt lat="48.71027" lon="1.99284">
        <ele>94.2</ele>
        <time>2022-02-06T10:41:13Z</time>
      </trkpt>
      <trkpt lat="48.71027" lon="1.99277">
        <ele>94.5</ele>
        <time>2022-02-06T10:41:16Z</time>
      </trkpt>
      <trkpt lat="48.71027" lon="1.99268">
        <ele>95</ele>
        <time>2022-02-06T10:41:19Z</time>
      </trkpt>
      <trkpt lat="48.71028" lon="1.9926">
        <ele>95.6</ele>
        <time>2022-02-06T10:41:23Z</time>
      </trkpt>
      <trkpt lat="48.71031" lon="1.99253">
        <ele>96.2</ele>
        <time>2022-02-06T10:41:26Z</time>
      </trkpt>
      <trkpt lat="48.71034" lon="1.99248">
        <ele>96.4</ele>
        <time>2022-02-06T10:41:30Z</time>
      </trkpt>
      <trkpt lat="48.71038" lon="1.99244">
        <ele>96.2</ele>
        <time>2022-02-06T10:41:33Z</time>
      </trkpt>
      <trkpt lat="48.71042" lon="1.99239">
        <ele>95.2</ele>
        <time>2022-02-06T10:41:38Z</time>
      </trkpt>
      <trkpt lat="48.71046" lon="1.99235">
        <ele>97</ele>
        <time>2022-02-06T10:41:42Z</time>
      </trkpt>
      <trkpt lat="48.7105" lon="1.99231">
        <ele>98.5</ele>
        <time>2022-02-06T10:41:46Z</time>
      </trkpt>
      <trkpt lat="48.71055" lon="1.99225">
        <ele>99.3</ele>
        <time>2022-02-06T10:41:49Z</time>
      </trkpt>
      <trkpt lat="48.71058" lon="1.99221">
        <ele>99.8</ele>
        <time>2022-02-06T10:41:53Z</time>
      </trkpt>
      <trkpt lat="48.71062" lon="1.99216">
        <ele>100.5</ele>
        <time>2022-02-06T10:41:56Z</time>
      </trkpt>
      <trkpt lat="48.71066" lon="1.99209">
        <ele>100.8</ele>
        <time>2022-02-06T10:42:00Z</time>
      </trkpt>
      <trkpt lat="48.71069" lon="1.99202">
        <ele>100.9</ele>
        <time>2022-02-06T10:42:04Z</time>
      </trkpt>
      <trkpt lat="48.71071" lon="1.99196">
        <ele>100.9</ele>
        <time>2022-02-06T10:42:08Z</time>
      </trkpt>
      <trkpt lat="48.71073" lon="1.99189">
        <ele>100.9</ele>
        <time>2022-02-06T10:42:12Z</time>
      </trkpt>
      <trkpt lat="48.71074" lon="1.99181">
        <ele>100.6</ele>
        <time>2022-02-06T10:42:16Z</time>
      </trkpt>
      <trkpt lat="48.71076" lon="1.99173">
        <ele>100.6</ele>
        <time>2022-02-06T10:42:20Z</time>
      </trkpt>
      <trkpt lat="48.71078" lon="1.99167">
        <ele>100.7</ele>
        <time>2022-02-06T10:42:24Z</time>
      </trkpt>
      <trkpt lat="48.7108" lon="1.9916">
        <ele>100.7</ele>
        <time>2022-02-06T10:42:27Z</time>
      </trkpt>
      <trkpt lat="48.71083" lon="1.99154">
        <ele>101.1</ele>
        <time>2022-02-06T10:42:30Z</time>
      </trkpt>
      <trkpt lat="48.71086" lon="1.99146">
        <ele>101.7</ele>
        <time>2022-02-06T10:42:34Z</time>
      </trkpt>
      <trkpt lat="48.71088" lon="1.99139">
        <ele>101.6</ele>
        <time>2022-02-06T10:42:38Z</time>
      </trkpt>
      <trkpt lat="48.71089" lon="1.99132">
        <ele>100.8</ele>
        <time>2022-02-06T10:42:41Z</time>
      </trkpt>
      <trkpt lat="48.71091" lon="1.99123">
        <ele>99.9</ele>
        <time>2022-02-06T10:42:46Z</time>
      </trkpt>
      <trkpt lat="48.71093" lon="1.99116">
        <ele>100</ele>
        <time>2022-02-06T10:42:49Z</time>
      </trkpt>
      <trkpt lat="48.71096" lon="1.99108">
        <ele>98.8</ele>
        <time>2022-02-06T10:42:53Z</time>
      </trkpt>
      <trkpt lat="48.71097" lon="1.99101">
        <ele>96.8</ele>
        <time>2022-02-06T10:42:57Z</time>
      </trkpt>
      <trkpt lat="48.71098" lon="1.99093">
        <ele>95.6</ele>
        <time>2022-02-06T10:43:02Z</time>
      </trkpt>
      <trkpt lat="48.711" lon="1.99085">
        <ele>95.8</ele>
        <time>2022-02-06T10:43:06Z</time>
      </trkpt>
      <trkpt lat="48.71102" lon="1.99077">
        <ele>96.5</ele>
        <time>2022-02-06T10:43:11Z</time>
      </trkpt>
      <trkpt lat="48.71104" lon="1.99069">
        <ele>97.7</ele>
        <time>2022-02-06T10:43:15Z</time>
      </trkpt>
      <trkpt lat="48.71105" lon="1.99062">
        <ele>99.2</ele>
        <time>2022-02-06T10:43:18Z</time>
      </trkpt>
      <trkpt lat="48.71107" lon="1.99055">
        <ele>100.2</ele>
        <time>2022-02-06T10:43:23Z</time>
      </trkpt>
      <trkpt lat="48.71108" lon="1.99047">
        <ele>100.3</ele>
        <time>2022-02-06T10:43:26Z</time>
      </trkpt>
      <trkpt lat="48.71109" lon="1.99039">
        <ele>99.5</ele>
        <time>2022-02-06T10:43:31Z</time>
      </trkpt>
      <trkpt lat="48.71111" lon="1.99031">
        <ele>97.6</ele>
        <time>2022-02-06T10:43:35Z</time>
      </trkpt>
      <trkpt lat="48.71117" lon="1.99031">
        <ele>93</ele>
        <time>2022-02-06T10:44:08Z</time>
      </trkpt>
      <trkpt lat="48.71121" lon="1.99026">
        <ele>92.9</ele>
        <time>2022-02-06T10:44:11Z</time>
      </trkpt>
      <trkpt lat="48.71126" lon="1.9902">
        <ele>92.9</ele>
        <time>2022-02-06T10:44:16Z</time>
      </trkpt>
      <trkpt lat="48.7113" lon="1.99012">
        <ele>92.8</ele>
        <time>2022-02-06T10:44:19Z</time>
      </trkpt>
      <trkpt lat="48.71133" lon="1.99005">
        <ele>92.4</ele>
        <time>2022-02-06T10:44:23Z</time>
      </trkpt>
      <trkpt lat="48.71137" lon="1.98998">
        <ele>92.2</ele>
        <time>2022-02-06T10:44:26Z</time>
      </trkpt>
      <trkpt lat="48.71141" lon="1.98991">
        <ele>92.3</ele>
        <time>2022-02-06T10:44:29Z</time>
      </trkpt>
      <trkpt lat="48.71142" lon="1.98984">
        <ele>93.6</ele>
        <time>2022-02-06T10:44:32Z</time>
      </trkpt>
      <trkpt lat="48.71144" lon="1.98977">
        <ele>95.2</ele>
        <time>2022-02-06T10:44:37Z</time>
      </trkpt>
      <trkpt lat="48.71147" lon="1.9897">
        <ele>95.4</ele>
        <time>2022-02-06T10:44:41Z</time>
      </trkpt>
      <trkpt lat="48.71149" lon="1.98964">
        <ele>95.6</ele>
        <time>2022-02-06T10:44:45Z</time>
      </trkpt>
      <trkpt lat="48.71152" lon="1.98958">
        <ele>96.4</ele>
        <time>2022-02-06T10:44:49Z</time>
      </trkpt>
      <trkpt lat="48.71155" lon="1.98952">
        <ele>98.4</ele>
        <time>2022-02-06T10:44:53Z</time>
      </trkpt>
      <trkpt lat="48.71158" lon="1.98946">
        <ele>100.1</ele>
        <time>2022-02-06T10:44:57Z</time>
      </trkpt>
      <trkpt lat="48.71161" lon="1.9894">
        <ele>100.8</ele>
        <time>2022-02-06T10:45:01Z</time>
      </trkpt>
      <trkpt lat="48.71164" lon="1.98935">
        <ele>101.8</ele>
        <time>2022-02-06T10:45:04Z</time>
      </trkpt>
      <trkpt lat="48.71167" lon="1.98929">
        <ele>103.4</ele>
        <time>2022-02-06T10:45:09Z</time>
      </trkpt>
      <trkpt lat="48.7117" lon="1.98923">
        <ele>103.6</ele>
        <time>2022-02-06T10:45:13Z</time>
      </trkpt>
      <trkpt lat="48.71173" lon="1.98916">
        <ele>104</ele>
        <time>2022-02-06T10:45:17Z</time>
      </trkpt>
      <trkpt lat="48.71175" lon="1.98909">
        <ele>105.4</ele>
        <time>2022-02-06T10:45:21Z</time>
      </trkpt>
      <trkpt lat="48.71178" lon="1.98903">
        <ele>106.9</ele>
        <time>2022-02-06T10:45:26Z</time>
      </trkpt>
      <trkpt lat="48.71181" lon="1.98897">
        <ele>106.5</ele>
        <time>2022-02-06T10:45:30Z</time>
      </trkpt>
      <trkpt lat="48.71184" lon="1.98891">
        <ele>105.7</ele>
        <time>2022-02-06T10:45:34Z</time>
      </trkpt>
      <trkpt lat="48.71188" lon="1.98886">
        <ele>104.2</ele>
        <time>2022-02-06T10:45:37Z</time>
      </trkpt>
      <trkpt lat="48.71192" lon="1.98881">
        <ele>102.5</ele>
        <time>2022-02-06T10:45:42Z</time>
      </trkpt>
      <trkpt lat="48.71197" lon="1.98876">
        <ele>101.5</ele>
        <time>2022-02-06T10:45:46Z</time>
      </trkpt>
      <trkpt lat="48.71202" lon="1.98871">
        <ele>101.1</ele>
        <time>2022-02-06T10:45:50Z</time>
      </trkpt>
      <trkpt lat="48.71207" lon="1.98867">
        <ele>101</ele>
        <time>2022-02-06T10:45:54Z</time>
      </trkpt>
      <trkpt lat="48.71211" lon="1.98863">
        <ele>101.4</ele>
        <time>2022-02-06T10:45:58Z</time>
      </trkpt>
      <trkpt lat="48.71214" lon="1.98856">
        <ele>102.7</ele>
        <time>2022-02-06T10:46:02Z</time>
      </trkpt>
      <trkpt lat="48.71218" lon="1.9885">
        <ele>104</ele>
        <time>2022-02-06T10:46:06Z</time>
      </trkpt>
      <trkpt lat="48.71222" lon="1.98844">
        <ele>104.2</ele>
        <time>2022-02-06T10:46:10Z</time>
      </trkpt>
      <trkpt lat="48.71226" lon="1.9884">
        <ele>104.2</ele>
        <time>2022-02-06T10:46:13Z</time>
      </trkpt>
      <trkpt lat="48.71229" lon="1.98832">
        <ele>104.7</ele>
        <time>2022-02-06T10:46:18Z</time>
      </trkpt>
      <trkpt lat="48.71231" lon="1.98825">
        <ele>106.7</ele>
        <time>2022-02-06T10:46:21Z</time>
      </trkpt>
      <trkpt lat="48.71233" lon="1.98818">
        <ele>109</ele>
        <time>2022-02-06T10:46:24Z</time>
      </trkpt>
      <trkpt lat="48.71235" lon="1.98812">
        <ele>110.7</ele>
        <time>2022-02-06T10:46:27Z</time>
      </trkpt>
      <trkpt lat="48.71238" lon="1.98806">
        <ele>111.5</ele>
        <time>2022-02-06T10:46:31Z</time>
      </trkpt>
      <trkpt lat="48.71241" lon="1.988">
        <ele>112.5</ele>
        <time>2022-02-06T10:46:34Z</time>
      </trkpt>
      <trkpt lat="48.71244" lon="1.98794">
        <ele>113.2</ele>
        <time>2022-02-06T10:46:37Z</time>
      </trkpt>
      <trkpt lat="48.71248" lon="1.98788">
        <ele>113.7</ele>
        <time>2022-02-06T10:46:41Z</time>
      </trkpt>
      <trkpt lat="48.71252" lon="1.98783">
        <ele>113.3</ele>
        <time>2022-02-06T10:46:46Z</time>
      </trkpt>
      <trkpt lat="48.71255" lon="1.98778">
        <ele>113.2</ele>
        <time>2022-02-06T10:46:49Z</time>
      </trkpt>
      <trkpt lat="48.71258" lon="1.98772">
        <ele>113.6</ele>
        <time>2022-02-06T10:46:52Z</time>
      </trkpt>
      <trkpt lat="48.71261" lon="1.98766">
        <ele>114.1</ele>
        <time>2022-02-06T10:46:57Z</time>
      </trkpt>
      <trkpt lat="48.71264" lon="1.9876">
        <ele>114.2</ele>
        <time>2022-02-06T10:47:01Z</time>
      </trkpt>
      <trkpt lat="48.71268" lon="1.98754">
        <ele>112.9</ele>
        <time>2022-02-06T10:47:06Z</time>
      </trkpt>
      <trkpt lat="48.71271" lon="1.98748">
        <ele>112.5</ele>
        <time>2022-02-06T10:47:11Z</time>
      </trkpt>
      <trkpt lat="48.71273" lon="1.98741">
        <ele>113.3</ele>
        <time>2022-02-06T10:47:14Z</time>
      </trkpt>
      <trkpt lat="48.71275" lon="1.98734">
        <ele>112.2</ele>
        <time>2022-02-06T10:47:19Z</time>
      </trkpt>
      <trkpt lat="48.71278" lon="1.98727">
        <ele>109</ele>
        <time>2022-02-06T10:47:23Z</time>
      </trkpt>
      <trkpt lat="48.7128" lon="1.98721">
        <ele>107</ele>
        <time>2022-02-06T10:47:26Z</time>
      </trkpt>
      <trkpt lat="48.71282" lon="1.98714">
        <ele>106.2</ele>
        <time>2022-02-06T10:47:30Z</time>
      </trkpt>
      <trkpt lat="48.71285" lon="1.98707">
        <ele>105.5</ele>
        <time>2022-02-06T10:47:34Z</time>
      </trkpt>
      <trkpt lat="48.71287" lon="1.987">
        <ele>106</ele>
        <time>2022-02-06T10:47:39Z</time>
      </trkpt>
      <trkpt lat="48.7129" lon="1.98693">
        <ele>107.6</ele>
        <time>2022-02-06T10:47:43Z</time>
      </trkpt>
      <trkpt lat="48.71292" lon="1.98686">
        <ele>108.7</ele>
        <time>2022-02-06T10:47:48Z</time>
      </trkpt>
      <trkpt lat="48.71293" lon="1.9868">
        <ele>109</ele>
        <time>2022-02-06T10:47:52Z</time>
      </trkpt>
      <trkpt lat="48.71295" lon="1.98671">
        <ele>109.3</ele>
        <time>2022-02-06T10:47:57Z</time>
      </trkpt>
      <trkpt lat="48.71298" lon="1.98665">
        <ele>109.4</ele>
        <time>2022-02-06T10:48:02Z</time>
      </trkpt>
      <trkpt lat="48.71301" lon="1.98656">
        <ele>109</ele>
        <time>2022-02-06T10:48:07Z</time>
      </trkpt>
      <trkpt lat="48.71303" lon="1.9865">
        <ele>108.2</ele>
        <time>2022-02-06T10:48:12Z</time>
      </trkpt>
      <trkpt lat="48.71307" lon="1.98643">
        <ele>107.6</ele>
        <time>2022-02-06T10:48:16Z</time>
      </trkpt>
      <trkpt lat="48.7131" lon="1.98635">
        <ele>107.2</ele>
        <time>2022-02-06T10:48:21Z</time>
      </trkpt>
      <trkpt lat="48.71313" lon="1.98628">
        <ele>106.7</ele>
        <time>2022-02-06T10:48:26Z</time>
      </trkpt>
      <trkpt lat="48.71315" lon="1.9862">
        <ele>105.9</ele>
        <time>2022-02-06T10:48:30Z</time>
      </trkpt>
      <trkpt lat="48.71317" lon="1.98612">
        <ele>104.9</ele>
        <time>2022-02-06T10:48:34Z</time>
      </trkpt>
      <trkpt lat="48.71318" lon="1.98603">
        <ele>104.1</ele>
        <time>2022-02-06T10:48:40Z</time>
      </trkpt>
      <trkpt lat="48.7132" lon="1.98596">
        <ele>103.3</ele>
        <time>2022-02-06T10:48:44Z</time>
      </trkpt>
      <trkpt lat="48.71321" lon="1.98588">
        <ele>102.7</ele>
        <time>2022-02-06T10:48:48Z</time>
      </trkpt>
      <trkpt lat="48.71323" lon="1.98581">
        <ele>101.7</ele>
        <time>2022-02-06T10:48:53Z</time>
      </trkpt>
      <trkpt lat="48.71324" lon="1.98572">
        <ele>101.2</ele>
        <time>2022-02-06T10:48:57Z</time>
      </trkpt>
      <trkpt lat="48.71325" lon="1.98565">
        <ele>101.1</ele>
        <time>2022-02-06T10:49:02Z</time>
      </trkpt>
      <trkpt lat="48.71326" lon="1.98557">
        <ele>101</ele>
        <time>2022-02-06T10:49:06Z</time>
      </trkpt>
      <trkpt lat="48.71328" lon="1.98551">
        <ele>100.3</ele>
        <time>2022-02-06T10:49:10Z</time>
      </trkpt>
      <trkpt lat="48.71329" lon="1.98544">
        <ele>99.6</ele>
        <time>2022-02-06T10:49:13Z</time>
      </trkpt>
      <trkpt lat="48.7133" lon="1.98536">
        <ele>99.4</ele>
        <time>2022-02-06T10:49:18Z</time>
      </trkpt>
      <trkpt lat="48.71331" lon="1.98527">
        <ele>99.2</ele>
        <time>2022-02-06T10:49:22Z</time>
      </trkpt>
      <trkpt lat="48.71332" lon="1.9852">
        <ele>98.9</ele>
        <time>2022-02-06T10:49:25Z</time>
      </trkpt>
      <trkpt lat="48.71333" lon="1.98512">
        <ele>99.1</ele>
        <time>2022-02-06T10:49:29Z</time>
      </trkpt>
      <trkpt lat="48.71332" lon="1.98505">
        <ele>99.8</ele>
        <time>2022-02-06T10:49:33Z</time>
      </trkpt>
      <trkpt lat="48.71327" lon="1.985">
        <ele>99.5</ele>
        <time>2022-02-06T10:49:38Z</time>
      </trkpt>
      <trkpt lat="48.71322" lon="1.985">
        <ele>99.1</ele>
        <time>2022-02-06T10:49:41Z</time>
      </trkpt>
      <trkpt lat="48.71317" lon="1.98499">
        <ele>98.7</ele>
        <time>2022-02-06T10:49:46Z</time>
      </trkpt>
      <trkpt lat="48.71312" lon="1.98496">
        <ele>98.6</ele>
        <time>2022-02-06T10:49:50Z</time>
      </trkpt>
      <trkpt lat="48.71306" lon="1.98493">
        <ele>98.3</ele>
        <time>2022-02-06T10:49:54Z</time>
      </trkpt>
      <trkpt lat="48.71302" lon="1.9849">
        <ele>97.6</ele>
        <time>2022-02-06T10:49:59Z</time>
      </trkpt>
      <trkpt lat="48.71297" lon="1.98487">
        <ele>96.1</ele>
        <time>2022-02-06T10:50:03Z</time>
      </trkpt>
      <trkpt lat="48.71296" lon="1.98479">
        <ele>94.6</ele>
        <time>2022-02-06T10:50:07Z</time>
      </trkpt>
      <trkpt lat="48.71298" lon="1.98471">
        <ele>93.9</ele>
        <time>2022-02-06T10:50:11Z</time>
      </trkpt>
      <trkpt lat="48.71299" lon="1.98464">
        <ele>94</ele>
        <time>2022-02-06T10:50:15Z</time>
      </trkpt>
      <trkpt lat="48.71298" lon="1.98457">
        <ele>94.3</ele>
        <time>2022-02-06T10:50:19Z</time>
      </trkpt>
      <trkpt lat="48.713" lon="1.98451">
        <ele>94.3</ele>
        <time>2022-02-06T10:50:24Z</time>
      </trkpt>
      <trkpt lat="48.713" lon="1.98442">
        <ele>94.2</ele>
        <time>2022-02-06T10:50:29Z</time>
      </trkpt>
      <trkpt lat="48.713" lon="1.98435">
        <ele>94.2</ele>
        <time>2022-02-06T10:50:33Z</time>
      </trkpt>
      <trkpt lat="48.713" lon="1.98443">
        <ele>91.4</ele>
        <time>2022-02-06T10:50:42Z</time>
      </trkpt>
      <trkpt lat="48.713" lon="1.98451">
        <ele>89.5</ele>
        <time>2022-02-06T10:50:45Z</time>
      </trkpt>
      <trkpt lat="48.71302" lon="1.98458">
        <ele>88.7</ele>
        <time>2022-02-06T10:50:48Z</time>
      </trkpt>
      <trkpt lat="48.71304" lon="1.98466">
        <ele>87.6</ele>
        <time>2022-02-06T10:50:53Z</time>
      </trkpt>
      <trkpt lat="48.71303" lon="1.98473">
        <ele>87.1</ele>
        <time>2022-02-06T10:50:56Z</time>
      </trkpt>
      <trkpt lat="48.71304" lon="1.9848">
        <ele>87.5</ele>
        <time>2022-02-06T10:51:01Z</time>
      </trkpt>
      <trkpt lat="48.713" lon="1.98486">
        <ele>90.6</ele>
        <time>2022-02-06T10:51:08Z</time>
      </trkpt>
      <trkpt lat="48.71296" lon="1.98492">
        <ele>92.3</ele>
        <time>2022-02-06T10:51:12Z</time>
      </trkpt>
      <trkpt lat="48.71292" lon="1.98497">
        <ele>92.6</ele>
        <time>2022-02-06T10:51:16Z</time>
      </trkpt>
      <trkpt lat="48.71288" lon="1.98499">
        <ele>91.3</ele>
        <time>2022-02-06T10:51:21Z</time>
      </trkpt>
      <trkpt lat="48.71283" lon="1.98501">
        <ele>88.3</ele>
        <time>2022-02-06T10:51:25Z</time>
      </trkpt>
      <trkpt lat="48.71279" lon="1.98503">
        <ele>86.3</ele>
        <time>2022-02-06T10:51:28Z</time>
      </trkpt>
      <trkpt lat="48.71274" lon="1.98505">
        <ele>85.5</ele>
        <time>2022-02-06T10:51:33Z</time>
      </trkpt>
      <trkpt lat="48.71269" lon="1.9851">
        <ele>84.9</ele>
        <time>2022-02-06T10:51:37Z</time>
      </trkpt>
      <trkpt lat="48.71266" lon="1.98514">
        <ele>84.3</ele>
        <time>2022-02-06T10:51:41Z</time>
      </trkpt>
      <trkpt lat="48.71261" lon="1.98519">
        <ele>85.4</ele>
        <time>2022-02-06T10:51:45Z</time>
      </trkpt>
      <trkpt lat="48.71255" lon="1.98524">
        <ele>86.7</ele>
        <time>2022-02-06T10:51:50Z</time>
      </trkpt>
      <trkpt lat="48.71251" lon="1.98529">
        <ele>87.2</ele>
        <time>2022-02-06T10:51:53Z</time>
      </trkpt>
      <trkpt lat="48.71247" lon="1.98533">
        <ele>87.6</ele>
        <time>2022-02-06T10:51:57Z</time>
      </trkpt>
      <trkpt lat="48.71243" lon="1.98538">
        <ele>88.1</ele>
        <time>2022-02-06T10:52:00Z</time>
      </trkpt>
      <trkpt lat="48.71239" lon="1.98542">
        <ele>88.2</ele>
        <time>2022-02-06T10:52:04Z</time>
      </trkpt>
      <trkpt lat="48.71234" lon="1.98547">
        <ele>87.6</ele>
        <time>2022-02-06T10:52:08Z</time>
      </trkpt>
      <trkpt lat="48.71229" lon="1.98552">
        <ele>86</ele>
        <time>2022-02-06T10:52:12Z</time>
      </trkpt>
      <trkpt lat="48.71225" lon="1.98558">
        <ele>85.5</ele>
        <time>2022-02-06T10:52:16Z</time>
      </trkpt>
      <trkpt lat="48.71221" lon="1.98564">
        <ele>85.8</ele>
        <time>2022-02-06T10:52:21Z</time>
      </trkpt>
      <trkpt lat="48.71216" lon="1.98567">
        <ele>84.8</ele>
        <time>2022-02-06T10:52:25Z</time>
      </trkpt>
      <trkpt lat="48.71211" lon="1.9857">
        <ele>83.6</ele>
        <time>2022-02-06T10:52:29Z</time>
      </trkpt>
      <trkpt lat="48.71206" lon="1.98571">
        <ele>81.9</ele>
        <time>2022-02-06T10:52:33Z</time>
      </trkpt>
      <trkpt lat="48.712" lon="1.98573">
        <ele>81.3</ele>
        <time>2022-02-06T10:52:37Z</time>
      </trkpt>
      <trkpt lat="48.71195" lon="1.98576">
        <ele>80.5</ele>
        <time>2022-02-06T10:52:42Z</time>
      </trkpt>
      <trkpt lat="48.71191" lon="1.98579">
        <ele>80.3</ele>
        <time>2022-02-06T10:52:46Z</time>
      </trkpt>
      <trkpt lat="48.71186" lon="1.98583">
        <ele>80.4</ele>
        <time>2022-02-06T10:52:50Z</time>
      </trkpt>
      <trkpt lat="48.71182" lon="1.98588">
        <ele>80.8</ele>
        <time>2022-02-06T10:52:55Z</time>
      </trkpt>
      <trkpt lat="48.71178" lon="1.98593">
        <ele>81.1</ele>
        <time>2022-02-06T10:52:59Z</time>
      </trkpt>
      <trkpt lat="48.71172" lon="1.98594">
        <ele>83.4</ele>
        <time>2022-02-06T10:53:05Z</time>
      </trkpt>
      <trkpt lat="48.71166" lon="1.98593">
        <ele>85.7</ele>
        <time>2022-02-06T10:53:09Z</time>
      </trkpt>
      <trkpt lat="48.71161" lon="1.98589">
        <ele>86.5</ele>
        <time>2022-02-06T10:53:13Z</time>
      </trkpt>
      <trkpt lat="48.71156" lon="1.98587">
        <ele>86.6</ele>
        <time>2022-02-06T10:53:16Z</time>
      </trkpt>
      <trkpt lat="48.71151" lon="1.98585">
        <ele>86.1</ele>
        <time>2022-02-06T10:53:21Z</time>
      </trkpt>
      <trkpt lat="48.71145" lon="1.98584">
        <ele>85.1</ele>
        <time>2022-02-06T10:53:25Z</time>
      </trkpt>
      <trkpt lat="48.71139" lon="1.98584">
        <ele>84.6</ele>
        <time>2022-02-06T10:53:30Z</time>
      </trkpt>
      <trkpt lat="48.71135" lon="1.98585">
        <ele>84.4</ele>
        <time>2022-02-06T10:53:33Z</time>
      </trkpt>
      <trkpt lat="48.71129" lon="1.98585">
        <ele>84.2</ele>
        <time>2022-02-06T10:53:38Z</time>
      </trkpt>
      <trkpt lat="48.71124" lon="1.98584">
        <ele>84.2</ele>
        <time>2022-02-06T10:53:42Z</time>
      </trkpt>
      <trkpt lat="48.71119" lon="1.98584">
        <ele>84.2</ele>
        <time>2022-02-06T10:53:46Z</time>
      </trkpt>
      <trkpt lat="48.71113" lon="1.98584">
        <ele>84.1</ele>
        <time>2022-02-06T10:53:50Z</time>
      </trkpt>
      <trkpt lat="48.71108" lon="1.98584">
        <ele>84.3</ele>
        <time>2022-02-06T10:53:55Z</time>
      </trkpt>
      <trkpt lat="48.71103" lon="1.98584">
        <ele>84.5</ele>
        <time>2022-02-06T10:53:59Z</time>
      </trkpt>
      <trkpt lat="48.71098" lon="1.98583">
        <ele>84.6</ele>
        <time>2022-02-06T10:54:02Z</time>
      </trkpt>
      <trkpt lat="48.71093" lon="1.98582">
        <ele>84.6</ele>
        <time>2022-02-06T10:54:06Z</time>
      </trkpt>
      <trkpt lat="48.71088" lon="1.98582">
        <ele>84.8</ele>
        <time>2022-02-06T10:54:10Z</time>
      </trkpt>
      <trkpt lat="48.71083" lon="1.98582">
        <ele>85.2</ele>
        <time>2022-02-06T10:54:15Z</time>
      </trkpt>
      <trkpt lat="48.71078" lon="1.98582">
        <ele>85.6</ele>
        <time>2022-02-06T10:54:19Z</time>
      </trkpt>
      <trkpt lat="48.71072" lon="1.98582">
        <ele>86.1</ele>
        <time>2022-02-06T10:54:23Z</time>
      </trkpt>
      <trkpt lat="48.71066" lon="1.98581">
        <ele>86.3</ele>
        <time>2022-02-06T10:54:27Z</time>
      </trkpt>
      <trkpt lat="48.71061" lon="1.98581">
        <ele>86.5</ele>
        <time>2022-02-06T10:54:31Z</time>
      </trkpt>
      <trkpt lat="48.71056" lon="1.9858">
        <ele>86.4</ele>
        <time>2022-02-06T10:54:36Z</time>
      </trkpt>
      <trkpt lat="48.71051" lon="1.9858">
        <ele>86.3</ele>
        <time>2022-02-06T10:54:39Z</time>
      </trkpt>
      <trkpt lat="48.71046" lon="1.9858">
        <ele>86.6</ele>
        <time>2022-02-06T10:54:43Z</time>
      </trkpt>
      <trkpt lat="48.71039" lon="1.98581">
        <ele>87.3</ele>
        <time>2022-02-06T10:54:48Z</time>
      </trkpt>
      <trkpt lat="48.71035" lon="1.98582">
        <ele>87.8</ele>
        <time>2022-02-06T10:54:51Z</time>
      </trkpt>
      <trkpt lat="48.7103" lon="1.98583">
        <ele>88.5</ele>
        <time>2022-02-06T10:54:55Z</time>
      </trkpt>
      <trkpt lat="48.71024" lon="1.98585">
        <ele>89</ele>
        <time>2022-02-06T10:55:00Z</time>
      </trkpt>
      <trkpt lat="48.7102" lon="1.98586">
        <ele>89.5</ele>
        <time>2022-02-06T10:55:03Z</time>
      </trkpt>
      <trkpt lat="48.71014" lon="1.98587">
        <ele>90.3</ele>
        <time>2022-02-06T10:55:08Z</time>
      </trkpt>
      <trkpt lat="48.71009" lon="1.98589">
        <ele>91</ele>
        <time>2022-02-06T10:55:12Z</time>
      </trkpt>
      <trkpt lat="48.71005" lon="1.98591">
        <ele>91.2</ele>
        <time>2022-02-06T10:55:16Z</time>
      </trkpt>
      <trkpt lat="48.70999" lon="1.98593">
        <ele>91.3</ele>
        <time>2022-02-06T10:55:20Z</time>
      </trkpt>
      <trkpt lat="48.70993" lon="1.98595">
        <ele>91.6</ele>
        <time>2022-02-06T10:55:25Z</time>
      </trkpt>
      <trkpt lat="48.70988" lon="1.98596">
        <ele>91.8</ele>
        <time>2022-02-06T10:55:30Z</time>
      </trkpt>
      <trkpt lat="48.70983" lon="1.98595">
        <ele>92.3</ele>
        <time>2022-02-06T10:55:34Z</time>
      </trkpt>
      <trkpt lat="48.70977" lon="1.98593">
        <ele>92.9</ele>
        <time>2022-02-06T10:55:38Z</time>
      </trkpt>
      <trkpt lat="48.70972" lon="1.98591">
        <ele>93.2</ele>
        <time>2022-02-06T10:55:43Z</time>
      </trkpt>
      <trkpt lat="48.70966" lon="1.98589">
        <ele>93.3</ele>
        <time>2022-02-06T10:55:47Z</time>
      </trkpt>
      <trkpt lat="48.70961" lon="1.98586">
        <ele>93.7</ele>
        <time>2022-02-06T10:55:51Z</time>
      </trkpt>
      <trkpt lat="48.70957" lon="1.98583">
        <ele>94.3</ele>
        <time>2022-02-06T10:55:56Z</time>
      </trkpt>
      <trkpt lat="48.70952" lon="1.98581">
        <ele>94.2</ele>
        <time>2022-02-06T10:56:00Z</time>
      </trkpt>
      <trkpt lat="48.70948" lon="1.98578">
        <ele>94.6</ele>
        <time>2022-02-06T10:56:04Z</time>
      </trkpt>
      <trkpt lat="48.70943" lon="1.98574">
        <ele>95.5</ele>
        <time>2022-02-06T10:56:08Z</time>
      </trkpt>
      <trkpt lat="48.70939" lon="1.98569">
        <ele>96.4</ele>
        <time>2022-02-06T10:56:13Z</time>
      </trkpt>
      <trkpt lat="48.70935" lon="1.98563">
        <ele>96.9</ele>
        <time>2022-02-06T10:56:17Z</time>
      </trkpt>
      <trkpt lat="48.70932" lon="1.98557">
        <ele>97.9</ele>
        <time>2022-02-06T10:56:23Z</time>
      </trkpt>
      <trkpt lat="48.70928" lon="1.98553">
        <ele>97.9</ele>
        <time>2022-02-06T10:56:27Z</time>
      </trkpt>
      <trkpt lat="48.70922" lon="1.98553">
        <ele>97</ele>
        <time>2022-02-06T10:56:34Z</time>
      </trkpt>
      <trkpt lat="48.70917" lon="1.98552">
        <ele>96.7</ele>
        <time>2022-02-06T10:56:38Z</time>
      </trkpt>
      <trkpt lat="48.70913" lon="1.98552">
        <ele>96.7</ele>
        <time>2022-02-06T10:56:42Z</time>
      </trkpt>
      <trkpt lat="48.70907" lon="1.98551">
        <ele>97.2</ele>
        <time>2022-02-06T10:56:47Z</time>
      </trkpt>
      <trkpt lat="48.70903" lon="1.98549">
        <ele>98</ele>
        <time>2022-02-06T10:56:51Z</time>
      </trkpt>
      <trkpt lat="48.70898" lon="1.98546">
        <ele>98.8</ele>
        <time>2022-02-06T10:56:56Z</time>
      </trkpt>
      <trkpt lat="48.70893" lon="1.98543">
        <ele>100.1</ele>
        <time>2022-02-06T10:57:01Z</time>
      </trkpt>
      <trkpt lat="48.7089" lon="1.98537">
        <ele>101.6</ele>
        <time>2022-02-06T10:57:11Z</time>
      </trkpt>
      <trkpt lat="48.70885" lon="1.98539">
        <ele>102</ele>
        <time>2022-02-06T10:57:13Z</time>
      </trkpt>
      <trkpt lat="48.70879" lon="1.98541">
        <ele>102.5</ele>
        <time>2022-02-06T10:57:17Z</time>
      </trkpt>
      <trkpt lat="48.70874" lon="1.98541">
        <ele>102.9</ele>
        <time>2022-02-06T10:57:20Z</time>
      </trkpt>
      <trkpt lat="48.70869" lon="1.9854">
        <ele>103.3</ele>
        <time>2022-02-06T10:57:23Z</time>
      </trkpt>
      <trkpt lat="48.70864" lon="1.9854">
        <ele>103.8</ele>
        <time>2022-02-06T10:57:27Z</time>
      </trkpt>
      <trkpt lat="48.70859" lon="1.98542">
        <ele>103.8</ele>
        <time>2022-02-06T10:57:32Z</time>
      </trkpt>
      <trkpt lat="48.70857" lon="1.98535">
        <ele>102.8</ele>
        <time>2022-02-06T10:57:38Z</time>
      </trkpt>
      <trkpt lat="48.70852" lon="1.98535">
        <ele>102.1</ele>
        <time>2022-02-06T10:57:41Z</time>
      </trkpt>
      <trkpt lat="48.70848" lon="1.9854">
        <ele>101.5</ele>
        <time>2022-02-06T10:57:45Z</time>
      </trkpt>
      <trkpt lat="48.70843" lon="1.98544">
        <ele>101.5</ele>
        <time>2022-02-06T10:57:49Z</time>
      </trkpt>
      <trkpt lat="48.7084" lon="1.98538">
        <ele>100.7</ele>
        <time>2022-02-06T10:57:55Z</time>
      </trkpt>
      <trkpt lat="48.70834" lon="1.98541">
        <ele>100.6</ele>
        <time>2022-02-06T10:57:59Z</time>
      </trkpt>
      <trkpt lat="48.70831" lon="1.98549">
        <ele>101.4</ele>
        <time>2022-02-06T10:58:03Z</time>
      </trkpt>
      <trkpt lat="48.7083" lon="1.98558">
        <ele>102</ele>
        <time>2022-02-06T10:58:06Z</time>
      </trkpt>
      <trkpt lat="48.70829" lon="1.98565">
        <ele>102.7</ele>
        <time>2022-02-06T10:58:09Z</time>
      </trkpt>
      <trkpt lat="48.70829" lon="1.98573">
        <ele>103.8</ele>
        <time>2022-02-06T10:58:14Z</time>
      </trkpt>
      <trkpt lat="48.70827" lon="1.9858">
        <ele>104.6</ele>
        <time>2022-02-06T10:58:18Z</time>
      </trkpt>
      <trkpt lat="48.70825" lon="1.98588">
        <ele>105.1</ele>
        <time>2022-02-06T10:58:23Z</time>
      </trkpt>
      <trkpt lat="48.70823" lon="1.98595">
        <ele>105.3</ele>
        <time>2022-02-06T10:58:27Z</time>
      </trkpt>
      <trkpt lat="48.70819" lon="1.98601">
        <ele>104.2</ele>
        <time>2022-02-06T10:58:33Z</time>
      </trkpt>
      <trkpt lat="48.70814" lon="1.98607">
        <ele>103.6</ele>
        <time>2022-02-06T10:58:37Z</time>
      </trkpt>
      <trkpt lat="48.70812" lon="1.98613">
        <ele>103.6</ele>
        <time>2022-02-06T10:58:41Z</time>
      </trkpt>
      <trkpt lat="48.70809" lon="1.98622">
        <ele>104.7</ele>
        <time>2022-02-06T10:58:46Z</time>
      </trkpt>
      <trkpt lat="48.70806" lon="1.98628">
        <ele>105.3</ele>
        <time>2022-02-06T10:58:50Z</time>
      </trkpt>
      <trkpt lat="48.70805" lon="1.98635">
        <ele>105</ele>
        <time>2022-02-06T10:58:54Z</time>
      </trkpt>
      <trkpt lat="48.708" lon="1.9864">
        <ele>104.9</ele>
        <time>2022-02-06T10:58:58Z</time>
      </trkpt>
      <trkpt lat="48.70797" lon="1.98644">
        <ele>105.3</ele>
        <time>2022-02-06T10:59:01Z</time>
      </trkpt>
      <trkpt lat="48.70794" lon="1.98649">
        <ele>106.5</ele>
        <time>2022-02-06T10:59:07Z</time>
      </trkpt>
      <trkpt lat="48.7079" lon="1.98641">
        <ele>105.3</ele>
        <time>2022-02-06T10:59:33Z</time>
      </trkpt>
      <trkpt lat="48.70787" lon="1.98635">
        <ele>104.5</ele>
        <time>2022-02-06T10:59:36Z</time>
      </trkpt>
      <trkpt lat="48.70783" lon="1.98631">
        <ele>103.5</ele>
        <time>2022-02-06T10:59:41Z</time>
      </trkpt>
      <trkpt lat="48.70778" lon="1.98627">
        <ele>103.4</ele>
        <time>2022-02-06T10:59:45Z</time>
      </trkpt>
      <trkpt lat="48.70773" lon="1.98625">
        <ele>103.6</ele>
        <time>2022-02-06T10:59:49Z</time>
      </trkpt>
      <trkpt lat="48.70768" lon="1.98627">
        <ele>104.3</ele>
        <time>2022-02-06T10:59:54Z</time>
      </trkpt>
      <trkpt lat="48.70764" lon="1.98623">
        <ele>105.3</ele>
        <time>2022-02-06T10:59:57Z</time>
      </trkpt>
      <trkpt lat="48.7076" lon="1.98619">
        <ele>106</ele>
        <time>2022-02-06T11:00:00Z</time>
      </trkpt>
      <trkpt lat="48.70758" lon="1.98612">
        <ele>107</ele>
        <time>2022-02-06T11:00:03Z</time>
      </trkpt>
      <trkpt lat="48.70756" lon="1.98605">
        <ele>107.7</ele>
        <time>2022-02-06T11:00:06Z</time>
      </trkpt>
      <trkpt lat="48.70753" lon="1.98599">
        <ele>107.7</ele>
        <time>2022-02-06T11:00:11Z</time>
      </trkpt>
      <trkpt lat="48.70751" lon="1.98592">
        <ele>106.6</ele>
        <time>2022-02-06T11:00:17Z</time>
      </trkpt>
      <trkpt lat="48.70748" lon="1.98586">
        <ele>105.9</ele>
        <time>2022-02-06T11:00:22Z</time>
      </trkpt>
      <trkpt lat="48.70744" lon="1.98581">
        <ele>106.1</ele>
        <time>2022-02-06T11:00:27Z</time>
      </trkpt>
      <trkpt lat="48.70742" lon="1.98588">
        <ele>107.7</ele>
        <time>2022-02-06T11:00:36Z</time>
      </trkpt>
      <trkpt lat="48.70737" lon="1.98584">
        <ele>112.3</ele>
        <time>2022-02-06T11:00:44Z</time>
      </trkpt>
      <trkpt lat="48.70734" lon="1.98579">
        <ele>114</ele>
        <time>2022-02-06T11:00:50Z</time>
      </trkpt>
      <trkpt lat="48.70731" lon="1.98584">
        <ele>113.3</ele>
        <time>2022-02-06T11:01:02Z</time>
      </trkpt>
      <trkpt lat="48.7073" lon="1.98577">
        <ele>110.3</ele>
        <time>2022-02-06T11:01:44Z</time>
      </trkpt>
      <trkpt lat="48.7073" lon="1.9857">
        <ele>109.6</ele>
        <time>2022-02-06T11:01:53Z</time>
      </trkpt>
      <trkpt lat="48.70728" lon="1.98564">
        <ele>110.4</ele>
        <time>2022-02-06T11:03:33Z</time>
      </trkpt>
      <trkpt lat="48.70725" lon="1.98559">
        <ele>112.4</ele>
        <time>2022-02-06T11:04:30Z</time>
      </trkpt>
      <trkpt lat="48.70721" lon="1.98553">
        <ele>114.1</ele>
        <time>2022-02-06T11:04:35Z</time>
      </trkpt>
      <trkpt lat="48.70718" lon="1.98548">
        <ele>116.3</ele>
        <time>2022-02-06T11:04:41Z</time>
      </trkpt>
      <trkpt lat="48.70714" lon="1.98542">
        <ele>117.5</ele>
        <time>2022-02-06T11:04:48Z</time>
      </trkpt>
      <trkpt lat="48.70711" lon="1.98536">
        <ele>117.1</ele>
        <time>2022-02-06T11:04:53Z</time>
      </trkpt>
      <trkpt lat="48.70706" lon="1.98531">
        <ele>115.7</ele>
        <time>2022-02-06T11:04:59Z</time>
      </trkpt>
      <trkpt lat="48.70702" lon="1.98527">
        <ele>116.7</ele>
        <time>2022-02-06T11:05:05Z</time>
      </trkpt>
      <trkpt lat="48.70697" lon="1.98526">
        <ele>117.3</ele>
        <time>2022-02-06T11:05:09Z</time>
      </trkpt>
      <trkpt lat="48.70692" lon="1.98528">
        <ele>116.1</ele>
        <time>2022-02-06T11:05:15Z</time>
      </trkpt>
      <trkpt lat="48.70689" lon="1.98534">
        <ele>116.7</ele>
        <time>2022-02-06T11:05:23Z</time>
      </trkpt>
      <trkpt lat="48.70686" lon="1.98541">
        <ele>118</ele>
        <time>2022-02-06T11:05:29Z</time>
      </trkpt>
      <trkpt lat="48.70683" lon="1.98548">
        <ele>117.4</ele>
        <time>2022-02-06T11:05:35Z</time>
      </trkpt>
      <trkpt lat="48.70679" lon="1.98553">
        <ele>118.1</ele>
        <time>2022-02-06T11:05:48Z</time>
      </trkpt>
      <trkpt lat="48.70675" lon="1.98557">
        <ele>120.8</ele>
        <time>2022-02-06T11:05:55Z</time>
      </trkpt>
      <trkpt lat="48.70672" lon="1.98564">
        <ele>122.5</ele>
        <time>2022-02-06T11:06:00Z</time>
      </trkpt>
      <trkpt lat="48.70666" lon="1.98568">
        <ele>123.3</ele>
        <time>2022-02-06T11:06:05Z</time>
      </trkpt>
      <trkpt lat="48.70664" lon="1.98574">
        <ele>121.8</ele>
        <time>2022-02-06T11:06:11Z</time>
      </trkpt>
      <trkpt lat="48.70662" lon="1.98581">
        <ele>120.6</ele>
        <time>2022-02-06T11:06:17Z</time>
      </trkpt>
      <trkpt lat="48.70657" lon="1.98584">
        <ele>120.6</ele>
        <time>2022-02-06T11:06:24Z</time>
      </trkpt>
      <trkpt lat="48.7066" lon="1.98578">
        <ele>117.1</ele>
        <time>2022-02-06T11:06:39Z</time>
      </trkpt>
      <trkpt lat="48.70659" lon="1.98571">
        <ele>118.4</ele>
        <time>2022-02-06T11:08:22Z</time>
      </trkpt>
      <trkpt lat="48.70655" lon="1.98567">
        <ele>118</ele>
        <time>2022-02-06T11:08:25Z</time>
      </trkpt>
      <trkpt lat="48.70657" lon="1.98574">
        <ele>104.2</ele>
        <time>2022-02-06T11:09:09Z</time>
      </trkpt>
      <trkpt lat="48.70661" lon="1.98576">
        <ele>101.3</ele>
        <time>2022-02-06T11:09:25Z</time>
      </trkpt>
      <trkpt lat="48.70663" lon="1.9857">
        <ele>108.3</ele>
        <time>2022-02-06T11:09:54Z</time>
      </trkpt>
      <trkpt lat="48.70668" lon="1.98568">
        <ele>109.1</ele>
        <time>2022-02-06T11:10:06Z</time>
      </trkpt>
      <trkpt lat="48.70673" lon="1.9857">
        <ele>108.4</ele>
        <time>2022-02-06T11:10:15Z</time>
      </trkpt>
      <trkpt lat="48.70676" lon="1.98565">
        <ele>110.4</ele>
        <time>2022-02-06T11:10:18Z</time>
      </trkpt>
      <trkpt lat="48.70681" lon="1.98559">
        <ele>113.3</ele>
        <time>2022-02-06T11:10:22Z</time>
      </trkpt>
      <trkpt lat="48.70685" lon="1.98554">
        <ele>116.1</ele>
        <time>2022-02-06T11:10:26Z</time>
      </trkpt>
      <trkpt lat="48.70688" lon="1.98547">
        <ele>117.4</ele>
        <time>2022-02-06T11:10:30Z</time>
      </trkpt>
      <trkpt lat="48.70689" lon="1.98539">
        <ele>118.1</ele>
        <time>2022-02-06T11:10:37Z</time>
      </trkpt>
      <trkpt lat="48.70692" lon="1.98532">
        <ele>118.7</ele>
        <time>2022-02-06T11:10:42Z</time>
      </trkpt>
      <trkpt lat="48.70695" lon="1.98525">
        <ele>118.8</ele>
        <time>2022-02-06T11:10:47Z</time>
      </trkpt>
      <trkpt lat="48.70697" lon="1.98517">
        <ele>119.9</ele>
        <time>2022-02-06T11:10:51Z</time>
      </trkpt>
      <trkpt lat="48.707" lon="1.9851">
        <ele>122.2</ele>
        <time>2022-02-06T11:10:55Z</time>
      </trkpt>
      <trkpt lat="48.70703" lon="1.98505">
        <ele>124.6</ele>
        <time>2022-02-06T11:10:58Z</time>
      </trkpt>
      <trkpt lat="48.70706" lon="1.98498">
        <ele>125.1</ele>
        <time>2022-02-06T11:11:02Z</time>
      </trkpt>
      <trkpt lat="48.70706" lon="1.98489">
        <ele>125.1</ele>
        <time>2022-02-06T11:11:06Z</time>
      </trkpt>
      <trkpt lat="48.70703" lon="1.98483">
        <ele>125</ele>
        <time>2022-02-06T11:11:10Z</time>
      </trkpt>
      <trkpt lat="48.70698" lon="1.98479">
        <ele>124</ele>
        <time>2022-02-06T11:11:13Z</time>
      </trkpt>
      <trkpt lat="48.70694" lon="1.98475">
        <ele>122.8</ele>
        <time>2022-02-06T11:11:16Z</time>
      </trkpt>
      <trkpt lat="48.7069" lon="1.98471">
        <ele>122.5</ele>
        <time>2022-02-06T11:11:20Z</time>
      </trkpt>
      <trkpt lat="48.70686" lon="1.98467">
        <ele>122.9</ele>
        <time>2022-02-06T11:11:23Z</time>
      </trkpt>
      <trkpt lat="48.70682" lon="1.98463">
        <ele>122.7</ele>
        <time>2022-02-06T11:11:26Z</time>
      </trkpt>
      <trkpt lat="48.70678" lon="1.98457">
        <ele>122.5</ele>
        <time>2022-02-06T11:11:30Z</time>
      </trkpt>
      <trkpt lat="48.70674" lon="1.98452">
        <ele>123.2</ele>
        <time>2022-02-06T11:11:34Z</time>
      </trkpt>
      <trkpt lat="48.70671" lon="1.98445">
        <ele>126</ele>
        <time>2022-02-06T11:11:38Z</time>
      </trkpt>
      <trkpt lat="48.70668" lon="1.98437">
        <ele>128</ele>
        <time>2022-02-06T11:11:42Z</time>
      </trkpt>
      <trkpt lat="48.70665" lon="1.9843">
        <ele>129.3</ele>
        <time>2022-02-06T11:11:47Z</time>
      </trkpt>
      <trkpt lat="48.70663" lon="1.98423">
        <ele>129.9</ele>
        <time>2022-02-06T11:11:50Z</time>
      </trkpt>
      <trkpt lat="48.70661" lon="1.98417">
        <ele>130.3</ele>
        <time>2022-02-06T11:11:53Z</time>
      </trkpt>
      <trkpt lat="48.70661" lon="1.98409">
        <ele>130.7</ele>
        <time>2022-02-06T11:11:57Z</time>
      </trkpt>
      <trkpt lat="48.70662" lon="1.984">
        <ele>131</ele>
        <time>2022-02-06T11:12:02Z</time>
      </trkpt>
      <trkpt lat="48.70663" lon="1.98393">
        <ele>131</ele>
        <time>2022-02-06T11:12:06Z</time>
      </trkpt>
      <trkpt lat="48.70667" lon="1.98387">
        <ele>130.9</ele>
        <time>2022-02-06T11:12:11Z</time>
      </trkpt>
      <trkpt lat="48.70669" lon="1.9838">
        <ele>130.9</ele>
        <time>2022-02-06T11:12:15Z</time>
      </trkpt>
      <trkpt lat="48.70671" lon="1.98373">
        <ele>131.7</ele>
        <time>2022-02-06T11:12:20Z</time>
      </trkpt>
      <trkpt lat="48.70673" lon="1.98367">
        <ele>133.2</ele>
        <time>2022-02-06T11:12:24Z</time>
      </trkpt>
      <trkpt lat="48.70677" lon="1.98363">
        <ele>134.9</ele>
        <time>2022-02-06T11:12:28Z</time>
      </trkpt>
      <trkpt lat="48.70681" lon="1.98358">
        <ele>136.3</ele>
        <time>2022-02-06T11:12:33Z</time>
      </trkpt>
      <trkpt lat="48.70682" lon="1.9835">
        <ele>138.6</ele>
        <time>2022-02-06T11:12:39Z</time>
      </trkpt>
      <trkpt lat="48.70679" lon="1.98343">
        <ele>140.5</ele>
        <time>2022-02-06T11:12:43Z</time>
      </trkpt>
      <trkpt lat="48.70674" lon="1.98337">
        <ele>140.9</ele>
        <time>2022-02-06T11:12:48Z</time>
      </trkpt>
      <trkpt lat="48.7067" lon="1.98331">
        <ele>139.2</ele>
        <time>2022-02-06T11:12:53Z</time>
      </trkpt>
      <trkpt lat="48.70668" lon="1.98325">
        <ele>137</ele>
        <time>2022-02-06T11:12:57Z</time>
      </trkpt>
      <trkpt lat="48.70665" lon="1.98318">
        <ele>135.8</ele>
        <time>2022-02-06T11:13:01Z</time>
      </trkpt>
      <trkpt lat="48.70662" lon="1.98312">
        <ele>135.8</ele>
        <time>2022-02-06T11:13:06Z</time>
      </trkpt>
      <trkpt lat="48.7066" lon="1.98306">
        <ele>135.5</ele>
        <time>2022-02-06T11:13:10Z</time>
      </trkpt>
      <trkpt lat="48.70658" lon="1.983">
        <ele>134.3</ele>
        <time>2022-02-06T11:13:14Z</time>
      </trkpt>
      <trkpt lat="48.70656" lon="1.98293">
        <ele>134.3</ele>
        <time>2022-02-06T11:13:20Z</time>
      </trkpt>
      <trkpt lat="48.70653" lon="1.98285">
        <ele>136.5</ele>
        <time>2022-02-06T11:13:25Z</time>
      </trkpt>
      <trkpt lat="48.70653" lon="1.98277">
        <ele>137.8</ele>
        <time>2022-02-06T11:13:30Z</time>
      </trkpt>
      <trkpt lat="48.70652" lon="1.9827">
        <ele>138.8</ele>
        <time>2022-02-06T11:13:34Z</time>
      </trkpt>
      <trkpt lat="48.70651" lon="1.98262">
        <ele>140.3</ele>
        <time>2022-02-06T11:13:38Z</time>
      </trkpt>
      <trkpt lat="48.70649" lon="1.98255">
        <ele>140.9</ele>
        <time>2022-02-06T11:13:43Z</time>
      </trkpt>
      <trkpt lat="48.70647" lon="1.98247">
        <ele>141.9</ele>
        <time>2022-02-06T11:13:47Z</time>
      </trkpt>
      <trkpt lat="48.70645" lon="1.9824">
        <ele>143.3</ele>
        <time>2022-02-06T11:13:51Z</time>
      </trkpt>
      <trkpt lat="48.70644" lon="1.98233">
        <ele>144.8</ele>
        <time>2022-02-06T11:13:55Z</time>
      </trkpt>
      <trkpt lat="48.70644" lon="1.98225">
        <ele>146.4</ele>
        <time>2022-02-06T11:13:59Z</time>
      </trkpt>
      <trkpt lat="48.70642" lon="1.98219">
        <ele>147.7</ele>
        <time>2022-02-06T11:14:03Z</time>
      </trkpt>
      <trkpt lat="48.7064" lon="1.98212">
        <ele>147.8</ele>
        <time>2022-02-06T11:14:07Z</time>
      </trkpt>
      <trkpt lat="48.70638" lon="1.98205">
        <ele>147.3</ele>
        <time>2022-02-06T11:14:11Z</time>
      </trkpt>
      <trkpt lat="48.70635" lon="1.98199">
        <ele>147</ele>
        <time>2022-02-06T11:14:15Z</time>
      </trkpt>
      <trkpt lat="48.70633" lon="1.98191">
        <ele>148.1</ele>
        <time>2022-02-06T11:14:20Z</time>
      </trkpt>
      <trkpt lat="48.70631" lon="1.98184">
        <ele>148.5</ele>
        <time>2022-02-06T11:14:23Z</time>
      </trkpt>
      <trkpt lat="48.7063" lon="1.98175">
        <ele>149.3</ele>
        <time>2022-02-06T11:14:27Z</time>
      </trkpt>
      <trkpt lat="48.70629" lon="1.98167">
        <ele>149</ele>
        <time>2022-02-06T11:14:31Z</time>
      </trkpt>
      <trkpt lat="48.70628" lon="1.98159">
        <ele>148.9</ele>
        <time>2022-02-06T11:14:35Z</time>
      </trkpt>
      <trkpt lat="48.70625" lon="1.98152">
        <ele>148.4</ele>
        <time>2022-02-06T11:14:39Z</time>
      </trkpt>
      <trkpt lat="48.70622" lon="1.98146">
        <ele>148.1</ele>
        <time>2022-02-06T11:14:43Z</time>
      </trkpt>
      <trkpt lat="48.7062" lon="1.98139">
        <ele>147.5</ele>
        <time>2022-02-06T11:14:46Z</time>
      </trkpt>
      <trkpt lat="48.70617" lon="1.98133">
        <ele>146.8</ele>
        <time>2022-02-06T11:14:50Z</time>
      </trkpt>
      <trkpt lat="48.70616" lon="1.98126">
        <ele>146.4</ele>
        <time>2022-02-06T11:14:54Z</time>
      </trkpt>
      <trkpt lat="48.70615" lon="1.98118">
        <ele>146.5</ele>
        <time>2022-02-06T11:14:57Z</time>
      </trkpt>
      <trkpt lat="48.70615" lon="1.9811">
        <ele>146.5</ele>
        <time>2022-02-06T11:15:02Z</time>
      </trkpt>
      <trkpt lat="48.70614" lon="1.98103">
        <ele>146.6</ele>
        <time>2022-02-06T11:15:05Z</time>
      </trkpt>
      <trkpt lat="48.70615" lon="1.98094">
        <ele>147.4</ele>
        <time>2022-02-06T11:15:10Z</time>
      </trkpt>
      <trkpt lat="48.70615" lon="1.98085">
        <ele>148.7</ele>
        <time>2022-02-06T11:15:14Z</time>
      </trkpt>
      <trkpt lat="48.70616" lon="1.98076">
        <ele>149.9</ele>
        <time>2022-02-06T11:15:18Z</time>
      </trkpt>
      <trkpt lat="48.70616" lon="1.98067">
        <ele>150.7</ele>
        <time>2022-02-06T11:15:22Z</time>
      </trkpt>
      <trkpt lat="48.70616" lon="1.98059">
        <ele>150.8</ele>
        <time>2022-02-06T11:15:26Z</time>
      </trkpt>
      <trkpt lat="48.70616" lon="1.98051">
        <ele>151.2</ele>
        <time>2022-02-06T11:15:30Z</time>
      </trkpt>
      <trkpt lat="48.70616" lon="1.98043">
        <ele>152.2</ele>
        <time>2022-02-06T11:15:33Z</time>
      </trkpt>
      <trkpt lat="48.70616" lon="1.98035">
        <ele>152.9</ele>
        <time>2022-02-06T11:15:37Z</time>
      </trkpt>
      <trkpt lat="48.70615" lon="1.98003">
        <ele>151.5</ele>
        <time>2022-02-06T11:15:53Z</time>
      </trkpt>
      <trkpt lat="48.70616" lon="1.97975">
        <ele>151</ele>
        <time>2022-02-06T11:16:07Z</time>
      </trkpt>
      <trkpt lat="48.70615" lon="1.97965">
        <ele>150.3</ele>
        <time>2022-02-06T11:16:12Z</time>
      </trkpt>
      <trkpt lat="48.70615" lon="1.97958">
        <ele>149.9</ele>
        <time>2022-02-06T11:16:15Z</time>
      </trkpt>
      <trkpt lat="48.70616" lon="1.97951">
        <ele>149</ele>
        <time>2022-02-06T11:16:19Z</time>
      </trkpt>
      <trkpt lat="48.70617" lon="1.97943">
        <ele>148.1</ele>
        <time>2022-02-06T11:16:22Z</time>
      </trkpt>
      <trkpt lat="48.70618" lon="1.97936">
        <ele>146.9</ele>
        <time>2022-02-06T11:16:26Z</time>
      </trkpt>
      <trkpt lat="48.70617" lon="1.97929">
        <ele>146.6</ele>
        <time>2022-02-06T11:16:30Z</time>
      </trkpt>
      <trkpt lat="48.70617" lon="1.97922">
        <ele>146.6</ele>
        <time>2022-02-06T11:16:33Z</time>
      </trkpt>
      <trkpt lat="48.70617" lon="1.97915">
        <ele>146.5</ele>
        <time>2022-02-06T11:16:36Z</time>
      </trkpt>
      <trkpt lat="48.70617" lon="1.97907">
        <ele>146.6</ele>
        <time>2022-02-06T11:16:40Z</time>
      </trkpt>
      <trkpt lat="48.70618" lon="1.97899">
        <ele>147</ele>
        <time>2022-02-06T11:16:43Z</time>
      </trkpt>
      <trkpt lat="48.70618" lon="1.97892">
        <ele>147.3</ele>
        <time>2022-02-06T11:16:47Z</time>
      </trkpt>
      <trkpt lat="48.70618" lon="1.97885">
        <ele>147.6</ele>
        <time>2022-02-06T11:16:50Z</time>
      </trkpt>
      <trkpt lat="48.70617" lon="1.97877">
        <ele>147.9</ele>
        <time>2022-02-06T11:16:52Z</time>
      </trkpt>
      <trkpt lat="48.70616" lon="1.97868">
        <ele>148.1</ele>
        <time>2022-02-06T11:16:57Z</time>
      </trkpt>
      <trkpt lat="48.70616" lon="1.97861">
        <ele>148.2</ele>
        <time>2022-02-06T11:17:00Z</time>
      </trkpt>
      <trkpt lat="48.70616" lon="1.97853">
        <ele>147.6</ele>
        <time>2022-02-06T11:17:03Z</time>
      </trkpt>
      <trkpt lat="48.70617" lon="1.97846">
        <ele>147.2</ele>
        <time>2022-02-06T11:17:07Z</time>
      </trkpt>
      <trkpt lat="48.70617" lon="1.97839">
        <ele>146.8</ele>
        <time>2022-02-06T11:17:10Z</time>
      </trkpt>
      <trkpt lat="48.70618" lon="1.97832">
        <ele>147</ele>
        <time>2022-02-06T11:17:13Z</time>
      </trkpt>
      <trkpt lat="48.70618" lon="1.97823">
        <ele>148</ele>
        <time>2022-02-06T11:17:17Z</time>
      </trkpt>
      <trkpt lat="48.70618" lon="1.97815">
        <ele>150</ele>
        <time>2022-02-06T11:17:21Z</time>
      </trkpt>
      <trkpt lat="48.70618" lon="1.97808">
        <ele>151.4</ele>
        <time>2022-02-06T11:17:24Z</time>
      </trkpt>
      <trkpt lat="48.70618" lon="1.97799">
        <ele>152.7</ele>
        <time>2022-02-06T11:17:28Z</time>
      </trkpt>
      <trkpt lat="48.70617" lon="1.97792">
        <ele>154.3</ele>
        <time>2022-02-06T11:17:32Z</time>
      </trkpt>
      <trkpt lat="48.70617" lon="1.97785">
        <ele>155.7</ele>
        <time>2022-02-06T11:17:34Z</time>
      </trkpt>
      <trkpt lat="48.70617" lon="1.97776">
        <ele>156.5</ele>
        <time>2022-02-06T11:17:38Z</time>
      </trkpt>
      <trkpt lat="48.70617" lon="1.97769">
        <ele>156.7</ele>
        <time>2022-02-06T11:17:42Z</time>
      </trkpt>
      <trkpt lat="48.70617" lon="1.97752">
        <ele>156.8</ele>
        <time>2022-02-06T11:17:49Z</time>
      </trkpt>
      <trkpt lat="48.70618" lon="1.97742">
        <ele>157.2</ele>
        <time>2022-02-06T11:17:54Z</time>
      </trkpt>
      <trkpt lat="48.70619" lon="1.97735">
        <ele>157.3</ele>
        <time>2022-02-06T11:17:57Z</time>
      </trkpt>
      <trkpt lat="48.7062" lon="1.97728">
        <ele>157.2</ele>
        <time>2022-02-06T11:18:00Z</time>
      </trkpt>
      <trkpt lat="48.70622" lon="1.97721">
        <ele>156.8</ele>
        <time>2022-02-06T11:18:03Z</time>
      </trkpt>
      <trkpt lat="48.70623" lon="1.97713">
        <ele>155.9</ele>
        <time>2022-02-06T11:18:07Z</time>
      </trkpt>
      <trkpt lat="48.70625" lon="1.97704">
        <ele>154.7</ele>
        <time>2022-02-06T11:18:11Z</time>
      </trkpt>
      <trkpt lat="48.70626" lon="1.97696">
        <ele>153.8</ele>
        <time>2022-02-06T11:18:15Z</time>
      </trkpt>
      <trkpt lat="48.70631" lon="1.97657">
        <ele>158.7</ele>
        <time>2022-02-06T11:18:37Z</time>
      </trkpt>
      <trkpt lat="48.70634" lon="1.97651">
        <ele>158.9</ele>
        <time>2022-02-06T11:18:40Z</time>
      </trkpt>
      <trkpt lat="48.70637" lon="1.97644">
        <ele>159.2</ele>
        <time>2022-02-06T11:18:43Z</time>
      </trkpt>
      <trkpt lat="48.70639" lon="1.97636">
        <ele>159</ele>
        <time>2022-02-06T11:18:47Z</time>
      </trkpt>
      <trkpt lat="48.7064" lon="1.97627">
        <ele>159.5</ele>
        <time>2022-02-06T11:18:52Z</time>
      </trkpt>
      <trkpt lat="48.70641" lon="1.97619">
        <ele>160.1</ele>
        <time>2022-02-06T11:18:55Z</time>
      </trkpt>
      <trkpt lat="48.70644" lon="1.97612">
        <ele>160.8</ele>
        <time>2022-02-06T11:18:59Z</time>
      </trkpt>
      <trkpt lat="48.70645" lon="1.97605">
        <ele>160.7</ele>
        <time>2022-02-06T11:19:02Z</time>
      </trkpt>
      <trkpt lat="48.70646" lon="1.97597">
        <ele>160.9</ele>
        <time>2022-02-06T11:19:06Z</time>
      </trkpt>
      <trkpt lat="48.70648" lon="1.9759">
        <ele>161</ele>
        <time>2022-02-06T11:19:10Z</time>
      </trkpt>
      <trkpt lat="48.7065" lon="1.97582">
        <ele>161.4</ele>
        <time>2022-02-06T11:19:13Z</time>
      </trkpt>
      <trkpt lat="48.70651" lon="1.97575">
        <ele>161.7</ele>
        <time>2022-02-06T11:19:17Z</time>
      </trkpt>
      <trkpt lat="48.70653" lon="1.97566">
        <ele>162</ele>
        <time>2022-02-06T11:19:22Z</time>
      </trkpt>
      <trkpt lat="48.70654" lon="1.97558">
        <ele>162.6</ele>
        <time>2022-02-06T11:19:25Z</time>
      </trkpt>
      <trkpt lat="48.70654" lon="1.97549">
        <ele>162.6</ele>
        <time>2022-02-06T11:19:30Z</time>
      </trkpt>
      <trkpt lat="48.70654" lon="1.97542">
        <ele>161.7</ele>
        <time>2022-02-06T11:19:32Z</time>
      </trkpt>
      <trkpt lat="48.70655" lon="1.97533">
        <ele>159.5</ele>
        <time>2022-02-06T11:19:36Z</time>
      </trkpt>
      <trkpt lat="48.70655" lon="1.97526">
        <ele>158.9</ele>
        <time>2022-02-06T11:19:39Z</time>
      </trkpt>
      <trkpt lat="48.70662" lon="1.97484">
        <ele>155.6</ele>
        <time>2022-02-06T11:19:59Z</time>
      </trkpt>
      <trkpt lat="48.70664" lon="1.97477">
        <ele>155.4</ele>
        <time>2022-02-06T11:20:02Z</time>
      </trkpt>
      <trkpt lat="48.70665" lon="1.97468">
        <ele>154.6</ele>
        <time>2022-02-06T11:20:06Z</time>
      </trkpt>
      <trkpt lat="48.70666" lon="1.97461">
        <ele>153.5</ele>
        <time>2022-02-06T11:20:10Z</time>
      </trkpt>
      <trkpt lat="48.70667" lon="1.97455">
        <ele>153.3</ele>
        <time>2022-02-06T11:20:13Z</time>
      </trkpt>
      <trkpt lat="48.70669" lon="1.97448">
        <ele>152.9</ele>
        <time>2022-02-06T11:20:17Z</time>
      </trkpt>
      <trkpt lat="48.70671" lon="1.97442">
        <ele>152.6</ele>
        <time>2022-02-06T11:20:20Z</time>
      </trkpt>
      <trkpt lat="48.70673" lon="1.97435">
        <ele>151.5</ele>
        <time>2022-02-06T11:20:24Z</time>
      </trkpt>
      <trkpt lat="48.70674" lon="1.97426">
        <ele>150.3</ele>
        <time>2022-02-06T11:20:27Z</time>
      </trkpt>
      <trkpt lat="48.70674" lon="1.97419">
        <ele>149</ele>
        <time>2022-02-06T11:20:30Z</time>
      </trkpt>
      <trkpt lat="48.70676" lon="1.9741">
        <ele>148.2</ele>
        <time>2022-02-06T11:20:34Z</time>
      </trkpt>
      <trkpt lat="48.70678" lon="1.97403">
        <ele>148.4</ele>
        <time>2022-02-06T11:20:39Z</time>
      </trkpt>
      <trkpt lat="48.70678" lon="1.97396">
        <ele>148.9</ele>
        <time>2022-02-06T11:20:42Z</time>
      </trkpt>
      <trkpt lat="48.70682" lon="1.97393">
        <ele>148.9</ele>
        <time>2022-02-06T11:20:46Z</time>
      </trkpt>
      <trkpt lat="48.70684" lon="1.97385">
        <ele>149.6</ele>
        <time>2022-02-06T11:20:52Z</time>
      </trkpt>
      <trkpt lat="48.70686" lon="1.97377">
        <ele>150</ele>
        <time>2022-02-06T11:20:56Z</time>
      </trkpt>
      <trkpt lat="48.70688" lon="1.97369">
        <ele>150.2</ele>
        <time>2022-02-06T11:21:01Z</time>
      </trkpt>
      <trkpt lat="48.7069" lon="1.97361">
        <ele>149.8</ele>
        <time>2022-02-06T11:21:05Z</time>
      </trkpt>
      <trkpt lat="48.70691" lon="1.97353">
        <ele>149.6</ele>
        <time>2022-02-06T11:21:09Z</time>
      </trkpt>
      <trkpt lat="48.70693" lon="1.97346">
        <ele>149.3</ele>
        <time>2022-02-06T11:21:13Z</time>
      </trkpt>
      <trkpt lat="48.70694" lon="1.97339">
        <ele>148.9</ele>
        <time>2022-02-06T11:21:17Z</time>
      </trkpt>
      <trkpt lat="48.70696" lon="1.97332">
        <ele>149</ele>
        <time>2022-02-06T11:21:21Z</time>
      </trkpt>
      <trkpt lat="48.707" lon="1.97326">
        <ele>148.3</ele>
        <time>2022-02-06T11:21:25Z</time>
      </trkpt>
      <trkpt lat="48.70702" lon="1.97319">
        <ele>147.2</ele>
        <time>2022-02-06T11:21:30Z</time>
      </trkpt>
      <trkpt lat="48.70705" lon="1.97312">
        <ele>146.9</ele>
        <time>2022-02-06T11:21:33Z</time>
      </trkpt>
      <trkpt lat="48.70707" lon="1.97304">
        <ele>147.5</ele>
        <time>2022-02-06T11:21:37Z</time>
      </trkpt>
      <trkpt lat="48.70709" lon="1.97298">
        <ele>147.8</ele>
        <time>2022-02-06T11:21:40Z</time>
      </trkpt>
      <trkpt lat="48.70712" lon="1.9729">
        <ele>148.9</ele>
        <time>2022-02-06T11:21:44Z</time>
      </trkpt>
      <trkpt lat="48.70713" lon="1.97282">
        <ele>150.5</ele>
        <time>2022-02-06T11:21:48Z</time>
      </trkpt>
      <trkpt lat="48.70714" lon="1.97275">
        <ele>151.2</ele>
        <time>2022-02-06T11:21:52Z</time>
      </trkpt>
      <trkpt lat="48.70716" lon="1.97267">
        <ele>152.1</ele>
        <time>2022-02-06T11:21:56Z</time>
      </trkpt>
      <trkpt lat="48.70718" lon="1.97261">
        <ele>152.3</ele>
        <time>2022-02-06T11:21:59Z</time>
      </trkpt>
      <trkpt lat="48.7072" lon="1.97254">
        <ele>153</ele>
        <time>2022-02-06T11:22:02Z</time>
      </trkpt>
      <trkpt lat="48.70721" lon="1.97246">
        <ele>153.6</ele>
        <time>2022-02-06T11:22:06Z</time>
      </trkpt>
      <trkpt lat="48.70723" lon="1.97238">
        <ele>154.2</ele>
        <time>2022-02-06T11:22:10Z</time>
      </trkpt>
      <trkpt lat="48.70725" lon="1.9723">
        <ele>154.4</ele>
        <time>2022-02-06T11:22:14Z</time>
      </trkpt>
      <trkpt lat="48.70728" lon="1.97222">
        <ele>153.3</ele>
        <time>2022-02-06T11:22:19Z</time>
      </trkpt>
      <trkpt lat="48.7073" lon="1.97215">
        <ele>152.1</ele>
        <time>2022-02-06T11:22:23Z</time>
      </trkpt>
      <trkpt lat="48.70733" lon="1.97207">
        <ele>152.8</ele>
        <time>2022-02-06T11:22:27Z</time>
      </trkpt>
      <trkpt lat="48.70735" lon="1.97201">
        <ele>154</ele>
        <time>2022-02-06T11:22:30Z</time>
      </trkpt>
      <trkpt lat="48.70738" lon="1.97193">
        <ele>155.4</ele>
        <time>2022-02-06T11:22:34Z</time>
      </trkpt>
      <trkpt lat="48.70741" lon="1.97186">
        <ele>155.6</ele>
        <time>2022-02-06T11:22:38Z</time>
      </trkpt>
      <trkpt lat="48.70743" lon="1.9718">
        <ele>156.4</ele>
        <time>2022-02-06T11:22:41Z</time>
      </trkpt>
      <trkpt lat="48.70745" lon="1.97173">
        <ele>156.8</ele>
        <time>2022-02-06T11:22:45Z</time>
      </trkpt>
      <trkpt lat="48.70747" lon="1.97165">
        <ele>157.4</ele>
        <time>2022-02-06T11:22:48Z</time>
      </trkpt>
      <trkpt lat="48.70749" lon="1.97156">
        <ele>157.6</ele>
        <time>2022-02-06T11:22:53Z</time>
      </trkpt>
      <trkpt lat="48.70751" lon="1.9715">
        <ele>157.9</ele>
        <time>2022-02-06T11:22:56Z</time>
      </trkpt>
      <trkpt lat="48.70753" lon="1.97143">
        <ele>157.7</ele>
        <time>2022-02-06T11:23:00Z</time>
      </trkpt>
      <trkpt lat="48.70756" lon="1.97137">
        <ele>157.2</ele>
        <time>2022-02-06T11:23:04Z</time>
      </trkpt>
      <trkpt lat="48.70758" lon="1.97129">
        <ele>156.8</ele>
        <time>2022-02-06T11:23:08Z</time>
      </trkpt>
      <trkpt lat="48.70759" lon="1.97121">
        <ele>156.2</ele>
        <time>2022-02-06T11:23:11Z</time>
      </trkpt>
      <trkpt lat="48.7076" lon="1.97115">
        <ele>155.8</ele>
        <time>2022-02-06T11:23:15Z</time>
      </trkpt>
      <trkpt lat="48.70762" lon="1.97108">
        <ele>155.5</ele>
        <time>2022-02-06T11:23:18Z</time>
      </trkpt>
      <trkpt lat="48.70764" lon="1.97101">
        <ele>155.7</ele>
        <time>2022-02-06T11:23:22Z</time>
      </trkpt>
      <trkpt lat="48.70766" lon="1.97095">
        <ele>156</ele>
        <time>2022-02-06T11:23:25Z</time>
      </trkpt>
      <trkpt lat="48.70769" lon="1.97088">
        <ele>155.6</ele>
        <time>2022-02-06T11:23:28Z</time>
      </trkpt>
      <trkpt lat="48.70771" lon="1.97082">
        <ele>155.4</ele>
        <time>2022-02-06T11:23:32Z</time>
      </trkpt>
      <trkpt lat="48.70772" lon="1.97074">
        <ele>155.2</ele>
        <time>2022-02-06T11:23:36Z</time>
      </trkpt>
      <trkpt lat="48.70774" lon="1.97067">
        <ele>155.3</ele>
        <time>2022-02-06T11:23:40Z</time>
      </trkpt>
      <trkpt lat="48.70776" lon="1.9706">
        <ele>155.1</ele>
        <time>2022-02-06T11:23:44Z</time>
      </trkpt>
      <trkpt lat="48.70778" lon="1.97054">
        <ele>154.8</ele>
        <time>2022-02-06T11:23:49Z</time>
      </trkpt>
      <trkpt lat="48.7078" lon="1.97045">
        <ele>153.7</ele>
        <time>2022-02-06T11:23:53Z</time>
      </trkpt>
      <trkpt lat="48.70781" lon="1.97037">
        <ele>151.7</ele>
        <time>2022-02-06T11:23:58Z</time>
      </trkpt>
      <trkpt lat="48.70784" lon="1.9703">
        <ele>149.6</ele>
        <time>2022-02-06T11:24:03Z</time>
      </trkpt>
      <trkpt lat="48.70786" lon="1.97024">
        <ele>148.7</ele>
        <time>2022-02-06T11:24:07Z</time>
      </trkpt>
      <trkpt lat="48.70789" lon="1.97017">
        <ele>149</ele>
        <time>2022-02-06T11:24:12Z</time>
      </trkpt>
      <trkpt lat="48.70792" lon="1.97012">
        <ele>149.4</ele>
        <time>2022-02-06T11:24:16Z</time>
      </trkpt>
      <trkpt lat="48.70796" lon="1.97007">
        <ele>149.3</ele>
        <time>2022-02-06T11:24:19Z</time>
      </trkpt>
      <trkpt lat="48.708" lon="1.97001">
        <ele>149.3</ele>
        <time>2022-02-06T11:24:24Z</time>
      </trkpt>
      <trkpt lat="48.70803" lon="1.96996">
        <ele>149.2</ele>
        <time>2022-02-06T11:24:27Z</time>
      </trkpt>
      <trkpt lat="48.70806" lon="1.96988">
        <ele>149.2</ele>
        <time>2022-02-06T11:24:32Z</time>
      </trkpt>
      <trkpt lat="48.70809" lon="1.96983">
        <ele>149.2</ele>
        <time>2022-02-06T11:24:35Z</time>
      </trkpt>
      <trkpt lat="48.7081" lon="1.96974">
        <ele>149.4</ele>
        <time>2022-02-06T11:24:42Z</time>
      </trkpt>
      <trkpt lat="48.70814" lon="1.96968">
        <ele>149.5</ele>
        <time>2022-02-06T11:24:44Z</time>
      </trkpt>
      <trkpt lat="48.70819" lon="1.96965">
        <ele>149.6</ele>
        <time>2022-02-06T11:24:48Z</time>
      </trkpt>
      <trkpt lat="48.70823" lon="1.96961">
        <ele>149.7</ele>
        <time>2022-02-06T11:24:51Z</time>
      </trkpt>
      <trkpt lat="48.70827" lon="1.96958">
        <ele>149.6</ele>
        <time>2022-02-06T11:24:55Z</time>
      </trkpt>
      <trkpt lat="48.7083" lon="1.96952">
        <ele>149.6</ele>
        <time>2022-02-06T11:24:59Z</time>
      </trkpt>
      <trkpt lat="48.70834" lon="1.96946">
        <ele>149.6</ele>
        <time>2022-02-06T11:25:03Z</time>
      </trkpt>
      <trkpt lat="48.70837" lon="1.9694">
        <ele>149.9</ele>
        <time>2022-02-06T11:25:07Z</time>
      </trkpt>
      <trkpt lat="48.70841" lon="1.96935">
        <ele>150.4</ele>
        <time>2022-02-06T11:25:12Z</time>
      </trkpt>
      <trkpt lat="48.70845" lon="1.9693">
        <ele>151</ele>
        <time>2022-02-06T11:25:17Z</time>
      </trkpt>
      <trkpt lat="48.70849" lon="1.96924">
        <ele>151.5</ele>
        <time>2022-02-06T11:25:21Z</time>
      </trkpt>
      <trkpt lat="48.70853" lon="1.96918">
        <ele>151.8</ele>
        <time>2022-02-06T11:25:25Z</time>
      </trkpt>
      <trkpt lat="48.70857" lon="1.96911">
        <ele>152</ele>
        <time>2022-02-06T11:25:29Z</time>
      </trkpt>
      <trkpt lat="48.7086" lon="1.96905">
        <ele>152.4</ele>
        <time>2022-02-06T11:25:34Z</time>
      </trkpt>
      <trkpt lat="48.70865" lon="1.96899">
        <ele>152.7</ele>
        <time>2022-02-06T11:25:38Z</time>
      </trkpt>
      <trkpt lat="48.70869" lon="1.96895">
        <ele>152.9</ele>
        <time>2022-02-06T11:25:42Z</time>
      </trkpt>
      <trkpt lat="48.70871" lon="1.96887">
        <ele>153.2</ele>
        <time>2022-02-06T11:25:47Z</time>
      </trkpt>
      <trkpt lat="48.70874" lon="1.96881">
        <ele>152.7</ele>
        <time>2022-02-06T11:25:51Z</time>
      </trkpt>
      <trkpt lat="48.70878" lon="1.96876">
        <ele>151.7</ele>
        <time>2022-02-06T11:25:56Z</time>
      </trkpt>
      <trkpt lat="48.70882" lon="1.96873">
        <ele>151.4</ele>
        <time>2022-02-06T11:26:00Z</time>
      </trkpt>
      <trkpt lat="48.70886" lon="1.96868">
        <ele>151.3</ele>
        <time>2022-02-06T11:26:04Z</time>
      </trkpt>
      <trkpt lat="48.7089" lon="1.96863">
        <ele>150.8</ele>
        <time>2022-02-06T11:26:08Z</time>
      </trkpt>
      <trkpt lat="48.70893" lon="1.96856">
        <ele>150.2</ele>
        <time>2022-02-06T11:26:13Z</time>
      </trkpt>
      <trkpt lat="48.70897" lon="1.96849">
        <ele>150.7</ele>
        <time>2022-02-06T11:26:16Z</time>
      </trkpt>
      <trkpt lat="48.70901" lon="1.96843">
        <ele>151.9</ele>
        <time>2022-02-06T11:26:20Z</time>
      </trkpt>
      <trkpt lat="48.70904" lon="1.96838">
        <ele>152.9</ele>
        <time>2022-02-06T11:26:24Z</time>
      </trkpt>
      <trkpt lat="48.70907" lon="1.96833">
        <ele>153.4</ele>
        <time>2022-02-06T11:26:27Z</time>
      </trkpt>
      <trkpt lat="48.70911" lon="1.96827">
        <ele>153.6</ele>
        <time>2022-02-06T11:26:32Z</time>
      </trkpt>
      <trkpt lat="48.70915" lon="1.9682">
        <ele>152.4</ele>
        <time>2022-02-06T11:26:36Z</time>
      </trkpt>
      <trkpt lat="48.7092" lon="1.96814">
        <ele>151.4</ele>
        <time>2022-02-06T11:26:41Z</time>
      </trkpt>
      <trkpt lat="48.70921" lon="1.96821">
        <ele>150.2</ele>
        <time>2022-02-06T11:26:52Z</time>
      </trkpt>
      <trkpt lat="48.70916" lon="1.96825">
        <ele>148.6</ele>
        <time>2022-02-06T11:27:35Z</time>
      </trkpt>
      <trkpt lat="48.70912" lon="1.96827">
        <ele>149.8</ele>
        <time>2022-02-06T11:27:43Z</time>
      </trkpt>
      <trkpt lat="48.70907" lon="1.96831">
        <ele>152.6</ele>
        <time>2022-02-06T11:28:00Z</time>
      </trkpt>
      <trkpt lat="48.70905" lon="1.96838">
        <ele>151.7</ele>
        <time>2022-02-06T11:28:05Z</time>
      </trkpt>
      <trkpt lat="48.70902" lon="1.96843">
        <ele>150.6</ele>
        <time>2022-02-06T11:28:09Z</time>
      </trkpt>
      <trkpt lat="48.70898" lon="1.96849">
        <ele>149.6</ele>
        <time>2022-02-06T11:28:14Z</time>
      </trkpt>
      <trkpt lat="48.70895" lon="1.96854">
        <ele>149.5</ele>
        <time>2022-02-06T11:28:18Z</time>
      </trkpt>
      <trkpt lat="48.70892" lon="1.96861">
        <ele>149.4</ele>
        <time>2022-02-06T11:28:23Z</time>
      </trkpt>
      <trkpt lat="48.70888" lon="1.96867">
        <ele>148.6</ele>
        <time>2022-02-06T11:28:28Z</time>
      </trkpt>
      <trkpt lat="48.70885" lon="1.96873">
        <ele>146.9</ele>
        <time>2022-02-06T11:28:32Z</time>
      </trkpt>
      <trkpt lat="48.70882" lon="1.96879">
        <ele>145.5</ele>
        <time>2022-02-06T11:28:36Z</time>
      </trkpt>
      <trkpt lat="48.70879" lon="1.96886">
        <ele>144.3</ele>
        <time>2022-02-06T11:28:40Z</time>
      </trkpt>
      <trkpt lat="48.70876" lon="1.96891">
        <ele>142.9</ele>
        <time>2022-02-06T11:28:44Z</time>
      </trkpt>
      <trkpt lat="48.70872" lon="1.96896">
        <ele>142</ele>
        <time>2022-02-06T11:28:49Z</time>
      </trkpt>
      <trkpt lat="48.70868" lon="1.96901">
        <ele>141.6</ele>
        <time>2022-02-06T11:28:52Z</time>
      </trkpt>
      <trkpt lat="48.70865" lon="1.96906">
        <ele>141.6</ele>
        <time>2022-02-06T11:28:56Z</time>
      </trkpt>
      <trkpt lat="48.70861" lon="1.96911">
        <ele>141.6</ele>
        <time>2022-02-06T11:28:59Z</time>
      </trkpt>
      <trkpt lat="48.70857" lon="1.96918">
        <ele>141.7</ele>
        <time>2022-02-06T11:29:04Z</time>
      </trkpt>
      <trkpt lat="48.70853" lon="1.96924">
        <ele>142.1</ele>
        <time>2022-02-06T11:29:07Z</time>
      </trkpt>
      <trkpt lat="48.7085" lon="1.96929">
        <ele>142.8</ele>
        <time>2022-02-06T11:29:11Z</time>
      </trkpt>
      <trkpt lat="48.70846" lon="1.96935">
        <ele>143.5</ele>
        <time>2022-02-06T11:29:14Z</time>
      </trkpt>
      <trkpt lat="48.70843" lon="1.9694">
        <ele>143.8</ele>
        <time>2022-02-06T11:29:18Z</time>
      </trkpt>
      <trkpt lat="48.70838" lon="1.96945">
        <ele>144.4</ele>
        <time>2022-02-06T11:29:22Z</time>
      </trkpt>
      <trkpt lat="48.70835" lon="1.96951">
        <ele>144.7</ele>
        <time>2022-02-06T11:29:26Z</time>
      </trkpt>
      <trkpt lat="48.70832" lon="1.96956">
        <ele>144.8</ele>
        <time>2022-02-06T11:29:30Z</time>
      </trkpt>
      <trkpt lat="48.70828" lon="1.96961">
        <ele>144.5</ele>
        <time>2022-02-06T11:29:33Z</time>
      </trkpt>
      <trkpt lat="48.70823" lon="1.96967">
        <ele>144.4</ele>
        <time>2022-02-06T11:29:37Z</time>
      </trkpt>
      <trkpt lat="48.70819" lon="1.96972">
        <ele>144.5</ele>
        <time>2022-02-06T11:29:41Z</time>
      </trkpt>
      <trkpt lat="48.70815" lon="1.96979">
        <ele>144.7</ele>
        <time>2022-02-06T11:29:45Z</time>
      </trkpt>
      <trkpt lat="48.70811" lon="1.96984">
        <ele>145.4</ele>
        <time>2022-02-06T11:29:49Z</time>
      </trkpt>
      <trkpt lat="48.70807" lon="1.96988">
        <ele>146.3</ele>
        <time>2022-02-06T11:29:52Z</time>
      </trkpt>
      <trkpt lat="48.70804" lon="1.96993">
        <ele>147.4</ele>
        <time>2022-02-06T11:29:55Z</time>
      </trkpt>
      <trkpt lat="48.70799" lon="1.96998">
        <ele>148.3</ele>
        <time>2022-02-06T11:29:59Z</time>
      </trkpt>
      <trkpt lat="48.70795" lon="1.97002">
        <ele>148.9</ele>
        <time>2022-02-06T11:30:04Z</time>
      </trkpt>
      <trkpt lat="48.70791" lon="1.97007">
        <ele>149</ele>
        <time>2022-02-06T11:30:08Z</time>
      </trkpt>
      <trkpt lat="48.70789" lon="1.97013">
        <ele>148.8</ele>
        <time>2022-02-06T11:30:13Z</time>
      </trkpt>
      <trkpt lat="48.70786" lon="1.9702">
        <ele>148.6</ele>
        <time>2022-02-06T11:30:17Z</time>
      </trkpt>
      <trkpt lat="48.70787" lon="1.97013">
        <ele>149.1</ele>
        <time>2022-02-06T11:30:41Z</time>
      </trkpt>
      <trkpt lat="48.7079" lon="1.97007">
        <ele>149.2</ele>
        <time>2022-02-06T11:30:43Z</time>
      </trkpt>
      <trkpt lat="48.70794" lon="1.97001">
        <ele>149.4</ele>
        <time>2022-02-06T11:30:46Z</time>
      </trkpt>
      <trkpt lat="48.70798" lon="1.96997">
        <ele>149.4</ele>
        <time>2022-02-06T11:30:49Z</time>
      </trkpt>
      <trkpt lat="48.70802" lon="1.96993">
        <ele>149.6</ele>
        <time>2022-02-06T11:30:52Z</time>
      </trkpt>
      <trkpt lat="48.70806" lon="1.96989">
        <ele>149.9</ele>
        <time>2022-02-06T11:30:56Z</time>
      </trkpt>
      <trkpt lat="48.7081" lon="1.96984">
        <ele>150.2</ele>
        <time>2022-02-06T11:30:59Z</time>
      </trkpt>
      <trkpt lat="48.70814" lon="1.96978">
        <ele>150.9</ele>
        <time>2022-02-06T11:31:03Z</time>
      </trkpt>
      <trkpt lat="48.70819" lon="1.96972">
        <ele>150.9</ele>
        <time>2022-02-06T11:31:08Z</time>
      </trkpt>
      <trkpt lat="48.70823" lon="1.96969">
        <ele>150.9</ele>
        <time>2022-02-06T11:31:11Z</time>
      </trkpt>
      <trkpt lat="48.70827" lon="1.96964">
        <ele>151.1</ele>
        <time>2022-02-06T11:31:15Z</time>
      </trkpt>
      <trkpt lat="48.7083" lon="1.96958">
        <ele>152.3</ele>
        <time>2022-02-06T11:31:19Z</time>
      </trkpt>
      <trkpt lat="48.70834" lon="1.96952">
        <ele>152.6</ele>
        <time>2022-02-06T11:31:22Z</time>
      </trkpt>
      <trkpt lat="48.70837" lon="1.96947">
        <ele>152.4</ele>
        <time>2022-02-06T11:31:26Z</time>
      </trkpt>
      <trkpt lat="48.70841" lon="1.96941">
        <ele>151.9</ele>
        <time>2022-02-06T11:31:30Z</time>
      </trkpt>
      <trkpt lat="48.70844" lon="1.96935">
        <ele>152</ele>
        <time>2022-02-06T11:31:34Z</time>
      </trkpt>
      <trkpt lat="48.70848" lon="1.96929">
        <ele>152.5</ele>
        <time>2022-02-06T11:31:38Z</time>
      </trkpt>
      <trkpt lat="48.70851" lon="1.96923">
        <ele>153</ele>
        <time>2022-02-06T11:31:41Z</time>
      </trkpt>
      <trkpt lat="48.70854" lon="1.96917">
        <ele>153.5</ele>
        <time>2022-02-06T11:31:45Z</time>
      </trkpt>
      <trkpt lat="48.70858" lon="1.96912">
        <ele>153.1</ele>
        <time>2022-02-06T11:31:48Z</time>
      </trkpt>
      <trkpt lat="48.70863" lon="1.96908">
        <ele>152.1</ele>
        <time>2022-02-06T11:31:51Z</time>
      </trkpt>
      <trkpt lat="48.70866" lon="1.96904">
        <ele>151.5</ele>
        <time>2022-02-06T11:31:55Z</time>
      </trkpt>
      <trkpt lat="48.7087" lon="1.96899">
        <ele>151.9</ele>
        <time>2022-02-06T11:31:58Z</time>
      </trkpt>
      <trkpt lat="48.70874" lon="1.96893">
        <ele>152.5</ele>
        <time>2022-02-06T11:32:02Z</time>
      </trkpt>
      <trkpt lat="48.70878" lon="1.9689">
        <ele>151.7</ele>
        <time>2022-02-06T11:32:06Z</time>
      </trkpt>
      <trkpt lat="48.70883" lon="1.96885">
        <ele>150.1</ele>
        <time>2022-02-06T11:32:10Z</time>
      </trkpt>
      <trkpt lat="48.70886" lon="1.9688">
        <ele>149.8</ele>
        <time>2022-02-06T11:32:13Z</time>
      </trkpt>
      <trkpt lat="48.70889" lon="1.96875">
        <ele>150.9</ele>
        <time>2022-02-06T11:32:17Z</time>
      </trkpt>
      <trkpt lat="48.70892" lon="1.96869">
        <ele>151.9</ele>
        <time>2022-02-06T11:32:20Z</time>
      </trkpt>
      <trkpt lat="48.70894" lon="1.96862">
        <ele>152.8</ele>
        <time>2022-02-06T11:32:24Z</time>
      </trkpt>
      <trkpt lat="48.70896" lon="1.96855">
        <ele>152.1</ele>
        <time>2022-02-06T11:32:28Z</time>
      </trkpt>
      <trkpt lat="48.70899" lon="1.96849">
        <ele>150.5</ele>
        <time>2022-02-06T11:32:33Z</time>
      </trkpt>
      <trkpt lat="48.70902" lon="1.96842">
        <ele>150.1</ele>
        <time>2022-02-06T11:32:39Z</time>
      </trkpt>
      <trkpt lat="48.70905" lon="1.96836">
        <ele>152.1</ele>
        <time>2022-02-06T11:32:42Z</time>
      </trkpt>
      <trkpt lat="48.70908" lon="1.96831">
        <ele>153.8</ele>
        <time>2022-02-06T11:32:46Z</time>
      </trkpt>
      <trkpt lat="48.70912" lon="1.96826">
        <ele>154.1</ele>
        <time>2022-02-06T11:32:51Z</time>
      </trkpt>
      <trkpt lat="48.70917" lon="1.96823">
        <ele>154.3</ele>
        <time>2022-02-06T11:32:53Z</time>
      </trkpt>
      <trkpt lat="48.70922" lon="1.96819">
        <ele>154.5</ele>
        <time>2022-02-06T11:32:58Z</time>
      </trkpt>
      <trkpt lat="48.70927" lon="1.96818">
        <ele>155.9</ele>
        <time>2022-02-06T11:33:03Z</time>
      </trkpt>
      <trkpt lat="48.70933" lon="1.96821">
        <ele>156.5</ele>
        <time>2022-02-06T11:33:08Z</time>
      </trkpt>
      <trkpt lat="48.70937" lon="1.96822">
        <ele>155.5</ele>
        <time>2022-02-06T11:33:12Z</time>
      </trkpt>
      <trkpt lat="48.70943" lon="1.96824">
        <ele>155</ele>
        <time>2022-02-06T11:33:17Z</time>
      </trkpt>
      <trkpt lat="48.70947" lon="1.96826">
        <ele>153.8</ele>
        <time>2022-02-06T11:33:22Z</time>
      </trkpt>
      <trkpt lat="48.70953" lon="1.96824">
        <ele>151.1</ele>
        <time>2022-02-06T11:33:27Z</time>
      </trkpt>
      <trkpt lat="48.70958" lon="1.96821">
        <ele>150.3</ele>
        <time>2022-02-06T11:33:31Z</time>
      </trkpt>
      <trkpt lat="48.70963" lon="1.96819">
        <ele>150.9</ele>
        <time>2022-02-06T11:33:35Z</time>
      </trkpt>
      <trkpt lat="48.70968" lon="1.96816">
        <ele>151.4</ele>
        <time>2022-02-06T11:33:39Z</time>
      </trkpt>
      <trkpt lat="48.70973" lon="1.96813">
        <ele>151</ele>
        <time>2022-02-06T11:33:43Z</time>
      </trkpt>
      <trkpt lat="48.70977" lon="1.96811">
        <ele>150.4</ele>
        <time>2022-02-06T11:33:47Z</time>
      </trkpt>
      <trkpt lat="48.70982" lon="1.96809">
        <ele>150.2</ele>
        <time>2022-02-06T11:33:50Z</time>
      </trkpt>
      <trkpt lat="48.70987" lon="1.96807">
        <ele>150.9</ele>
        <time>2022-02-06T11:33:53Z</time>
      </trkpt>
      <trkpt lat="48.70992" lon="1.96806">
        <ele>151.4</ele>
        <time>2022-02-06T11:33:57Z</time>
      </trkpt>
      <trkpt lat="48.70997" lon="1.96805">
        <ele>151.8</ele>
        <time>2022-02-06T11:34:00Z</time>
      </trkpt>
      <trkpt lat="48.71002" lon="1.96805">
        <ele>150.8</ele>
        <time>2022-02-06T11:34:05Z</time>
      </trkpt>
      <trkpt lat="48.71006" lon="1.96804">
        <ele>149.5</ele>
        <time>2022-02-06T11:34:08Z</time>
      </trkpt>
      <trkpt lat="48.71012" lon="1.96805">
        <ele>148.1</ele>
        <time>2022-02-06T11:34:12Z</time>
      </trkpt>
      <trkpt lat="48.71017" lon="1.96804">
        <ele>147.7</ele>
        <time>2022-02-06T11:34:16Z</time>
      </trkpt>
      <trkpt lat="48.71021" lon="1.96801">
        <ele>147.8</ele>
        <time>2022-02-06T11:34:19Z</time>
      </trkpt>
      <trkpt lat="48.71027" lon="1.96799">
        <ele>148.3</ele>
        <time>2022-02-06T11:34:23Z</time>
      </trkpt>
      <trkpt lat="48.71031" lon="1.96798">
        <ele>148.8</ele>
        <time>2022-02-06T11:34:26Z</time>
      </trkpt>
      <trkpt lat="48.71037" lon="1.96796">
        <ele>149.2</ele>
        <time>2022-02-06T11:34:30Z</time>
      </trkpt>
      <trkpt lat="48.71042" lon="1.96794">
        <ele>149.5</ele>
        <time>2022-02-06T11:34:33Z</time>
      </trkpt>
      <trkpt lat="48.71047" lon="1.96793">
        <ele>149.3</ele>
        <time>2022-02-06T11:34:37Z</time>
      </trkpt>
      <trkpt lat="48.71052" lon="1.9679">
        <ele>148.9</ele>
        <time>2022-02-06T11:34:41Z</time>
      </trkpt>
      <trkpt lat="48.71058" lon="1.96789">
        <ele>148.2</ele>
        <time>2022-02-06T11:34:44Z</time>
      </trkpt>
      <trkpt lat="48.71063" lon="1.96788">
        <ele>147.8</ele>
        <time>2022-02-06T11:34:47Z</time>
      </trkpt>
      <trkpt lat="48.71067" lon="1.96786">
        <ele>147.8</ele>
        <time>2022-02-06T11:34:51Z</time>
      </trkpt>
      <trkpt lat="48.71072" lon="1.96783">
        <ele>148.5</ele>
        <time>2022-02-06T11:34:54Z</time>
      </trkpt>
      <trkpt lat="48.71076" lon="1.96778">
        <ele>149.2</ele>
        <time>2022-02-06T11:34:58Z</time>
      </trkpt>
      <trkpt lat="48.71081" lon="1.96777">
        <ele>149.4</ele>
        <time>2022-02-06T11:35:03Z</time>
      </trkpt>
      <trkpt lat="48.71087" lon="1.96777">
        <ele>148.9</ele>
        <time>2022-02-06T11:35:07Z</time>
      </trkpt>
      <trkpt lat="48.71093" lon="1.96774">
        <ele>148.8</ele>
        <time>2022-02-06T11:35:12Z</time>
      </trkpt>
      <trkpt lat="48.71098" lon="1.96772">
        <ele>148.7</ele>
        <time>2022-02-06T11:35:16Z</time>
      </trkpt>
      <trkpt lat="48.71104" lon="1.96771">
        <ele>148.3</ele>
        <time>2022-02-06T11:35:21Z</time>
      </trkpt>
      <trkpt lat="48.71109" lon="1.96769">
        <ele>147.2</ele>
        <time>2022-02-06T11:35:25Z</time>
      </trkpt>
      <trkpt lat="48.71114" lon="1.96769">
        <ele>146.5</ele>
        <time>2022-02-06T11:35:28Z</time>
      </trkpt>
      <trkpt lat="48.71119" lon="1.96769">
        <ele>146.4</ele>
        <time>2022-02-06T11:35:32Z</time>
      </trkpt>
      <trkpt lat="48.71124" lon="1.96768">
        <ele>146.4</ele>
        <time>2022-02-06T11:35:35Z</time>
      </trkpt>
      <trkpt lat="48.71128" lon="1.96767">
        <ele>147.1</ele>
        <time>2022-02-06T11:35:38Z</time>
      </trkpt>
      <trkpt lat="48.71133" lon="1.96766">
        <ele>148</ele>
        <time>2022-02-06T11:35:42Z</time>
      </trkpt>
      <trkpt lat="48.71138" lon="1.9677">
        <ele>149.6</ele>
        <time>2022-02-06T11:35:45Z</time>
      </trkpt>
      <trkpt lat="48.71143" lon="1.96773">
        <ele>151.3</ele>
        <time>2022-02-06T11:35:50Z</time>
      </trkpt>
      <trkpt lat="48.71148" lon="1.96774">
        <ele>150.9</ele>
        <time>2022-02-06T11:35:54Z</time>
      </trkpt>
      <trkpt lat="48.71153" lon="1.96775">
        <ele>150.6</ele>
        <time>2022-02-06T11:35:58Z</time>
      </trkpt>
      <trkpt lat="48.71158" lon="1.96776">
        <ele>151</ele>
        <time>2022-02-06T11:36:01Z</time>
      </trkpt>
      <trkpt lat="48.71163" lon="1.96777">
        <ele>153.6</ele>
        <time>2022-02-06T11:36:06Z</time>
      </trkpt>
      <trkpt lat="48.71167" lon="1.96777">
        <ele>156</ele>
        <time>2022-02-06T11:36:10Z</time>
      </trkpt>
      <trkpt lat="48.71173" lon="1.96776">
        <ele>156.6</ele>
        <time>2022-02-06T11:36:14Z</time>
      </trkpt>
      <trkpt lat="48.71178" lon="1.96776">
        <ele>156.1</ele>
        <time>2022-02-06T11:36:18Z</time>
      </trkpt>
      <trkpt lat="48.71184" lon="1.96774">
        <ele>154.6</ele>
        <time>2022-02-06T11:36:23Z</time>
      </trkpt>
      <trkpt lat="48.71188" lon="1.96771">
        <ele>153.8</ele>
        <time>2022-02-06T11:36:27Z</time>
      </trkpt>
      <trkpt lat="48.71192" lon="1.96767">
        <ele>153.2</ele>
        <time>2022-02-06T11:36:30Z</time>
      </trkpt>
      <trkpt lat="48.71197" lon="1.96763">
        <ele>152.9</ele>
        <time>2022-02-06T11:36:34Z</time>
      </trkpt>
      <trkpt lat="48.71202" lon="1.96762">
        <ele>152.8</ele>
        <time>2022-02-06T11:36:38Z</time>
      </trkpt>
      <trkpt lat="48.71207" lon="1.96763">
        <ele>153.3</ele>
        <time>2022-02-06T11:36:42Z</time>
      </trkpt>
      <trkpt lat="48.7121" lon="1.96768">
        <ele>152.9</ele>
        <time>2022-02-06T11:36:47Z</time>
      </trkpt>
      <trkpt lat="48.71206" lon="1.96769">
        <ele>148.7</ele>
        <time>2022-02-06T11:37:20Z</time>
      </trkpt>
      <trkpt lat="48.71204" lon="1.96762">
        <ele>148.8</ele>
        <time>2022-02-06T11:37:29Z</time>
      </trkpt>
      <trkpt lat="48.71205" lon="1.9677">
        <ele>148.3</ele>
        <time>2022-02-06T11:37:50Z</time>
      </trkpt>
      <trkpt lat="48.71209" lon="1.96773">
        <ele>151.6</ele>
        <time>2022-02-06T11:38:05Z</time>
      </trkpt>
      <trkpt lat="48.71215" lon="1.96774">
        <ele>152.8</ele>
        <time>2022-02-06T11:38:09Z</time>
      </trkpt>
      <trkpt lat="48.7122" lon="1.96774">
        <ele>152.5</ele>
        <time>2022-02-06T11:38:14Z</time>
      </trkpt>
      <trkpt lat="48.71225" lon="1.96776">
        <ele>151.4</ele>
        <time>2022-02-06T11:38:19Z</time>
      </trkpt>
      <trkpt lat="48.7123" lon="1.96778">
        <ele>150</ele>
        <time>2022-02-06T11:38:23Z</time>
      </trkpt>
      <trkpt lat="48.71236" lon="1.96779">
        <ele>149.6</ele>
        <time>2022-02-06T11:38:28Z</time>
      </trkpt>
      <trkpt lat="48.7124" lon="1.96779">
        <ele>150.2</ele>
        <time>2022-02-06T11:38:31Z</time>
      </trkpt>
      <trkpt lat="48.71245" lon="1.96779">
        <ele>150.3</ele>
        <time>2022-02-06T11:38:35Z</time>
      </trkpt>
      <trkpt lat="48.7125" lon="1.96782">
        <ele>150.1</ele>
        <time>2022-02-06T11:38:40Z</time>
      </trkpt>
      <trkpt lat="48.71255" lon="1.96785">
        <ele>149.5</ele>
        <time>2022-02-06T11:38:45Z</time>
      </trkpt>
      <trkpt lat="48.71259" lon="1.96788">
        <ele>149.3</ele>
        <time>2022-02-06T11:38:49Z</time>
      </trkpt>
      <trkpt lat="48.71264" lon="1.9679">
        <ele>149.9</ele>
        <time>2022-02-06T11:38:53Z</time>
      </trkpt>
      <trkpt lat="48.71268" lon="1.96794">
        <ele>150.3</ele>
        <time>2022-02-06T11:38:58Z</time>
      </trkpt>
      <trkpt lat="48.71273" lon="1.96799">
        <ele>150.6</ele>
        <time>2022-02-06T11:39:03Z</time>
      </trkpt>
      <trkpt lat="48.71276" lon="1.96804">
        <ele>150.2</ele>
        <time>2022-02-06T11:39:07Z</time>
      </trkpt>
      <trkpt lat="48.71277" lon="1.96813">
        <ele>149.2</ele>
        <time>2022-02-06T11:39:11Z</time>
      </trkpt>
      <trkpt lat="48.71278" lon="1.9682">
        <ele>147.2</ele>
        <time>2022-02-06T11:39:15Z</time>
      </trkpt>
      <trkpt lat="48.71281" lon="1.96826">
        <ele>143.8</ele>
        <time>2022-02-06T11:39:19Z</time>
      </trkpt>
      <trkpt lat="48.71286" lon="1.96831">
        <ele>142</ele>
        <time>2022-02-06T11:39:23Z</time>
      </trkpt>
      <trkpt lat="48.7129" lon="1.96835">
        <ele>140.8</ele>
        <time>2022-02-06T11:39:28Z</time>
      </trkpt>
      <trkpt lat="48.71294" lon="1.96837">
        <ele>139.9</ele>
        <time>2022-02-06T11:39:32Z</time>
      </trkpt>
      <trkpt lat="48.71299" lon="1.96843">
        <ele>140.7</ele>
        <time>2022-02-06T11:39:38Z</time>
      </trkpt>
      <trkpt lat="48.71303" lon="1.96848">
        <ele>141.2</ele>
        <time>2022-02-06T11:39:42Z</time>
      </trkpt>
      <trkpt lat="48.71307" lon="1.96851">
        <ele>141</ele>
        <time>2022-02-06T11:39:47Z</time>
      </trkpt>
      <trkpt lat="48.71312" lon="1.96854">
        <ele>140.9</ele>
        <time>2022-02-06T11:39:51Z</time>
      </trkpt>
      <trkpt lat="48.71317" lon="1.96857">
        <ele>141.6</ele>
        <time>2022-02-06T11:39:56Z</time>
      </trkpt>
      <trkpt lat="48.71321" lon="1.96863">
        <ele>142.1</ele>
        <time>2022-02-06T11:40:02Z</time>
      </trkpt>
      <trkpt lat="48.71325" lon="1.96868">
        <ele>141.5</ele>
        <time>2022-02-06T11:40:07Z</time>
      </trkpt>
      <trkpt lat="48.7133" lon="1.9687">
        <ele>141.3</ele>
        <time>2022-02-06T11:40:13Z</time>
      </trkpt>
      <trkpt lat="48.71337" lon="1.9687">
        <ele>139.9</ele>
        <time>2022-02-06T11:40:18Z</time>
      </trkpt>
      <trkpt lat="48.71342" lon="1.96872">
        <ele>138.4</ele>
        <time>2022-02-06T11:40:24Z</time>
      </trkpt>
      <trkpt lat="48.71347" lon="1.96875">
        <ele>138.1</ele>
        <time>2022-02-06T11:40:29Z</time>
      </trkpt>
      <trkpt lat="48.71351" lon="1.96877">
        <ele>137.9</ele>
        <time>2022-02-06T11:40:33Z</time>
      </trkpt>
      <trkpt lat="48.71355" lon="1.9688">
        <ele>136.7</ele>
        <time>2022-02-06T11:40:38Z</time>
      </trkpt>
      <trkpt lat="48.71361" lon="1.9688">
        <ele>134.6</ele>
        <time>2022-02-06T11:40:43Z</time>
      </trkpt>
      <trkpt lat="48.71366" lon="1.96882">
        <ele>132.2</ele>
        <time>2022-02-06T11:40:47Z</time>
      </trkpt>
      <trkpt lat="48.71372" lon="1.96883">
        <ele>129.1</ele>
        <time>2022-02-06T11:40:52Z</time>
      </trkpt>
      <trkpt lat="48.71376" lon="1.96886">
        <ele>126.3</ele>
        <time>2022-02-06T11:40:57Z</time>
      </trkpt>
      <trkpt lat="48.7138" lon="1.9689">
        <ele>123.7</ele>
        <time>2022-02-06T11:41:02Z</time>
      </trkpt>
      <trkpt lat="48.71385" lon="1.96893">
        <ele>123</ele>
        <time>2022-02-06T11:41:06Z</time>
      </trkpt>
      <trkpt lat="48.71389" lon="1.96897">
        <ele>122.2</ele>
        <time>2022-02-06T11:41:11Z</time>
      </trkpt>
      <trkpt lat="48.71393" lon="1.96903">
        <ele>121.6</ele>
        <time>2022-02-06T11:41:15Z</time>
      </trkpt>
      <trkpt lat="48.71396" lon="1.96909">
        <ele>120.6</ele>
        <time>2022-02-06T11:41:19Z</time>
      </trkpt>
      <trkpt lat="48.71399" lon="1.96916">
        <ele>119.7</ele>
        <time>2022-02-06T11:41:25Z</time>
      </trkpt>
      <trkpt lat="48.71403" lon="1.9692">
        <ele>119.1</ele>
        <time>2022-02-06T11:41:28Z</time>
      </trkpt>
      <trkpt lat="48.71407" lon="1.96924">
        <ele>117.9</ele>
        <time>2022-02-06T11:41:33Z</time>
      </trkpt>
      <trkpt lat="48.71412" lon="1.96928">
        <ele>116.8</ele>
        <time>2022-02-06T11:41:38Z</time>
      </trkpt>
      <trkpt lat="48.71416" lon="1.9693">
        <ele>116.2</ele>
        <time>2022-02-06T11:41:42Z</time>
      </trkpt>
      <trkpt lat="48.71421" lon="1.96934">
        <ele>115.8</ele>
        <time>2022-02-06T11:41:46Z</time>
      </trkpt>
      <trkpt lat="48.71425" lon="1.96937">
        <ele>115.4</ele>
        <time>2022-02-06T11:41:50Z</time>
      </trkpt>
      <trkpt lat="48.71429" lon="1.9694">
        <ele>115.4</ele>
        <time>2022-02-06T11:41:55Z</time>
      </trkpt>
      <trkpt lat="48.71434" lon="1.96943">
        <ele>115.1</ele>
        <time>2022-02-06T11:41:59Z</time>
      </trkpt>
      <trkpt lat="48.71438" lon="1.96947">
        <ele>114.6</ele>
        <time>2022-02-06T11:42:04Z</time>
      </trkpt>
      <trkpt lat="48.71443" lon="1.96947">
        <ele>113.7</ele>
        <time>2022-02-06T11:42:08Z</time>
      </trkpt>
      <trkpt lat="48.71445" lon="1.96938">
        <ele>113</ele>
        <time>2022-02-06T11:42:12Z</time>
      </trkpt>
      <trkpt lat="48.71446" lon="1.96931">
        <ele>112.6</ele>
        <time>2022-02-06T11:42:17Z</time>
      </trkpt>
      <trkpt lat="48.71447" lon="1.96923">
        <ele>111.3</ele>
        <time>2022-02-06T11:42:21Z</time>
      </trkpt>
      <trkpt lat="48.71448" lon="1.96915">
        <ele>110.1</ele>
        <time>2022-02-06T11:42:25Z</time>
      </trkpt>
      <trkpt lat="48.7145" lon="1.96908">
        <ele>109.8</ele>
        <time>2022-02-06T11:42:30Z</time>
      </trkpt>
      <trkpt lat="48.71452" lon="1.96902">
        <ele>109.5</ele>
        <time>2022-02-06T11:42:35Z</time>
      </trkpt>
      <trkpt lat="48.71454" lon="1.96896">
        <ele>107.8</ele>
        <time>2022-02-06T11:42:43Z</time>
      </trkpt>
      <trkpt lat="48.71452" lon="1.96889">
        <ele>108.2</ele>
        <time>2022-02-06T11:42:58Z</time>
      </trkpt>
      <trkpt lat="48.71454" lon="1.96881">
        <ele>108.9</ele>
        <time>2022-02-06T11:43:03Z</time>
      </trkpt>
      <trkpt lat="48.71455" lon="1.96873">
        <ele>108.9</ele>
        <time>2022-02-06T11:43:07Z</time>
      </trkpt>
      <trkpt lat="48.71457" lon="1.96865">
        <ele>108.5</ele>
        <time>2022-02-06T11:43:11Z</time>
      </trkpt>
      <trkpt lat="48.71459" lon="1.96857">
        <ele>108.5</ele>
        <time>2022-02-06T11:43:16Z</time>
      </trkpt>
      <trkpt lat="48.71462" lon="1.96851">
        <ele>108.8</ele>
        <time>2022-02-06T11:43:21Z</time>
      </trkpt>
      <trkpt lat="48.71462" lon="1.96843">
        <ele>108.9</ele>
        <time>2022-02-06T11:43:25Z</time>
      </trkpt>
      <trkpt lat="48.71464" lon="1.96836">
        <ele>108.9</ele>
        <time>2022-02-06T11:43:30Z</time>
      </trkpt>
      <trkpt lat="48.71466" lon="1.96828">
        <ele>109.3</ele>
        <time>2022-02-06T11:43:34Z</time>
      </trkpt>
      <trkpt lat="48.71469" lon="1.96821">
        <ele>109.2</ele>
        <time>2022-02-06T11:43:40Z</time>
      </trkpt>
      <trkpt lat="48.71473" lon="1.96818">
        <ele>109.3</ele>
        <time>2022-02-06T11:43:45Z</time>
      </trkpt>
      <trkpt lat="48.71478" lon="1.96817">
        <ele>109.3</ele>
        <time>2022-02-06T11:43:49Z</time>
      </trkpt>
      <trkpt lat="48.71483" lon="1.96819">
        <ele>108.9</ele>
        <time>2022-02-06T11:43:53Z</time>
      </trkpt>
      <trkpt lat="48.71487" lon="1.96824">
        <ele>108.8</ele>
        <time>2022-02-06T11:43:57Z</time>
      </trkpt>
      <trkpt lat="48.71491" lon="1.96828">
        <ele>109.1</ele>
        <time>2022-02-06T11:44:02Z</time>
      </trkpt>
      <trkpt lat="48.71496" lon="1.96832">
        <ele>109.1</ele>
        <time>2022-02-06T11:44:06Z</time>
      </trkpt>
      <trkpt lat="48.71501" lon="1.96834">
        <ele>108.8</ele>
        <time>2022-02-06T11:44:10Z</time>
      </trkpt>
      <trkpt lat="48.71505" lon="1.96836">
        <ele>108.2</ele>
        <time>2022-02-06T11:44:13Z</time>
      </trkpt>
      <trkpt lat="48.71509" lon="1.96839">
        <ele>107.8</ele>
        <time>2022-02-06T11:44:16Z</time>
      </trkpt>
      <trkpt lat="48.71515" lon="1.96842">
        <ele>107.4</ele>
        <time>2022-02-06T11:44:21Z</time>
      </trkpt>
      <trkpt lat="48.7152" lon="1.96843">
        <ele>107</ele>
        <time>2022-02-06T11:44:26Z</time>
      </trkpt>
      <trkpt lat="48.71525" lon="1.96844">
        <ele>106.6</ele>
        <time>2022-02-06T11:44:33Z</time>
      </trkpt>
      <trkpt lat="48.71529" lon="1.96848">
        <ele>106</ele>
        <time>2022-02-06T11:44:37Z</time>
      </trkpt>
      <trkpt lat="48.71533" lon="1.96852">
        <ele>106.3</ele>
        <time>2022-02-06T11:44:42Z</time>
      </trkpt>
      <trkpt lat="48.71538" lon="1.96853">
        <ele>108.1</ele>
        <time>2022-02-06T11:44:46Z</time>
      </trkpt>
      <trkpt lat="48.71544" lon="1.96852">
        <ele>108.9</ele>
        <time>2022-02-06T11:44:50Z</time>
      </trkpt>
      <trkpt lat="48.71549" lon="1.96853">
        <ele>107.3</ele>
        <time>2022-02-06T11:44:54Z</time>
      </trkpt>
      <trkpt lat="48.71555" lon="1.96857">
        <ele>105.8</ele>
        <time>2022-02-06T11:44:59Z</time>
      </trkpt>
      <trkpt lat="48.7156" lon="1.96861">
        <ele>104.7</ele>
        <time>2022-02-06T11:45:03Z</time>
      </trkpt>
      <trkpt lat="48.71565" lon="1.96864">
        <ele>103.1</ele>
        <time>2022-02-06T11:45:06Z</time>
      </trkpt>
      <trkpt lat="48.7157" lon="1.96867">
        <ele>101.2</ele>
        <time>2022-02-06T11:45:10Z</time>
      </trkpt>
      <trkpt lat="48.71576" lon="1.96869">
        <ele>99.7</ele>
        <time>2022-02-06T11:45:14Z</time>
      </trkpt>
      <trkpt lat="48.71581" lon="1.96871">
        <ele>98.8</ele>
        <time>2022-02-06T11:45:19Z</time>
      </trkpt>
      <trkpt lat="48.71585" lon="1.96873">
        <ele>98.2</ele>
        <time>2022-02-06T11:45:22Z</time>
      </trkpt>
      <trkpt lat="48.71591" lon="1.96875">
        <ele>97.7</ele>
        <time>2022-02-06T11:45:27Z</time>
      </trkpt>
      <trkpt lat="48.71595" lon="1.96875">
        <ele>97.3</ele>
        <time>2022-02-06T11:45:30Z</time>
      </trkpt>
      <trkpt lat="48.71601" lon="1.96873">
        <ele>97.4</ele>
        <time>2022-02-06T11:45:34Z</time>
      </trkpt>
      <trkpt lat="48.71606" lon="1.9687">
        <ele>97.7</ele>
        <time>2022-02-06T11:45:38Z</time>
      </trkpt>
      <trkpt lat="48.7161" lon="1.96867">
        <ele>98.3</ele>
        <time>2022-02-06T11:45:41Z</time>
      </trkpt>
      <trkpt lat="48.71615" lon="1.96864">
        <ele>100</ele>
        <time>2022-02-06T11:45:46Z</time>
      </trkpt>
      <trkpt lat="48.71621" lon="1.96862">
        <ele>102.2</ele>
        <time>2022-02-06T11:45:50Z</time>
      </trkpt>
      <trkpt lat="48.71626" lon="1.96858">
        <ele>102.6</ele>
        <time>2022-02-06T11:45:55Z</time>
      </trkpt>
      <trkpt lat="48.7163" lon="1.96854">
        <ele>101.6</ele>
        <time>2022-02-06T11:46:00Z</time>
      </trkpt>
      <trkpt lat="48.71634" lon="1.96858">
        <ele>101</ele>
        <time>2022-02-06T11:46:05Z</time>
      </trkpt>
      <trkpt lat="48.7164" lon="1.9686">
        <ele>101.3</ele>
        <time>2022-02-06T11:46:09Z</time>
      </trkpt>
      <trkpt lat="48.71644" lon="1.96857">
        <ele>99.8</ele>
        <time>2022-02-06T11:46:14Z</time>
      </trkpt>
      <trkpt lat="48.7165" lon="1.96858">
        <ele>96.8</ele>
        <time>2022-02-06T11:46:20Z</time>
      </trkpt>
      <trkpt lat="48.71655" lon="1.96859">
        <ele>97.7</ele>
        <time>2022-02-06T11:46:25Z</time>
      </trkpt>
      <trkpt lat="48.7166" lon="1.96859">
        <ele>100</ele>
        <time>2022-02-06T11:46:30Z</time>
      </trkpt>
      <trkpt lat="48.71665" lon="1.9686">
        <ele>101.1</ele>
        <time>2022-02-06T11:46:34Z</time>
      </trkpt>
      <trkpt lat="48.71671" lon="1.96861">
        <ele>101.5</ele>
        <time>2022-02-06T11:46:40Z</time>
      </trkpt>
      <trkpt lat="48.71676" lon="1.96864">
        <ele>101.6</ele>
        <time>2022-02-06T11:46:44Z</time>
      </trkpt>
      <trkpt lat="48.71681" lon="1.96864">
        <ele>100.4</ele>
        <time>2022-02-06T11:46:49Z</time>
      </trkpt>
      <trkpt lat="48.71686" lon="1.96867">
        <ele>99.5</ele>
        <time>2022-02-06T11:46:54Z</time>
      </trkpt>
      <trkpt lat="48.71691" lon="1.96868">
        <ele>99.5</ele>
        <time>2022-02-06T11:46:58Z</time>
      </trkpt>
      <trkpt lat="48.71696" lon="1.9687">
        <ele>100.2</ele>
        <time>2022-02-06T11:47:03Z</time>
      </trkpt>
      <trkpt lat="48.71702" lon="1.96872">
        <ele>101.2</ele>
        <time>2022-02-06T11:47:07Z</time>
      </trkpt>
      <trkpt lat="48.71707" lon="1.96873">
        <ele>102.3</ele>
        <time>2022-02-06T11:47:12Z</time>
      </trkpt>
      <trkpt lat="48.71711" lon="1.96879">
        <ele>100</ele>
        <time>2022-02-06T11:47:52Z</time>
      </trkpt>
      <trkpt lat="48.71717" lon="1.96882">
        <ele>99.1</ele>
        <time>2022-02-06T11:47:56Z</time>
      </trkpt>
      <trkpt lat="48.71721" lon="1.96885">
        <ele>98.8</ele>
        <time>2022-02-06T11:47:59Z</time>
      </trkpt>
      <trkpt lat="48.71726" lon="1.96888">
        <ele>99.2</ele>
        <time>2022-02-06T11:48:04Z</time>
      </trkpt>
      <trkpt lat="48.7173" lon="1.96892">
        <ele>99.5</ele>
        <time>2022-02-06T11:48:09Z</time>
      </trkpt>
      <trkpt lat="48.71735" lon="1.96896">
        <ele>98.9</ele>
        <time>2022-02-06T11:48:13Z</time>
      </trkpt>
      <trkpt lat="48.7174" lon="1.969">
        <ele>98.5</ele>
        <time>2022-02-06T11:48:18Z</time>
      </trkpt>
      <trkpt lat="48.71744" lon="1.96904">
        <ele>99.9</ele>
        <time>2022-02-06T11:48:21Z</time>
      </trkpt>
      <trkpt lat="48.7175" lon="1.96906">
        <ele>102.3</ele>
        <time>2022-02-06T11:48:26Z</time>
      </trkpt>
      <trkpt lat="48.71755" lon="1.96905">
        <ele>102.9</ele>
        <time>2022-02-06T11:48:32Z</time>
      </trkpt>
      <trkpt lat="48.71759" lon="1.96909">
        <ele>102.5</ele>
        <time>2022-02-06T11:48:36Z</time>
      </trkpt>
      <trkpt lat="48.71761" lon="1.96915">
        <ele>101.9</ele>
        <time>2022-02-06T11:48:42Z</time>
      </trkpt>
      <trkpt lat="48.71761" lon="1.96924">
        <ele>101.2</ele>
        <time>2022-02-06T11:48:47Z</time>
      </trkpt>
      <trkpt lat="48.7176" lon="1.96932">
        <ele>100.3</ele>
        <time>2022-02-06T11:48:51Z</time>
      </trkpt>
      <trkpt lat="48.7176" lon="1.96939">
        <ele>99.5</ele>
        <time>2022-02-06T11:48:56Z</time>
      </trkpt>
      <trkpt lat="48.7176" lon="1.96948">
        <ele>98.2</ele>
        <time>2022-02-06T11:49:01Z</time>
      </trkpt>
      <trkpt lat="48.71759" lon="1.96955">
        <ele>97.6</ele>
        <time>2022-02-06T11:49:05Z</time>
      </trkpt>
      <trkpt lat="48.7176" lon="1.96962">
        <ele>98.7</ele>
        <time>2022-02-06T11:49:08Z</time>
      </trkpt>
      <trkpt lat="48.71761" lon="1.96969">
        <ele>100.1</ele>
        <time>2022-02-06T11:49:11Z</time>
      </trkpt>
      <trkpt lat="48.71761" lon="1.96976">
        <ele>101.3</ele>
        <time>2022-02-06T11:49:15Z</time>
      </trkpt>
      <trkpt lat="48.71762" lon="1.96983">
        <ele>100.7</ele>
        <time>2022-02-06T11:49:20Z</time>
      </trkpt>
      <trkpt lat="48.7176" lon="1.96989">
        <ele>99.7</ele>
        <time>2022-02-06T11:49:25Z</time>
      </trkpt>
      <trkpt lat="48.71757" lon="1.96996">
        <ele>99.9</ele>
        <time>2022-02-06T11:49:28Z</time>
      </trkpt>
      <trkpt lat="48.71754" lon="1.97003">
        <ele>100.8</ele>
        <time>2022-02-06T11:49:31Z</time>
      </trkpt>
      <trkpt lat="48.71753" lon="1.9701">
        <ele>102.2</ele>
        <time>2022-02-06T11:49:36Z</time>
      </trkpt>
      <trkpt lat="48.7175" lon="1.97016">
        <ele>105.5</ele>
        <time>2022-02-06T11:49:40Z</time>
      </trkpt>
      <trkpt lat="48.71745" lon="1.9702">
        <ele>101</ele>
        <time>2022-02-06T11:50:13Z</time>
      </trkpt>
      <trkpt lat="48.7174" lon="1.97023">
        <ele>99.7</ele>
        <time>2022-02-06T11:50:15Z</time>
      </trkpt>
      <trkpt lat="48.71735" lon="1.97025">
        <ele>99</ele>
        <time>2022-02-06T11:50:19Z</time>
      </trkpt>
      <trkpt lat="48.71732" lon="1.9703">
        <ele>97.4</ele>
        <time>2022-02-06T11:50:23Z</time>
      </trkpt>
      <trkpt lat="48.71736" lon="1.97031">
        <ele>93.8</ele>
        <time>2022-02-06T11:50:41Z</time>
      </trkpt>
      <trkpt lat="48.71738" lon="1.97038">
        <ele>93.8</ele>
        <time>2022-02-06T11:50:57Z</time>
      </trkpt>
      <trkpt lat="48.71743" lon="1.97035">
        <ele>93.4</ele>
        <time>2022-02-06T11:51:06Z</time>
      </trkpt>
      <trkpt lat="48.71746" lon="1.97029">
        <ele>92.7</ele>
        <time>2022-02-06T11:51:11Z</time>
      </trkpt>
      <trkpt lat="48.71745" lon="1.97036">
        <ele>93.2</ele>
        <time>2022-02-06T11:51:33Z</time>
      </trkpt>
      <trkpt lat="48.71741" lon="1.97041">
        <ele>94.7</ele>
        <time>2022-02-06T11:51:38Z</time>
      </trkpt>
      <trkpt lat="48.71737" lon="1.97047">
        <ele>94.5</ele>
        <time>2022-02-06T11:51:42Z</time>
      </trkpt>
      <trkpt lat="48.71735" lon="1.97055">
        <ele>94.1</ele>
        <time>2022-02-06T11:51:48Z</time>
      </trkpt>
      <trkpt lat="48.71738" lon="1.97061">
        <ele>95.1</ele>
        <time>2022-02-06T11:51:54Z</time>
      </trkpt>
      <trkpt lat="48.71743" lon="1.97063">
        <ele>96.3</ele>
        <time>2022-02-06T11:51:58Z</time>
      </trkpt>
      <trkpt lat="48.71747" lon="1.97066">
        <ele>97.9</ele>
        <time>2022-02-06T11:52:02Z</time>
      </trkpt>
      <trkpt lat="48.71752" lon="1.97069">
        <ele>98.6</ele>
        <time>2022-02-06T11:52:18Z</time>
      </trkpt>
      <trkpt lat="48.71756" lon="1.9707">
        <ele>99.7</ele>
        <time>2022-02-06T11:52:23Z</time>
      </trkpt>
      <trkpt lat="48.71756" lon="1.97078">
        <ele>99.1</ele>
        <time>2022-02-06T11:52:34Z</time>
      </trkpt>
      <trkpt lat="48.71759" lon="1.97084">
        <ele>104.4</ele>
        <time>2022-02-06T11:52:51Z</time>
      </trkpt>
      <trkpt lat="48.71764" lon="1.97087">
        <ele>107.8</ele>
        <time>2022-02-06T11:52:58Z</time>
      </trkpt>
      <trkpt lat="48.71768" lon="1.97084">
        <ele>108.4</ele>
        <time>2022-02-06T11:53:02Z</time>
      </trkpt>
      <trkpt lat="48.71773" lon="1.97082">
        <ele>108.3</ele>
        <time>2022-02-06T11:53:07Z</time>
      </trkpt>
      <trkpt lat="48.71776" lon="1.97088">
        <ele>107.8</ele>
        <time>2022-02-06T11:53:16Z</time>
      </trkpt>
      <trkpt lat="48.71778" lon="1.97095">
        <ele>108</ele>
        <time>2022-02-06T11:53:24Z</time>
      </trkpt>
      <trkpt lat="48.71783" lon="1.97099">
        <ele>109.6</ele>
        <time>2022-02-06T11:53:29Z</time>
      </trkpt>
      <trkpt lat="48.71786" lon="1.97094">
        <ele>111.8</ele>
        <time>2022-02-06T11:53:33Z</time>
      </trkpt>
      <trkpt lat="48.7179" lon="1.97099">
        <ele>116.1</ele>
        <time>2022-02-06T11:53:40Z</time>
      </trkpt>
      <trkpt lat="48.71786" lon="1.97094">
        <ele>117.1</ele>
        <time>2022-02-06T11:53:52Z</time>
      </trkpt>
      <trkpt lat="48.71785" lon="1.971">
        <ele>114.3</ele>
        <time>2022-02-06T11:53:58Z</time>
      </trkpt>
      <trkpt lat="48.71786" lon="1.97107">
        <ele>111.1</ele>
        <time>2022-02-06T11:54:04Z</time>
      </trkpt>
      <trkpt lat="48.71782" lon="1.97111">
        <ele>108.9</ele>
        <time>2022-02-06T11:56:44Z</time>
      </trkpt>
      <trkpt lat="48.71777" lon="1.97117">
        <ele>108.1</ele>
        <time>2022-02-06T11:56:51Z</time>
      </trkpt>
      <trkpt lat="48.71772" lon="1.97121">
        <ele>107.7</ele>
        <time>2022-02-06T11:56:56Z</time>
      </trkpt>
      <trkpt lat="48.71767" lon="1.97124">
        <ele>107.2</ele>
        <time>2022-02-06T11:57:02Z</time>
      </trkpt>
      <trkpt lat="48.71772" lon="1.97127">
        <ele>107</ele>
        <time>2022-02-06T11:57:11Z</time>
      </trkpt>
      <trkpt lat="48.71776" lon="1.97125">
        <ele>106.2</ele>
        <time>2022-02-06T11:58:01Z</time>
      </trkpt>
      <trkpt lat="48.7178" lon="1.9712">
        <ele>105.8</ele>
        <time>2022-02-06T11:58:04Z</time>
      </trkpt>
      <trkpt lat="48.71784" lon="1.97115">
        <ele>105.7</ele>
        <time>2022-02-06T11:58:10Z</time>
      </trkpt>
      <trkpt lat="48.71787" lon="1.97109">
        <ele>106.6</ele>
        <time>2022-02-06T11:58:16Z</time>
      </trkpt>
      <trkpt lat="48.71783" lon="1.97113">
        <ele>103.2</ele>
        <time>2022-02-06T11:58:40Z</time>
      </trkpt>
      <trkpt lat="48.71788" lon="1.97111">
        <ele>109.1</ele>
        <time>2022-02-06T12:15:23Z</time>
      </trkpt>
      <trkpt lat="48.71784" lon="1.97115">
        <ele>107.6</ele>
        <time>2022-02-06T12:16:05Z</time>
      </trkpt>
      <trkpt lat="48.71788" lon="1.97119">
        <ele>105.7</ele>
        <time>2022-02-06T12:17:50Z</time>
      </trkpt>
      <trkpt lat="48.71786" lon="1.97113">
        <ele>104.3</ele>
        <time>2022-02-06T12:18:29Z</time>
      </trkpt>
      <trkpt lat="48.71784" lon="1.9712">
        <ele>108</ele>
        <time>2022-02-06T12:19:50Z</time>
      </trkpt>
      <trkpt lat="48.7178" lon="1.97127">
        <ele>106.9</ele>
        <time>2022-02-06T12:19:55Z</time>
      </trkpt>
      <trkpt lat="48.71778" lon="1.97133">
        <ele>106.6</ele>
        <time>2022-02-06T12:20:00Z</time>
      </trkpt>
      <trkpt lat="48.71777" lon="1.97141">
        <ele>106</ele>
        <time>2022-02-06T12:20:05Z</time>
      </trkpt>
      <trkpt lat="48.71777" lon="1.97148">
        <ele>105.9</ele>
        <time>2022-02-06T12:20:11Z</time>
      </trkpt>
      <trkpt lat="48.71776" lon="1.97155">
        <ele>111.8</ele>
        <time>2022-02-06T12:20:25Z</time>
      </trkpt>
      <trkpt lat="48.71772" lon="1.9716">
        <ele>117.3</ele>
        <time>2022-02-06T12:20:31Z</time>
      </trkpt>
      <trkpt lat="48.71768" lon="1.97163">
        <ele>120.8</ele>
        <time>2022-02-06T12:20:35Z</time>
      </trkpt>
      <trkpt lat="48.71768" lon="1.97171">
        <ele>120.9</ele>
        <time>2022-02-06T12:20:41Z</time>
      </trkpt>
      <trkpt lat="48.71769" lon="1.97178">
        <ele>121.4</ele>
        <time>2022-02-06T12:20:47Z</time>
      </trkpt>
      <trkpt lat="48.71768" lon="1.97184">
        <ele>122.5</ele>
        <time>2022-02-06T12:20:52Z</time>
      </trkpt>
      <trkpt lat="48.71769" lon="1.97193">
        <ele>123.5</ele>
        <time>2022-02-06T12:20:58Z</time>
      </trkpt>
      <trkpt lat="48.71771" lon="1.972">
        <ele>124.4</ele>
        <time>2022-02-06T12:21:04Z</time>
      </trkpt>
      <trkpt lat="48.71774" lon="1.97205">
        <ele>126.2</ele>
        <time>2022-02-06T12:21:10Z</time>
      </trkpt>
      <trkpt lat="48.71779" lon="1.97207">
        <ele>127.9</ele>
        <time>2022-02-06T12:21:17Z</time>
      </trkpt>
      <trkpt lat="48.71784" lon="1.97209">
        <ele>131.8</ele>
        <time>2022-02-06T12:21:26Z</time>
      </trkpt>
      <trkpt lat="48.71787" lon="1.97215">
        <ele>131.9</ele>
        <time>2022-02-06T12:21:32Z</time>
      </trkpt>
      <trkpt lat="48.7179" lon="1.9722">
        <ele>128.7</ele>
        <time>2022-02-06T12:21:38Z</time>
      </trkpt>
      <trkpt lat="48.71793" lon="1.97227">
        <ele>125.6</ele>
        <time>2022-02-06T12:22:07Z</time>
      </trkpt>
      <trkpt lat="48.71792" lon="1.97235">
        <ele>125.9</ele>
        <time>2022-02-06T12:22:14Z</time>
      </trkpt>
      <trkpt lat="48.71797" lon="1.97236">
        <ele>127.1</ele>
        <time>2022-02-06T12:22:22Z</time>
      </trkpt>
      <trkpt lat="48.71803" lon="1.97236">
        <ele>129.7</ele>
        <time>2022-02-06T12:22:29Z</time>
      </trkpt>
      <trkpt lat="48.71804" lon="1.97229">
        <ele>130.3</ele>
        <time>2022-02-06T12:22:34Z</time>
      </trkpt>
      <trkpt lat="48.71809" lon="1.97228">
        <ele>130.4</ele>
        <time>2022-02-06T12:22:40Z</time>
      </trkpt>
      <trkpt lat="48.71813" lon="1.97231">
        <ele>131.2</ele>
        <time>2022-02-06T12:22:49Z</time>
      </trkpt>
      <trkpt lat="48.71817" lon="1.97236">
        <ele>133.1</ele>
        <time>2022-02-06T12:23:11Z</time>
      </trkpt>
      <trkpt lat="48.71822" lon="1.97232">
        <ele>131.3</ele>
        <time>2022-02-06T12:23:17Z</time>
      </trkpt>
      <trkpt lat="48.71827" lon="1.97232">
        <ele>131.4</ele>
        <time>2022-02-06T12:23:24Z</time>
      </trkpt>
      <trkpt lat="48.71829" lon="1.97238">
        <ele>132.5</ele>
        <time>2022-02-06T12:23:29Z</time>
      </trkpt>
      <trkpt lat="48.71832" lon="1.97244">
        <ele>133.3</ele>
        <time>2022-02-06T12:23:36Z</time>
      </trkpt>
      <trkpt lat="48.71831" lon="1.97252">
        <ele>135</ele>
        <time>2022-02-06T12:23:43Z</time>
      </trkpt>
      <trkpt lat="48.71832" lon="1.97258">
        <ele>136</ele>
        <time>2022-02-06T12:23:49Z</time>
      </trkpt>
      <trkpt lat="48.71831" lon="1.97265">
        <ele>136.8</ele>
        <time>2022-02-06T12:23:56Z</time>
      </trkpt>
      <trkpt lat="48.71835" lon="1.97264">
        <ele>137.1</ele>
        <time>2022-02-06T12:24:04Z</time>
      </trkpt>
      <trkpt lat="48.71839" lon="1.97258">
        <ele>138.7</ele>
        <time>2022-02-06T12:24:14Z</time>
      </trkpt>
      <trkpt lat="48.71844" lon="1.97256">
        <ele>139.6</ele>
        <time>2022-02-06T12:24:20Z</time>
      </trkpt>
      <trkpt lat="48.71847" lon="1.97262">
        <ele>140.8</ele>
        <time>2022-02-06T12:24:27Z</time>
      </trkpt>
      <trkpt lat="48.71845" lon="1.97268">
        <ele>141.9</ele>
        <time>2022-02-06T12:24:34Z</time>
      </trkpt>
      <trkpt lat="48.71841" lon="1.97273">
        <ele>143.4</ele>
        <time>2022-02-06T12:24:46Z</time>
      </trkpt>
      <trkpt lat="48.71846" lon="1.97277">
        <ele>139.9</ele>
        <time>2022-02-06T12:24:51Z</time>
      </trkpt>
      <trkpt lat="48.71851" lon="1.9728">
        <ele>137.2</ele>
        <time>2022-02-06T12:24:56Z</time>
      </trkpt>
      <trkpt lat="48.71856" lon="1.97281">
        <ele>136.1</ele>
        <time>2022-02-06T12:25:00Z</time>
      </trkpt>
      <trkpt lat="48.71861" lon="1.97283">
        <ele>135.8</ele>
        <time>2022-02-06T12:25:05Z</time>
      </trkpt>
      <trkpt lat="48.71866" lon="1.97286">
        <ele>135.7</ele>
        <time>2022-02-06T12:25:11Z</time>
      </trkpt>
      <trkpt lat="48.71871" lon="1.97289">
        <ele>135.8</ele>
        <time>2022-02-06T12:25:16Z</time>
      </trkpt>
      <trkpt lat="48.71876" lon="1.97291">
        <ele>136.4</ele>
        <time>2022-02-06T12:25:20Z</time>
      </trkpt>
      <trkpt lat="48.71881" lon="1.97293">
        <ele>137.6</ele>
        <time>2022-02-06T12:25:24Z</time>
      </trkpt>
      <trkpt lat="48.71885" lon="1.97295">
        <ele>138.7</ele>
        <time>2022-02-06T12:25:28Z</time>
      </trkpt>
      <trkpt lat="48.71891" lon="1.97297">
        <ele>141.1</ele>
        <time>2022-02-06T12:25:33Z</time>
      </trkpt>
      <trkpt lat="48.71895" lon="1.973">
        <ele>144.9</ele>
        <time>2022-02-06T12:25:37Z</time>
      </trkpt>
      <trkpt lat="48.719" lon="1.97303">
        <ele>146.9</ele>
        <time>2022-02-06T12:25:42Z</time>
      </trkpt>
      <trkpt lat="48.71904" lon="1.97308">
        <ele>147.3</ele>
        <time>2022-02-06T12:25:46Z</time>
      </trkpt>
      <trkpt lat="48.71908" lon="1.97312">
        <ele>147.3</ele>
        <time>2022-02-06T12:25:50Z</time>
      </trkpt>
      <trkpt lat="48.71912" lon="1.97316">
        <ele>147.7</ele>
        <time>2022-02-06T12:25:55Z</time>
      </trkpt>
      <trkpt lat="48.71917" lon="1.9732">
        <ele>147.3</ele>
        <time>2022-02-06T12:25:59Z</time>
      </trkpt>
      <trkpt lat="48.71923" lon="1.97322">
        <ele>147.3</ele>
        <time>2022-02-06T12:26:04Z</time>
      </trkpt>
      <trkpt lat="48.71928" lon="1.97324">
        <ele>147.9</ele>
        <time>2022-02-06T12:26:08Z</time>
      </trkpt>
      <trkpt lat="48.71933" lon="1.97327">
        <ele>148.7</ele>
        <time>2022-02-06T12:26:13Z</time>
      </trkpt>
      <trkpt lat="48.71937" lon="1.97331">
        <ele>149.8</ele>
        <time>2022-02-06T12:26:16Z</time>
      </trkpt>
      <trkpt lat="48.71941" lon="1.97335">
        <ele>151.1</ele>
        <time>2022-02-06T12:26:20Z</time>
      </trkpt>
      <trkpt lat="48.71945" lon="1.97341">
        <ele>151.1</ele>
        <time>2022-02-06T12:26:25Z</time>
      </trkpt>
      <trkpt lat="48.71949" lon="1.97347">
        <ele>150.9</ele>
        <time>2022-02-06T12:26:29Z</time>
      </trkpt>
      <trkpt lat="48.71952" lon="1.97352">
        <ele>151.4</ele>
        <time>2022-02-06T12:26:33Z</time>
      </trkpt>
      <trkpt lat="48.71956" lon="1.97357">
        <ele>153.1</ele>
        <time>2022-02-06T12:26:38Z</time>
      </trkpt>
      <trkpt lat="48.7196" lon="1.97361">
        <ele>155.5</ele>
        <time>2022-02-06T12:26:42Z</time>
      </trkpt>
      <trkpt lat="48.71964" lon="1.97366">
        <ele>157.6</ele>
        <time>2022-02-06T12:26:46Z</time>
      </trkpt>
      <trkpt lat="48.71965" lon="1.97375">
        <ele>158</ele>
        <time>2022-02-06T12:26:52Z</time>
      </trkpt>
      <trkpt lat="48.71964" lon="1.97382">
        <ele>155.7</ele>
        <time>2022-02-06T12:26:57Z</time>
      </trkpt>
      <trkpt lat="48.71967" lon="1.97388">
        <ele>153.8</ele>
        <time>2022-02-06T12:27:02Z</time>
      </trkpt>
      <trkpt lat="48.71973" lon="1.9739">
        <ele>153.6</ele>
        <time>2022-02-06T12:27:05Z</time>
      </trkpt>
      <trkpt lat="48.71978" lon="1.97394">
        <ele>154.2</ele>
        <time>2022-02-06T12:27:10Z</time>
      </trkpt>
      <trkpt lat="48.71982" lon="1.97398">
        <ele>154.7</ele>
        <time>2022-02-06T12:27:13Z</time>
      </trkpt>
      <trkpt lat="48.71984" lon="1.97406">
        <ele>155.8</ele>
        <time>2022-02-06T12:27:16Z</time>
      </trkpt>
      <trkpt lat="48.71985" lon="1.97414">
        <ele>157.4</ele>
        <time>2022-02-06T12:27:20Z</time>
      </trkpt>
      <trkpt lat="48.71986" lon="1.97421">
        <ele>159.6</ele>
        <time>2022-02-06T12:27:23Z</time>
      </trkpt>
      <trkpt lat="48.7199" lon="1.97427">
        <ele>161.2</ele>
        <time>2022-02-06T12:27:27Z</time>
      </trkpt>
      <trkpt lat="48.71995" lon="1.97431">
        <ele>161.7</ele>
        <time>2022-02-06T12:27:32Z</time>
      </trkpt>
      <trkpt lat="48.71999" lon="1.97436">
        <ele>162.4</ele>
        <time>2022-02-06T12:27:36Z</time>
      </trkpt>
      <trkpt lat="48.72003" lon="1.97441">
        <ele>162.4</ele>
        <time>2022-02-06T12:27:40Z</time>
      </trkpt>
      <trkpt lat="48.72006" lon="1.97447">
        <ele>161.4</ele>
        <time>2022-02-06T12:27:45Z</time>
      </trkpt>
      <trkpt lat="48.72007" lon="1.97454">
        <ele>160.3</ele>
        <time>2022-02-06T12:27:49Z</time>
      </trkpt>
      <trkpt lat="48.72007" lon="1.97463">
        <ele>159.3</ele>
        <time>2022-02-06T12:27:53Z</time>
      </trkpt>
      <trkpt lat="48.72008" lon="1.9747">
        <ele>159.2</ele>
        <time>2022-02-06T12:27:56Z</time>
      </trkpt>
      <trkpt lat="48.72009" lon="1.97477">
        <ele>160.4</ele>
        <time>2022-02-06T12:28:00Z</time>
      </trkpt>
      <trkpt lat="48.7201" lon="1.97484">
        <ele>161.6</ele>
        <time>2022-02-06T12:28:03Z</time>
      </trkpt>
      <trkpt lat="48.72011" lon="1.97491">
        <ele>161.7</ele>
        <time>2022-02-06T12:28:07Z</time>
      </trkpt>
      <trkpt lat="48.7201" lon="1.97498">
        <ele>160.7</ele>
        <time>2022-02-06T12:28:11Z</time>
      </trkpt>
      <trkpt lat="48.72011" lon="1.97506">
        <ele>160.5</ele>
        <time>2022-02-06T12:28:15Z</time>
      </trkpt>
      <trkpt lat="48.72012" lon="1.97514">
        <ele>162</ele>
        <time>2022-02-06T12:28:19Z</time>
      </trkpt>
      <trkpt lat="48.72014" lon="1.97522">
        <ele>163.7</ele>
        <time>2022-02-06T12:28:23Z</time>
      </trkpt>
      <trkpt lat="48.72015" lon="1.97529">
        <ele>163.7</ele>
        <time>2022-02-06T12:28:27Z</time>
      </trkpt>
      <trkpt lat="48.72017" lon="1.97536">
        <ele>162.7</ele>
        <time>2022-02-06T12:28:30Z</time>
      </trkpt>
      <trkpt lat="48.72018" lon="1.97544">
        <ele>159.6</ele>
        <time>2022-02-06T12:28:34Z</time>
      </trkpt>
      <trkpt lat="48.72018" lon="1.97552">
        <ele>157.9</ele>
        <time>2022-02-06T12:28:38Z</time>
      </trkpt>
      <trkpt lat="48.72018" lon="1.97559">
        <ele>158.3</ele>
        <time>2022-02-06T12:28:42Z</time>
      </trkpt>
      <trkpt lat="48.72018" lon="1.97567">
        <ele>160.2</ele>
        <time>2022-02-06T12:28:46Z</time>
      </trkpt>
      <trkpt lat="48.72019" lon="1.97576">
        <ele>161.1</ele>
        <time>2022-02-06T12:28:51Z</time>
      </trkpt>
      <trkpt lat="48.72019" lon="1.97584">
        <ele>161.6</ele>
        <time>2022-02-06T12:28:56Z</time>
      </trkpt>
      <trkpt lat="48.7202" lon="1.97591">
        <ele>161</ele>
        <time>2022-02-06T12:28:59Z</time>
      </trkpt>
      <trkpt lat="48.72021" lon="1.97598">
        <ele>159.9</ele>
        <time>2022-02-06T12:29:02Z</time>
      </trkpt>
      <trkpt lat="48.7202" lon="1.97605">
        <ele>158.3</ele>
        <time>2022-02-06T12:29:05Z</time>
      </trkpt>
      <trkpt lat="48.72021" lon="1.97614">
        <ele>157.7</ele>
        <time>2022-02-06T12:29:09Z</time>
      </trkpt>
      <trkpt lat="48.72022" lon="1.97622">
        <ele>157.1</ele>
        <time>2022-02-06T12:29:14Z</time>
      </trkpt>
      <trkpt lat="48.72023" lon="1.9763">
        <ele>156.7</ele>
        <time>2022-02-06T12:29:18Z</time>
      </trkpt>
      <trkpt lat="48.72024" lon="1.97639">
        <ele>156</ele>
        <time>2022-02-06T12:29:22Z</time>
      </trkpt>
      <trkpt lat="48.72026" lon="1.97647">
        <ele>155.1</ele>
        <time>2022-02-06T12:29:26Z</time>
      </trkpt>
      <trkpt lat="48.72028" lon="1.97654">
        <ele>155.1</ele>
        <time>2022-02-06T12:29:31Z</time>
      </trkpt>
      <trkpt lat="48.7203" lon="1.97661">
        <ele>155.2</ele>
        <time>2022-02-06T12:29:34Z</time>
      </trkpt>
      <trkpt lat="48.72031" lon="1.97669">
        <ele>155.8</ele>
        <time>2022-02-06T12:29:38Z</time>
      </trkpt>
      <trkpt lat="48.72032" lon="1.97677">
        <ele>157.5</ele>
        <time>2022-02-06T12:29:43Z</time>
      </trkpt>
      <trkpt lat="48.72035" lon="1.97684">
        <ele>159</ele>
        <time>2022-02-06T12:29:47Z</time>
      </trkpt>
      <trkpt lat="48.72037" lon="1.97693">
        <ele>159.4</ele>
        <time>2022-02-06T12:29:52Z</time>
      </trkpt>
      <trkpt lat="48.72039" lon="1.977">
        <ele>159.6</ele>
        <time>2022-02-06T12:29:55Z</time>
      </trkpt>
      <trkpt lat="48.7204" lon="1.97708">
        <ele>160.7</ele>
        <time>2022-02-06T12:30:00Z</time>
      </trkpt>
      <trkpt lat="48.72041" lon="1.97716">
        <ele>160.8</ele>
        <time>2022-02-06T12:30:05Z</time>
      </trkpt>
      <trkpt lat="48.72041" lon="1.97723">
        <ele>160.2</ele>
        <time>2022-02-06T12:30:10Z</time>
      </trkpt>
      <trkpt lat="48.72042" lon="1.97714">
        <ele>157.1</ele>
        <time>2022-02-06T12:30:16Z</time>
      </trkpt>
      <trkpt lat="48.72041" lon="1.9772">
        <ele>159.8</ele>
        <time>2022-02-06T12:31:22Z</time>
      </trkpt>
      <trkpt lat="48.7204" lon="1.97727">
        <ele>160.7</ele>
        <time>2022-02-06T12:31:27Z</time>
      </trkpt>
      <trkpt lat="48.72038" lon="1.97735">
        <ele>161.4</ele>
        <time>2022-02-06T12:31:31Z</time>
      </trkpt>
      <trkpt lat="48.72036" lon="1.97744">
        <ele>162.8</ele>
        <time>2022-02-06T12:31:36Z</time>
      </trkpt>
      <trkpt lat="48.72035" lon="1.97752">
        <ele>164.4</ele>
        <time>2022-02-06T12:31:40Z</time>
      </trkpt>
      <trkpt lat="48.72032" lon="1.97761">
        <ele>166.3</ele>
        <time>2022-02-06T12:31:45Z</time>
      </trkpt>
      <trkpt lat="48.7203" lon="1.97767">
        <ele>166.5</ele>
        <time>2022-02-06T12:31:51Z</time>
      </trkpt>
      <trkpt lat="48.72027" lon="1.97774">
        <ele>164.6</ele>
        <time>2022-02-06T12:31:55Z</time>
      </trkpt>
      <trkpt lat="48.72025" lon="1.97782">
        <ele>163.1</ele>
        <time>2022-02-06T12:32:00Z</time>
      </trkpt>
      <trkpt lat="48.72024" lon="1.97791">
        <ele>161.7</ele>
        <time>2022-02-06T12:32:04Z</time>
      </trkpt>
      <trkpt lat="48.72022" lon="1.97799">
        <ele>161.3</ele>
        <time>2022-02-06T12:32:09Z</time>
      </trkpt>
      <trkpt lat="48.7202" lon="1.97806">
        <ele>161.8</ele>
        <time>2022-02-06T12:32:13Z</time>
      </trkpt>
      <trkpt lat="48.72019" lon="1.97812">
        <ele>162.5</ele>
        <time>2022-02-06T12:32:19Z</time>
      </trkpt>
      <trkpt lat="48.72017" lon="1.97821">
        <ele>163.3</ele>
        <time>2022-02-06T12:32:24Z</time>
      </trkpt>
      <trkpt lat="48.72015" lon="1.9783">
        <ele>163.7</ele>
        <time>2022-02-06T12:32:27Z</time>
      </trkpt>
      <trkpt lat="48.72013" lon="1.97837">
        <ele>164.4</ele>
        <time>2022-02-06T12:32:31Z</time>
      </trkpt>
      <trkpt lat="48.72013" lon="1.97844">
        <ele>165.5</ele>
        <time>2022-02-06T12:32:34Z</time>
      </trkpt>
      <trkpt lat="48.72012" lon="1.97852">
        <ele>167.1</ele>
        <time>2022-02-06T12:32:37Z</time>
      </trkpt>
      <trkpt lat="48.72012" lon="1.97859">
        <ele>168.1</ele>
        <time>2022-02-06T12:32:41Z</time>
      </trkpt>
      <trkpt lat="48.72011" lon="1.97866">
        <ele>168.3</ele>
        <time>2022-02-06T12:32:44Z</time>
      </trkpt>
      <trkpt lat="48.7201" lon="1.97875">
        <ele>167.4</ele>
        <time>2022-02-06T12:32:49Z</time>
      </trkpt>
      <trkpt lat="48.72009" lon="1.97882">
        <ele>166.9</ele>
        <time>2022-02-06T12:32:52Z</time>
      </trkpt>
      <trkpt lat="48.72008" lon="1.97889">
        <ele>166.4</ele>
        <time>2022-02-06T12:32:55Z</time>
      </trkpt>
      <trkpt lat="48.72006" lon="1.97896">
        <ele>166.3</ele>
        <time>2022-02-06T12:32:59Z</time>
      </trkpt>
      <trkpt lat="48.72005" lon="1.97903">
        <ele>166.6</ele>
        <time>2022-02-06T12:33:02Z</time>
      </trkpt>
      <trkpt lat="48.72004" lon="1.97911">
        <ele>168.2</ele>
        <time>2022-02-06T12:33:06Z</time>
      </trkpt>
      <trkpt lat="48.72003" lon="1.97919">
        <ele>170.1</ele>
        <time>2022-02-06T12:33:11Z</time>
      </trkpt>
      <trkpt lat="48.72003" lon="1.97927">
        <ele>170.4</ele>
        <time>2022-02-06T12:33:14Z</time>
      </trkpt>
      <trkpt lat="48.72002" lon="1.97934">
        <ele>169.5</ele>
        <time>2022-02-06T12:33:18Z</time>
      </trkpt>
      <trkpt lat="48.72001" lon="1.9794">
        <ele>168.2</ele>
        <time>2022-02-06T12:33:21Z</time>
      </trkpt>
      <trkpt lat="48.72" lon="1.97949">
        <ele>167.8</ele>
        <time>2022-02-06T12:33:26Z</time>
      </trkpt>
      <trkpt lat="48.72" lon="1.97956">
        <ele>168</ele>
        <time>2022-02-06T12:33:30Z</time>
      </trkpt>
      <trkpt lat="48.72" lon="1.97964">
        <ele>168.1</ele>
        <time>2022-02-06T12:33:34Z</time>
      </trkpt>
      <trkpt lat="48.72001" lon="1.97973">
        <ele>168.1</ele>
        <time>2022-02-06T12:33:38Z</time>
      </trkpt>
      <trkpt lat="48.72001" lon="1.9798">
        <ele>167.9</ele>
        <time>2022-02-06T12:33:41Z</time>
      </trkpt>
      <trkpt lat="48.72001" lon="1.97987">
        <ele>167.5</ele>
        <time>2022-02-06T12:33:44Z</time>
      </trkpt>
      <trkpt lat="48.72001" lon="1.97994">
        <ele>166.5</ele>
        <time>2022-02-06T12:33:47Z</time>
      </trkpt>
      <trkpt lat="48.72002" lon="1.98002">
        <ele>165.3</ele>
        <time>2022-02-06T12:33:51Z</time>
      </trkpt>
      <trkpt lat="48.72002" lon="1.98009">
        <ele>164.8</ele>
        <time>2022-02-06T12:33:55Z</time>
      </trkpt>
      <trkpt lat="48.72003" lon="1.98017">
        <ele>164</ele>
        <time>2022-02-06T12:33:59Z</time>
      </trkpt>
      <trkpt lat="48.72004" lon="1.98025">
        <ele>162.8</ele>
        <time>2022-02-06T12:34:05Z</time>
      </trkpt>
      <trkpt lat="48.72004" lon="1.98033">
        <ele>161.5</ele>
        <time>2022-02-06T12:34:10Z</time>
      </trkpt>
      <trkpt lat="48.72003" lon="1.9804">
        <ele>161.3</ele>
        <time>2022-02-06T12:34:16Z</time>
      </trkpt>
      <trkpt lat="48.72001" lon="1.98048">
        <ele>161.5</ele>
        <time>2022-02-06T12:34:20Z</time>
      </trkpt>
      <trkpt lat="48.71999" lon="1.98056">
        <ele>161.4</ele>
        <time>2022-02-06T12:34:24Z</time>
      </trkpt>
      <trkpt lat="48.71997" lon="1.98062">
        <ele>161.8</ele>
        <time>2022-02-06T12:34:28Z</time>
      </trkpt>
      <trkpt lat="48.71995" lon="1.98071">
        <ele>162.7</ele>
        <time>2022-02-06T12:34:31Z</time>
      </trkpt>
      <trkpt lat="48.71992" lon="1.98079">
        <ele>163.9</ele>
        <time>2022-02-06T12:34:35Z</time>
      </trkpt>
      <trkpt lat="48.71989" lon="1.98085">
        <ele>164.8</ele>
        <time>2022-02-06T12:34:39Z</time>
      </trkpt>
      <trkpt lat="48.71987" lon="1.98093">
        <ele>165.6</ele>
        <time>2022-02-06T12:34:42Z</time>
      </trkpt>
      <trkpt lat="48.71985" lon="1.981">
        <ele>165.3</ele>
        <time>2022-02-06T12:34:45Z</time>
      </trkpt>
      <trkpt lat="48.71984" lon="1.98107">
        <ele>164.5</ele>
        <time>2022-02-06T12:34:48Z</time>
      </trkpt>
      <trkpt lat="48.71982" lon="1.98115">
        <ele>164.2</ele>
        <time>2022-02-06T12:34:52Z</time>
      </trkpt>
      <trkpt lat="48.71981" lon="1.98123">
        <ele>164.2</ele>
        <time>2022-02-06T12:34:56Z</time>
      </trkpt>
      <trkpt lat="48.7198" lon="1.9813">
        <ele>164.9</ele>
        <time>2022-02-06T12:34:59Z</time>
      </trkpt>
      <trkpt lat="48.71982" lon="1.98137">
        <ele>165.6</ele>
        <time>2022-02-06T12:35:02Z</time>
      </trkpt>
      <trkpt lat="48.71983" lon="1.98145">
        <ele>166</ele>
        <time>2022-02-06T12:35:06Z</time>
      </trkpt>
      <trkpt lat="48.71983" lon="1.98152">
        <ele>165.6</ele>
        <time>2022-02-06T12:35:09Z</time>
      </trkpt>
      <trkpt lat="48.71982" lon="1.98159">
        <ele>164.6</ele>
        <time>2022-02-06T12:35:13Z</time>
      </trkpt>
      <trkpt lat="48.71981" lon="1.98167">
        <ele>163.7</ele>
        <time>2022-02-06T12:35:18Z</time>
      </trkpt>
      <trkpt lat="48.71979" lon="1.98174">
        <ele>163</ele>
        <time>2022-02-06T12:35:22Z</time>
      </trkpt>
      <trkpt lat="48.71976" lon="1.9818">
        <ele>162.2</ele>
        <time>2022-02-06T12:35:26Z</time>
      </trkpt>
      <trkpt lat="48.71979" lon="1.98188">
        <ele>160.7</ele>
        <time>2022-02-06T12:35:35Z</time>
      </trkpt>
      <trkpt lat="48.71979" lon="1.98195">
        <ele>160</ele>
        <time>2022-02-06T12:35:38Z</time>
      </trkpt>
      <trkpt lat="48.71977" lon="1.98201">
        <ele>159.5</ele>
        <time>2022-02-06T12:35:42Z</time>
      </trkpt>
      <trkpt lat="48.71973" lon="1.98206">
        <ele>159.1</ele>
        <time>2022-02-06T12:35:45Z</time>
      </trkpt>
      <trkpt lat="48.71969" lon="1.98211">
        <ele>159.4</ele>
        <time>2022-02-06T12:35:50Z</time>
      </trkpt>
      <trkpt lat="48.71966" lon="1.98216">
        <ele>160.3</ele>
        <time>2022-02-06T12:35:55Z</time>
      </trkpt>
      <trkpt lat="48.71961" lon="1.98219">
        <ele>160.3</ele>
        <time>2022-02-06T12:36:00Z</time>
      </trkpt>
      <trkpt lat="48.71957" lon="1.98225">
        <ele>159.4</ele>
        <time>2022-02-06T12:36:04Z</time>
      </trkpt>
      <trkpt lat="48.71953" lon="1.9823">
        <ele>159.2</ele>
        <time>2022-02-06T12:36:09Z</time>
      </trkpt>
      <trkpt lat="48.7195" lon="1.98236">
        <ele>159.4</ele>
        <time>2022-02-06T12:36:12Z</time>
      </trkpt>
      <trkpt lat="48.71947" lon="1.98241">
        <ele>159.7</ele>
        <time>2022-02-06T12:36:15Z</time>
      </trkpt>
      <trkpt lat="48.71944" lon="1.98248">
        <ele>160</ele>
        <time>2022-02-06T12:36:19Z</time>
      </trkpt>
      <trkpt lat="48.71941" lon="1.98255">
        <ele>160.1</ele>
        <time>2022-02-06T12:36:24Z</time>
      </trkpt>
      <trkpt lat="48.71937" lon="1.98262">
        <ele>160</ele>
        <time>2022-02-06T12:36:28Z</time>
      </trkpt>
      <trkpt lat="48.71933" lon="1.98268">
        <ele>159.8</ele>
        <time>2022-02-06T12:36:33Z</time>
      </trkpt>
      <trkpt lat="48.7193" lon="1.98275">
        <ele>159.9</ele>
        <time>2022-02-06T12:36:37Z</time>
      </trkpt>
      <trkpt lat="48.71928" lon="1.98281">
        <ele>160</ele>
        <time>2022-02-06T12:36:40Z</time>
      </trkpt>
      <trkpt lat="48.71925" lon="1.98288">
        <ele>160.2</ele>
        <time>2022-02-06T12:36:44Z</time>
      </trkpt>
      <trkpt lat="48.71922" lon="1.98293">
        <ele>160.2</ele>
        <time>2022-02-06T12:36:48Z</time>
      </trkpt>
      <trkpt lat="48.71918" lon="1.98298">
        <ele>160.2</ele>
        <time>2022-02-06T12:36:51Z</time>
      </trkpt>
      <trkpt lat="48.71913" lon="1.98305">
        <ele>160.1</ele>
        <time>2022-02-06T12:36:56Z</time>
      </trkpt>
      <trkpt lat="48.7191" lon="1.98311">
        <ele>160.2</ele>
        <time>2022-02-06T12:37:01Z</time>
      </trkpt>
      <trkpt lat="48.71908" lon="1.98317">
        <ele>160.3</ele>
        <time>2022-02-06T12:37:04Z</time>
      </trkpt>
      <trkpt lat="48.71905" lon="1.98323">
        <ele>160.5</ele>
        <time>2022-02-06T12:37:07Z</time>
      </trkpt>
      <trkpt lat="48.71904" lon="1.98331">
        <ele>160.9</ele>
        <time>2022-02-06T12:37:12Z</time>
      </trkpt>
      <trkpt lat="48.71901" lon="1.98336">
        <ele>160.1</ele>
        <time>2022-02-06T12:37:16Z</time>
      </trkpt>
      <trkpt lat="48.71897" lon="1.98343">
        <ele>158.3</ele>
        <time>2022-02-06T12:37:22Z</time>
      </trkpt>
      <trkpt lat="48.71893" lon="1.98349">
        <ele>158.3</ele>
        <time>2022-02-06T12:37:26Z</time>
      </trkpt>
      <trkpt lat="48.7189" lon="1.98355">
        <ele>158.4</ele>
        <time>2022-02-06T12:37:30Z</time>
      </trkpt>
      <trkpt lat="48.71888" lon="1.98361">
        <ele>158.8</ele>
        <time>2022-02-06T12:37:34Z</time>
      </trkpt>
      <trkpt lat="48.71885" lon="1.9837">
        <ele>159.3</ele>
        <time>2022-02-06T12:37:37Z</time>
      </trkpt>
      <trkpt lat="48.71882" lon="1.98377">
        <ele>160.3</ele>
        <time>2022-02-06T12:37:39Z</time>
      </trkpt>
      <trkpt lat="48.71879" lon="1.98386">
        <ele>162</ele>
        <time>2022-02-06T12:37:42Z</time>
      </trkpt>
      <trkpt lat="48.71874" lon="1.98396">
        <ele>163.9</ele>
        <time>2022-02-06T12:37:45Z</time>
      </trkpt>
      <trkpt lat="48.7187" lon="1.98404">
        <ele>165.8</ele>
        <time>2022-02-06T12:37:47Z</time>
      </trkpt>
      <trkpt lat="48.71867" lon="1.98409">
        <ele>167.3</ele>
        <time>2022-02-06T12:37:50Z</time>
      </trkpt>
      <trkpt lat="48.71863" lon="1.98415">
        <ele>168.8</ele>
        <time>2022-02-06T12:37:53Z</time>
      </trkpt>
      <trkpt lat="48.7186" lon="1.98421">
        <ele>169</ele>
        <time>2022-02-06T12:37:56Z</time>
      </trkpt>
      <trkpt lat="48.71855" lon="1.98422">
        <ele>167.1</ele>
        <time>2022-02-06T12:38:01Z</time>
      </trkpt>
      <trkpt lat="48.7185" lon="1.98425">
        <ele>166.7</ele>
        <time>2022-02-06T12:38:06Z</time>
      </trkpt>
      <trkpt lat="48.71846" lon="1.98427">
        <ele>167.4</ele>
        <time>2022-02-06T12:38:09Z</time>
      </trkpt>
      <trkpt lat="48.71841" lon="1.98431">
        <ele>168.5</ele>
        <time>2022-02-06T12:38:14Z</time>
      </trkpt>
      <trkpt lat="48.71841" lon="1.98441">
        <ele>168</ele>
        <time>2022-02-06T12:38:28Z</time>
      </trkpt>
      <trkpt lat="48.71835" lon="1.98442">
        <ele>158.9</ele>
        <time>2022-02-06T12:38:38Z</time>
      </trkpt>
      <trkpt lat="48.71831" lon="1.98447">
        <ele>159.8</ele>
        <time>2022-02-06T12:38:40Z</time>
      </trkpt>
      <trkpt lat="48.71827" lon="1.98452">
        <ele>161.3</ele>
        <time>2022-02-06T12:38:42Z</time>
      </trkpt>
      <trkpt lat="48.71824" lon="1.9846">
        <ele>162.7</ele>
        <time>2022-02-06T12:38:46Z</time>
      </trkpt>
      <trkpt lat="48.71821" lon="1.98467">
        <ele>162.7</ele>
        <time>2022-02-06T12:38:48Z</time>
      </trkpt>
      <trkpt lat="48.71818" lon="1.98473">
        <ele>161.7</ele>
        <time>2022-02-06T12:38:52Z</time>
      </trkpt>
      <trkpt lat="48.71816" lon="1.9848">
        <ele>159.5</ele>
        <time>2022-02-06T12:38:56Z</time>
      </trkpt>
      <trkpt lat="48.71814" lon="1.98488">
        <ele>158.2</ele>
        <time>2022-02-06T12:39:01Z</time>
      </trkpt>
      <trkpt lat="48.71813" lon="1.98494">
        <ele>157.9</ele>
        <time>2022-02-06T12:39:04Z</time>
      </trkpt>
      <trkpt lat="48.71812" lon="1.98501">
        <ele>157.6</ele>
        <time>2022-02-06T12:39:08Z</time>
      </trkpt>
      <trkpt lat="48.71809" lon="1.98507">
        <ele>157.6</ele>
        <time>2022-02-06T12:39:11Z</time>
      </trkpt>
      <trkpt lat="48.71807" lon="1.98514">
        <ele>157.3</ele>
        <time>2022-02-06T12:39:16Z</time>
      </trkpt>
      <trkpt lat="48.71804" lon="1.98521">
        <ele>157.7</ele>
        <time>2022-02-06T12:39:19Z</time>
      </trkpt>
      <trkpt lat="48.718" lon="1.98529">
        <ele>158.2</ele>
        <time>2022-02-06T12:39:24Z</time>
      </trkpt>
      <trkpt lat="48.71796" lon="1.98535">
        <ele>158.6</ele>
        <time>2022-02-06T12:39:27Z</time>
      </trkpt>
      <trkpt lat="48.71793" lon="1.98542">
        <ele>158.8</ele>
        <time>2022-02-06T12:39:31Z</time>
      </trkpt>
      <trkpt lat="48.7179" lon="1.98549">
        <ele>158.8</ele>
        <time>2022-02-06T12:39:35Z</time>
      </trkpt>
      <trkpt lat="48.71787" lon="1.98555">
        <ele>158.7</ele>
        <time>2022-02-06T12:39:39Z</time>
      </trkpt>
      <trkpt lat="48.71783" lon="1.98562">
        <ele>159</ele>
        <time>2022-02-06T12:39:43Z</time>
      </trkpt>
      <trkpt lat="48.71778" lon="1.9857">
        <ele>159.7</ele>
        <time>2022-02-06T12:39:49Z</time>
      </trkpt>
      <trkpt lat="48.71774" lon="1.98575">
        <ele>159.7</ele>
        <time>2022-02-06T12:39:53Z</time>
      </trkpt>
      <trkpt lat="48.71772" lon="1.98581">
        <ele>159.6</ele>
        <time>2022-02-06T12:39:56Z</time>
      </trkpt>
      <trkpt lat="48.71768" lon="1.98588">
        <ele>159.3</ele>
        <time>2022-02-06T12:40:00Z</time>
      </trkpt>
      <trkpt lat="48.71765" lon="1.98594">
        <ele>159.3</ele>
        <time>2022-02-06T12:40:04Z</time>
      </trkpt>
      <trkpt lat="48.71761" lon="1.986">
        <ele>159.3</ele>
        <time>2022-02-06T12:40:08Z</time>
      </trkpt>
      <trkpt lat="48.71757" lon="1.98606">
        <ele>159.3</ele>
        <time>2022-02-06T12:40:13Z</time>
      </trkpt>
      <trkpt lat="48.71754" lon="1.98613">
        <ele>158.9</ele>
        <time>2022-02-06T12:40:18Z</time>
      </trkpt>
      <trkpt lat="48.71752" lon="1.98619">
        <ele>158.5</ele>
        <time>2022-02-06T12:40:21Z</time>
      </trkpt>
      <trkpt lat="48.71748" lon="1.98625">
        <ele>158.3</ele>
        <time>2022-02-06T12:40:25Z</time>
      </trkpt>
      <trkpt lat="48.71744" lon="1.98632">
        <ele>158.5</ele>
        <time>2022-02-06T12:40:29Z</time>
      </trkpt>
      <trkpt lat="48.7174" lon="1.98638">
        <ele>158.9</ele>
        <time>2022-02-06T12:40:34Z</time>
      </trkpt>
      <trkpt lat="48.71737" lon="1.98645">
        <ele>159.2</ele>
        <time>2022-02-06T12:40:38Z</time>
      </trkpt>
      <trkpt lat="48.71733" lon="1.98651">
        <ele>159.5</ele>
        <time>2022-02-06T12:40:42Z</time>
      </trkpt>
      <trkpt lat="48.7173" lon="1.98657">
        <ele>159.4</ele>
        <time>2022-02-06T12:40:46Z</time>
      </trkpt>
      <trkpt lat="48.71726" lon="1.98663">
        <ele>159</ele>
        <time>2022-02-06T12:40:49Z</time>
      </trkpt>
      <trkpt lat="48.71722" lon="1.98669">
        <ele>158.7</ele>
        <time>2022-02-06T12:40:53Z</time>
      </trkpt>
      <trkpt lat="48.71719" lon="1.98675">
        <ele>158.6</ele>
        <time>2022-02-06T12:40:57Z</time>
      </trkpt>
      <trkpt lat="48.71713" lon="1.98689">
        <ele>158.7</ele>
        <time>2022-02-06T12:41:06Z</time>
      </trkpt>
      <trkpt lat="48.7171" lon="1.98696">
        <ele>158.7</ele>
        <time>2022-02-06T12:41:09Z</time>
      </trkpt>
      <trkpt lat="48.71705" lon="1.98707">
        <ele>158.8</ele>
        <time>2022-02-06T12:41:16Z</time>
      </trkpt>
      <trkpt lat="48.71701" lon="1.98714">
        <ele>159</ele>
        <time>2022-02-06T12:41:20Z</time>
      </trkpt>
      <trkpt lat="48.7168" lon="1.98752">
        <ele>159.7</ele>
        <time>2022-02-06T12:41:45Z</time>
      </trkpt>
      <trkpt lat="48.71677" lon="1.98758">
        <ele>159.8</ele>
        <time>2022-02-06T12:41:49Z</time>
      </trkpt>
      <trkpt lat="48.71674" lon="1.98764">
        <ele>159.9</ele>
        <time>2022-02-06T12:41:52Z</time>
      </trkpt>
      <trkpt lat="48.71671" lon="1.9877">
        <ele>159.8</ele>
        <time>2022-02-06T12:41:56Z</time>
      </trkpt>
      <trkpt lat="48.71668" lon="1.98776">
        <ele>159.8</ele>
        <time>2022-02-06T12:41:59Z</time>
      </trkpt>
      <trkpt lat="48.71665" lon="1.98781">
        <ele>159.8</ele>
        <time>2022-02-06T12:42:03Z</time>
      </trkpt>
      <trkpt lat="48.71661" lon="1.98786">
        <ele>160.4</ele>
        <time>2022-02-06T12:42:06Z</time>
      </trkpt>
      <trkpt lat="48.71658" lon="1.98791">
        <ele>160.7</ele>
        <time>2022-02-06T12:42:10Z</time>
      </trkpt>
      <trkpt lat="48.71655" lon="1.98797">
        <ele>160.8</ele>
        <time>2022-02-06T12:42:13Z</time>
      </trkpt>
      <trkpt lat="48.71651" lon="1.98803">
        <ele>160.5</ele>
        <time>2022-02-06T12:42:17Z</time>
      </trkpt>
      <trkpt lat="48.71647" lon="1.98809">
        <ele>160.5</ele>
        <time>2022-02-06T12:42:22Z</time>
      </trkpt>
      <trkpt lat="48.71644" lon="1.98815">
        <ele>160.5</ele>
        <time>2022-02-06T12:42:26Z</time>
      </trkpt>
      <trkpt lat="48.71641" lon="1.9882">
        <ele>160.6</ele>
        <time>2022-02-06T12:42:29Z</time>
      </trkpt>
      <trkpt lat="48.71639" lon="1.98827">
        <ele>160.4</ele>
        <time>2022-02-06T12:42:33Z</time>
      </trkpt>
      <trkpt lat="48.71636" lon="1.98835">
        <ele>159.9</ele>
        <time>2022-02-06T12:42:38Z</time>
      </trkpt>
      <trkpt lat="48.71634" lon="1.98842">
        <ele>159.7</ele>
        <time>2022-02-06T12:42:41Z</time>
      </trkpt>
      <trkpt lat="48.71621" lon="1.98886">
        <ele>160.3</ele>
        <time>2022-02-06T12:43:05Z</time>
      </trkpt>
      <trkpt lat="48.71619" lon="1.98892">
        <ele>160.3</ele>
        <time>2022-02-06T12:43:08Z</time>
      </trkpt>
      <trkpt lat="48.71616" lon="1.98914">
        <ele>160.1</ele>
        <time>2022-02-06T12:43:19Z</time>
      </trkpt>
      <trkpt lat="48.71615" lon="1.98922">
        <ele>160.4</ele>
        <time>2022-02-06T12:43:23Z</time>
      </trkpt>
      <trkpt lat="48.71615" lon="1.98929">
        <ele>160.4</ele>
        <time>2022-02-06T12:43:27Z</time>
      </trkpt>
      <trkpt lat="48.71613" lon="1.98936">
        <ele>160.1</ele>
        <time>2022-02-06T12:43:30Z</time>
      </trkpt>
      <trkpt lat="48.71612" lon="1.98944">
        <ele>159.4</ele>
        <time>2022-02-06T12:43:34Z</time>
      </trkpt>
      <trkpt lat="48.7161" lon="1.98952">
        <ele>158.7</ele>
        <time>2022-02-06T12:43:39Z</time>
      </trkpt>
      <trkpt lat="48.71609" lon="1.98958">
        <ele>158.5</ele>
        <time>2022-02-06T12:43:42Z</time>
      </trkpt>
      <trkpt lat="48.71608" lon="1.98966">
        <ele>158.5</ele>
        <time>2022-02-06T12:43:47Z</time>
      </trkpt>
      <trkpt lat="48.71607" lon="1.98973">
        <ele>158.7</ele>
        <time>2022-02-06T12:43:50Z</time>
      </trkpt>
      <trkpt lat="48.71605" lon="1.9898">
        <ele>159</ele>
        <time>2022-02-06T12:43:53Z</time>
      </trkpt>
      <trkpt lat="48.71607" lon="1.98974">
        <ele>157.5</ele>
        <time>2022-02-06T12:44:59Z</time>
      </trkpt>
      <trkpt lat="48.71605" lon="1.98982">
        <ele>155.3</ele>
        <time>2022-02-06T12:45:41Z</time>
      </trkpt>
      <trkpt lat="48.71603" lon="1.98989">
        <ele>154.9</ele>
        <time>2022-02-06T12:45:44Z</time>
      </trkpt>
      <trkpt lat="48.71601" lon="1.98995">
        <ele>154.6</ele>
        <time>2022-02-06T12:45:47Z</time>
      </trkpt>
      <trkpt lat="48.71598" lon="1.99002">
        <ele>154.6</ele>
        <time>2022-02-06T12:45:52Z</time>
      </trkpt>
      <trkpt lat="48.71596" lon="1.9901">
        <ele>154.7</ele>
        <time>2022-02-06T12:45:55Z</time>
      </trkpt>
      <trkpt lat="48.71595" lon="1.99018">
        <ele>155.5</ele>
        <time>2022-02-06T12:45:58Z</time>
      </trkpt>
      <trkpt lat="48.71594" lon="1.99025">
        <ele>156.1</ele>
        <time>2022-02-06T12:46:01Z</time>
      </trkpt>
      <trkpt lat="48.71593" lon="1.99033">
        <ele>157.1</ele>
        <time>2022-02-06T12:46:04Z</time>
      </trkpt>
      <trkpt lat="48.71591" lon="1.99042">
        <ele>157.7</ele>
        <time>2022-02-06T12:46:09Z</time>
      </trkpt>
      <trkpt lat="48.7159" lon="1.99049">
        <ele>157.9</ele>
        <time>2022-02-06T12:46:13Z</time>
      </trkpt>
      <trkpt lat="48.71589" lon="1.99056">
        <ele>157.6</ele>
        <time>2022-02-06T12:46:17Z</time>
      </trkpt>
      <trkpt lat="48.71579" lon="1.99097">
        <ele>157.2</ele>
        <time>2022-02-06T12:46:39Z</time>
      </trkpt>
      <trkpt lat="48.71577" lon="1.99104">
        <ele>159.2</ele>
        <time>2022-02-06T12:46:43Z</time>
      </trkpt>
      <trkpt lat="48.71575" lon="1.99113">
        <ele>161.2</ele>
        <time>2022-02-06T12:46:46Z</time>
      </trkpt>
      <trkpt lat="48.71573" lon="1.9912">
        <ele>161.9</ele>
        <time>2022-02-06T12:46:50Z</time>
      </trkpt>
      <trkpt lat="48.71571" lon="1.99127">
        <ele>161.9</ele>
        <time>2022-02-06T12:46:53Z</time>
      </trkpt>
      <trkpt lat="48.71569" lon="1.99133">
        <ele>162.4</ele>
        <time>2022-02-06T12:46:56Z</time>
      </trkpt>
      <trkpt lat="48.71568" lon="1.9914">
        <ele>162.8</ele>
        <time>2022-02-06T12:47:03Z</time>
      </trkpt>
      <trkpt lat="48.71566" lon="1.99147">
        <ele>162.6</ele>
        <time>2022-02-06T12:47:06Z</time>
      </trkpt>
      <trkpt lat="48.71563" lon="1.99154">
        <ele>162.2</ele>
        <time>2022-02-06T12:47:09Z</time>
      </trkpt>
      <trkpt lat="48.71561" lon="1.99161">
        <ele>161.5</ele>
        <time>2022-02-06T12:47:14Z</time>
      </trkpt>
      <trkpt lat="48.71559" lon="1.99168">
        <ele>160.9</ele>
        <time>2022-02-06T12:47:17Z</time>
      </trkpt>
      <trkpt lat="48.71556" lon="1.99175">
        <ele>160.6</ele>
        <time>2022-02-06T12:47:21Z</time>
      </trkpt>
      <trkpt lat="48.71553" lon="1.9918">
        <ele>160.7</ele>
        <time>2022-02-06T12:47:24Z</time>
      </trkpt>
      <trkpt lat="48.7155" lon="1.99188">
        <ele>160.8</ele>
        <time>2022-02-06T12:47:28Z</time>
      </trkpt>
      <trkpt lat="48.71548" lon="1.99194">
        <ele>160.8</ele>
        <time>2022-02-06T12:47:32Z</time>
      </trkpt>
      <trkpt lat="48.71546" lon="1.99201">
        <ele>160.6</ele>
        <time>2022-02-06T12:47:35Z</time>
      </trkpt>
      <trkpt lat="48.71543" lon="1.99208">
        <ele>160.1</ele>
        <time>2022-02-06T12:47:39Z</time>
      </trkpt>
      <trkpt lat="48.7154" lon="1.99215">
        <ele>159.3</ele>
        <time>2022-02-06T12:47:43Z</time>
      </trkpt>
      <trkpt lat="48.71537" lon="1.99223">
        <ele>159</ele>
        <time>2022-02-06T12:47:48Z</time>
      </trkpt>
      <trkpt lat="48.71534" lon="1.99229">
        <ele>159.3</ele>
        <time>2022-02-06T12:47:51Z</time>
      </trkpt>
      <trkpt lat="48.71532" lon="1.99236">
        <ele>159.3</ele>
        <time>2022-02-06T12:47:55Z</time>
      </trkpt>
      <trkpt lat="48.71529" lon="1.99242">
        <ele>159.1</ele>
        <time>2022-02-06T12:47:59Z</time>
      </trkpt>
      <trkpt lat="48.71527" lon="1.99249">
        <ele>159.1</ele>
        <time>2022-02-06T12:48:04Z</time>
      </trkpt>
      <trkpt lat="48.71526" lon="1.99256">
        <ele>159.3</ele>
        <time>2022-02-06T12:48:07Z</time>
      </trkpt>
      <trkpt lat="48.71523" lon="1.99264">
        <ele>159.4</ele>
        <time>2022-02-06T12:48:11Z</time>
      </trkpt>
      <trkpt lat="48.71521" lon="1.9927">
        <ele>159.3</ele>
        <time>2022-02-06T12:48:14Z</time>
      </trkpt>
      <trkpt lat="48.71518" lon="1.99277">
        <ele>158.9</ele>
        <time>2022-02-06T12:48:18Z</time>
      </trkpt>
      <trkpt lat="48.71515" lon="1.99282">
        <ele>158.3</ele>
        <time>2022-02-06T12:48:27Z</time>
      </trkpt>
      <trkpt lat="48.71513" lon="1.9929">
        <ele>157.9</ele>
        <time>2022-02-06T12:48:31Z</time>
      </trkpt>
      <trkpt lat="48.71512" lon="1.99299">
        <ele>157.4</ele>
        <time>2022-02-06T12:48:36Z</time>
      </trkpt>
      <trkpt lat="48.7151" lon="1.99306">
        <ele>157.3</ele>
        <time>2022-02-06T12:48:39Z</time>
      </trkpt>
      <trkpt lat="48.71508" lon="1.99314">
        <ele>157.6</ele>
        <time>2022-02-06T12:48:43Z</time>
      </trkpt>
      <trkpt lat="48.71507" lon="1.99321">
        <ele>157.7</ele>
        <time>2022-02-06T12:48:46Z</time>
      </trkpt>
      <trkpt lat="48.71505" lon="1.99329">
        <ele>157.9</ele>
        <time>2022-02-06T12:48:51Z</time>
      </trkpt>
      <trkpt lat="48.71503" lon="1.99337">
        <ele>158.2</ele>
        <time>2022-02-06T12:48:55Z</time>
      </trkpt>
      <trkpt lat="48.71501" lon="1.99343">
        <ele>158.3</ele>
        <time>2022-02-06T12:48:58Z</time>
      </trkpt>
      <trkpt lat="48.715" lon="1.9935">
        <ele>158</ele>
        <time>2022-02-06T12:49:01Z</time>
      </trkpt>
      <trkpt lat="48.71499" lon="1.99358">
        <ele>157.1</ele>
        <time>2022-02-06T12:49:05Z</time>
      </trkpt>
      <trkpt lat="48.71496" lon="1.99366">
        <ele>156.3</ele>
        <time>2022-02-06T12:49:10Z</time>
      </trkpt>
      <trkpt lat="48.71494" lon="1.99373">
        <ele>156.3</ele>
        <time>2022-02-06T12:49:13Z</time>
      </trkpt>
      <trkpt lat="48.71491" lon="1.9938">
        <ele>157.3</ele>
        <time>2022-02-06T12:49:17Z</time>
      </trkpt>
      <trkpt lat="48.7149" lon="1.99388">
        <ele>157.9</ele>
        <time>2022-02-06T12:49:21Z</time>
      </trkpt>
      <trkpt lat="48.71489" lon="1.99395">
        <ele>158.1</ele>
        <time>2022-02-06T12:49:25Z</time>
      </trkpt>
      <trkpt lat="48.71487" lon="1.99402">
        <ele>159.1</ele>
        <time>2022-02-06T12:49:28Z</time>
      </trkpt>
      <trkpt lat="48.71487" lon="1.99411">
        <ele>159.5</ele>
        <time>2022-02-06T12:49:33Z</time>
      </trkpt>
      <trkpt lat="48.71485" lon="1.9942">
        <ele>158.4</ele>
        <time>2022-02-06T12:49:37Z</time>
      </trkpt>
      <trkpt lat="48.71485" lon="1.99427">
        <ele>157.5</ele>
        <time>2022-02-06T12:49:41Z</time>
      </trkpt>
      <trkpt lat="48.71486" lon="1.99435">
        <ele>156.6</ele>
        <time>2022-02-06T12:49:44Z</time>
      </trkpt>
      <trkpt lat="48.71485" lon="1.99443">
        <ele>156.1</ele>
        <time>2022-02-06T12:49:48Z</time>
      </trkpt>
      <trkpt lat="48.71485" lon="1.9945">
        <ele>156</ele>
        <time>2022-02-06T12:49:52Z</time>
      </trkpt>
      <trkpt lat="48.71485" lon="1.99459">
        <ele>156.2</ele>
        <time>2022-02-06T12:49:55Z</time>
      </trkpt>
      <trkpt lat="48.71484" lon="1.99467">
        <ele>155.7</ele>
        <time>2022-02-06T12:50:00Z</time>
      </trkpt>
      <trkpt lat="48.71481" lon="1.99489">
        <ele>154.3</ele>
        <time>2022-02-06T12:50:12Z</time>
      </trkpt>
      <trkpt lat="48.71479" lon="1.99497">
        <ele>154.4</ele>
        <time>2022-02-06T12:50:15Z</time>
      </trkpt>
      <trkpt lat="48.71478" lon="1.99504">
        <ele>154.6</ele>
        <time>2022-02-06T12:50:19Z</time>
      </trkpt>
      <trkpt lat="48.71476" lon="1.99513">
        <ele>155.3</ele>
        <time>2022-02-06T12:50:22Z</time>
      </trkpt>
      <trkpt lat="48.71475" lon="1.9952">
        <ele>155.8</ele>
        <time>2022-02-06T12:50:26Z</time>
      </trkpt>
      <trkpt lat="48.71473" lon="1.99527">
        <ele>156.7</ele>
        <time>2022-02-06T12:50:29Z</time>
      </trkpt>
      <trkpt lat="48.71471" lon="1.99534">
        <ele>158.5</ele>
        <time>2022-02-06T12:50:33Z</time>
      </trkpt>
      <trkpt lat="48.7147" lon="1.99541">
        <ele>158.8</ele>
        <time>2022-02-06T12:50:36Z</time>
      </trkpt>
      <trkpt lat="48.71468" lon="1.99547">
        <ele>158.2</ele>
        <time>2022-02-06T12:50:40Z</time>
      </trkpt>
      <trkpt lat="48.71467" lon="1.99554">
        <ele>157.6</ele>
        <time>2022-02-06T12:50:43Z</time>
      </trkpt>
      <trkpt lat="48.71466" lon="1.99562">
        <ele>157.4</ele>
        <time>2022-02-06T12:50:47Z</time>
      </trkpt>
      <trkpt lat="48.71465" lon="1.9957">
        <ele>158</ele>
        <time>2022-02-06T12:50:51Z</time>
      </trkpt>
      <trkpt lat="48.71464" lon="1.99578">
        <ele>158.2</ele>
        <time>2022-02-06T12:50:55Z</time>
      </trkpt>
      <trkpt lat="48.71463" lon="1.99584">
        <ele>158.3</ele>
        <time>2022-02-06T12:50:59Z</time>
      </trkpt>
      <trkpt lat="48.71461" lon="1.99592">
        <ele>158</ele>
        <time>2022-02-06T12:51:03Z</time>
      </trkpt>
      <trkpt lat="48.71459" lon="1.996">
        <ele>158.7</ele>
        <time>2022-02-06T12:51:07Z</time>
      </trkpt>
      <trkpt lat="48.71458" lon="1.99608">
        <ele>159.5</ele>
        <time>2022-02-06T12:51:11Z</time>
      </trkpt>
      <trkpt lat="48.71457" lon="1.99617">
        <ele>160.3</ele>
        <time>2022-02-06T12:51:16Z</time>
      </trkpt>
      <trkpt lat="48.71455" lon="1.99625">
        <ele>160.8</ele>
        <time>2022-02-06T12:51:20Z</time>
      </trkpt>
      <trkpt lat="48.71453" lon="1.99633">
        <ele>161.3</ele>
        <time>2022-02-06T12:51:25Z</time>
      </trkpt>
      <trkpt lat="48.71452" lon="1.9964">
        <ele>161.6</ele>
        <time>2022-02-06T12:51:28Z</time>
      </trkpt>
      <trkpt lat="48.71451" lon="1.99648">
        <ele>162.1</ele>
        <time>2022-02-06T12:51:31Z</time>
      </trkpt>
      <trkpt lat="48.7145" lon="1.99655">
        <ele>162.5</ele>
        <time>2022-02-06T12:51:35Z</time>
      </trkpt>
      <trkpt lat="48.7145" lon="1.99663">
        <ele>162.8</ele>
        <time>2022-02-06T12:51:39Z</time>
      </trkpt>
      <trkpt lat="48.71447" lon="1.99671">
        <ele>163.5</ele>
        <time>2022-02-06T12:51:43Z</time>
      </trkpt>
      <trkpt lat="48.71446" lon="1.99678">
        <ele>163.9</ele>
        <time>2022-02-06T12:51:46Z</time>
      </trkpt>
      <trkpt lat="48.71444" lon="1.99685">
        <ele>164.1</ele>
        <time>2022-02-06T12:51:50Z</time>
      </trkpt>
      <trkpt lat="48.71441" lon="1.99692">
        <ele>163.7</ele>
        <time>2022-02-06T12:51:54Z</time>
      </trkpt>
      <trkpt lat="48.71438" lon="1.99699">
        <ele>163</ele>
        <time>2022-02-06T12:51:58Z</time>
      </trkpt>
      <trkpt lat="48.71435" lon="1.99704">
        <ele>161.6</ele>
        <time>2022-02-06T12:52:02Z</time>
      </trkpt>
      <trkpt lat="48.71431" lon="1.9971">
        <ele>159.7</ele>
        <time>2022-02-06T12:52:06Z</time>
      </trkpt>
      <trkpt lat="48.71429" lon="1.99718">
        <ele>159.1</ele>
        <time>2022-02-06T12:52:10Z</time>
      </trkpt>
      <trkpt lat="48.71426" lon="1.99725">
        <ele>158.9</ele>
        <time>2022-02-06T12:52:13Z</time>
      </trkpt>
      <trkpt lat="48.71423" lon="1.99732">
        <ele>159.5</ele>
        <time>2022-02-06T12:52:18Z</time>
      </trkpt>
      <trkpt lat="48.7142" lon="1.99739">
        <ele>160.1</ele>
        <time>2022-02-06T12:52:22Z</time>
      </trkpt>
      <trkpt lat="48.71418" lon="1.99745">
        <ele>159.9</ele>
        <time>2022-02-06T12:52:26Z</time>
      </trkpt>
      <trkpt lat="48.71415" lon="1.99751">
        <ele>159</ele>
        <time>2022-02-06T12:52:29Z</time>
      </trkpt>
      <trkpt lat="48.71412" lon="1.99757">
        <ele>157.3</ele>
        <time>2022-02-06T12:52:33Z</time>
      </trkpt>
      <trkpt lat="48.71409" lon="1.99763">
        <ele>156.7</ele>
        <time>2022-02-06T12:52:37Z</time>
      </trkpt>
      <trkpt lat="48.71407" lon="1.9977">
        <ele>156.7</ele>
        <time>2022-02-06T12:52:40Z</time>
      </trkpt>
      <trkpt lat="48.71405" lon="1.99778">
        <ele>157.1</ele>
        <time>2022-02-06T12:52:45Z</time>
      </trkpt>
      <trkpt lat="48.71402" lon="1.99785">
        <ele>157.4</ele>
        <time>2022-02-06T12:52:49Z</time>
      </trkpt>
      <trkpt lat="48.714" lon="1.99793">
        <ele>157.8</ele>
        <time>2022-02-06T12:52:53Z</time>
      </trkpt>
      <trkpt lat="48.71397" lon="1.99799">
        <ele>157.8</ele>
        <time>2022-02-06T12:52:56Z</time>
      </trkpt>
      <trkpt lat="48.71394" lon="1.99806">
        <ele>157.7</ele>
        <time>2022-02-06T12:53:00Z</time>
      </trkpt>
      <trkpt lat="48.71391" lon="1.99812">
        <ele>157.5</ele>
        <time>2022-02-06T12:53:04Z</time>
      </trkpt>
      <trkpt lat="48.71389" lon="1.99819">
        <ele>157.7</ele>
        <time>2022-02-06T12:53:07Z</time>
      </trkpt>
      <trkpt lat="48.71388" lon="1.99825">
        <ele>157.7</ele>
        <time>2022-02-06T12:53:10Z</time>
      </trkpt>
      <trkpt lat="48.71386" lon="1.99833">
        <ele>157.8</ele>
        <time>2022-02-06T12:53:14Z</time>
      </trkpt>
      <trkpt lat="48.71384" lon="1.9984">
        <ele>158</ele>
        <time>2022-02-06T12:53:18Z</time>
      </trkpt>
      <trkpt lat="48.71381" lon="1.99847">
        <ele>158.8</ele>
        <time>2022-02-06T12:53:22Z</time>
      </trkpt>
      <trkpt lat="48.71378" lon="1.99855">
        <ele>159.3</ele>
        <time>2022-02-06T12:53:27Z</time>
      </trkpt>
      <trkpt lat="48.71375" lon="1.99861">
        <ele>159.2</ele>
        <time>2022-02-06T12:53:30Z</time>
      </trkpt>
      <trkpt lat="48.71373" lon="1.99868">
        <ele>158</ele>
        <time>2022-02-06T12:53:35Z</time>
      </trkpt>
      <trkpt lat="48.71371" lon="1.99875">
        <ele>156.6</ele>
        <time>2022-02-06T12:53:39Z</time>
      </trkpt>
      <trkpt lat="48.71368" lon="1.99882">
        <ele>155.3</ele>
        <time>2022-02-06T12:53:42Z</time>
      </trkpt>
      <trkpt lat="48.71366" lon="1.99888">
        <ele>155.1</ele>
        <time>2022-02-06T12:53:46Z</time>
      </trkpt>
      <trkpt lat="48.71363" lon="1.99895">
        <ele>156.1</ele>
        <time>2022-02-06T12:53:51Z</time>
      </trkpt>
      <trkpt lat="48.71361" lon="1.99901">
        <ele>156.7</ele>
        <time>2022-02-06T12:53:54Z</time>
      </trkpt>
      <trkpt lat="48.71358" lon="1.99908">
        <ele>156.7</ele>
        <time>2022-02-06T12:53:58Z</time>
      </trkpt>
      <trkpt lat="48.71355" lon="1.99914">
        <ele>156.5</ele>
        <time>2022-02-06T12:54:01Z</time>
      </trkpt>
      <trkpt lat="48.71353" lon="1.9992">
        <ele>156.9</ele>
        <time>2022-02-06T12:54:05Z</time>
      </trkpt>
      <trkpt lat="48.7135" lon="1.99927">
        <ele>157.3</ele>
        <time>2022-02-06T12:54:08Z</time>
      </trkpt>
      <trkpt lat="48.71347" lon="1.99933">
        <ele>157.6</ele>
        <time>2022-02-06T12:54:12Z</time>
      </trkpt>
      <trkpt lat="48.71345" lon="1.9994">
        <ele>157.8</ele>
        <time>2022-02-06T12:54:16Z</time>
      </trkpt>
      <trkpt lat="48.71342" lon="1.99946">
        <ele>158.1</ele>
        <time>2022-02-06T12:54:19Z</time>
      </trkpt>
      <trkpt lat="48.7134" lon="1.99953">
        <ele>158.5</ele>
        <time>2022-02-06T12:54:23Z</time>
      </trkpt>
      <trkpt lat="48.71337" lon="1.99961">
        <ele>158.3</ele>
        <time>2022-02-06T12:54:28Z</time>
      </trkpt>
      <trkpt lat="48.71335" lon="1.99969">
        <ele>157.7</ele>
        <time>2022-02-06T12:54:32Z</time>
      </trkpt>
      <trkpt lat="48.71334" lon="1.99976">
        <ele>157.3</ele>
        <time>2022-02-06T12:54:36Z</time>
      </trkpt>
      <trkpt lat="48.71331" lon="1.99983">
        <ele>157.1</ele>
        <time>2022-02-06T12:54:39Z</time>
      </trkpt>
      <trkpt lat="48.71329" lon="1.99991">
        <ele>156.8</ele>
        <time>2022-02-06T12:54:44Z</time>
      </trkpt>
      <trkpt lat="48.71326" lon="1.99999">
        <ele>156.7</ele>
        <time>2022-02-06T12:54:48Z</time>
      </trkpt>
      <trkpt lat="48.71324" lon="2.00007">
        <ele>156.9</ele>
        <time>2022-02-06T12:54:53Z</time>
      </trkpt>
      <trkpt lat="48.71321" lon="2.00014">
        <ele>157.1</ele>
        <time>2022-02-06T12:54:57Z</time>
      </trkpt>
      <trkpt lat="48.71319" lon="2.00021">
        <ele>157</ele>
        <time>2022-02-06T12:55:01Z</time>
      </trkpt>
      <trkpt lat="48.71316" lon="2.00027">
        <ele>157</ele>
        <time>2022-02-06T12:55:04Z</time>
      </trkpt>
      <trkpt lat="48.71313" lon="2.00033">
        <ele>156.9</ele>
        <time>2022-02-06T12:55:08Z</time>
      </trkpt>
      <trkpt lat="48.71311" lon="2.00041">
        <ele>157.1</ele>
        <time>2022-02-06T12:55:12Z</time>
      </trkpt>
      <trkpt lat="48.71309" lon="2.00049">
        <ele>157.9</ele>
        <time>2022-02-06T12:55:17Z</time>
      </trkpt>
      <trkpt lat="48.71307" lon="2.00056">
        <ele>158.9</ele>
        <time>2022-02-06T12:55:20Z</time>
      </trkpt>
      <trkpt lat="48.71306" lon="2.00063">
        <ele>159.5</ele>
        <time>2022-02-06T12:55:25Z</time>
      </trkpt>
      <trkpt lat="48.71304" lon="2.00072">
        <ele>159.3</ele>
        <time>2022-02-06T12:55:29Z</time>
      </trkpt>
      <trkpt lat="48.71304" lon="2.00081">
        <ele>159.3</ele>
        <time>2022-02-06T12:55:34Z</time>
      </trkpt>
      <trkpt lat="48.71303" lon="2.00088">
        <ele>159.9</ele>
        <time>2022-02-06T12:55:37Z</time>
      </trkpt>
      <trkpt lat="48.71303" lon="2.00096">
        <ele>160.4</ele>
        <time>2022-02-06T12:55:41Z</time>
      </trkpt>
      <trkpt lat="48.71303" lon="2.00104">
        <ele>160.8</ele>
        <time>2022-02-06T12:55:44Z</time>
      </trkpt>
      <trkpt lat="48.71303" lon="2.00111">
        <ele>160.7</ele>
        <time>2022-02-06T12:55:48Z</time>
      </trkpt>
      <trkpt lat="48.71303" lon="2.00119">
        <ele>161</ele>
        <time>2022-02-06T12:55:52Z</time>
      </trkpt>
      <trkpt lat="48.71303" lon="2.00127">
        <ele>160.8</ele>
        <time>2022-02-06T12:55:56Z</time>
      </trkpt>
      <trkpt lat="48.71303" lon="2.00135">
        <ele>160.3</ele>
        <time>2022-02-06T12:56:00Z</time>
      </trkpt>
      <trkpt lat="48.71303" lon="2.00142">
        <ele>160.5</ele>
        <time>2022-02-06T12:56:03Z</time>
      </trkpt>
      <trkpt lat="48.71304" lon="2.00149">
        <ele>160.5</ele>
        <time>2022-02-06T12:56:07Z</time>
      </trkpt>
      <trkpt lat="48.71304" lon="2.00157">
        <ele>160.8</ele>
        <time>2022-02-06T12:56:12Z</time>
      </trkpt>
      <trkpt lat="48.71305" lon="2.00164">
        <ele>160.5</ele>
        <time>2022-02-06T12:56:15Z</time>
      </trkpt>
      <trkpt lat="48.71305" lon="2.00173">
        <ele>160.4</ele>
        <time>2022-02-06T12:56:20Z</time>
      </trkpt>
      <trkpt lat="48.71305" lon="2.00181">
        <ele>160.1</ele>
        <time>2022-02-06T12:56:24Z</time>
      </trkpt>
      <trkpt lat="48.71304" lon="2.00188">
        <ele>160.4</ele>
        <time>2022-02-06T12:56:30Z</time>
      </trkpt>
      <trkpt lat="48.71304" lon="2.00196">
        <ele>161.1</ele>
        <time>2022-02-06T12:56:36Z</time>
      </trkpt>
      <trkpt lat="48.71305" lon="2.00204">
        <ele>161</ele>
        <time>2022-02-06T12:56:40Z</time>
      </trkpt>
      <trkpt lat="48.71306" lon="2.00211">
        <ele>160.2</ele>
        <time>2022-02-06T12:56:45Z</time>
      </trkpt>
      <trkpt lat="48.71304" lon="2.00219">
        <ele>159.2</ele>
        <time>2022-02-06T12:56:49Z</time>
      </trkpt>
      <trkpt lat="48.71302" lon="2.00227">
        <ele>159.1</ele>
        <time>2022-02-06T12:56:53Z</time>
      </trkpt>
      <trkpt lat="48.713" lon="2.00234">
        <ele>159.6</ele>
        <time>2022-02-06T12:56:57Z</time>
      </trkpt>
      <trkpt lat="48.71299" lon="2.00241">
        <ele>159.6</ele>
        <time>2022-02-06T12:57:01Z</time>
      </trkpt>
      <trkpt lat="48.71297" lon="2.00248">
        <ele>159</ele>
        <time>2022-02-06T12:57:05Z</time>
      </trkpt>
      <trkpt lat="48.71296" lon="2.00256">
        <ele>158.8</ele>
        <time>2022-02-06T12:57:09Z</time>
      </trkpt>
      <trkpt lat="48.71295" lon="2.00264">
        <ele>159.7</ele>
        <time>2022-02-06T12:57:14Z</time>
      </trkpt>
      <trkpt lat="48.71295" lon="2.00272">
        <ele>161.2</ele>
        <time>2022-02-06T12:57:18Z</time>
      </trkpt>
      <trkpt lat="48.71294" lon="2.00279">
        <ele>161.8</ele>
        <time>2022-02-06T12:57:22Z</time>
      </trkpt>
      <trkpt lat="48.71294" lon="2.00288">
        <ele>161.1</ele>
        <time>2022-02-06T12:57:27Z</time>
      </trkpt>
      <trkpt lat="48.71292" lon="2.00296">
        <ele>160.1</ele>
        <time>2022-02-06T12:57:30Z</time>
      </trkpt>
      <trkpt lat="48.71291" lon="2.00304">
        <ele>159.5</ele>
        <time>2022-02-06T12:57:35Z</time>
      </trkpt>
      <trkpt lat="48.71289" lon="2.0031">
        <ele>159.3</ele>
        <time>2022-02-06T12:57:38Z</time>
      </trkpt>
      <trkpt lat="48.71288" lon="2.00318">
        <ele>158.8</ele>
        <time>2022-02-06T12:57:43Z</time>
      </trkpt>
      <trkpt lat="48.71287" lon="2.00327">
        <ele>158.4</ele>
        <time>2022-02-06T12:57:47Z</time>
      </trkpt>
      <trkpt lat="48.71285" lon="2.00335">
        <ele>158.2</ele>
        <time>2022-02-06T12:57:51Z</time>
      </trkpt>
      <trkpt lat="48.71283" lon="2.00342">
        <ele>158.1</ele>
        <time>2022-02-06T12:57:56Z</time>
      </trkpt>
      <trkpt lat="48.71281" lon="2.00351">
        <ele>158.1</ele>
        <time>2022-02-06T12:58:00Z</time>
      </trkpt>
      <trkpt lat="48.71279" lon="2.00358">
        <ele>158.1</ele>
        <time>2022-02-06T12:58:04Z</time>
      </trkpt>
      <trkpt lat="48.71276" lon="2.00366">
        <ele>157.9</ele>
        <time>2022-02-06T12:58:08Z</time>
      </trkpt>
      <trkpt lat="48.71274" lon="2.00372">
        <ele>157.9</ele>
        <time>2022-02-06T12:58:12Z</time>
      </trkpt>
      <trkpt lat="48.71272" lon="2.00379">
        <ele>157.9</ele>
        <time>2022-02-06T12:58:16Z</time>
      </trkpt>
      <trkpt lat="48.7127" lon="2.00388">
        <ele>158.1</ele>
        <time>2022-02-06T12:58:21Z</time>
      </trkpt>
      <trkpt lat="48.71268" lon="2.00394">
        <ele>158.2</ele>
        <time>2022-02-06T12:58:24Z</time>
      </trkpt>
      <trkpt lat="48.71266" lon="2.00401">
        <ele>158.5</ele>
        <time>2022-02-06T12:58:29Z</time>
      </trkpt>
      <trkpt lat="48.71264" lon="2.00409">
        <ele>158.9</ele>
        <time>2022-02-06T12:58:33Z</time>
      </trkpt>
      <trkpt lat="48.71262" lon="2.00417">
        <ele>159.4</ele>
        <time>2022-02-06T12:58:37Z</time>
      </trkpt>
      <trkpt lat="48.7126" lon="2.00425">
        <ele>160</ele>
        <time>2022-02-06T12:58:41Z</time>
      </trkpt>
      <trkpt lat="48.71258" lon="2.00433">
        <ele>160.2</ele>
        <time>2022-02-06T12:58:46Z</time>
      </trkpt>
      <trkpt lat="48.71256" lon="2.00439">
        <ele>160</ele>
        <time>2022-02-06T12:58:49Z</time>
      </trkpt>
      <trkpt lat="48.71253" lon="2.00447">
        <ele>159.8</ele>
        <time>2022-02-06T12:58:54Z</time>
      </trkpt>
      <trkpt lat="48.71251" lon="2.00454">
        <ele>159.7</ele>
        <time>2022-02-06T12:58:57Z</time>
      </trkpt>
      <trkpt lat="48.71249" lon="2.00461">
        <ele>159.9</ele>
        <time>2022-02-06T12:59:01Z</time>
      </trkpt>
      <trkpt lat="48.71247" lon="2.00468">
        <ele>160.6</ele>
        <time>2022-02-06T12:59:05Z</time>
      </trkpt>
      <trkpt lat="48.71245" lon="2.00475">
        <ele>161.1</ele>
        <time>2022-02-06T12:59:09Z</time>
      </trkpt>
      <trkpt lat="48.71242" lon="2.00481">
        <ele>161.3</ele>
        <time>2022-02-06T12:59:12Z</time>
      </trkpt>
      <trkpt lat="48.7124" lon="2.00487">
        <ele>161.6</ele>
        <time>2022-02-06T12:59:15Z</time>
      </trkpt>
      <trkpt lat="48.71237" lon="2.00494">
        <ele>161.8</ele>
        <time>2022-02-06T12:59:19Z</time>
      </trkpt>
      <trkpt lat="48.71234" lon="2.00501">
        <ele>161.8</ele>
        <time>2022-02-06T12:59:23Z</time>
      </trkpt>
      <trkpt lat="48.71231" lon="2.00509">
        <ele>161.5</ele>
        <time>2022-02-06T12:59:27Z</time>
      </trkpt>
      <trkpt lat="48.7123" lon="2.00516">
        <ele>161.4</ele>
        <time>2022-02-06T12:59:36Z</time>
      </trkpt>
      <trkpt lat="48.71227" lon="2.00524">
        <ele>160.9</ele>
        <time>2022-02-06T12:59:40Z</time>
      </trkpt>
      <trkpt lat="48.71224" lon="2.00532">
        <ele>159.9</ele>
        <time>2022-02-06T12:59:44Z</time>
      </trkpt>
      <trkpt lat="48.71222" lon="2.00539">
        <ele>159.4</ele>
        <time>2022-02-06T12:59:48Z</time>
      </trkpt>
      <trkpt lat="48.71221" lon="2.00547">
        <ele>160</ele>
        <time>2022-02-06T12:59:52Z</time>
      </trkpt>
      <trkpt lat="48.71218" lon="2.00555">
        <ele>160.7</ele>
        <time>2022-02-06T12:59:56Z</time>
      </trkpt>
      <trkpt lat="48.71216" lon="2.00562">
        <ele>161.3</ele>
        <time>2022-02-06T13:00:00Z</time>
      </trkpt>
      <trkpt lat="48.71213" lon="2.0057">
        <ele>161.7</ele>
        <time>2022-02-06T13:00:05Z</time>
      </trkpt>
      <trkpt lat="48.7121" lon="2.00578">
        <ele>162.1</ele>
        <time>2022-02-06T13:00:09Z</time>
      </trkpt>
      <trkpt lat="48.71207" lon="2.00585">
        <ele>162.6</ele>
        <time>2022-02-06T13:00:13Z</time>
      </trkpt>
      <trkpt lat="48.71205" lon="2.00593">
        <ele>162.9</ele>
        <time>2022-02-06T13:00:17Z</time>
      </trkpt>
      <trkpt lat="48.71203" lon="2.00601">
        <ele>162.9</ele>
        <time>2022-02-06T13:00:21Z</time>
      </trkpt>
      <trkpt lat="48.712" lon="2.00608">
        <ele>162.9</ele>
        <time>2022-02-06T13:00:25Z</time>
      </trkpt>
      <trkpt lat="48.71198" lon="2.00615">
        <ele>162.9</ele>
        <time>2022-02-06T13:00:29Z</time>
      </trkpt>
      <trkpt lat="48.71195" lon="2.00622">
        <ele>163.1</ele>
        <time>2022-02-06T13:00:33Z</time>
      </trkpt>
      <trkpt lat="48.71191" lon="2.00631">
        <ele>162.9</ele>
        <time>2022-02-06T13:00:39Z</time>
      </trkpt>
      <trkpt lat="48.71188" lon="2.00638">
        <ele>162.4</ele>
        <time>2022-02-06T13:00:43Z</time>
      </trkpt>
      <trkpt lat="48.71185" lon="2.00645">
        <ele>162.1</ele>
        <time>2022-02-06T13:00:48Z</time>
      </trkpt>
      <trkpt lat="48.71182" lon="2.00651">
        <ele>162.2</ele>
        <time>2022-02-06T13:00:51Z</time>
      </trkpt>
      <trkpt lat="48.71179" lon="2.00657">
        <ele>162.1</ele>
        <time>2022-02-06T13:00:56Z</time>
      </trkpt>
      <trkpt lat="48.71175" lon="2.00662">
        <ele>161.9</ele>
        <time>2022-02-06T13:00:59Z</time>
      </trkpt>
      <trkpt lat="48.71171" lon="2.00665">
        <ele>161.7</ele>
        <time>2022-02-06T13:01:04Z</time>
      </trkpt>
      <trkpt lat="48.71166" lon="2.00669">
        <ele>161.1</ele>
        <time>2022-02-06T13:01:08Z</time>
      </trkpt>
      <trkpt lat="48.71161" lon="2.00673">
        <ele>160.1</ele>
        <time>2022-02-06T13:01:13Z</time>
      </trkpt>
      <trkpt lat="48.71157" lon="2.00677">
        <ele>159.9</ele>
        <time>2022-02-06T13:01:16Z</time>
      </trkpt>
      <trkpt lat="48.71152" lon="2.00679">
        <ele>160.1</ele>
        <time>2022-02-06T13:01:20Z</time>
      </trkpt>
      <trkpt lat="48.71146" lon="2.0068">
        <ele>161.2</ele>
        <time>2022-02-06T13:01:25Z</time>
      </trkpt>
      <trkpt lat="48.71141" lon="2.00681">
        <ele>162.8</ele>
        <time>2022-02-06T13:01:30Z</time>
      </trkpt>
      <trkpt lat="48.71136" lon="2.00683">
        <ele>163.6</ele>
        <time>2022-02-06T13:01:34Z</time>
      </trkpt>
      <trkpt lat="48.7113" lon="2.00686">
        <ele>163.5</ele>
        <time>2022-02-06T13:01:38Z</time>
      </trkpt>
      <trkpt lat="48.71125" lon="2.00689">
        <ele>162.8</ele>
        <time>2022-02-06T13:01:41Z</time>
      </trkpt>
      <trkpt lat="48.7112" lon="2.00692">
        <ele>162.6</ele>
        <time>2022-02-06T13:01:45Z</time>
      </trkpt>
      <trkpt lat="48.71116" lon="2.00695">
        <ele>162.5</ele>
        <time>2022-02-06T13:01:49Z</time>
      </trkpt>
      <trkpt lat="48.71112" lon="2.007">
        <ele>162.8</ele>
        <time>2022-02-06T13:01:53Z</time>
      </trkpt>
      <trkpt lat="48.71108" lon="2.00705">
        <ele>162.9</ele>
        <time>2022-02-06T13:01:58Z</time>
      </trkpt>
      <trkpt lat="48.71105" lon="2.0071">
        <ele>162.5</ele>
        <time>2022-02-06T13:02:01Z</time>
      </trkpt>
      <trkpt lat="48.71102" lon="2.00717">
        <ele>161.8</ele>
        <time>2022-02-06T13:02:05Z</time>
      </trkpt>
      <trkpt lat="48.71099" lon="2.00723">
        <ele>161.4</ele>
        <time>2022-02-06T13:02:08Z</time>
      </trkpt>
      <trkpt lat="48.71096" lon="2.00729">
        <ele>161.2</ele>
        <time>2022-02-06T13:02:12Z</time>
      </trkpt>
      <trkpt lat="48.71092" lon="2.00735">
        <ele>161</ele>
        <time>2022-02-06T13:02:15Z</time>
      </trkpt>
      <trkpt lat="48.71089" lon="2.0074">
        <ele>161.3</ele>
        <time>2022-02-06T13:02:18Z</time>
      </trkpt>
      <trkpt lat="48.71086" lon="2.00745">
        <ele>162</ele>
        <time>2022-02-06T13:02:22Z</time>
      </trkpt>
      <trkpt lat="48.71082" lon="2.00751">
        <ele>162.7</ele>
        <time>2022-02-06T13:02:25Z</time>
      </trkpt>
      <trkpt lat="48.71079" lon="2.00755">
        <ele>163.1</ele>
        <time>2022-02-06T13:02:29Z</time>
      </trkpt>
      <trkpt lat="48.71074" lon="2.00761">
        <ele>163.7</ele>
        <time>2022-02-06T13:02:33Z</time>
      </trkpt>
      <trkpt lat="48.71069" lon="2.00766">
        <ele>164.3</ele>
        <time>2022-02-06T13:02:37Z</time>
      </trkpt>
      <trkpt lat="48.71064" lon="2.0077">
        <ele>164.5</ele>
        <time>2022-02-06T13:02:41Z</time>
      </trkpt>
      <trkpt lat="48.71059" lon="2.00773">
        <ele>164.1</ele>
        <time>2022-02-06T13:02:45Z</time>
      </trkpt>
      <trkpt lat="48.71053" lon="2.00774">
        <ele>163.7</ele>
        <time>2022-02-06T13:02:50Z</time>
      </trkpt>
      <trkpt lat="48.71048" lon="2.00774">
        <ele>162.8</ele>
        <time>2022-02-06T13:02:54Z</time>
      </trkpt>
      <trkpt lat="48.71043" lon="2.00771">
        <ele>163.2</ele>
        <time>2022-02-06T13:02:58Z</time>
      </trkpt>
      <trkpt lat="48.71038" lon="2.00766">
        <ele>163.5</ele>
        <time>2022-02-06T13:03:03Z</time>
      </trkpt>
      <trkpt lat="48.71034" lon="2.00762">
        <ele>164.3</ele>
        <time>2022-02-06T13:03:06Z</time>
      </trkpt>
      <trkpt lat="48.7103" lon="2.00757">
        <ele>164.7</ele>
        <time>2022-02-06T13:03:10Z</time>
      </trkpt>
      <trkpt lat="48.71025" lon="2.00753">
        <ele>164.2</ele>
        <time>2022-02-06T13:03:14Z</time>
      </trkpt>
      <trkpt lat="48.71021" lon="2.00748">
        <ele>162.9</ele>
        <time>2022-02-06T13:03:19Z</time>
      </trkpt>
      <trkpt lat="48.71016" lon="2.00743">
        <ele>160.9</ele>
        <time>2022-02-06T13:03:23Z</time>
      </trkpt>
      <trkpt lat="48.71012" lon="2.0074">
        <ele>159.7</ele>
        <time>2022-02-06T13:03:26Z</time>
      </trkpt>
      <trkpt lat="48.71006" lon="2.00737">
        <ele>159.3</ele>
        <time>2022-02-06T13:03:30Z</time>
      </trkpt>
      <trkpt lat="48.71002" lon="2.00736">
        <ele>159.8</ele>
        <time>2022-02-06T13:03:35Z</time>
      </trkpt>
      <trkpt lat="48.70997" lon="2.00739">
        <ele>161.1</ele>
        <time>2022-02-06T13:03:40Z</time>
      </trkpt>
      <trkpt lat="48.71001" lon="2.00739">
        <ele>162.2</ele>
        <time>2022-02-06T13:03:51Z</time>
      </trkpt>
      <trkpt lat="48.71002" lon="2.00731">
        <ele>165.6</ele>
        <time>2022-02-06T13:10:53Z</time>
      </trkpt>
      <trkpt lat="48.71007" lon="2.00734">
        <ele>165.8</ele>
        <time>2022-02-06T13:11:14Z</time>
      </trkpt>
      <trkpt lat="48.71002" lon="2.00737">
        <ele>164</ele>
        <time>2022-02-06T13:12:31Z</time>
      </trkpt>
      <trkpt lat="48.70999" lon="2.00745">
        <ele>163.2</ele>
        <time>2022-02-06T13:12:36Z</time>
      </trkpt>
      <trkpt lat="48.70995" lon="2.00752">
        <ele>163.5</ele>
        <time>2022-02-06T13:12:40Z</time>
      </trkpt>
      <trkpt lat="48.70991" lon="2.00759">
        <ele>164</ele>
        <time>2022-02-06T13:12:42Z</time>
      </trkpt>
      <trkpt lat="48.70989" lon="2.00766">
        <ele>164.3</ele>
        <time>2022-02-06T13:12:45Z</time>
      </trkpt>
      <trkpt lat="48.70986" lon="2.00773">
        <ele>164.6</ele>
        <time>2022-02-06T13:12:49Z</time>
      </trkpt>
      <trkpt lat="48.70984" lon="2.00779">
        <ele>165.9</ele>
        <time>2022-02-06T13:12:52Z</time>
      </trkpt>
      <trkpt lat="48.7098" lon="2.00788">
        <ele>167.7</ele>
        <time>2022-02-06T13:12:55Z</time>
      </trkpt>
      <trkpt lat="48.70977" lon="2.00795">
        <ele>169.9</ele>
        <time>2022-02-06T13:12:58Z</time>
      </trkpt>
      <trkpt lat="48.70974" lon="2.008">
        <ele>170.6</ele>
        <time>2022-02-06T13:13:01Z</time>
      </trkpt>
      <trkpt lat="48.70969" lon="2.00804">
        <ele>171.1</ele>
        <time>2022-02-06T13:13:06Z</time>
      </trkpt>
      <trkpt lat="48.70965" lon="2.008">
        <ele>170.5</ele>
        <time>2022-02-06T13:13:10Z</time>
      </trkpt>
      <trkpt lat="48.70968" lon="2.00792">
        <ele>168.3</ele>
        <time>2022-02-06T13:13:15Z</time>
      </trkpt>
      <trkpt lat="48.70969" lon="2.00799">
        <ele>168.4</ele>
        <time>2022-02-06T13:13:22Z</time>
      </trkpt>
      <trkpt lat="48.7097" lon="2.00806">
        <ele>170.1</ele>
        <time>2022-02-06T13:13:27Z</time>
      </trkpt>
      <trkpt lat="48.70969" lon="2.00813">
        <ele>170.6</ele>
        <time>2022-02-06T13:13:29Z</time>
      </trkpt>
      <trkpt lat="48.70969" lon="2.00824">
        <ele>170.7</ele>
        <time>2022-02-06T13:13:31Z</time>
      </trkpt>
      <trkpt lat="48.70962" lon="2.00854">
        <ele>169.8</ele>
        <time>2022-02-06T13:13:41Z</time>
      </trkpt>
      <trkpt lat="48.70958" lon="2.00858">
        <ele>170</ele>
        <time>2022-02-06T13:13:45Z</time>
      </trkpt>
      <trkpt lat="48.70954" lon="2.00863">
        <ele>170.3</ele>
        <time>2022-02-06T13:13:50Z</time>
      </trkpt>
      <trkpt lat="48.7095" lon="2.00867">
        <ele>170.2</ele>
        <time>2022-02-06T13:13:53Z</time>
      </trkpt>
      <trkpt lat="48.70947" lon="2.00873">
        <ele>170.2</ele>
        <time>2022-02-06T13:13:58Z</time>
      </trkpt>
      <trkpt lat="48.70945" lon="2.00881">
        <ele>169</ele>
        <time>2022-02-06T13:14:02Z</time>
      </trkpt>
      <trkpt lat="48.70946" lon="2.00889">
        <ele>168</ele>
        <time>2022-02-06T13:14:06Z</time>
      </trkpt>
      <trkpt lat="48.70946" lon="2.00897">
        <ele>167.7</ele>
        <time>2022-02-06T13:14:10Z</time>
      </trkpt>
      <trkpt lat="48.70946" lon="2.00906">
        <ele>168.8</ele>
        <time>2022-02-06T13:14:14Z</time>
      </trkpt>
      <trkpt lat="48.70944" lon="2.00913">
        <ele>170.4</ele>
        <time>2022-02-06T13:14:19Z</time>
      </trkpt>
      <trkpt lat="48.70941" lon="2.00921">
        <ele>171.7</ele>
        <time>2022-02-06T13:14:23Z</time>
      </trkpt>
      <trkpt lat="48.70938" lon="2.00928">
        <ele>171.7</ele>
        <time>2022-02-06T13:14:27Z</time>
      </trkpt>
      <trkpt lat="48.70935" lon="2.00934">
        <ele>170.9</ele>
        <time>2022-02-06T13:14:32Z</time>
      </trkpt>
      <trkpt lat="48.70933" lon="2.0094">
        <ele>170.6</ele>
        <time>2022-02-06T13:14:36Z</time>
      </trkpt>
      <trkpt lat="48.70931" lon="2.00948">
        <ele>171.8</ele>
        <time>2022-02-06T13:14:40Z</time>
      </trkpt>
      <trkpt lat="48.70929" lon="2.00955">
        <ele>173.3</ele>
        <time>2022-02-06T13:14:45Z</time>
      </trkpt>
      <trkpt lat="48.70928" lon="2.00962">
        <ele>173.6</ele>
        <time>2022-02-06T13:14:49Z</time>
      </trkpt>
      <trkpt lat="48.70927" lon="2.00969">
        <ele>172.5</ele>
        <time>2022-02-06T13:14:54Z</time>
      </trkpt>
      <trkpt lat="48.70926" lon="2.00977">
        <ele>170.1</ele>
        <time>2022-02-06T13:14:59Z</time>
      </trkpt>
      <trkpt lat="48.70924" lon="2.00983">
        <ele>169.6</ele>
        <time>2022-02-06T13:15:03Z</time>
      </trkpt>
      <trkpt lat="48.70921" lon="2.0099">
        <ele>170.3</ele>
        <time>2022-02-06T13:15:08Z</time>
      </trkpt>
      <trkpt lat="48.70919" lon="2.00998">
        <ele>170.2</ele>
        <time>2022-02-06T13:15:14Z</time>
      </trkpt>
      <trkpt lat="48.70918" lon="2.01005">
        <ele>168.9</ele>
        <time>2022-02-06T13:15:18Z</time>
      </trkpt>
      <trkpt lat="48.70916" lon="2.01012">
        <ele>167.3</ele>
        <time>2022-02-06T13:15:23Z</time>
      </trkpt>
      <trkpt lat="48.70915" lon="2.01019">
        <ele>165.9</ele>
        <time>2022-02-06T13:15:27Z</time>
      </trkpt>
      <trkpt lat="48.70913" lon="2.01026">
        <ele>165.1</ele>
        <time>2022-02-06T13:15:32Z</time>
      </trkpt>
      <trkpt lat="48.70912" lon="2.01034">
        <ele>164.2</ele>
        <time>2022-02-06T13:15:36Z</time>
      </trkpt>
      <trkpt lat="48.70911" lon="2.01042">
        <ele>163.3</ele>
        <time>2022-02-06T13:15:41Z</time>
      </trkpt>
      <trkpt lat="48.7091" lon="2.01049">
        <ele>163.3</ele>
        <time>2022-02-06T13:15:45Z</time>
      </trkpt>
      <trkpt lat="48.70908" lon="2.01056">
        <ele>162.9</ele>
        <time>2022-02-06T13:15:49Z</time>
      </trkpt>
      <trkpt lat="48.70905" lon="2.01063">
        <ele>161.3</ele>
        <time>2022-02-06T13:15:54Z</time>
      </trkpt>
      <trkpt lat="48.70903" lon="2.01071">
        <ele>159.8</ele>
        <time>2022-02-06T13:15:58Z</time>
      </trkpt>
      <trkpt lat="48.70901" lon="2.01077">
        <ele>159.4</ele>
        <time>2022-02-06T13:16:02Z</time>
      </trkpt>
      <trkpt lat="48.70899" lon="2.01085">
        <ele>159.8</ele>
        <time>2022-02-06T13:16:06Z</time>
      </trkpt>
      <trkpt lat="48.70898" lon="2.01092">
        <ele>160.7</ele>
        <time>2022-02-06T13:16:11Z</time>
      </trkpt>
      <trkpt lat="48.70897" lon="2.01099">
        <ele>162.2</ele>
        <time>2022-02-06T13:16:15Z</time>
      </trkpt>
      <trkpt lat="48.70897" lon="2.01106">
        <ele>166.2</ele>
        <time>2022-02-06T13:16:19Z</time>
      </trkpt>
      <trkpt lat="48.70896" lon="2.01115">
        <ele>168.2</ele>
        <time>2022-02-06T13:16:23Z</time>
      </trkpt>
      <trkpt lat="48.70894" lon="2.01123">
        <ele>166.6</ele>
        <time>2022-02-06T13:16:27Z</time>
      </trkpt>
      <trkpt lat="48.70891" lon="2.01129">
        <ele>166.6</ele>
        <time>2022-02-06T13:16:32Z</time>
      </trkpt>
      <trkpt lat="48.70889" lon="2.01135">
        <ele>168.4</ele>
        <time>2022-02-06T13:16:36Z</time>
      </trkpt>
      <trkpt lat="48.70885" lon="2.01141">
        <ele>170</ele>
        <time>2022-02-06T13:16:41Z</time>
      </trkpt>
      <trkpt lat="48.70882" lon="2.01147">
        <ele>171.1</ele>
        <time>2022-02-06T13:16:45Z</time>
      </trkpt>
      <trkpt lat="48.70879" lon="2.01153">
        <ele>172.1</ele>
        <time>2022-02-06T13:16:49Z</time>
      </trkpt>
      <trkpt lat="48.70876" lon="2.0116">
        <ele>171.4</ele>
        <time>2022-02-06T13:16:54Z</time>
      </trkpt>
      <trkpt lat="48.70873" lon="2.01167">
        <ele>169.5</ele>
        <time>2022-02-06T13:16:59Z</time>
      </trkpt>
      <trkpt lat="48.70871" lon="2.01174">
        <ele>167.8</ele>
        <time>2022-02-06T13:17:04Z</time>
      </trkpt>
      <trkpt lat="48.70869" lon="2.01182">
        <ele>166.5</ele>
        <time>2022-02-06T13:17:08Z</time>
      </trkpt>
      <trkpt lat="48.70869" lon="2.01189">
        <ele>166.4</ele>
        <time>2022-02-06T13:17:12Z</time>
      </trkpt>
      <trkpt lat="48.70867" lon="2.01196">
        <ele>166.5</ele>
        <time>2022-02-06T13:17:17Z</time>
      </trkpt>
      <trkpt lat="48.70866" lon="2.01204">
        <ele>166.2</ele>
        <time>2022-02-06T13:17:21Z</time>
      </trkpt>
      <trkpt lat="48.70864" lon="2.01211">
        <ele>163.3</ele>
        <time>2022-02-06T13:17:25Z</time>
      </trkpt>
      <trkpt lat="48.70862" lon="2.01218">
        <ele>160.8</ele>
        <time>2022-02-06T13:17:29Z</time>
      </trkpt>
      <trkpt lat="48.70859" lon="2.01226">
        <ele>160.2</ele>
        <time>2022-02-06T13:17:33Z</time>
      </trkpt>
      <trkpt lat="48.70857" lon="2.01233">
        <ele>160.3</ele>
        <time>2022-02-06T13:17:37Z</time>
      </trkpt>
      <trkpt lat="48.70854" lon="2.0124">
        <ele>160.2</ele>
        <time>2022-02-06T13:17:41Z</time>
      </trkpt>
      <trkpt lat="48.70852" lon="2.01246">
        <ele>159.6</ele>
        <time>2022-02-06T13:17:45Z</time>
      </trkpt>
      <trkpt lat="48.70849" lon="2.01254">
        <ele>158.6</ele>
        <time>2022-02-06T13:17:50Z</time>
      </trkpt>
      <trkpt lat="48.70847" lon="2.01262">
        <ele>157.8</ele>
        <time>2022-02-06T13:17:54Z</time>
      </trkpt>
      <trkpt lat="48.70845" lon="2.01269">
        <ele>157.7</ele>
        <time>2022-02-06T13:17:59Z</time>
      </trkpt>
      <trkpt lat="48.70844" lon="2.01276">
        <ele>158</ele>
        <time>2022-02-06T13:18:02Z</time>
      </trkpt>
      <trkpt lat="48.70843" lon="2.01283">
        <ele>158.9</ele>
        <time>2022-02-06T13:18:05Z</time>
      </trkpt>
      <trkpt lat="48.70842" lon="2.0129">
        <ele>159.6</ele>
        <time>2022-02-06T13:18:09Z</time>
      </trkpt>
      <trkpt lat="48.7084" lon="2.01298">
        <ele>160.1</ele>
        <time>2022-02-06T13:18:13Z</time>
      </trkpt>
      <trkpt lat="48.70839" lon="2.01306">
        <ele>160</ele>
        <time>2022-02-06T13:18:17Z</time>
      </trkpt>
      <trkpt lat="48.70837" lon="2.01313">
        <ele>159.7</ele>
        <time>2022-02-06T13:18:21Z</time>
      </trkpt>
      <trkpt lat="48.70835" lon="2.0132">
        <ele>159.7</ele>
        <time>2022-02-06T13:18:25Z</time>
      </trkpt>
      <trkpt lat="48.70833" lon="2.01327">
        <ele>159.2</ele>
        <time>2022-02-06T13:18:30Z</time>
      </trkpt>
      <trkpt lat="48.70831" lon="2.01335">
        <ele>158.9</ele>
        <time>2022-02-06T13:18:35Z</time>
      </trkpt>
      <trkpt lat="48.70829" lon="2.01343">
        <ele>159.6</ele>
        <time>2022-02-06T13:18:39Z</time>
      </trkpt>
      <trkpt lat="48.70827" lon="2.01351">
        <ele>159.4</ele>
        <time>2022-02-06T13:18:43Z</time>
      </trkpt>
      <trkpt lat="48.70825" lon="2.0136">
        <ele>159</ele>
        <time>2022-02-06T13:18:48Z</time>
      </trkpt>
      <trkpt lat="48.70823" lon="2.01367">
        <ele>158.7</ele>
        <time>2022-02-06T13:18:52Z</time>
      </trkpt>
      <trkpt lat="48.70821" lon="2.01375">
        <ele>158.5</ele>
        <time>2022-02-06T13:18:57Z</time>
      </trkpt>
      <trkpt lat="48.7082" lon="2.01382">
        <ele>158</ele>
        <time>2022-02-06T13:19:01Z</time>
      </trkpt>
      <trkpt lat="48.70818" lon="2.0139">
        <ele>157.4</ele>
        <time>2022-02-06T13:19:05Z</time>
      </trkpt>
      <trkpt lat="48.70817" lon="2.01398">
        <ele>157.1</ele>
        <time>2022-02-06T13:19:09Z</time>
      </trkpt>
      <trkpt lat="48.70815" lon="2.01406">
        <ele>157.5</ele>
        <time>2022-02-06T13:19:14Z</time>
      </trkpt>
      <trkpt lat="48.70815" lon="2.01413">
        <ele>158.3</ele>
        <time>2022-02-06T13:19:17Z</time>
      </trkpt>
      <trkpt lat="48.70815" lon="2.01421">
        <ele>159.4</ele>
        <time>2022-02-06T13:19:21Z</time>
      </trkpt>
      <trkpt lat="48.70814" lon="2.01429">
        <ele>160.5</ele>
        <time>2022-02-06T13:19:25Z</time>
      </trkpt>
      <trkpt lat="48.70813" lon="2.01437">
        <ele>160.6</ele>
        <time>2022-02-06T13:19:30Z</time>
      </trkpt>
      <trkpt lat="48.70812" lon="2.01444">
        <ele>160.6</ele>
        <time>2022-02-06T13:19:34Z</time>
      </trkpt>
      <trkpt lat="48.70811" lon="2.01451">
        <ele>161.1</ele>
        <time>2022-02-06T13:19:38Z</time>
      </trkpt>
      <trkpt lat="48.7081" lon="2.01458">
        <ele>161.4</ele>
        <time>2022-02-06T13:19:41Z</time>
      </trkpt>
      <trkpt lat="48.70808" lon="2.01465">
        <ele>161.6</ele>
        <time>2022-02-06T13:19:46Z</time>
      </trkpt>
      <trkpt lat="48.70806" lon="2.01473">
        <ele>161.2</ele>
        <time>2022-02-06T13:19:50Z</time>
      </trkpt>
      <trkpt lat="48.70805" lon="2.0148">
        <ele>161</ele>
        <time>2022-02-06T13:19:54Z</time>
      </trkpt>
      <trkpt lat="48.70803" lon="2.01487">
        <ele>160.5</ele>
        <time>2022-02-06T13:19:57Z</time>
      </trkpt>
      <trkpt lat="48.70801" lon="2.01494">
        <ele>159.6</ele>
        <time>2022-02-06T13:20:02Z</time>
      </trkpt>
      <trkpt lat="48.70798" lon="2.01501">
        <ele>158.6</ele>
        <time>2022-02-06T13:20:06Z</time>
      </trkpt>
      <trkpt lat="48.70796" lon="2.01509">
        <ele>158</ele>
        <time>2022-02-06T13:20:11Z</time>
      </trkpt>
      <trkpt lat="48.70794" lon="2.01517">
        <ele>157.4</ele>
        <time>2022-02-06T13:20:15Z</time>
      </trkpt>
      <trkpt lat="48.70793" lon="2.01525">
        <ele>156.8</ele>
        <time>2022-02-06T13:20:20Z</time>
      </trkpt>
      <trkpt lat="48.70792" lon="2.01532">
        <ele>156.3</ele>
        <time>2022-02-06T13:20:23Z</time>
      </trkpt>
      <trkpt lat="48.7079" lon="2.01539">
        <ele>156.4</ele>
        <time>2022-02-06T13:20:27Z</time>
      </trkpt>
      <trkpt lat="48.70788" lon="2.01546">
        <ele>157.7</ele>
        <time>2022-02-06T13:20:32Z</time>
      </trkpt>
      <trkpt lat="48.70786" lon="2.01554">
        <ele>159</ele>
        <time>2022-02-06T13:20:36Z</time>
      </trkpt>
      <trkpt lat="48.70784" lon="2.01561">
        <ele>159.8</ele>
        <time>2022-02-06T13:20:40Z</time>
      </trkpt>
      <trkpt lat="48.70782" lon="2.01568">
        <ele>160.3</ele>
        <time>2022-02-06T13:20:44Z</time>
      </trkpt>
      <trkpt lat="48.7078" lon="2.01576">
        <ele>160.3</ele>
        <time>2022-02-06T13:20:48Z</time>
      </trkpt>
      <trkpt lat="48.70779" lon="2.01583">
        <ele>160.9</ele>
        <time>2022-02-06T13:20:52Z</time>
      </trkpt>
      <trkpt lat="48.70777" lon="2.0159">
        <ele>162</ele>
        <time>2022-02-06T13:20:57Z</time>
      </trkpt>
      <trkpt lat="48.70776" lon="2.01597">
        <ele>162.8</ele>
        <time>2022-02-06T13:21:01Z</time>
      </trkpt>
      <trkpt lat="48.70775" lon="2.01604">
        <ele>162.7</ele>
        <time>2022-02-06T13:21:05Z</time>
      </trkpt>
      <trkpt lat="48.70774" lon="2.01611">
        <ele>162.7</ele>
        <time>2022-02-06T13:21:08Z</time>
      </trkpt>
      <trkpt lat="48.70773" lon="2.01619">
        <ele>162.8</ele>
        <time>2022-02-06T13:21:12Z</time>
      </trkpt>
      <trkpt lat="48.70771" lon="2.01626">
        <ele>161.8</ele>
        <time>2022-02-06T13:21:16Z</time>
      </trkpt>
      <trkpt lat="48.70769" lon="2.01633">
        <ele>160.1</ele>
        <time>2022-02-06T13:21:21Z</time>
      </trkpt>
      <trkpt lat="48.70767" lon="2.0164">
        <ele>159.5</ele>
        <time>2022-02-06T13:21:25Z</time>
      </trkpt>
      <trkpt lat="48.70765" lon="2.01649">
        <ele>160</ele>
        <time>2022-02-06T13:21:29Z</time>
      </trkpt>
      <trkpt lat="48.70763" lon="2.01656">
        <ele>161.9</ele>
        <time>2022-02-06T13:21:34Z</time>
      </trkpt>
      <trkpt lat="48.70762" lon="2.01664">
        <ele>163.1</ele>
        <time>2022-02-06T13:21:38Z</time>
      </trkpt>
      <trkpt lat="48.70759" lon="2.01671">
        <ele>162</ele>
        <time>2022-02-06T13:21:43Z</time>
      </trkpt>
      <trkpt lat="48.70756" lon="2.01678">
        <ele>160.4</ele>
        <time>2022-02-06T13:21:47Z</time>
      </trkpt>
      <trkpt lat="48.70753" lon="2.01683">
        <ele>160.1</ele>
        <time>2022-02-06T13:21:51Z</time>
      </trkpt>
      <trkpt lat="48.70751" lon="2.01689">
        <ele>160.9</ele>
        <time>2022-02-06T13:21:55Z</time>
      </trkpt>
      <trkpt lat="48.70748" lon="2.01696">
        <ele>161.1</ele>
        <time>2022-02-06T13:22:00Z</time>
      </trkpt>
      <trkpt lat="48.70746" lon="2.01703">
        <ele>160.2</ele>
        <time>2022-02-06T13:22:04Z</time>
      </trkpt>
      <trkpt lat="48.70745" lon="2.0171">
        <ele>159.9</ele>
        <time>2022-02-06T13:22:08Z</time>
      </trkpt>
      <trkpt lat="48.70744" lon="2.01718">
        <ele>160.1</ele>
        <time>2022-02-06T13:22:12Z</time>
      </trkpt>
      <trkpt lat="48.70743" lon="2.01726">
        <ele>159.8</ele>
        <time>2022-02-06T13:22:16Z</time>
      </trkpt>
      <trkpt lat="48.70741" lon="2.01733">
        <ele>159.1</ele>
        <time>2022-02-06T13:22:20Z</time>
      </trkpt>
      <trkpt lat="48.7074" lon="2.01741">
        <ele>158.2</ele>
        <time>2022-02-06T13:22:24Z</time>
      </trkpt>
      <trkpt lat="48.70739" lon="2.01748">
        <ele>158.2</ele>
        <time>2022-02-06T13:22:29Z</time>
      </trkpt>
      <trkpt lat="48.70737" lon="2.01756">
        <ele>158.7</ele>
        <time>2022-02-06T13:22:32Z</time>
      </trkpt>
      <trkpt lat="48.70735" lon="2.01764">
        <ele>159.5</ele>
        <time>2022-02-06T13:22:37Z</time>
      </trkpt>
      <trkpt lat="48.70734" lon="2.01772">
        <ele>160.2</ele>
        <time>2022-02-06T13:22:42Z</time>
      </trkpt>
      <trkpt lat="48.70734" lon="2.0178">
        <ele>160.4</ele>
        <time>2022-02-06T13:22:46Z</time>
      </trkpt>
      <trkpt lat="48.70733" lon="2.01787">
        <ele>160.3</ele>
        <time>2022-02-06T13:22:49Z</time>
      </trkpt>
      <trkpt lat="48.70732" lon="2.01794">
        <ele>160.3</ele>
        <time>2022-02-06T13:22:53Z</time>
      </trkpt>
      <trkpt lat="48.7073" lon="2.01803">
        <ele>159.6</ele>
        <time>2022-02-06T13:22:57Z</time>
      </trkpt>
      <trkpt lat="48.70726" lon="2.0181">
        <ele>158</ele>
        <time>2022-02-06T13:23:02Z</time>
      </trkpt>
      <trkpt lat="48.70724" lon="2.01818">
        <ele>156.7</ele>
        <time>2022-02-06T13:23:07Z</time>
      </trkpt>
      <trkpt lat="48.70722" lon="2.01826">
        <ele>156.7</ele>
        <time>2022-02-06T13:23:12Z</time>
      </trkpt>
      <trkpt lat="48.70721" lon="2.01834">
        <ele>157.4</ele>
        <time>2022-02-06T13:23:16Z</time>
      </trkpt>
      <trkpt lat="48.7072" lon="2.01843">
        <ele>158.2</ele>
        <time>2022-02-06T13:23:21Z</time>
      </trkpt>
      <trkpt lat="48.70719" lon="2.01851">
        <ele>157.1</ele>
        <time>2022-02-06T13:23:26Z</time>
      </trkpt>
      <trkpt lat="48.70718" lon="2.01859">
        <ele>157.4</ele>
        <time>2022-02-06T13:23:30Z</time>
      </trkpt>
      <trkpt lat="48.70717" lon="2.01866">
        <ele>157.6</ele>
        <time>2022-02-06T13:23:35Z</time>
      </trkpt>
      <trkpt lat="48.70717" lon="2.01874">
        <ele>156.6</ele>
        <time>2022-02-06T13:23:39Z</time>
      </trkpt>
      <trkpt lat="48.70716" lon="2.01881">
        <ele>154.6</ele>
        <time>2022-02-06T13:23:44Z</time>
      </trkpt>
      <trkpt lat="48.70715" lon="2.01888">
        <ele>153.6</ele>
        <time>2022-02-06T13:23:48Z</time>
      </trkpt>
      <trkpt lat="48.70714" lon="2.01895">
        <ele>154</ele>
        <time>2022-02-06T13:23:52Z</time>
      </trkpt>
      <trkpt lat="48.70712" lon="2.01903">
        <ele>154.3</ele>
        <time>2022-02-06T13:23:57Z</time>
      </trkpt>
      <trkpt lat="48.70709" lon="2.0191">
        <ele>154.3</ele>
        <time>2022-02-06T13:24:01Z</time>
      </trkpt>
      <trkpt lat="48.70708" lon="2.01917">
        <ele>153.9</ele>
        <time>2022-02-06T13:24:05Z</time>
      </trkpt>
      <trkpt lat="48.70707" lon="2.01923">
        <ele>153.4</ele>
        <time>2022-02-06T13:24:09Z</time>
      </trkpt>
      <trkpt lat="48.70706" lon="2.01932">
        <ele>152.3</ele>
        <time>2022-02-06T13:24:14Z</time>
      </trkpt>
      <trkpt lat="48.70705" lon="2.0194">
        <ele>151.1</ele>
        <time>2022-02-06T13:24:19Z</time>
      </trkpt>
      <trkpt lat="48.70704" lon="2.01947">
        <ele>150.2</ele>
        <time>2022-02-06T13:24:22Z</time>
      </trkpt>
      <trkpt lat="48.70702" lon="2.01955">
        <ele>149.6</ele>
        <time>2022-02-06T13:24:27Z</time>
      </trkpt>
      <trkpt lat="48.70701" lon="2.01962">
        <ele>149.8</ele>
        <time>2022-02-06T13:24:30Z</time>
      </trkpt>
      <trkpt lat="48.707" lon="2.0197">
        <ele>150.7</ele>
        <time>2022-02-06T13:24:34Z</time>
      </trkpt>
      <trkpt lat="48.707" lon="2.01977">
        <ele>150.8</ele>
        <time>2022-02-06T13:24:38Z</time>
      </trkpt>
      <trkpt lat="48.707" lon="2.01986">
        <ele>150.6</ele>
        <time>2022-02-06T13:24:43Z</time>
      </trkpt>
      <trkpt lat="48.707" lon="2.01993">
        <ele>150.6</ele>
        <time>2022-02-06T13:24:46Z</time>
      </trkpt>
      <trkpt lat="48.707" lon="2.02001">
        <ele>150.8</ele>
        <time>2022-02-06T13:24:51Z</time>
      </trkpt>
      <trkpt lat="48.707" lon="2.02008">
        <ele>150.6</ele>
        <time>2022-02-06T13:24:54Z</time>
      </trkpt>
      <trkpt lat="48.70701" lon="2.02017">
        <ele>150.3</ele>
        <time>2022-02-06T13:24:59Z</time>
      </trkpt>
      <trkpt lat="48.70701" lon="2.02024">
        <ele>150.1</ele>
        <time>2022-02-06T13:25:02Z</time>
      </trkpt>
      <trkpt lat="48.70703" lon="2.02032">
        <ele>150.1</ele>
        <time>2022-02-06T13:25:06Z</time>
      </trkpt>
      <trkpt lat="48.70705" lon="2.02041">
        <ele>149.8</ele>
        <time>2022-02-06T13:25:11Z</time>
      </trkpt>
      <trkpt lat="48.70706" lon="2.02048">
        <ele>149.3</ele>
        <time>2022-02-06T13:25:15Z</time>
      </trkpt>
      <trkpt lat="48.70706" lon="2.02055">
        <ele>148.6</ele>
        <time>2022-02-06T13:25:18Z</time>
      </trkpt>
      <trkpt lat="48.70706" lon="2.02062">
        <ele>148.1</ele>
        <time>2022-02-06T13:25:22Z</time>
      </trkpt>
      <trkpt lat="48.70706" lon="2.0207">
        <ele>147.7</ele>
        <time>2022-02-06T13:25:25Z</time>
      </trkpt>
      <trkpt lat="48.70706" lon="2.02078">
        <ele>147.3</ele>
        <time>2022-02-06T13:25:29Z</time>
      </trkpt>
      <trkpt lat="48.70706" lon="2.02085">
        <ele>146.6</ele>
        <time>2022-02-06T13:25:32Z</time>
      </trkpt>
      <trkpt lat="48.70706" lon="2.02094">
        <ele>146.3</ele>
        <time>2022-02-06T13:25:37Z</time>
      </trkpt>
      <trkpt lat="48.70705" lon="2.02101">
        <ele>146.7</ele>
        <time>2022-02-06T13:25:40Z</time>
      </trkpt>
      <trkpt lat="48.70706" lon="2.02109">
        <ele>147.9</ele>
        <time>2022-02-06T13:25:44Z</time>
      </trkpt>
      <trkpt lat="48.70707" lon="2.02117">
        <ele>149.1</ele>
        <time>2022-02-06T13:25:49Z</time>
      </trkpt>
      <trkpt lat="48.70707" lon="2.02124">
        <ele>149.2</ele>
        <time>2022-02-06T13:25:53Z</time>
      </trkpt>
      <trkpt lat="48.70707" lon="2.02132">
        <ele>149.4</ele>
        <time>2022-02-06T13:25:57Z</time>
      </trkpt>
      <trkpt lat="48.70708" lon="2.0214">
        <ele>150.2</ele>
        <time>2022-02-06T13:26:02Z</time>
      </trkpt>
      <trkpt lat="48.70709" lon="2.02148">
        <ele>151.2</ele>
        <time>2022-02-06T13:26:06Z</time>
      </trkpt>
      <trkpt lat="48.70709" lon="2.02155">
        <ele>151.8</ele>
        <time>2022-02-06T13:26:10Z</time>
      </trkpt>
      <trkpt lat="48.7071" lon="2.02164">
        <ele>152.2</ele>
        <time>2022-02-06T13:26:14Z</time>
      </trkpt>
      <trkpt lat="48.7071" lon="2.02173">
        <ele>151.6</ele>
        <time>2022-02-06T13:26:19Z</time>
      </trkpt>
      <trkpt lat="48.70711" lon="2.02183">
        <ele>151.1</ele>
        <time>2022-02-06T13:26:23Z</time>
      </trkpt>
      <trkpt lat="48.70712" lon="2.02192">
        <ele>151.3</ele>
        <time>2022-02-06T13:26:28Z</time>
      </trkpt>
      <trkpt lat="48.70712" lon="2.02201">
        <ele>152.2</ele>
        <time>2022-02-06T13:26:32Z</time>
      </trkpt>
      <trkpt lat="48.70712" lon="2.02209">
        <ele>154.5</ele>
        <time>2022-02-06T13:26:37Z</time>
      </trkpt>
      <trkpt lat="48.7071" lon="2.02217">
        <ele>156.4</ele>
        <time>2022-02-06T13:26:40Z</time>
      </trkpt>
      <trkpt lat="48.70709" lon="2.02224">
        <ele>158.4</ele>
        <time>2022-02-06T13:26:44Z</time>
      </trkpt>
      <trkpt lat="48.70707" lon="2.02232">
        <ele>161.5</ele>
        <time>2022-02-06T13:26:48Z</time>
      </trkpt>
      <trkpt lat="48.70705" lon="2.02241">
        <ele>162.1</ele>
        <time>2022-02-06T13:26:53Z</time>
      </trkpt>
      <trkpt lat="48.70702" lon="2.02248">
        <ele>160.4</ele>
        <time>2022-02-06T13:26:57Z</time>
      </trkpt>
      <trkpt lat="48.70701" lon="2.02256">
        <ele>160.3</ele>
        <time>2022-02-06T13:27:02Z</time>
      </trkpt>
      <trkpt lat="48.707" lon="2.02264">
        <ele>160.3</ele>
        <time>2022-02-06T13:27:06Z</time>
      </trkpt>
      <trkpt lat="48.70699" lon="2.02272">
        <ele>159.4</ele>
        <time>2022-02-06T13:27:10Z</time>
      </trkpt>
      <trkpt lat="48.70697" lon="2.0228">
        <ele>157.8</ele>
        <time>2022-02-06T13:27:15Z</time>
      </trkpt>
      <trkpt lat="48.70696" lon="2.02289">
        <ele>156.6</ele>
        <time>2022-02-06T13:27:19Z</time>
      </trkpt>
      <trkpt lat="48.70696" lon="2.02297">
        <ele>155.2</ele>
        <time>2022-02-06T13:27:24Z</time>
      </trkpt>
      <trkpt lat="48.70695" lon="2.02304">
        <ele>154.2</ele>
        <time>2022-02-06T13:27:27Z</time>
      </trkpt>
      <trkpt lat="48.70695" lon="2.02311">
        <ele>153.9</ele>
        <time>2022-02-06T13:27:31Z</time>
      </trkpt>
      <trkpt lat="48.70694" lon="2.0232">
        <ele>154</ele>
        <time>2022-02-06T13:27:35Z</time>
      </trkpt>
      <trkpt lat="48.70694" lon="2.02328">
        <ele>153.8</ele>
        <time>2022-02-06T13:27:40Z</time>
      </trkpt>
      <trkpt lat="48.70693" lon="2.02336">
        <ele>152.7</ele>
        <time>2022-02-06T13:27:44Z</time>
      </trkpt>
      <trkpt lat="48.70693" lon="2.02344">
        <ele>152.4</ele>
        <time>2022-02-06T13:27:47Z</time>
      </trkpt>
      <trkpt lat="48.70693" lon="2.02353">
        <ele>152.6</ele>
        <time>2022-02-06T13:27:51Z</time>
      </trkpt>
      <trkpt lat="48.70692" lon="2.02361">
        <ele>153</ele>
        <time>2022-02-06T13:27:55Z</time>
      </trkpt>
      <trkpt lat="48.7069" lon="2.02369">
        <ele>152.8</ele>
        <time>2022-02-06T13:27:59Z</time>
      </trkpt>
      <trkpt lat="48.7069" lon="2.02378">
        <ele>152.4</ele>
        <time>2022-02-06T13:28:04Z</time>
      </trkpt>
      <trkpt lat="48.70689" lon="2.02385">
        <ele>152</ele>
        <time>2022-02-06T13:28:07Z</time>
      </trkpt>
      <trkpt lat="48.70689" lon="2.02392">
        <ele>151.6</ele>
        <time>2022-02-06T13:28:10Z</time>
      </trkpt>
      <trkpt lat="48.70688" lon="2.024">
        <ele>151.5</ele>
        <time>2022-02-06T13:28:14Z</time>
      </trkpt>
      <trkpt lat="48.70687" lon="2.02407">
        <ele>151.4</ele>
        <time>2022-02-06T13:28:18Z</time>
      </trkpt>
      <trkpt lat="48.70686" lon="2.02415">
        <ele>151.5</ele>
        <time>2022-02-06T13:28:21Z</time>
      </trkpt>
      <trkpt lat="48.70686" lon="2.02424">
        <ele>151.3</ele>
        <time>2022-02-06T13:28:26Z</time>
      </trkpt>
      <trkpt lat="48.70685" lon="2.02431">
        <ele>151.5</ele>
        <time>2022-02-06T13:28:29Z</time>
      </trkpt>
      <trkpt lat="48.70685" lon="2.02438">
        <ele>152</ele>
        <time>2022-02-06T13:28:33Z</time>
      </trkpt>
      <trkpt lat="48.70684" lon="2.02445">
        <ele>152.8</ele>
        <time>2022-02-06T13:28:36Z</time>
      </trkpt>
      <trkpt lat="48.70684" lon="2.02453">
        <ele>153.7</ele>
        <time>2022-02-06T13:28:40Z</time>
      </trkpt>
      <trkpt lat="48.70685" lon="2.02462">
        <ele>153.9</ele>
        <time>2022-02-06T13:28:45Z</time>
      </trkpt>
      <trkpt lat="48.70686" lon="2.0247">
        <ele>153.7</ele>
        <time>2022-02-06T13:28:48Z</time>
      </trkpt>
      <trkpt lat="48.70687" lon="2.02478">
        <ele>153.8</ele>
        <time>2022-02-06T13:28:52Z</time>
      </trkpt>
      <trkpt lat="48.70688" lon="2.02485">
        <ele>153.7</ele>
        <time>2022-02-06T13:28:56Z</time>
      </trkpt>
      <trkpt lat="48.70691" lon="2.02493">
        <ele>153.4</ele>
        <time>2022-02-06T13:29:01Z</time>
      </trkpt>
      <trkpt lat="48.70693" lon="2.02499">
        <ele>153.2</ele>
        <time>2022-02-06T13:29:04Z</time>
      </trkpt>
      <trkpt lat="48.70696" lon="2.02506">
        <ele>152.8</ele>
        <time>2022-02-06T13:29:09Z</time>
      </trkpt>
      <trkpt lat="48.707" lon="2.0251">
        <ele>153.3</ele>
        <time>2022-02-06T13:29:13Z</time>
      </trkpt>
      <trkpt lat="48.70702" lon="2.02516">
        <ele>153.9</ele>
        <time>2022-02-06T13:29:17Z</time>
      </trkpt>
      <trkpt lat="48.70704" lon="2.02524">
        <ele>154.2</ele>
        <time>2022-02-06T13:29:20Z</time>
      </trkpt>
      <trkpt lat="48.70706" lon="2.02531">
        <ele>153.9</ele>
        <time>2022-02-06T13:29:24Z</time>
      </trkpt>
      <trkpt lat="48.70708" lon="2.02538">
        <ele>152.9</ele>
        <time>2022-02-06T13:29:28Z</time>
      </trkpt>
      <trkpt lat="48.70711" lon="2.02546">
        <ele>152.3</ele>
        <time>2022-02-06T13:29:33Z</time>
      </trkpt>
      <trkpt lat="48.70712" lon="2.02553">
        <ele>151.7</ele>
        <time>2022-02-06T13:29:37Z</time>
      </trkpt>
      <trkpt lat="48.70715" lon="2.0256">
        <ele>151.1</ele>
        <time>2022-02-06T13:29:40Z</time>
      </trkpt>
      <trkpt lat="48.70716" lon="2.02568">
        <ele>150.5</ele>
        <time>2022-02-06T13:29:45Z</time>
      </trkpt>
      <trkpt lat="48.70718" lon="2.02576">
        <ele>150.6</ele>
        <time>2022-02-06T13:29:49Z</time>
      </trkpt>
      <trkpt lat="48.70718" lon="2.02583">
        <ele>151.2</ele>
        <time>2022-02-06T13:29:52Z</time>
      </trkpt>
      <trkpt lat="48.70719" lon="2.02592">
        <ele>150.8</ele>
        <time>2022-02-06T13:29:57Z</time>
      </trkpt>
      <trkpt lat="48.7072" lon="2.02599">
        <ele>149.1</ele>
        <time>2022-02-06T13:30:00Z</time>
      </trkpt>
      <trkpt lat="48.70721" lon="2.02608">
        <ele>145.9</ele>
        <time>2022-02-06T13:30:05Z</time>
      </trkpt>
      <trkpt lat="48.70723" lon="2.02615">
        <ele>144.1</ele>
        <time>2022-02-06T13:30:10Z</time>
      </trkpt>
      <trkpt lat="48.70723" lon="2.02623">
        <ele>143.4</ele>
        <time>2022-02-06T13:30:14Z</time>
      </trkpt>
      <trkpt lat="48.70723" lon="2.0263">
        <ele>142.9</ele>
        <time>2022-02-06T13:30:17Z</time>
      </trkpt>
      <trkpt lat="48.70724" lon="2.02638">
        <ele>142.1</ele>
        <time>2022-02-06T13:30:21Z</time>
      </trkpt>
      <trkpt lat="48.70725" lon="2.02646">
        <ele>141.2</ele>
        <time>2022-02-06T13:30:25Z</time>
      </trkpt>
      <trkpt lat="48.70726" lon="2.02653">
        <ele>140.7</ele>
        <time>2022-02-06T13:30:29Z</time>
      </trkpt>
      <trkpt lat="48.70727" lon="2.02661">
        <ele>140.6</ele>
        <time>2022-02-06T13:30:34Z</time>
      </trkpt>
      <trkpt lat="48.70728" lon="2.02669">
        <ele>140.1</ele>
        <time>2022-02-06T13:30:38Z</time>
      </trkpt>
      <trkpt lat="48.70728" lon="2.02677">
        <ele>139.7</ele>
        <time>2022-02-06T13:30:42Z</time>
      </trkpt>
      <trkpt lat="48.70727" lon="2.02684">
        <ele>139.6</ele>
        <time>2022-02-06T13:30:47Z</time>
      </trkpt>
      <trkpt lat="48.70727" lon="2.02691">
        <ele>139.2</ele>
        <time>2022-02-06T13:30:50Z</time>
      </trkpt>
      <trkpt lat="48.70727" lon="2.02699">
        <ele>138.1</ele>
        <time>2022-02-06T13:30:54Z</time>
      </trkpt>
      <trkpt lat="48.70728" lon="2.02707">
        <ele>137.3</ele>
        <time>2022-02-06T13:30:58Z</time>
      </trkpt>
      <trkpt lat="48.70729" lon="2.02715">
        <ele>137</ele>
        <time>2022-02-06T13:31:02Z</time>
      </trkpt>
      <trkpt lat="48.7073" lon="2.02723">
        <ele>136.6</ele>
        <time>2022-02-06T13:31:06Z</time>
      </trkpt>
      <trkpt lat="48.70731" lon="2.0273">
        <ele>136.2</ele>
        <time>2022-02-06T13:31:10Z</time>
      </trkpt>
      <trkpt lat="48.70732" lon="2.02739">
        <ele>135.8</ele>
        <time>2022-02-06T13:31:14Z</time>
      </trkpt>
      <trkpt lat="48.70734" lon="2.02747">
        <ele>135.6</ele>
        <time>2022-02-06T13:31:19Z</time>
      </trkpt>
      <trkpt lat="48.70734" lon="2.02755">
        <ele>135.2</ele>
        <time>2022-02-06T13:31:23Z</time>
      </trkpt>
      <trkpt lat="48.70736" lon="2.02762">
        <ele>134.6</ele>
        <time>2022-02-06T13:31:27Z</time>
      </trkpt>
      <trkpt lat="48.70737" lon="2.02771">
        <ele>134</ele>
        <time>2022-02-06T13:31:31Z</time>
      </trkpt>
      <trkpt lat="48.70739" lon="2.02778">
        <ele>133.5</ele>
        <time>2022-02-06T13:31:35Z</time>
      </trkpt>
      <trkpt lat="48.70741" lon="2.02786">
        <ele>132.9</ele>
        <time>2022-02-06T13:31:38Z</time>
      </trkpt>
      <trkpt lat="48.70742" lon="2.02794">
        <ele>131.5</ele>
        <time>2022-02-06T13:31:43Z</time>
      </trkpt>
      <trkpt lat="48.70744" lon="2.028">
        <ele>130.3</ele>
        <time>2022-02-06T13:31:46Z</time>
      </trkpt>
      <trkpt lat="48.70747" lon="2.02807">
        <ele>129</ele>
        <time>2022-02-06T13:31:51Z</time>
      </trkpt>
      <trkpt lat="48.70749" lon="2.02816">
        <ele>128.6</ele>
        <time>2022-02-06T13:31:55Z</time>
      </trkpt>
      <trkpt lat="48.70751" lon="2.02824">
        <ele>128.5</ele>
        <time>2022-02-06T13:32:00Z</time>
      </trkpt>
      <trkpt lat="48.70753" lon="2.0283">
        <ele>128.3</ele>
        <time>2022-02-06T13:32:03Z</time>
      </trkpt>
      <trkpt lat="48.70755" lon="2.02837">
        <ele>128.1</ele>
        <time>2022-02-06T13:32:07Z</time>
      </trkpt>
      <trkpt lat="48.70758" lon="2.02844">
        <ele>127.6</ele>
        <time>2022-02-06T13:32:11Z</time>
      </trkpt>
      <trkpt lat="48.7076" lon="2.02852">
        <ele>126.9</ele>
        <time>2022-02-06T13:32:15Z</time>
      </trkpt>
      <trkpt lat="48.70763" lon="2.02857">
        <ele>126.5</ele>
        <time>2022-02-06T13:32:18Z</time>
      </trkpt>
      <trkpt lat="48.70765" lon="2.02865">
        <ele>125.9</ele>
        <time>2022-02-06T13:32:23Z</time>
      </trkpt>
      <trkpt lat="48.70768" lon="2.02872">
        <ele>124.7</ele>
        <time>2022-02-06T13:32:27Z</time>
      </trkpt>
      <trkpt lat="48.7077" lon="2.02879">
        <ele>123.5</ele>
        <time>2022-02-06T13:32:31Z</time>
      </trkpt>
      <trkpt lat="48.70772" lon="2.02888">
        <ele>122.7</ele>
        <time>2022-02-06T13:32:36Z</time>
      </trkpt>
      <trkpt lat="48.70774" lon="2.02896">
        <ele>122.4</ele>
        <time>2022-02-06T13:32:40Z</time>
      </trkpt>
      <trkpt lat="48.70776" lon="2.02905">
        <ele>122.4</ele>
        <time>2022-02-06T13:32:44Z</time>
      </trkpt>
      <trkpt lat="48.70779" lon="2.02911">
        <ele>122.1</ele>
        <time>2022-02-06T13:32:48Z</time>
      </trkpt>
      <trkpt lat="48.70781" lon="2.02919">
        <ele>121.8</ele>
        <time>2022-02-06T13:32:52Z</time>
      </trkpt>
      <trkpt lat="48.70783" lon="2.02927">
        <ele>121.8</ele>
        <time>2022-02-06T13:32:56Z</time>
      </trkpt>
      <trkpt lat="48.70786" lon="2.02934">
        <ele>121.6</ele>
        <time>2022-02-06T13:33:01Z</time>
      </trkpt>
      <trkpt lat="48.70788" lon="2.02942">
        <ele>120.5</ele>
        <time>2022-02-06T13:33:05Z</time>
      </trkpt>
      <trkpt lat="48.7079" lon="2.0295">
        <ele>119.3</ele>
        <time>2022-02-06T13:33:09Z</time>
      </trkpt>
      <trkpt lat="48.70791" lon="2.02957">
        <ele>119</ele>
        <time>2022-02-06T13:33:12Z</time>
      </trkpt>
      <trkpt lat="48.70793" lon="2.02964">
        <ele>118.8</ele>
        <time>2022-02-06T13:33:16Z</time>
      </trkpt>
      <trkpt lat="48.70795" lon="2.02973">
        <ele>118.4</ele>
        <time>2022-02-06T13:33:21Z</time>
      </trkpt>
      <trkpt lat="48.70796" lon="2.02979">
        <ele>117.8</ele>
        <time>2022-02-06T13:33:24Z</time>
      </trkpt>
      <trkpt lat="48.70796" lon="2.02987">
        <ele>116.7</ele>
        <time>2022-02-06T13:33:28Z</time>
      </trkpt>
      <trkpt lat="48.70794" lon="2.02995">
        <ele>115.7</ele>
        <time>2022-02-06T13:33:32Z</time>
      </trkpt>
      <trkpt lat="48.70791" lon="2.03003">
        <ele>115.2</ele>
        <time>2022-02-06T13:33:37Z</time>
      </trkpt>
      <trkpt lat="48.70789" lon="2.0301">
        <ele>114.9</ele>
        <time>2022-02-06T13:33:40Z</time>
      </trkpt>
      <trkpt lat="48.70787" lon="2.03016">
        <ele>114.5</ele>
        <time>2022-02-06T13:33:44Z</time>
      </trkpt>
      <trkpt lat="48.70786" lon="2.03023">
        <ele>114.1</ele>
        <time>2022-02-06T13:33:47Z</time>
      </trkpt>
      <trkpt lat="48.70785" lon="2.0303">
        <ele>113.9</ele>
        <time>2022-02-06T13:33:51Z</time>
      </trkpt>
      <trkpt lat="48.70783" lon="2.03036">
        <ele>113.8</ele>
        <time>2022-02-06T13:33:54Z</time>
      </trkpt>
      <trkpt lat="48.7078" lon="2.03044">
        <ele>113.1</ele>
        <time>2022-02-06T13:33:59Z</time>
      </trkpt>
      <trkpt lat="48.70778" lon="2.03051">
        <ele>112.8</ele>
        <time>2022-02-06T13:34:02Z</time>
      </trkpt>
      <trkpt lat="48.70777" lon="2.03059">
        <ele>112.7</ele>
        <time>2022-02-06T13:34:07Z</time>
      </trkpt>
      <trkpt lat="48.70774" lon="2.03066">
        <ele>111.5</ele>
        <time>2022-02-06T13:34:12Z</time>
      </trkpt>
      <trkpt lat="48.70771" lon="2.03072">
        <ele>110.9</ele>
        <time>2022-02-06T13:34:16Z</time>
      </trkpt>
      <trkpt lat="48.70767" lon="2.03078">
        <ele>111.3</ele>
        <time>2022-02-06T13:34:20Z</time>
      </trkpt>
      <trkpt lat="48.70764" lon="2.03084">
        <ele>111.1</ele>
        <time>2022-02-06T13:34:24Z</time>
      </trkpt>
      <trkpt lat="48.70761" lon="2.03091">
        <ele>110.1</ele>
        <time>2022-02-06T13:34:29Z</time>
      </trkpt>
      <trkpt lat="48.70758" lon="2.03097">
        <ele>108.8</ele>
        <time>2022-02-06T13:34:33Z</time>
      </trkpt>
      <trkpt lat="48.70753" lon="2.03103">
        <ele>106.8</ele>
        <time>2022-02-06T13:34:37Z</time>
      </trkpt>
      <trkpt lat="48.70748" lon="2.03105">
        <ele>103.2</ele>
        <time>2022-02-06T13:34:42Z</time>
      </trkpt>
      <trkpt lat="48.70743" lon="2.03109">
        <ele>99.3</ele>
        <time>2022-02-06T13:34:47Z</time>
      </trkpt>
      <trkpt lat="48.70742" lon="2.03116">
        <ele>97.2</ele>
        <time>2022-02-06T13:34:52Z</time>
      </trkpt>
      <trkpt lat="48.70739" lon="2.03122">
        <ele>97.3</ele>
        <time>2022-02-06T13:34:57Z</time>
      </trkpt>
      <trkpt lat="48.70735" lon="2.03128">
        <ele>97.7</ele>
        <time>2022-02-06T13:35:01Z</time>
      </trkpt>
      <trkpt lat="48.70733" lon="2.03136">
        <ele>96.2</ele>
        <time>2022-02-06T13:35:07Z</time>
      </trkpt>
      <trkpt lat="48.70734" lon="2.03126">
        <ele>95.4</ele>
        <time>2022-02-06T13:35:16Z</time>
      </trkpt>
      <trkpt lat="48.70736" lon="2.03118">
        <ele>94.8</ele>
        <time>2022-02-06T13:35:20Z</time>
      </trkpt>
      <trkpt lat="48.7074" lon="2.0312">
        <ele>94.1</ele>
        <time>2022-02-06T13:35:24Z</time>
      </trkpt>
      <trkpt lat="48.70745" lon="2.03125">
        <ele>93.7</ele>
        <time>2022-02-06T13:35:29Z</time>
      </trkpt>
      <trkpt lat="48.7075" lon="2.0313">
        <ele>93.5</ele>
        <time>2022-02-06T13:35:35Z</time>
      </trkpt>
      <trkpt lat="48.70753" lon="2.03135">
        <ele>94</ele>
        <time>2022-02-06T13:35:39Z</time>
      </trkpt>
      <trkpt lat="48.70756" lon="2.03142">
        <ele>94.2</ele>
        <time>2022-02-06T13:35:44Z</time>
      </trkpt>
      <trkpt lat="48.70757" lon="2.0315">
        <ele>94.4</ele>
        <time>2022-02-06T13:35:48Z</time>
      </trkpt>
      <trkpt lat="48.70758" lon="2.03158">
        <ele>94.3</ele>
        <time>2022-02-06T13:35:54Z</time>
      </trkpt>
      <trkpt lat="48.7076" lon="2.03165">
        <ele>94</ele>
        <time>2022-02-06T13:35:59Z</time>
      </trkpt>
      <trkpt lat="48.70762" lon="2.03172">
        <ele>93.7</ele>
        <time>2022-02-06T13:36:03Z</time>
      </trkpt>
      <trkpt lat="48.70765" lon="2.03179">
        <ele>93.1</ele>
        <time>2022-02-06T13:36:09Z</time>
      </trkpt>
      <trkpt lat="48.70769" lon="2.0318">
        <ele>93.5</ele>
        <time>2022-02-06T13:36:14Z</time>
      </trkpt>
      <trkpt lat="48.70774" lon="2.03182">
        <ele>93.2</ele>
        <time>2022-02-06T13:36:19Z</time>
      </trkpt>
      <trkpt lat="48.70777" lon="2.03188">
        <ele>92.4</ele>
        <time>2022-02-06T13:36:22Z</time>
      </trkpt>
      <trkpt lat="48.70779" lon="2.03195">
        <ele>91.5</ele>
        <time>2022-02-06T13:36:25Z</time>
      </trkpt>
      <trkpt lat="48.70783" lon="2.032">
        <ele>90.7</ele>
        <time>2022-02-06T13:36:29Z</time>
      </trkpt>
      <trkpt lat="48.70787" lon="2.03205">
        <ele>90.3</ele>
        <time>2022-02-06T13:36:33Z</time>
      </trkpt>
      <trkpt lat="48.70786" lon="2.03212">
        <ele>90.4</ele>
        <time>2022-02-06T13:36:37Z</time>
      </trkpt>
      <trkpt lat="48.70788" lon="2.0322">
        <ele>90.7</ele>
        <time>2022-02-06T13:36:43Z</time>
      </trkpt>
      <trkpt lat="48.70793" lon="2.03224">
        <ele>89.8</ele>
        <time>2022-02-06T13:36:47Z</time>
      </trkpt>
      <trkpt lat="48.70796" lon="2.03229">
        <ele>89.9</ele>
        <time>2022-02-06T13:36:52Z</time>
      </trkpt>
      <trkpt lat="48.708" lon="2.03234">
        <ele>90.8</ele>
        <time>2022-02-06T13:36:57Z</time>
      </trkpt>
      <trkpt lat="48.70802" lon="2.03242">
        <ele>90.4</ele>
        <time>2022-02-06T13:37:03Z</time>
      </trkpt>
      <trkpt lat="48.70803" lon="2.0325">
        <ele>87.5</ele>
        <time>2022-02-06T13:37:08Z</time>
      </trkpt>
      <trkpt lat="48.70804" lon="2.03258">
        <ele>87.2</ele>
        <time>2022-02-06T13:37:14Z</time>
      </trkpt>
      <trkpt lat="48.70808" lon="2.03264">
        <ele>88.3</ele>
        <time>2022-02-06T13:37:18Z</time>
      </trkpt>
      <trkpt lat="48.70812" lon="2.03269">
        <ele>87</ele>
        <time>2022-02-06T13:37:22Z</time>
      </trkpt>
      <trkpt lat="48.70814" lon="2.03276">
        <ele>84.8</ele>
        <time>2022-02-06T13:37:29Z</time>
      </trkpt>
      <trkpt lat="48.70809" lon="2.03275">
        <ele>84.2</ele>
        <time>2022-02-06T13:38:13Z</time>
      </trkpt>
      <trkpt lat="48.70805" lon="2.0328">
        <ele>83.3</ele>
        <time>2022-02-06T13:38:17Z</time>
      </trkpt>
      <trkpt lat="48.70801" lon="2.03284">
        <ele>82.7</ele>
        <time>2022-02-06T13:38:20Z</time>
      </trkpt>
      <trkpt lat="48.70797" lon="2.03286">
        <ele>82</ele>
        <time>2022-02-06T13:38:23Z</time>
      </trkpt>
      <trkpt lat="48.70792" lon="2.03289">
        <ele>81</ele>
        <time>2022-02-06T13:38:27Z</time>
      </trkpt>
      <trkpt lat="48.70788" lon="2.03292">
        <ele>80.6</ele>
        <time>2022-02-06T13:38:32Z</time>
      </trkpt>
      <trkpt lat="48.70783" lon="2.03296">
        <ele>80.6</ele>
        <time>2022-02-06T13:38:36Z</time>
      </trkpt>
      <trkpt lat="48.70778" lon="2.03299">
        <ele>80.8</ele>
        <time>2022-02-06T13:38:40Z</time>
      </trkpt>
      <trkpt lat="48.70774" lon="2.03305">
        <ele>81</ele>
        <time>2022-02-06T13:38:44Z</time>
      </trkpt>
      <trkpt lat="48.70769" lon="2.03309">
        <ele>81.4</ele>
        <time>2022-02-06T13:38:48Z</time>
      </trkpt>
      <trkpt lat="48.70765" lon="2.03312">
        <ele>81.5</ele>
        <time>2022-02-06T13:38:52Z</time>
      </trkpt>
      <trkpt lat="48.70759" lon="2.03315">
        <ele>81.7</ele>
        <time>2022-02-06T13:38:56Z</time>
      </trkpt>
      <trkpt lat="48.70755" lon="2.03317">
        <ele>82.3</ele>
        <time>2022-02-06T13:39:00Z</time>
      </trkpt>
      <trkpt lat="48.70749" lon="2.03319">
        <ele>82.9</ele>
        <time>2022-02-06T13:39:04Z</time>
      </trkpt>
      <trkpt lat="48.70745" lon="2.03323">
        <ele>82.8</ele>
        <time>2022-02-06T13:39:08Z</time>
      </trkpt>
      <trkpt lat="48.70742" lon="2.03327">
        <ele>82.6</ele>
        <time>2022-02-06T13:39:12Z</time>
      </trkpt>
      <trkpt lat="48.70736" lon="2.03331">
        <ele>82.2</ele>
        <time>2022-02-06T13:39:16Z</time>
      </trkpt>
      <trkpt lat="48.70731" lon="2.03335">
        <ele>81.6</ele>
        <time>2022-02-06T13:39:21Z</time>
      </trkpt>
      <trkpt lat="48.70727" lon="2.03339">
        <ele>81.4</ele>
        <time>2022-02-06T13:39:25Z</time>
      </trkpt>
      <trkpt lat="48.70722" lon="2.03343">
        <ele>82.1</ele>
        <time>2022-02-06T13:39:30Z</time>
      </trkpt>
      <trkpt lat="48.70717" lon="2.03347">
        <ele>82.9</ele>
        <time>2022-02-06T13:39:34Z</time>
      </trkpt>
      <trkpt lat="48.70713" lon="2.03353">
        <ele>83.1</ele>
        <time>2022-02-06T13:39:38Z</time>
      </trkpt>
      <trkpt lat="48.70713" lon="2.03361">
        <ele>82.9</ele>
        <time>2022-02-06T13:39:43Z</time>
      </trkpt>
      <trkpt lat="48.70718" lon="2.03365">
        <ele>82.9</ele>
        <time>2022-02-06T13:39:47Z</time>
      </trkpt>
      <trkpt lat="48.70728" lon="2.03367">
        <ele>83.4</ele>
        <time>2022-02-06T13:39:53Z</time>
      </trkpt>
      <trkpt lat="48.70732" lon="2.03372">
        <ele>83.5</ele>
        <time>2022-02-06T13:39:58Z</time>
      </trkpt>
      <trkpt lat="48.70736" lon="2.03379">
        <ele>82.6</ele>
        <time>2022-02-06T13:40:02Z</time>
      </trkpt>
      <trkpt lat="48.70738" lon="2.03388">
        <ele>81.7</ele>
        <time>2022-02-06T13:40:06Z</time>
      </trkpt>
      <trkpt lat="48.7074" lon="2.03396">
        <ele>81.3</ele>
        <time>2022-02-06T13:40:10Z</time>
      </trkpt>
      <trkpt lat="48.70742" lon="2.03404">
        <ele>81.2</ele>
        <time>2022-02-06T13:40:14Z</time>
      </trkpt>
      <trkpt lat="48.70743" lon="2.03412">
        <ele>80.4</ele>
        <time>2022-02-06T13:40:18Z</time>
      </trkpt>
      <trkpt lat="48.70745" lon="2.0342">
        <ele>80</ele>
        <time>2022-02-06T13:40:22Z</time>
      </trkpt>
      <trkpt lat="48.70747" lon="2.03427">
        <ele>80</ele>
        <time>2022-02-06T13:40:26Z</time>
      </trkpt>
      <trkpt lat="48.70749" lon="2.03434">
        <ele>79.6</ele>
        <time>2022-02-06T13:40:29Z</time>
      </trkpt>
      <trkpt lat="48.70752" lon="2.0344">
        <ele>79</ele>
        <time>2022-02-06T13:40:33Z</time>
      </trkpt>
      <trkpt lat="48.70755" lon="2.03446">
        <ele>78.7</ele>
        <time>2022-02-06T13:40:36Z</time>
      </trkpt>
      <trkpt lat="48.70759" lon="2.03452">
        <ele>78.6</ele>
        <time>2022-02-06T13:40:40Z</time>
      </trkpt>
      <trkpt lat="48.70763" lon="2.03457">
        <ele>78.5</ele>
        <time>2022-02-06T13:40:44Z</time>
      </trkpt>
      <trkpt lat="48.70765" lon="2.03464">
        <ele>78.7</ele>
        <time>2022-02-06T13:40:48Z</time>
      </trkpt>
      <trkpt lat="48.70768" lon="2.0347">
        <ele>79.5</ele>
        <time>2022-02-06T13:40:52Z</time>
      </trkpt>
      <trkpt lat="48.70771" lon="2.03478">
        <ele>80.5</ele>
        <time>2022-02-06T13:40:56Z</time>
      </trkpt>
      <trkpt lat="48.70773" lon="2.03485">
        <ele>81</ele>
        <time>2022-02-06T13:41:00Z</time>
      </trkpt>
      <trkpt lat="48.70774" lon="2.03493">
        <ele>81</ele>
        <time>2022-02-06T13:41:04Z</time>
      </trkpt>
      <trkpt lat="48.70777" lon="2.03501">
        <ele>80.9</ele>
        <time>2022-02-06T13:41:09Z</time>
      </trkpt>
      <trkpt lat="48.70781" lon="2.03505">
        <ele>80.8</ele>
        <time>2022-02-06T13:41:13Z</time>
      </trkpt>
      <trkpt lat="48.70786" lon="2.03511">
        <ele>80.3</ele>
        <time>2022-02-06T13:41:19Z</time>
      </trkpt>
      <trkpt lat="48.70787" lon="2.03519">
        <ele>79.6</ele>
        <time>2022-02-06T13:41:22Z</time>
      </trkpt>
      <trkpt lat="48.7079" lon="2.03526">
        <ele>79.5</ele>
        <time>2022-02-06T13:41:26Z</time>
      </trkpt>
      <trkpt lat="48.70793" lon="2.03532">
        <ele>79.5</ele>
        <time>2022-02-06T13:41:30Z</time>
      </trkpt>
      <trkpt lat="48.70796" lon="2.03537">
        <ele>79.7</ele>
        <time>2022-02-06T13:41:34Z</time>
      </trkpt>
      <trkpt lat="48.708" lon="2.03544">
        <ele>79.8</ele>
        <time>2022-02-06T13:41:39Z</time>
      </trkpt>
      <trkpt lat="48.70803" lon="2.03552">
        <ele>79.6</ele>
        <time>2022-02-06T13:41:43Z</time>
      </trkpt>
      <trkpt lat="48.70805" lon="2.03559">
        <ele>79</ele>
        <time>2022-02-06T13:41:47Z</time>
      </trkpt>
      <trkpt lat="48.70808" lon="2.03566">
        <ele>78.2</ele>
        <time>2022-02-06T13:41:51Z</time>
      </trkpt>
      <trkpt lat="48.7081" lon="2.03574">
        <ele>77.3</ele>
        <time>2022-02-06T13:41:56Z</time>
      </trkpt>
      <trkpt lat="48.70811" lon="2.03583">
        <ele>76.6</ele>
        <time>2022-02-06T13:42:00Z</time>
      </trkpt>
      <trkpt lat="48.70812" lon="2.0359">
        <ele>76.3</ele>
        <time>2022-02-06T13:42:04Z</time>
      </trkpt>
      <trkpt lat="48.70813" lon="2.03597">
        <ele>76.1</ele>
        <time>2022-02-06T13:42:07Z</time>
      </trkpt>
      <trkpt lat="48.70815" lon="2.03604">
        <ele>75.9</ele>
        <time>2022-02-06T13:42:11Z</time>
      </trkpt>
      <trkpt lat="48.70816" lon="2.03614">
        <ele>75.5</ele>
        <time>2022-02-06T13:42:16Z</time>
      </trkpt>
      <trkpt lat="48.70816" lon="2.03622">
        <ele>75.2</ele>
        <time>2022-02-06T13:42:20Z</time>
      </trkpt>
      <trkpt lat="48.7082" lon="2.03628">
        <ele>75</ele>
        <time>2022-02-06T13:42:24Z</time>
      </trkpt>
      <trkpt lat="48.70825" lon="2.03631">
        <ele>75</ele>
        <time>2022-02-06T13:42:29Z</time>
      </trkpt>
      <trkpt lat="48.70828" lon="2.03635">
        <ele>75.3</ele>
        <time>2022-02-06T13:42:33Z</time>
      </trkpt>
      <trkpt lat="48.70832" lon="2.0364">
        <ele>75.4</ele>
        <time>2022-02-06T13:42:37Z</time>
      </trkpt>
      <trkpt lat="48.70836" lon="2.03648">
        <ele>75.2</ele>
        <time>2022-02-06T13:42:41Z</time>
      </trkpt>
      <trkpt lat="48.70839" lon="2.03654">
        <ele>74.6</ele>
        <time>2022-02-06T13:42:45Z</time>
      </trkpt>
      <trkpt lat="48.70843" lon="2.0366">
        <ele>74.8</ele>
        <time>2022-02-06T13:42:50Z</time>
      </trkpt>
      <trkpt lat="48.70847" lon="2.03667">
        <ele>75.7</ele>
        <time>2022-02-06T13:42:54Z</time>
      </trkpt>
      <trkpt lat="48.7085" lon="2.03673">
        <ele>76.1</ele>
        <time>2022-02-06T13:42:59Z</time>
      </trkpt>
      <trkpt lat="48.70853" lon="2.0368">
        <ele>76</ele>
        <time>2022-02-06T13:43:04Z</time>
      </trkpt>
      <trkpt lat="48.70858" lon="2.03683">
        <ele>75.6</ele>
        <time>2022-02-06T13:43:08Z</time>
      </trkpt>
      <trkpt lat="48.70862" lon="2.03678">
        <ele>75.1</ele>
        <time>2022-02-06T13:43:15Z</time>
      </trkpt>
      <trkpt lat="48.70867" lon="2.03675">
        <ele>75.1</ele>
        <time>2022-02-06T13:43:20Z</time>
      </trkpt>
      <trkpt lat="48.70872" lon="2.03674">
        <ele>74.6</ele>
        <time>2022-02-06T13:43:25Z</time>
      </trkpt>
      <trkpt lat="48.70869" lon="2.03669">
        <ele>70.9</ele>
        <time>2022-02-06T13:43:50Z</time>
      </trkpt>
      <trkpt lat="48.70873" lon="2.03674">
        <ele>72.1</ele>
        <time>2022-02-06T13:44:45Z</time>
      </trkpt>
      <trkpt lat="48.70878" lon="2.03675">
        <ele>70.6</ele>
        <time>2022-02-06T13:45:33Z</time>
      </trkpt>
      <trkpt lat="48.70883" lon="2.03677">
        <ele>70.9</ele>
        <time>2022-02-06T13:45:38Z</time>
      </trkpt>
      <trkpt lat="48.70887" lon="2.03681">
        <ele>71.7</ele>
        <time>2022-02-06T13:45:42Z</time>
      </trkpt>
      <trkpt lat="48.70892" lon="2.03684">
        <ele>72.8</ele>
        <time>2022-02-06T13:45:47Z</time>
      </trkpt>
      <trkpt lat="48.70896" lon="2.0369">
        <ele>73.5</ele>
        <time>2022-02-06T13:46:14Z</time>
      </trkpt>
      <trkpt lat="48.70899" lon="2.03696">
        <ele>74</ele>
        <time>2022-02-06T13:46:18Z</time>
      </trkpt>
      <trkpt lat="48.70901" lon="2.03702">
        <ele>73.1</ele>
        <time>2022-02-06T13:46:23Z</time>
      </trkpt>
      <trkpt lat="48.70904" lon="2.03709">
        <ele>71.9</ele>
        <time>2022-02-06T13:46:27Z</time>
      </trkpt>
      <trkpt lat="48.70907" lon="2.03716">
        <ele>70.3</ele>
        <time>2022-02-06T13:46:32Z</time>
      </trkpt>
      <trkpt lat="48.7091" lon="2.03723">
        <ele>69.4</ele>
        <time>2022-02-06T13:46:37Z</time>
      </trkpt>
      <trkpt lat="48.70912" lon="2.03731">
        <ele>69</ele>
        <time>2022-02-06T13:46:41Z</time>
      </trkpt>
      <trkpt lat="48.70914" lon="2.03737">
        <ele>68.6</ele>
        <time>2022-02-06T13:46:45Z</time>
      </trkpt>
      <trkpt lat="48.70918" lon="2.03744">
        <ele>68</ele>
        <time>2022-02-06T13:46:50Z</time>
      </trkpt>
      <trkpt lat="48.70921" lon="2.03749">
        <ele>67.4</ele>
        <time>2022-02-06T13:46:55Z</time>
      </trkpt>
      <trkpt lat="48.70923" lon="2.03756">
        <ele>66.2</ele>
        <time>2022-02-06T13:46:59Z</time>
      </trkpt>
      <trkpt lat="48.70926" lon="2.03762">
        <ele>65.1</ele>
        <time>2022-02-06T13:47:04Z</time>
      </trkpt>
      <trkpt lat="48.70929" lon="2.03769">
        <ele>65</ele>
        <time>2022-02-06T13:47:08Z</time>
      </trkpt>
      <trkpt lat="48.70933" lon="2.03775">
        <ele>65.7</ele>
        <time>2022-02-06T13:47:13Z</time>
      </trkpt>
      <trkpt lat="48.70936" lon="2.03779">
        <ele>67</ele>
        <time>2022-02-06T13:47:18Z</time>
      </trkpt>
      <trkpt lat="48.70941" lon="2.03779">
        <ele>69.6</ele>
        <time>2022-02-06T13:47:22Z</time>
      </trkpt>
      <trkpt lat="48.70944" lon="2.03773">
        <ele>72.6</ele>
        <time>2022-02-06T13:47:27Z</time>
      </trkpt>
      <trkpt lat="48.70947" lon="2.03768">
        <ele>75.3</ele>
        <time>2022-02-06T13:47:32Z</time>
      </trkpt>
      <trkpt lat="48.70951" lon="2.03763">
        <ele>76.6</ele>
        <time>2022-02-06T13:47:38Z</time>
      </trkpt>
      <trkpt lat="48.70954" lon="2.03757">
        <ele>78.8</ele>
        <time>2022-02-06T13:47:43Z</time>
      </trkpt>
      <trkpt lat="48.70958" lon="2.03752">
        <ele>80.8</ele>
        <time>2022-02-06T13:47:49Z</time>
      </trkpt>
      <trkpt lat="48.70962" lon="2.03748">
        <ele>81</ele>
        <time>2022-02-06T13:47:54Z</time>
      </trkpt>
      <trkpt lat="48.70965" lon="2.03744">
        <ele>80.6</ele>
        <time>2022-02-06T13:47:59Z</time>
      </trkpt>
      <trkpt lat="48.70967" lon="2.03737">
        <ele>80.7</ele>
        <time>2022-02-06T13:48:03Z</time>
      </trkpt>
      <trkpt lat="48.70971" lon="2.0373">
        <ele>82</ele>
        <time>2022-02-06T13:48:07Z</time>
      </trkpt>
      <trkpt lat="48.70974" lon="2.03725">
        <ele>82.9</ele>
        <time>2022-02-06T13:48:10Z</time>
      </trkpt>
      <trkpt lat="48.70977" lon="2.0372">
        <ele>83.3</ele>
        <time>2022-02-06T13:48:14Z</time>
      </trkpt>
      <trkpt lat="48.7098" lon="2.03713">
        <ele>83.9</ele>
        <time>2022-02-06T13:48:18Z</time>
      </trkpt>
      <trkpt lat="48.70983" lon="2.03706">
        <ele>84.5</ele>
        <time>2022-02-06T13:48:22Z</time>
      </trkpt>
      <trkpt lat="48.70986" lon="2.03699">
        <ele>84.8</ele>
        <time>2022-02-06T13:48:27Z</time>
      </trkpt>
      <trkpt lat="48.70989" lon="2.03693">
        <ele>85</ele>
        <time>2022-02-06T13:48:31Z</time>
      </trkpt>
      <trkpt lat="48.70992" lon="2.03686">
        <ele>85</ele>
        <time>2022-02-06T13:48:36Z</time>
      </trkpt>
      <trkpt lat="48.70994" lon="2.03679">
        <ele>85</ele>
        <time>2022-02-06T13:48:40Z</time>
      </trkpt>
      <trkpt lat="48.70998" lon="2.03672">
        <ele>85.2</ele>
        <time>2022-02-06T13:48:44Z</time>
      </trkpt>
      <trkpt lat="48.71001" lon="2.03664">
        <ele>85.6</ele>
        <time>2022-02-06T13:48:49Z</time>
      </trkpt>
      <trkpt lat="48.71003" lon="2.03656">
        <ele>85.8</ele>
        <time>2022-02-06T13:48:53Z</time>
      </trkpt>
      <trkpt lat="48.71006" lon="2.03649">
        <ele>85.9</ele>
        <time>2022-02-06T13:48:58Z</time>
      </trkpt>
      <trkpt lat="48.71008" lon="2.03641">
        <ele>86.6</ele>
        <time>2022-02-06T13:49:03Z</time>
      </trkpt>
      <trkpt lat="48.71012" lon="2.03635">
        <ele>87.2</ele>
        <time>2022-02-06T13:49:07Z</time>
      </trkpt>
      <trkpt lat="48.71015" lon="2.03629">
        <ele>87.4</ele>
        <time>2022-02-06T13:49:10Z</time>
      </trkpt>
      <trkpt lat="48.71017" lon="2.03621">
        <ele>86.7</ele>
        <time>2022-02-06T13:49:14Z</time>
      </trkpt>
      <trkpt lat="48.71019" lon="2.03614">
        <ele>86</ele>
        <time>2022-02-06T13:49:19Z</time>
      </trkpt>
      <trkpt lat="48.71021" lon="2.03607">
        <ele>86.5</ele>
        <time>2022-02-06T13:49:23Z</time>
      </trkpt>
      <trkpt lat="48.71022" lon="2.03599">
        <ele>87.4</ele>
        <time>2022-02-06T13:49:26Z</time>
      </trkpt>
      <trkpt lat="48.71022" lon="2.03591">
        <ele>87.9</ele>
        <time>2022-02-06T13:49:30Z</time>
      </trkpt>
      <trkpt lat="48.71023" lon="2.03583">
        <ele>87.1</ele>
        <time>2022-02-06T13:49:35Z</time>
      </trkpt>
      <trkpt lat="48.71025" lon="2.03576">
        <ele>86.9</ele>
        <time>2022-02-06T13:49:39Z</time>
      </trkpt>
      <trkpt lat="48.71025" lon="2.03569">
        <ele>87.2</ele>
        <time>2022-02-06T13:49:42Z</time>
      </trkpt>
      <trkpt lat="48.71026" lon="2.03561">
        <ele>88.2</ele>
        <time>2022-02-06T13:49:46Z</time>
      </trkpt>
      <trkpt lat="48.71028" lon="2.03552">
        <ele>88.6</ele>
        <time>2022-02-06T13:49:51Z</time>
      </trkpt>
      <trkpt lat="48.7103" lon="2.03545">
        <ele>88.7</ele>
        <time>2022-02-06T13:49:54Z</time>
      </trkpt>
      <trkpt lat="48.71032" lon="2.03537">
        <ele>88.6</ele>
        <time>2022-02-06T13:49:59Z</time>
      </trkpt>
      <trkpt lat="48.71034" lon="2.03531">
        <ele>88.4</ele>
        <time>2022-02-06T13:50:02Z</time>
      </trkpt>
      <trkpt lat="48.71038" lon="2.03524">
        <ele>88.1</ele>
        <time>2022-02-06T13:50:07Z</time>
      </trkpt>
      <trkpt lat="48.71042" lon="2.03518">
        <ele>87.8</ele>
        <time>2022-02-06T13:50:11Z</time>
      </trkpt>
      <trkpt lat="48.71045" lon="2.03511">
        <ele>87</ele>
        <time>2022-02-06T13:50:16Z</time>
      </trkpt>
      <trkpt lat="48.71049" lon="2.03505">
        <ele>86.9</ele>
        <time>2022-02-06T13:50:20Z</time>
      </trkpt>
      <trkpt lat="48.71054" lon="2.03499">
        <ele>88.1</ele>
        <time>2022-02-06T13:50:23Z</time>
      </trkpt>
      <trkpt lat="48.71058" lon="2.03492">
        <ele>88.7</ele>
        <time>2022-02-06T13:50:28Z</time>
      </trkpt>
      <trkpt lat="48.71062" lon="2.03486">
        <ele>88.4</ele>
        <time>2022-02-06T13:50:32Z</time>
      </trkpt>
      <trkpt lat="48.71064" lon="2.0348">
        <ele>88.1</ele>
        <time>2022-02-06T13:50:36Z</time>
      </trkpt>
      <trkpt lat="48.71067" lon="2.03473">
        <ele>87.9</ele>
        <time>2022-02-06T13:50:41Z</time>
      </trkpt>
      <trkpt lat="48.7107" lon="2.03466">
        <ele>87.7</ele>
        <time>2022-02-06T13:50:45Z</time>
      </trkpt>
      <trkpt lat="48.71073" lon="2.0346">
        <ele>88.4</ele>
        <time>2022-02-06T13:50:50Z</time>
      </trkpt>
      <trkpt lat="48.71077" lon="2.03455">
        <ele>88.6</ele>
        <time>2022-02-06T13:50:54Z</time>
      </trkpt>
      <trkpt lat="48.7108" lon="2.0345">
        <ele>89.3</ele>
        <time>2022-02-06T13:50:58Z</time>
      </trkpt>
      <trkpt lat="48.71085" lon="2.03446">
        <ele>89.6</ele>
        <time>2022-02-06T13:51:02Z</time>
      </trkpt>
      <trkpt lat="48.71089" lon="2.03442">
        <ele>90.1</ele>
        <time>2022-02-06T13:51:06Z</time>
      </trkpt>
      <trkpt lat="48.71094" lon="2.03436">
        <ele>89.3</ele>
        <time>2022-02-06T13:51:12Z</time>
      </trkpt>
      <trkpt lat="48.71098" lon="2.0343">
        <ele>89.6</ele>
        <time>2022-02-06T13:51:16Z</time>
      </trkpt>
      <trkpt lat="48.71102" lon="2.03426">
        <ele>91.5</ele>
        <time>2022-02-06T13:51:19Z</time>
      </trkpt>
      <trkpt lat="48.71106" lon="2.03422">
        <ele>93</ele>
        <time>2022-02-06T13:51:23Z</time>
      </trkpt>
      <trkpt lat="48.7111" lon="2.03418">
        <ele>92.7</ele>
        <time>2022-02-06T13:51:26Z</time>
      </trkpt>
      <trkpt lat="48.71114" lon="2.03414">
        <ele>90.9</ele>
        <time>2022-02-06T13:51:30Z</time>
      </trkpt>
      <trkpt lat="48.71118" lon="2.0341">
        <ele>90.5</ele>
        <time>2022-02-06T13:51:34Z</time>
      </trkpt>
      <trkpt lat="48.71123" lon="2.03407">
        <ele>90.3</ele>
        <time>2022-02-06T13:51:38Z</time>
      </trkpt>
      <trkpt lat="48.71128" lon="2.03404">
        <ele>89.6</ele>
        <time>2022-02-06T13:51:43Z</time>
      </trkpt>
      <trkpt lat="48.71133" lon="2.03401">
        <ele>89.4</ele>
        <time>2022-02-06T13:51:48Z</time>
      </trkpt>
      <trkpt lat="48.71138" lon="2.03398">
        <ele>90.3</ele>
        <time>2022-02-06T13:51:52Z</time>
      </trkpt>
      <trkpt lat="48.71143" lon="2.03396">
        <ele>91.4</ele>
        <time>2022-02-06T13:51:57Z</time>
      </trkpt>
      <trkpt lat="48.71148" lon="2.03392">
        <ele>92.1</ele>
        <time>2022-02-06T13:52:01Z</time>
      </trkpt>
      <trkpt lat="48.71151" lon="2.03386">
        <ele>93.4</ele>
        <time>2022-02-06T13:52:05Z</time>
      </trkpt>
      <trkpt lat="48.71154" lon="2.03379">
        <ele>95.6</ele>
        <time>2022-02-06T13:52:10Z</time>
      </trkpt>
      <trkpt lat="48.71157" lon="2.03373">
        <ele>95.9</ele>
        <time>2022-02-06T13:52:15Z</time>
      </trkpt>
      <trkpt lat="48.71163" lon="2.03372">
        <ele>92.9</ele>
        <time>2022-02-06T13:52:19Z</time>
      </trkpt>
      <trkpt lat="48.71168" lon="2.03372">
        <ele>90</ele>
        <time>2022-02-06T13:52:23Z</time>
      </trkpt>
      <trkpt lat="48.71172" lon="2.03374">
        <ele>88.9</ele>
        <time>2022-02-06T13:52:27Z</time>
      </trkpt>
      <trkpt lat="48.71177" lon="2.03377">
        <ele>89</ele>
        <time>2022-02-06T13:52:31Z</time>
      </trkpt>
      <trkpt lat="48.71181" lon="2.03384">
        <ele>88.5</ele>
        <time>2022-02-06T13:52:36Z</time>
      </trkpt>
      <trkpt lat="48.71186" lon="2.03387">
        <ele>88</ele>
        <time>2022-02-06T13:52:41Z</time>
      </trkpt>
      <trkpt lat="48.71191" lon="2.03387">
        <ele>88.3</ele>
        <time>2022-02-06T13:52:44Z</time>
      </trkpt>
      <trkpt lat="48.71197" lon="2.03388">
        <ele>89.6</ele>
        <time>2022-02-06T13:52:49Z</time>
      </trkpt>
      <trkpt lat="48.71202" lon="2.03388">
        <ele>90.5</ele>
        <time>2022-02-06T13:52:52Z</time>
      </trkpt>
      <trkpt lat="48.71207" lon="2.03389">
        <ele>91.3</ele>
        <time>2022-02-06T13:52:57Z</time>
      </trkpt>
      <trkpt lat="48.71212" lon="2.03389">
        <ele>91.4</ele>
        <time>2022-02-06T13:53:02Z</time>
      </trkpt>
      <trkpt lat="48.71216" lon="2.03388">
        <ele>92.4</ele>
        <time>2022-02-06T13:53:06Z</time>
      </trkpt>
      <trkpt lat="48.71221" lon="2.03388">
        <ele>93.7</ele>
        <time>2022-02-06T13:53:11Z</time>
      </trkpt>
      <trkpt lat="48.71227" lon="2.03388">
        <ele>94.3</ele>
        <time>2022-02-06T13:53:16Z</time>
      </trkpt>
      <trkpt lat="48.71232" lon="2.03387">
        <ele>94.8</ele>
        <time>2022-02-06T13:53:20Z</time>
      </trkpt>
      <trkpt lat="48.71236" lon="2.03385">
        <ele>95.8</ele>
        <time>2022-02-06T13:53:24Z</time>
      </trkpt>
      <trkpt lat="48.71241" lon="2.03384">
        <ele>95.7</ele>
        <time>2022-02-06T13:53:29Z</time>
      </trkpt>
      <trkpt lat="48.71246" lon="2.03382">
        <ele>94.4</ele>
        <time>2022-02-06T13:53:33Z</time>
      </trkpt>
      <trkpt lat="48.7125" lon="2.03379">
        <ele>92.9</ele>
        <time>2022-02-06T13:53:38Z</time>
      </trkpt>
      <trkpt lat="48.71254" lon="2.03373">
        <ele>91.4</ele>
        <time>2022-02-06T13:53:42Z</time>
      </trkpt>
      <trkpt lat="48.71258" lon="2.03367">
        <ele>90.7</ele>
        <time>2022-02-06T13:53:48Z</time>
      </trkpt>
      <trkpt lat="48.71261" lon="2.0336">
        <ele>90.2</ele>
        <time>2022-02-06T13:53:54Z</time>
      </trkpt>
      <trkpt lat="48.71264" lon="2.03353">
        <ele>88.2</ele>
        <time>2022-02-06T13:54:00Z</time>
      </trkpt>
      <trkpt lat="48.71265" lon="2.03346">
        <ele>88.2</ele>
        <time>2022-02-06T13:54:04Z</time>
      </trkpt>
      <trkpt lat="48.71265" lon="2.03337">
        <ele>89.4</ele>
        <time>2022-02-06T13:54:09Z</time>
      </trkpt>
      <trkpt lat="48.71265" lon="2.0333">
        <ele>90.2</ele>
        <time>2022-02-06T13:54:14Z</time>
      </trkpt>
      <trkpt lat="48.71265" lon="2.03321">
        <ele>91.7</ele>
        <time>2022-02-06T13:54:19Z</time>
      </trkpt>
      <trkpt lat="48.71264" lon="2.03313">
        <ele>93.2</ele>
        <time>2022-02-06T13:54:25Z</time>
      </trkpt>
      <trkpt lat="48.71266" lon="2.03305">
        <ele>93.6</ele>
        <time>2022-02-06T13:54:29Z</time>
      </trkpt>
      <trkpt lat="48.71269" lon="2.03298">
        <ele>92.6</ele>
        <time>2022-02-06T13:54:34Z</time>
      </trkpt>
      <trkpt lat="48.71272" lon="2.03292">
        <ele>91.6</ele>
        <time>2022-02-06T13:54:38Z</time>
      </trkpt>
      <trkpt lat="48.71276" lon="2.03287">
        <ele>91.6</ele>
        <time>2022-02-06T13:54:43Z</time>
      </trkpt>
      <trkpt lat="48.7128" lon="2.03282">
        <ele>91.4</ele>
        <time>2022-02-06T13:54:48Z</time>
      </trkpt>
      <trkpt lat="48.71283" lon="2.03277">
        <ele>91.1</ele>
        <time>2022-02-06T13:54:52Z</time>
      </trkpt>
      <trkpt lat="48.71287" lon="2.03273">
        <ele>93.7</ele>
        <time>2022-02-06T13:54:57Z</time>
      </trkpt>
      <trkpt lat="48.71291" lon="2.03267">
        <ele>97.7</ele>
        <time>2022-02-06T13:55:01Z</time>
      </trkpt>
      <trkpt lat="48.71294" lon="2.03261">
        <ele>99.5</ele>
        <time>2022-02-06T13:55:06Z</time>
      </trkpt>
      <trkpt lat="48.71297" lon="2.03255">
        <ele>99.7</ele>
        <time>2022-02-06T13:55:10Z</time>
      </trkpt>
      <trkpt lat="48.71299" lon="2.03249">
        <ele>100</ele>
        <time>2022-02-06T13:55:15Z</time>
      </trkpt>
      <trkpt lat="48.71302" lon="2.03243">
        <ele>99.9</ele>
        <time>2022-02-06T13:55:20Z</time>
      </trkpt>
      <trkpt lat="48.71305" lon="2.03237">
        <ele>99.5</ele>
        <time>2022-02-06T13:55:24Z</time>
      </trkpt>
      <trkpt lat="48.71307" lon="2.03229">
        <ele>100.4</ele>
        <time>2022-02-06T13:55:30Z</time>
      </trkpt>
      <trkpt lat="48.7131" lon="2.03223">
        <ele>102.1</ele>
        <time>2022-02-06T13:55:34Z</time>
      </trkpt>
      <trkpt lat="48.71314" lon="2.03218">
        <ele>102.9</ele>
        <time>2022-02-06T13:55:40Z</time>
      </trkpt>
      <trkpt lat="48.71317" lon="2.03213">
        <ele>104.4</ele>
        <time>2022-02-06T13:55:46Z</time>
      </trkpt>
      <trkpt lat="48.71322" lon="2.03208">
        <ele>105.8</ele>
        <time>2022-02-06T13:55:52Z</time>
      </trkpt>
      <trkpt lat="48.71325" lon="2.03203">
        <ele>108.3</ele>
        <time>2022-02-06T13:55:56Z</time>
      </trkpt>
      <trkpt lat="48.71329" lon="2.03199">
        <ele>112.5</ele>
        <time>2022-02-06T13:56:01Z</time>
      </trkpt>
      <trkpt lat="48.71334" lon="2.03194">
        <ele>115.8</ele>
        <time>2022-02-06T13:56:05Z</time>
      </trkpt>
      <trkpt lat="48.71337" lon="2.03188">
        <ele>117.6</ele>
        <time>2022-02-06T13:56:10Z</time>
      </trkpt>
      <trkpt lat="48.71341" lon="2.03182">
        <ele>118.8</ele>
        <time>2022-02-06T13:56:14Z</time>
      </trkpt>
      <trkpt lat="48.71345" lon="2.03177">
        <ele>119.9</ele>
        <time>2022-02-06T13:56:19Z</time>
      </trkpt>
      <trkpt lat="48.71349" lon="2.03175">
        <ele>121.1</ele>
        <time>2022-02-06T13:56:24Z</time>
      </trkpt>
      <trkpt lat="48.71354" lon="2.03173">
        <ele>121.5</ele>
        <time>2022-02-06T13:56:29Z</time>
      </trkpt>
      <trkpt lat="48.71358" lon="2.0317">
        <ele>121.4</ele>
        <time>2022-02-06T13:56:34Z</time>
      </trkpt>
      <trkpt lat="48.71363" lon="2.03165">
        <ele>121.1</ele>
        <time>2022-02-06T13:56:39Z</time>
      </trkpt>
      <trkpt lat="48.71367" lon="2.03161">
        <ele>121.1</ele>
        <time>2022-02-06T13:56:46Z</time>
      </trkpt>
      <trkpt lat="48.71371" lon="2.03155">
        <ele>122.1</ele>
        <time>2022-02-06T13:56:51Z</time>
      </trkpt>
      <trkpt lat="48.71375" lon="2.03151">
        <ele>123.1</ele>
        <time>2022-02-06T13:56:58Z</time>
      </trkpt>
      <trkpt lat="48.7138" lon="2.03147">
        <ele>125.2</ele>
        <time>2022-02-06T13:57:04Z</time>
      </trkpt>
      <trkpt lat="48.71385" lon="2.03143">
        <ele>127.8</ele>
        <time>2022-02-06T13:57:11Z</time>
      </trkpt>
      <trkpt lat="48.7139" lon="2.0314">
        <ele>130.2</ele>
        <time>2022-02-06T13:57:16Z</time>
      </trkpt>
      <trkpt lat="48.71394" lon="2.03138">
        <ele>131.4</ele>
        <time>2022-02-06T13:57:21Z</time>
      </trkpt>
      <trkpt lat="48.71399" lon="2.03137">
        <ele>132</ele>
        <time>2022-02-06T13:57:28Z</time>
      </trkpt>
      <trkpt lat="48.71404" lon="2.03133">
        <ele>133.2</ele>
        <time>2022-02-06T13:57:35Z</time>
      </trkpt>
      <trkpt lat="48.71406" lon="2.03127">
        <ele>135</ele>
        <time>2022-02-06T13:57:42Z</time>
      </trkpt>
      <trkpt lat="48.71404" lon="2.0312">
        <ele>137.3</ele>
        <time>2022-02-06T13:57:48Z</time>
      </trkpt>
      <trkpt lat="48.71404" lon="2.03112">
        <ele>138.9</ele>
        <time>2022-02-06T13:57:53Z</time>
      </trkpt>
      <trkpt lat="48.71402" lon="2.03104">
        <ele>139.5</ele>
        <time>2022-02-06T13:57:59Z</time>
      </trkpt>
      <trkpt lat="48.71397" lon="2.03099">
        <ele>138.9</ele>
        <time>2022-02-06T13:58:03Z</time>
      </trkpt>
      <trkpt lat="48.71393" lon="2.03094">
        <ele>138.4</ele>
        <time>2022-02-06T13:58:07Z</time>
      </trkpt>
      <trkpt lat="48.7139" lon="2.03088">
        <ele>137.9</ele>
        <time>2022-02-06T13:58:13Z</time>
      </trkpt>
      <trkpt lat="48.71388" lon="2.03082">
        <ele>138.8</ele>
        <time>2022-02-06T13:58:18Z</time>
      </trkpt>
      <trkpt lat="48.71389" lon="2.03075">
        <ele>141.2</ele>
        <time>2022-02-06T13:58:23Z</time>
      </trkpt>
      <trkpt lat="48.71394" lon="2.03073">
        <ele>142.4</ele>
        <time>2022-02-06T13:58:29Z</time>
      </trkpt>
      <trkpt lat="48.71398" lon="2.03077">
        <ele>142.3</ele>
        <time>2022-02-06T13:58:32Z</time>
      </trkpt>
      <trkpt lat="48.71404" lon="2.0308">
        <ele>141</ele>
        <time>2022-02-06T13:58:38Z</time>
      </trkpt>
      <trkpt lat="48.71409" lon="2.0308">
        <ele>140.3</ele>
        <time>2022-02-06T13:58:43Z</time>
      </trkpt>
      <trkpt lat="48.71414" lon="2.03079">
        <ele>141.3</ele>
        <time>2022-02-06T13:58:49Z</time>
      </trkpt>
      <trkpt lat="48.71419" lon="2.03079">
        <ele>144.4</ele>
        <time>2022-02-06T13:58:55Z</time>
      </trkpt>
      <trkpt lat="48.71424" lon="2.03075">
        <ele>148.6</ele>
        <time>2022-02-06T13:59:00Z</time>
      </trkpt>
      <trkpt lat="48.71428" lon="2.03074">
        <ele>151.6</ele>
        <time>2022-02-06T13:59:05Z</time>
      </trkpt>
      <trkpt lat="48.71433" lon="2.03073">
        <ele>153</ele>
        <time>2022-02-06T13:59:09Z</time>
      </trkpt>
      <trkpt lat="48.71438" lon="2.03076">
        <ele>153.1</ele>
        <time>2022-02-06T13:59:14Z</time>
      </trkpt>
      <trkpt lat="48.71441" lon="2.0308">
        <ele>153.1</ele>
        <time>2022-02-06T13:59:19Z</time>
      </trkpt>
      <trkpt lat="48.71446" lon="2.03083">
        <ele>153.6</ele>
        <time>2022-02-06T13:59:24Z</time>
      </trkpt>
      <trkpt lat="48.71451" lon="2.03085">
        <ele>154.2</ele>
        <time>2022-02-06T13:59:30Z</time>
      </trkpt>
      <trkpt lat="48.71456" lon="2.03082">
        <ele>154.8</ele>
        <time>2022-02-06T13:59:35Z</time>
      </trkpt>
      <trkpt lat="48.7146" lon="2.03078">
        <ele>155</ele>
        <time>2022-02-06T13:59:40Z</time>
      </trkpt>
      <trkpt lat="48.71465" lon="2.03074">
        <ele>156.5</ele>
        <time>2022-02-06T13:59:46Z</time>
      </trkpt>
      <trkpt lat="48.71469" lon="2.0307">
        <ele>157.7</ele>
        <time>2022-02-06T13:59:51Z</time>
      </trkpt>
      <trkpt lat="48.71474" lon="2.03067">
        <ele>157.7</ele>
        <time>2022-02-06T13:59:57Z</time>
      </trkpt>
      <trkpt lat="48.71479" lon="2.03064">
        <ele>158.1</ele>
        <time>2022-02-06T14:00:01Z</time>
      </trkpt>
      <trkpt lat="48.71484" lon="2.03062">
        <ele>159.1</ele>
        <time>2022-02-06T14:00:06Z</time>
      </trkpt>
      <trkpt lat="48.71489" lon="2.03059">
        <ele>159.7</ele>
        <time>2022-02-06T14:00:12Z</time>
      </trkpt>
      <trkpt lat="48.71494" lon="2.03057">
        <ele>159.3</ele>
        <time>2022-02-06T14:00:18Z</time>
      </trkpt>
      <trkpt lat="48.71499" lon="2.03056">
        <ele>158.7</ele>
        <time>2022-02-06T14:00:24Z</time>
      </trkpt>
      <trkpt lat="48.71504" lon="2.03054">
        <ele>159.9</ele>
        <time>2022-02-06T14:00:29Z</time>
      </trkpt>
      <trkpt lat="48.71509" lon="2.03051">
        <ele>161.5</ele>
        <time>2022-02-06T14:00:34Z</time>
      </trkpt>
      <trkpt lat="48.71514" lon="2.03049">
        <ele>161.2</ele>
        <time>2022-02-06T14:00:38Z</time>
      </trkpt>
      <trkpt lat="48.71519" lon="2.03048">
        <ele>160.3</ele>
        <time>2022-02-06T14:00:43Z</time>
      </trkpt>
      <trkpt lat="48.71524" lon="2.03048">
        <ele>158.5</ele>
        <time>2022-02-06T14:00:48Z</time>
      </trkpt>
      <trkpt lat="48.71529" lon="2.03047">
        <ele>156.7</ele>
        <time>2022-02-06T14:00:52Z</time>
      </trkpt>
      <trkpt lat="48.71534" lon="2.03046">
        <ele>155.6</ele>
        <time>2022-02-06T14:00:57Z</time>
      </trkpt>
      <trkpt lat="48.7154" lon="2.03045">
        <ele>154.8</ele>
        <time>2022-02-06T14:01:01Z</time>
      </trkpt>
      <trkpt lat="48.71545" lon="2.03043">
        <ele>154.4</ele>
        <time>2022-02-06T14:01:06Z</time>
      </trkpt>
      <trkpt lat="48.7155" lon="2.03042">
        <ele>154.9</ele>
        <time>2022-02-06T14:01:10Z</time>
      </trkpt>
      <trkpt lat="48.71555" lon="2.0304">
        <ele>156.7</ele>
        <time>2022-02-06T14:01:14Z</time>
      </trkpt>
      <trkpt lat="48.7156" lon="2.03037">
        <ele>159</ele>
        <time>2022-02-06T14:01:18Z</time>
      </trkpt>
      <trkpt lat="48.71566" lon="2.03035">
        <ele>161</ele>
        <time>2022-02-06T14:01:22Z</time>
      </trkpt>
      <trkpt lat="48.71571" lon="2.03034">
        <ele>162.6</ele>
        <time>2022-02-06T14:01:27Z</time>
      </trkpt>
      <trkpt lat="48.71575" lon="2.03032">
        <ele>163.3</ele>
        <time>2022-02-06T14:01:30Z</time>
      </trkpt>
      <trkpt lat="48.7158" lon="2.03032">
        <ele>163.7</ele>
        <time>2022-02-06T14:01:33Z</time>
      </trkpt>
      <trkpt lat="48.71585" lon="2.03032">
        <ele>163.8</ele>
        <time>2022-02-06T14:01:38Z</time>
      </trkpt>
      <trkpt lat="48.7159" lon="2.03033">
        <ele>164.5</ele>
        <time>2022-02-06T14:01:42Z</time>
      </trkpt>
      <trkpt lat="48.71596" lon="2.03032">
        <ele>164.8</ele>
        <time>2022-02-06T14:01:47Z</time>
      </trkpt>
      <trkpt lat="48.71601" lon="2.0303">
        <ele>165.1</ele>
        <time>2022-02-06T14:01:51Z</time>
      </trkpt>
      <trkpt lat="48.71606" lon="2.03029">
        <ele>165.7</ele>
        <time>2022-02-06T14:01:55Z</time>
      </trkpt>
      <trkpt lat="48.71611" lon="2.03029">
        <ele>165.4</ele>
        <time>2022-02-06T14:01:59Z</time>
      </trkpt>
      <trkpt lat="48.71616" lon="2.03027">
        <ele>164.6</ele>
        <time>2022-02-06T14:02:04Z</time>
      </trkpt>
      <trkpt lat="48.71621" lon="2.03027">
        <ele>163.2</ele>
        <time>2022-02-06T14:02:08Z</time>
      </trkpt>
      <trkpt lat="48.71627" lon="2.03028">
        <ele>162.3</ele>
        <time>2022-02-06T14:02:12Z</time>
      </trkpt>
      <trkpt lat="48.71632" lon="2.03028">
        <ele>160.9</ele>
        <time>2022-02-06T14:02:16Z</time>
      </trkpt>
      <trkpt lat="48.71637" lon="2.03026">
        <ele>159</ele>
        <time>2022-02-06T14:02:20Z</time>
      </trkpt>
      <trkpt lat="48.71642" lon="2.03024">
        <ele>158.6</ele>
        <time>2022-02-06T14:02:24Z</time>
      </trkpt>
      <trkpt lat="48.71647" lon="2.03022">
        <ele>159.5</ele>
        <time>2022-02-06T14:02:27Z</time>
      </trkpt>
      <trkpt lat="48.71653" lon="2.03021">
        <ele>161.9</ele>
        <time>2022-02-06T14:02:32Z</time>
      </trkpt>
      <trkpt lat="48.71657" lon="2.0302">
        <ele>163.5</ele>
        <time>2022-02-06T14:02:35Z</time>
      </trkpt>
      <trkpt lat="48.71662" lon="2.0302">
        <ele>163.8</ele>
        <time>2022-02-06T14:02:38Z</time>
      </trkpt>
      <trkpt lat="48.71668" lon="2.0302">
        <ele>164.5</ele>
        <time>2022-02-06T14:02:43Z</time>
      </trkpt>
      <trkpt lat="48.71673" lon="2.0302">
        <ele>165.6</ele>
        <time>2022-02-06T14:02:46Z</time>
      </trkpt>
      <trkpt lat="48.71677" lon="2.0302">
        <ele>166.2</ele>
        <time>2022-02-06T14:02:50Z</time>
      </trkpt>
      <trkpt lat="48.71682" lon="2.03021">
        <ele>164.8</ele>
        <time>2022-02-06T14:02:53Z</time>
      </trkpt>
      <trkpt lat="48.71688" lon="2.03021">
        <ele>162.2</ele>
        <time>2022-02-06T14:02:58Z</time>
      </trkpt>
      <trkpt lat="48.71694" lon="2.03021">
        <ele>161.1</ele>
        <time>2022-02-06T14:03:02Z</time>
      </trkpt>
      <trkpt lat="48.71699" lon="2.03021">
        <ele>160.6</ele>
        <time>2022-02-06T14:03:06Z</time>
      </trkpt>
      <trkpt lat="48.71704" lon="2.0302">
        <ele>158.8</ele>
        <time>2022-02-06T14:03:10Z</time>
      </trkpt>
      <trkpt lat="48.7171" lon="2.03019">
        <ele>157.2</ele>
        <time>2022-02-06T14:03:14Z</time>
      </trkpt>
      <trkpt lat="48.71715" lon="2.03018">
        <ele>156.6</ele>
        <time>2022-02-06T14:03:18Z</time>
      </trkpt>
      <trkpt lat="48.71721" lon="2.03016">
        <ele>157</ele>
        <time>2022-02-06T14:03:22Z</time>
      </trkpt>
      <trkpt lat="48.71726" lon="2.03015">
        <ele>157.5</ele>
        <time>2022-02-06T14:03:26Z</time>
      </trkpt>
      <trkpt lat="48.71731" lon="2.03013">
        <ele>157.4</ele>
        <time>2022-02-06T14:03:30Z</time>
      </trkpt>
      <trkpt lat="48.71737" lon="2.03012">
        <ele>156.9</ele>
        <time>2022-02-06T14:03:34Z</time>
      </trkpt>
      <trkpt lat="48.71742" lon="2.03012">
        <ele>157.2</ele>
        <time>2022-02-06T14:03:39Z</time>
      </trkpt>
      <trkpt lat="48.71748" lon="2.03013">
        <ele>157.4</ele>
        <time>2022-02-06T14:03:43Z</time>
      </trkpt>
      <trkpt lat="48.71753" lon="2.03011">
        <ele>156.4</ele>
        <time>2022-02-06T14:03:48Z</time>
      </trkpt>
      <trkpt lat="48.71759" lon="2.0301">
        <ele>156.1</ele>
        <time>2022-02-06T14:03:52Z</time>
      </trkpt>
      <trkpt lat="48.71764" lon="2.03009">
        <ele>156.3</ele>
        <time>2022-02-06T14:03:55Z</time>
      </trkpt>
      <trkpt lat="48.71769" lon="2.03008">
        <ele>156.7</ele>
        <time>2022-02-06T14:03:59Z</time>
      </trkpt>
      <trkpt lat="48.71775" lon="2.03008">
        <ele>156.3</ele>
        <time>2022-02-06T14:04:04Z</time>
      </trkpt>
      <trkpt lat="48.7178" lon="2.03008">
        <ele>155.1</ele>
        <time>2022-02-06T14:04:07Z</time>
      </trkpt>
      <trkpt lat="48.71785" lon="2.03008">
        <ele>153.1</ele>
        <time>2022-02-06T14:04:12Z</time>
      </trkpt>
      <trkpt lat="48.7179" lon="2.03008">
        <ele>152.8</ele>
        <time>2022-02-06T14:04:16Z</time>
      </trkpt>
      <trkpt lat="48.71796" lon="2.03008">
        <ele>153.9</ele>
        <time>2022-02-06T14:04:20Z</time>
      </trkpt>
      <trkpt lat="48.718" lon="2.03011">
        <ele>155.3</ele>
        <time>2022-02-06T14:04:26Z</time>
      </trkpt>
      <trkpt lat="48.71805" lon="2.0301">
        <ele>154.6</ele>
        <time>2022-02-06T14:04:33Z</time>
      </trkpt>
      <trkpt lat="48.71802" lon="2.03005">
        <ele>156.8</ele>
        <time>2022-02-06T14:05:10Z</time>
      </trkpt>
      <trkpt lat="48.71797" lon="2.03006">
        <ele>158.3</ele>
        <time>2022-02-06T14:05:42Z</time>
      </trkpt>
      <trkpt lat="48.71799" lon="2.03">
        <ele>162.2</ele>
        <time>2022-02-06T14:07:09Z</time>
      </trkpt>
      <trkpt lat="48.71803" lon="2.02995">
        <ele>163</ele>
        <time>2022-02-06T14:07:48Z</time>
      </trkpt>
      <trkpt lat="48.71806" lon="2.03">
        <ele>159.7</ele>
        <time>2022-02-06T14:07:54Z</time>
      </trkpt>
      <trkpt lat="48.71803" lon="2.03005">
        <ele>152.2</ele>
        <time>2022-02-06T14:08:42Z</time>
      </trkpt>
      <trkpt lat="48.71799" lon="2.03009">
        <ele>151.9</ele>
        <time>2022-02-06T14:08:45Z</time>
      </trkpt>
      <trkpt lat="48.71795" lon="2.03006">
        <ele>153.6</ele>
        <time>2022-02-06T14:08:59Z</time>
      </trkpt>
      <trkpt lat="48.71799" lon="2.03004">
        <ele>154.2</ele>
        <time>2022-02-06T14:09:23Z</time>
      </trkpt>
      <trkpt lat="48.71802" lon="2.03009">
        <ele>158.5</ele>
        <time>2022-02-06T14:11:05Z</time>
      </trkpt>
      <trkpt lat="48.71807" lon="2.03013">
        <ele>158.6</ele>
        <time>2022-02-06T14:11:11Z</time>
      </trkpt>
      <trkpt lat="48.71813" lon="2.03012">
        <ele>158.9</ele>
        <time>2022-02-06T14:11:15Z</time>
      </trkpt>
      <trkpt lat="48.71818" lon="2.03011">
        <ele>159.6</ele>
        <time>2022-02-06T14:11:18Z</time>
      </trkpt>
      <trkpt lat="48.71823" lon="2.03009">
        <ele>160.2</ele>
        <time>2022-02-06T14:11:21Z</time>
      </trkpt>
      <trkpt lat="48.71827" lon="2.0301">
        <ele>160.9</ele>
        <time>2022-02-06T14:11:24Z</time>
      </trkpt>
      <trkpt lat="48.71832" lon="2.03007">
        <ele>161.5</ele>
        <time>2022-02-06T14:11:28Z</time>
      </trkpt>
      <trkpt lat="48.71838" lon="2.03004">
        <ele>162.8</ele>
        <time>2022-02-06T14:11:32Z</time>
      </trkpt>
      <trkpt lat="48.71844" lon="2.03003">
        <ele>164.2</ele>
        <time>2022-02-06T14:11:37Z</time>
      </trkpt>
      <trkpt lat="48.71849" lon="2.03">
        <ele>164.6</ele>
        <time>2022-02-06T14:11:48Z</time>
      </trkpt>
      <trkpt lat="48.71855" lon="2.03002">
        <ele>165</ele>
        <time>2022-02-06T14:11:51Z</time>
      </trkpt>
      <trkpt lat="48.71861" lon="2.03003">
        <ele>165</ele>
        <time>2022-02-06T14:11:54Z</time>
      </trkpt>
      <trkpt lat="48.71866" lon="2.03003">
        <ele>165.2</ele>
        <time>2022-02-06T14:11:57Z</time>
      </trkpt>
      <trkpt lat="48.71871" lon="2.03002">
        <ele>165.1</ele>
        <time>2022-02-06T14:12:00Z</time>
      </trkpt>
      <trkpt lat="48.71876" lon="2.03001">
        <ele>165.2</ele>
        <time>2022-02-06T14:12:03Z</time>
      </trkpt>
      <trkpt lat="48.71881" lon="2.02999">
        <ele>165.6</ele>
        <time>2022-02-06T14:12:07Z</time>
      </trkpt>
      <trkpt lat="48.71887" lon="2.02996">
        <ele>166.1</ele>
        <time>2022-02-06T14:12:12Z</time>
      </trkpt>
      <trkpt lat="48.71891" lon="2.02995">
        <ele>166</ele>
        <time>2022-02-06T14:12:16Z</time>
      </trkpt>
      <trkpt lat="48.71896" lon="2.02994">
        <ele>165.4</ele>
        <time>2022-02-06T14:12:20Z</time>
      </trkpt>
      <trkpt lat="48.71901" lon="2.02993">
        <ele>165.6</ele>
        <time>2022-02-06T14:12:23Z</time>
      </trkpt>
      <trkpt lat="48.71906" lon="2.02994">
        <ele>166.2</ele>
        <time>2022-02-06T14:12:26Z</time>
      </trkpt>
      <trkpt lat="48.7191" lon="2.02995">
        <ele>166.5</ele>
        <time>2022-02-06T14:12:29Z</time>
      </trkpt>
      <trkpt lat="48.71916" lon="2.02995">
        <ele>166.2</ele>
        <time>2022-02-06T14:12:33Z</time>
      </trkpt>
      <trkpt lat="48.71921" lon="2.02993">
        <ele>165.7</ele>
        <time>2022-02-06T14:12:37Z</time>
      </trkpt>
      <trkpt lat="48.71926" lon="2.02992">
        <ele>166.1</ele>
        <time>2022-02-06T14:12:41Z</time>
      </trkpt>
      <trkpt lat="48.71932" lon="2.02991">
        <ele>167.2</ele>
        <time>2022-02-06T14:12:46Z</time>
      </trkpt>
      <trkpt lat="48.71937" lon="2.02991">
        <ele>167.1</ele>
        <time>2022-02-06T14:12:50Z</time>
      </trkpt>
      <trkpt lat="48.71942" lon="2.02991">
        <ele>166.3</ele>
        <time>2022-02-06T14:12:55Z</time>
      </trkpt>
      <trkpt lat="48.71948" lon="2.02991">
        <ele>164.7</ele>
        <time>2022-02-06T14:12:59Z</time>
      </trkpt>
      <trkpt lat="48.71953" lon="2.02991">
        <ele>162.7</ele>
        <time>2022-02-06T14:13:03Z</time>
      </trkpt>
      <trkpt lat="48.71958" lon="2.0299">
        <ele>162.2</ele>
        <time>2022-02-06T14:13:07Z</time>
      </trkpt>
      <trkpt lat="48.71963" lon="2.02988">
        <ele>163.1</ele>
        <time>2022-02-06T14:13:11Z</time>
      </trkpt>
      <trkpt lat="48.71968" lon="2.02988">
        <ele>164.3</ele>
        <time>2022-02-06T14:13:15Z</time>
      </trkpt>
      <trkpt lat="48.71973" lon="2.02986">
        <ele>164.7</ele>
        <time>2022-02-06T14:13:18Z</time>
      </trkpt>
      <trkpt lat="48.71978" lon="2.02986">
        <ele>165</ele>
        <time>2022-02-06T14:13:21Z</time>
      </trkpt>
      <trkpt lat="48.71984" lon="2.02985">
        <ele>165.4</ele>
        <time>2022-02-06T14:13:25Z</time>
      </trkpt>
      <trkpt lat="48.7199" lon="2.02985">
        <ele>165.7</ele>
        <time>2022-02-06T14:13:30Z</time>
      </trkpt>
      <trkpt lat="48.71995" lon="2.02983">
        <ele>165.2</ele>
        <time>2022-02-06T14:13:33Z</time>
      </trkpt>
      <trkpt lat="48.72" lon="2.02982">
        <ele>165.1</ele>
        <time>2022-02-06T14:13:37Z</time>
      </trkpt>
      <trkpt lat="48.72004" lon="2.0298">
        <ele>164.8</ele>
        <time>2022-02-06T14:13:40Z</time>
      </trkpt>
      <trkpt lat="48.72009" lon="2.02979">
        <ele>165</ele>
        <time>2022-02-06T14:13:44Z</time>
      </trkpt>
      <trkpt lat="48.72015" lon="2.02978">
        <ele>164.5</ele>
        <time>2022-02-06T14:13:48Z</time>
      </trkpt>
      <trkpt lat="48.7202" lon="2.02977">
        <ele>164.4</ele>
        <time>2022-02-06T14:13:52Z</time>
      </trkpt>
      <trkpt lat="48.72025" lon="2.02975">
        <ele>165</ele>
        <time>2022-02-06T14:13:57Z</time>
      </trkpt>
      <trkpt lat="48.72031" lon="2.02973">
        <ele>166.2</ele>
        <time>2022-02-06T14:14:01Z</time>
      </trkpt>
      <trkpt lat="48.72036" lon="2.02972">
        <ele>167.5</ele>
        <time>2022-02-06T14:14:05Z</time>
      </trkpt>
      <trkpt lat="48.72032" lon="2.02967">
        <ele>169.5</ele>
        <time>2022-02-06T14:14:12Z</time>
      </trkpt>
      <trkpt lat="48.72028" lon="2.02967">
        <ele>164.7</ele>
        <time>2022-02-06T14:14:39Z</time>
      </trkpt>
      <trkpt lat="48.72026" lon="2.0296">
        <ele>163.6</ele>
        <time>2022-02-06T14:14:43Z</time>
      </trkpt>
      <trkpt lat="48.72026" lon="2.02967">
        <ele>159.8</ele>
        <time>2022-02-06T14:15:05Z</time>
      </trkpt>
      <trkpt lat="48.72029" lon="2.02974">
        <ele>160.5</ele>
        <time>2022-02-06T14:15:31Z</time>
      </trkpt>
      <trkpt lat="48.72034" lon="2.02967">
        <ele>160.4</ele>
        <time>2022-02-06T14:15:34Z</time>
      </trkpt>
      <trkpt lat="48.72029" lon="2.02968">
        <ele>157.3</ele>
        <time>2022-02-06T14:15:56Z</time>
      </trkpt>
      <trkpt lat="48.72034" lon="2.02966">
        <ele>157.5</ele>
        <time>2022-02-06T14:16:19Z</time>
      </trkpt>
      <trkpt lat="48.7204" lon="2.02969">
        <ele>157.6</ele>
        <time>2022-02-06T14:16:24Z</time>
      </trkpt>
      <trkpt lat="48.72044" lon="2.02969">
        <ele>158.2</ele>
        <time>2022-02-06T14:16:29Z</time>
      </trkpt>
      <trkpt lat="48.72049" lon="2.02968">
        <ele>159.1</ele>
        <time>2022-02-06T14:16:34Z</time>
      </trkpt>
      <trkpt lat="48.72054" lon="2.02965">
        <ele>159.6</ele>
        <time>2022-02-06T14:16:40Z</time>
      </trkpt>
      <trkpt lat="48.72059" lon="2.02963">
        <ele>159.2</ele>
        <time>2022-02-06T14:16:45Z</time>
      </trkpt>
      <trkpt lat="48.72063" lon="2.02968">
        <ele>158.2</ele>
        <time>2022-02-06T14:16:53Z</time>
      </trkpt>
      <trkpt lat="48.72068" lon="2.02972">
        <ele>157.7</ele>
        <time>2022-02-06T14:16:58Z</time>
      </trkpt>
      <trkpt lat="48.72073" lon="2.0297">
        <ele>156.8</ele>
        <time>2022-02-06T14:17:01Z</time>
      </trkpt>
      <trkpt lat="48.72078" lon="2.02969">
        <ele>155.4</ele>
        <time>2022-02-06T14:17:04Z</time>
      </trkpt>
      <trkpt lat="48.72083" lon="2.02966">
        <ele>154.1</ele>
        <time>2022-02-06T14:17:07Z</time>
      </trkpt>
      <trkpt lat="48.72088" lon="2.02963">
        <ele>153.5</ele>
        <time>2022-02-06T14:17:11Z</time>
      </trkpt>
      <trkpt lat="48.72093" lon="2.0296">
        <ele>153.4</ele>
        <time>2022-02-06T14:17:13Z</time>
      </trkpt>
      <trkpt lat="48.72097" lon="2.02957">
        <ele>153.2</ele>
        <time>2022-02-06T14:17:16Z</time>
      </trkpt>
      <trkpt lat="48.72103" lon="2.02956">
        <ele>153.2</ele>
        <time>2022-02-06T14:17:21Z</time>
      </trkpt>
      <trkpt lat="48.72109" lon="2.02955">
        <ele>153.1</ele>
        <time>2022-02-06T14:17:25Z</time>
      </trkpt>
      <trkpt lat="48.72113" lon="2.02953">
        <ele>153.9</ele>
        <time>2022-02-06T14:17:28Z</time>
      </trkpt>
      <trkpt lat="48.72119" lon="2.02952">
        <ele>155</ele>
        <time>2022-02-06T14:17:32Z</time>
      </trkpt>
      <trkpt lat="48.72124" lon="2.0295">
        <ele>156.6</ele>
        <time>2022-02-06T14:17:36Z</time>
      </trkpt>
      <trkpt lat="48.72128" lon="2.02947">
        <ele>157.3</ele>
        <time>2022-02-06T14:17:39Z</time>
      </trkpt>
      <trkpt lat="48.72132" lon="2.02945">
        <ele>157.3</ele>
        <time>2022-02-06T14:17:42Z</time>
      </trkpt>
      <trkpt lat="48.72137" lon="2.02943">
        <ele>157.1</ele>
        <time>2022-02-06T14:17:45Z</time>
      </trkpt>
      <trkpt lat="48.72143" lon="2.02942">
        <ele>157.6</ele>
        <time>2022-02-06T14:17:49Z</time>
      </trkpt>
      <trkpt lat="48.72148" lon="2.02941">
        <ele>158.3</ele>
        <time>2022-02-06T14:17:52Z</time>
      </trkpt>
      <trkpt lat="48.72153" lon="2.02937">
        <ele>158.4</ele>
        <time>2022-02-06T14:17:56Z</time>
      </trkpt>
      <trkpt lat="48.72158" lon="2.02935">
        <ele>157.2</ele>
        <time>2022-02-06T14:18:00Z</time>
      </trkpt>
      <trkpt lat="48.72164" lon="2.02933">
        <ele>156.3</ele>
        <time>2022-02-06T14:18:05Z</time>
      </trkpt>
      <trkpt lat="48.72169" lon="2.02932">
        <ele>156.7</ele>
        <time>2022-02-06T14:18:09Z</time>
      </trkpt>
      <trkpt lat="48.72174" lon="2.0293">
        <ele>157.3</ele>
        <time>2022-02-06T14:18:13Z</time>
      </trkpt>
      <trkpt lat="48.72179" lon="2.02927">
        <ele>157.2</ele>
        <time>2022-02-06T14:18:17Z</time>
      </trkpt>
      <trkpt lat="48.72184" lon="2.02924">
        <ele>156.7</ele>
        <time>2022-02-06T14:18:21Z</time>
      </trkpt>
      <trkpt lat="48.72189" lon="2.02923">
        <ele>156.4</ele>
        <time>2022-02-06T14:18:24Z</time>
      </trkpt>
      <trkpt lat="48.72195" lon="2.02925">
        <ele>156.4</ele>
        <time>2022-02-06T14:18:29Z</time>
      </trkpt>
      <trkpt lat="48.722" lon="2.02929">
        <ele>156.4</ele>
        <time>2022-02-06T14:18:33Z</time>
      </trkpt>
      <trkpt lat="48.72204" lon="2.02933">
        <ele>156.4</ele>
        <time>2022-02-06T14:18:36Z</time>
      </trkpt>
      <trkpt lat="48.72209" lon="2.02935">
        <ele>156.3</ele>
        <time>2022-02-06T14:18:43Z</time>
      </trkpt>
      <trkpt lat="48.72209" lon="2.02926">
        <ele>155.9</ele>
        <time>2022-02-06T14:18:49Z</time>
      </trkpt>
      <trkpt lat="48.72208" lon="2.02919">
        <ele>154.3</ele>
        <time>2022-02-06T14:18:54Z</time>
      </trkpt>
      <trkpt lat="48.72207" lon="2.02925">
        <ele>146.2</ele>
        <time>2022-02-06T14:20:12Z</time>
      </trkpt>
      <trkpt lat="48.72202" lon="2.02928">
        <ele>145.3</ele>
        <time>2022-02-06T14:20:18Z</time>
      </trkpt>
      <trkpt lat="48.72198" lon="2.02933">
        <ele>142.7</ele>
        <time>2022-02-06T14:20:35Z</time>
      </trkpt>
      <trkpt lat="48.72198" lon="2.02941">
        <ele>141.4</ele>
        <time>2022-02-06T14:21:24Z</time>
      </trkpt>
      <trkpt lat="48.72198" lon="2.02949">
        <ele>143</ele>
        <time>2022-02-06T14:21:37Z</time>
      </trkpt>
      <trkpt lat="48.72202" lon="2.02953">
        <ele>145.9</ele>
        <time>2022-02-06T14:22:01Z</time>
      </trkpt>
      <trkpt lat="48.72204" lon="2.02961">
        <ele>145.8</ele>
        <time>2022-02-06T14:22:06Z</time>
      </trkpt>
      <trkpt lat="48.72208" lon="2.02966">
        <ele>145.6</ele>
        <time>2022-02-06T14:22:11Z</time>
      </trkpt>
      <trkpt lat="48.72211" lon="2.02973">
        <ele>146.2</ele>
        <time>2022-02-06T14:22:14Z</time>
      </trkpt>
      <trkpt lat="48.72213" lon="2.02981">
        <ele>146.9</ele>
        <time>2022-02-06T14:22:17Z</time>
      </trkpt>
      <trkpt lat="48.72214" lon="2.02989">
        <ele>147.9</ele>
        <time>2022-02-06T14:22:20Z</time>
      </trkpt>
      <trkpt lat="48.72214" lon="2.02997">
        <ele>148.7</ele>
        <time>2022-02-06T14:22:24Z</time>
      </trkpt>
      <trkpt lat="48.72216" lon="2.03004">
        <ele>149.6</ele>
        <time>2022-02-06T14:22:29Z</time>
      </trkpt>
      <trkpt lat="48.72218" lon="2.0301">
        <ele>151</ele>
        <time>2022-02-06T14:22:32Z</time>
      </trkpt>
      <trkpt lat="48.7222" lon="2.03018">
        <ele>152.5</ele>
        <time>2022-02-06T14:22:36Z</time>
      </trkpt>
      <trkpt lat="48.72222" lon="2.03025">
        <ele>153.4</ele>
        <time>2022-02-06T14:22:41Z</time>
      </trkpt>
      <trkpt lat="48.72224" lon="2.03032">
        <ele>154.1</ele>
        <time>2022-02-06T14:22:44Z</time>
      </trkpt>
      <trkpt lat="48.72229" lon="2.03038">
        <ele>154.6</ele>
        <time>2022-02-06T14:22:48Z</time>
      </trkpt>
      <trkpt lat="48.72232" lon="2.03044">
        <ele>154.7</ele>
        <time>2022-02-06T14:22:52Z</time>
      </trkpt>
      <trkpt lat="48.72236" lon="2.0305">
        <ele>154.9</ele>
        <time>2022-02-06T14:22:55Z</time>
      </trkpt>
      <trkpt lat="48.7224" lon="2.03055">
        <ele>155.5</ele>
        <time>2022-02-06T14:22:58Z</time>
      </trkpt>
      <trkpt lat="48.72244" lon="2.03059">
        <ele>156.7</ele>
        <time>2022-02-06T14:23:01Z</time>
      </trkpt>
      <trkpt lat="48.72248" lon="2.03064">
        <ele>158.1</ele>
        <time>2022-02-06T14:23:04Z</time>
      </trkpt>
      <trkpt lat="48.72252" lon="2.03071">
        <ele>159.6</ele>
        <time>2022-02-06T14:23:08Z</time>
      </trkpt>
      <trkpt lat="48.72256" lon="2.03077">
        <ele>160.4</ele>
        <time>2022-02-06T14:23:10Z</time>
      </trkpt>
      <trkpt lat="48.72261" lon="2.03082">
        <ele>161.9</ele>
        <time>2022-02-06T14:23:15Z</time>
      </trkpt>
      <trkpt lat="48.72263" lon="2.03089">
        <ele>162.4</ele>
        <time>2022-02-06T14:23:18Z</time>
      </trkpt>
      <trkpt lat="48.72266" lon="2.03096">
        <ele>162.6</ele>
        <time>2022-02-06T14:23:21Z</time>
      </trkpt>
      <trkpt lat="48.72267" lon="2.03103">
        <ele>162.8</ele>
        <time>2022-02-06T14:23:25Z</time>
      </trkpt>
      <trkpt lat="48.72268" lon="2.03112">
        <ele>162.9</ele>
        <time>2022-02-06T14:23:29Z</time>
      </trkpt>
      <trkpt lat="48.72271" lon="2.03118">
        <ele>162.9</ele>
        <time>2022-02-06T14:23:33Z</time>
      </trkpt>
      <trkpt lat="48.72273" lon="2.03126">
        <ele>162.4</ele>
        <time>2022-02-06T14:23:37Z</time>
      </trkpt>
      <trkpt lat="48.72278" lon="2.0313">
        <ele>162</ele>
        <time>2022-02-06T14:23:42Z</time>
      </trkpt>
      <trkpt lat="48.72282" lon="2.03134">
        <ele>162.2</ele>
        <time>2022-02-06T14:23:46Z</time>
      </trkpt>
      <trkpt lat="48.72287" lon="2.03137">
        <ele>162.4</ele>
        <time>2022-02-06T14:23:50Z</time>
      </trkpt>
      <trkpt lat="48.72292" lon="2.0314">
        <ele>162.8</ele>
        <time>2022-02-06T14:23:54Z</time>
      </trkpt>
      <trkpt lat="48.72296" lon="2.03143">
        <ele>163.5</ele>
        <time>2022-02-06T14:23:58Z</time>
      </trkpt>
      <trkpt lat="48.72301" lon="2.03146">
        <ele>164.1</ele>
        <time>2022-02-06T14:24:02Z</time>
      </trkpt>
      <trkpt lat="48.72305" lon="2.03141">
        <ele>163.4</ele>
        <time>2022-02-06T14:24:07Z</time>
      </trkpt>
      <trkpt lat="48.72309" lon="2.03137">
        <ele>161.4</ele>
        <time>2022-02-06T14:24:11Z</time>
      </trkpt>
      <trkpt lat="48.72311" lon="2.03142">
        <ele>159.4</ele>
        <time>2022-02-06T14:24:17Z</time>
      </trkpt>
      <trkpt lat="48.72309" lon="2.0315">
        <ele>158.5</ele>
        <time>2022-02-06T14:24:20Z</time>
      </trkpt>
      <trkpt lat="48.72306" lon="2.03156">
        <ele>157.6</ele>
        <time>2022-02-06T14:24:23Z</time>
      </trkpt>
      <trkpt lat="48.72304" lon="2.03164">
        <ele>156.5</ele>
        <time>2022-02-06T14:24:27Z</time>
      </trkpt>
      <trkpt lat="48.72304" lon="2.03172">
        <ele>156</ele>
        <time>2022-02-06T14:24:31Z</time>
      </trkpt>
      <trkpt lat="48.723" lon="2.03177">
        <ele>155.8</ele>
        <time>2022-02-06T14:24:35Z</time>
      </trkpt>
      <trkpt lat="48.72298" lon="2.03185">
        <ele>152.3</ele>
        <time>2022-02-06T14:24:40Z</time>
      </trkpt>
      <trkpt lat="48.72297" lon="2.03193">
        <ele>148.6</ele>
        <time>2022-02-06T14:24:45Z</time>
      </trkpt>
      <trkpt lat="48.72297" lon="2.03202">
        <ele>146.6</ele>
        <time>2022-02-06T14:24:49Z</time>
      </trkpt>
      <trkpt lat="48.72297" lon="2.03209">
        <ele>146.6</ele>
        <time>2022-02-06T14:24:52Z</time>
      </trkpt>
      <trkpt lat="48.72295" lon="2.03217">
        <ele>147.3</ele>
        <time>2022-02-06T14:24:56Z</time>
      </trkpt>
      <trkpt lat="48.72292" lon="2.03224">
        <ele>147.3</ele>
        <time>2022-02-06T14:25:00Z</time>
      </trkpt>
      <trkpt lat="48.72288" lon="2.03231">
        <ele>147.1</ele>
        <time>2022-02-06T14:25:04Z</time>
      </trkpt>
      <trkpt lat="48.72287" lon="2.03239">
        <ele>146.5</ele>
        <time>2022-02-06T14:25:08Z</time>
      </trkpt>
      <trkpt lat="48.72288" lon="2.03247">
        <ele>146.1</ele>
        <time>2022-02-06T14:25:11Z</time>
      </trkpt>
      <trkpt lat="48.7229" lon="2.03255">
        <ele>146.2</ele>
        <time>2022-02-06T14:25:15Z</time>
      </trkpt>
      <trkpt lat="48.72292" lon="2.03262">
        <ele>147.3</ele>
        <time>2022-02-06T14:25:18Z</time>
      </trkpt>
      <trkpt lat="48.72294" lon="2.03268">
        <ele>148.3</ele>
        <time>2022-02-06T14:25:20Z</time>
      </trkpt>
      <trkpt lat="48.72299" lon="2.03274">
        <ele>149.3</ele>
        <time>2022-02-06T14:25:24Z</time>
      </trkpt>
      <trkpt lat="48.72304" lon="2.03278">
        <ele>149.4</ele>
        <time>2022-02-06T14:25:28Z</time>
      </trkpt>
      <trkpt lat="48.72308" lon="2.03281">
        <ele>148.7</ele>
        <time>2022-02-06T14:25:31Z</time>
      </trkpt>
      <trkpt lat="48.72314" lon="2.03284">
        <ele>147.5</ele>
        <time>2022-02-06T14:25:34Z</time>
      </trkpt>
      <trkpt lat="48.72317" lon="2.03289">
        <ele>147.1</ele>
        <time>2022-02-06T14:25:39Z</time>
      </trkpt>
      <trkpt lat="48.72318" lon="2.03297">
        <ele>147.6</ele>
        <time>2022-02-06T14:25:42Z</time>
      </trkpt>
      <trkpt lat="48.72319" lon="2.03306">
        <ele>147.2</ele>
        <time>2022-02-06T14:25:45Z</time>
      </trkpt>
      <trkpt lat="48.7232" lon="2.03313">
        <ele>146.3</ele>
        <time>2022-02-06T14:25:49Z</time>
      </trkpt>
      <trkpt lat="48.72322" lon="2.03321">
        <ele>144.7</ele>
        <time>2022-02-06T14:25:52Z</time>
      </trkpt>
      <trkpt lat="48.72325" lon="2.03326">
        <ele>144.3</ele>
        <time>2022-02-06T14:25:56Z</time>
      </trkpt>
      <trkpt lat="48.72328" lon="2.03333">
        <ele>144.5</ele>
        <time>2022-02-06T14:25:59Z</time>
      </trkpt>
      <trkpt lat="48.72331" lon="2.03339">
        <ele>145.3</ele>
        <time>2022-02-06T14:26:02Z</time>
      </trkpt>
      <trkpt lat="48.72334" lon="2.03345">
        <ele>147.1</ele>
        <time>2022-02-06T14:26:05Z</time>
      </trkpt>
      <trkpt lat="48.72337" lon="2.03352">
        <ele>148.3</ele>
        <time>2022-02-06T14:26:09Z</time>
      </trkpt>
      <trkpt lat="48.72339" lon="2.0336">
        <ele>149.3</ele>
        <time>2022-02-06T14:26:12Z</time>
      </trkpt>
      <trkpt lat="48.72341" lon="2.03367">
        <ele>149.2</ele>
        <time>2022-02-06T14:26:15Z</time>
      </trkpt>
      <trkpt lat="48.72343" lon="2.03375">
        <ele>151.5</ele>
        <time>2022-02-06T14:26:19Z</time>
      </trkpt>
      <trkpt lat="48.72345" lon="2.03382">
        <ele>152.1</ele>
        <time>2022-02-06T14:26:22Z</time>
      </trkpt>
      <trkpt lat="48.72346" lon="2.03391">
        <ele>151.7</ele>
        <time>2022-02-06T14:26:27Z</time>
      </trkpt>
      <trkpt lat="48.72346" lon="2.03399">
        <ele>150.4</ele>
        <time>2022-02-06T14:26:30Z</time>
      </trkpt>
      <trkpt lat="48.72346" lon="2.03408">
        <ele>150.7</ele>
        <time>2022-02-06T14:26:34Z</time>
      </trkpt>
      <trkpt lat="48.72345" lon="2.03416">
        <ele>152.5</ele>
        <time>2022-02-06T14:26:37Z</time>
      </trkpt>
      <trkpt lat="48.72345" lon="2.03423">
        <ele>155.4</ele>
        <time>2022-02-06T14:26:39Z</time>
      </trkpt>
      <trkpt lat="48.72342" lon="2.03441">
        <ele>156.9</ele>
        <time>2022-02-06T14:26:48Z</time>
      </trkpt>
      <trkpt lat="48.72341" lon="2.03449">
        <ele>155.1</ele>
        <time>2022-02-06T14:26:53Z</time>
      </trkpt>
      <trkpt lat="48.7234" lon="2.03457">
        <ele>153.9</ele>
        <time>2022-02-06T14:26:56Z</time>
      </trkpt>
      <trkpt lat="48.72339" lon="2.03465">
        <ele>154</ele>
        <time>2022-02-06T14:27:00Z</time>
      </trkpt>
      <trkpt lat="48.72338" lon="2.03472">
        <ele>154.7</ele>
        <time>2022-02-06T14:27:03Z</time>
      </trkpt>
      <trkpt lat="48.72336" lon="2.03478">
        <ele>154.6</ele>
        <time>2022-02-06T14:27:06Z</time>
      </trkpt>
      <trkpt lat="48.72333" lon="2.03485">
        <ele>153.9</ele>
        <time>2022-02-06T14:27:09Z</time>
      </trkpt>
      <trkpt lat="48.72331" lon="2.03491">
        <ele>152.4</ele>
        <time>2022-02-06T14:27:13Z</time>
      </trkpt>
      <trkpt lat="48.7233" lon="2.035">
        <ele>150.7</ele>
        <time>2022-02-06T14:27:17Z</time>
      </trkpt>
      <trkpt lat="48.72329" lon="2.03508">
        <ele>150</ele>
        <time>2022-02-06T14:27:22Z</time>
      </trkpt>
      <trkpt lat="48.72327" lon="2.03515">
        <ele>149.4</ele>
        <time>2022-02-06T14:27:25Z</time>
      </trkpt>
      <trkpt lat="48.72325" lon="2.03523">
        <ele>149.1</ele>
        <time>2022-02-06T14:27:30Z</time>
      </trkpt>
      <trkpt lat="48.72324" lon="2.0353">
        <ele>149.6</ele>
        <time>2022-02-06T14:27:33Z</time>
      </trkpt>
      <trkpt lat="48.72324" lon="2.03539">
        <ele>150.5</ele>
        <time>2022-02-06T14:27:38Z</time>
      </trkpt>
      <trkpt lat="48.72323" lon="2.03548">
        <ele>150.3</ele>
        <time>2022-02-06T14:27:42Z</time>
      </trkpt>
      <trkpt lat="48.72323" lon="2.03555">
        <ele>148.6</ele>
        <time>2022-02-06T14:27:46Z</time>
      </trkpt>
      <trkpt lat="48.72322" lon="2.03564">
        <ele>146.5</ele>
        <time>2022-02-06T14:27:51Z</time>
      </trkpt>
      <trkpt lat="48.72324" lon="2.0357">
        <ele>145.4</ele>
        <time>2022-02-06T14:27:54Z</time>
      </trkpt>
      <trkpt lat="48.72325" lon="2.03577">
        <ele>144.5</ele>
        <time>2022-02-06T14:27:57Z</time>
      </trkpt>
      <trkpt lat="48.72328" lon="2.03585">
        <ele>143.2</ele>
        <time>2022-02-06T14:28:02Z</time>
      </trkpt>
      <trkpt lat="48.72331" lon="2.03592">
        <ele>143.2</ele>
        <time>2022-02-06T14:28:06Z</time>
      </trkpt>
      <trkpt lat="48.72334" lon="2.03599">
        <ele>144.8</ele>
        <time>2022-02-06T14:28:10Z</time>
      </trkpt>
      <trkpt lat="48.72338" lon="2.03606">
        <ele>146.3</ele>
        <time>2022-02-06T14:28:15Z</time>
      </trkpt>
      <trkpt lat="48.7234" lon="2.03615">
        <ele>146.2</ele>
        <time>2022-02-06T14:28:20Z</time>
      </trkpt>
      <trkpt lat="48.72341" lon="2.03622">
        <ele>145.8</ele>
        <time>2022-02-06T14:28:23Z</time>
      </trkpt>
      <trkpt lat="48.72344" lon="2.0363">
        <ele>144.7</ele>
        <time>2022-02-06T14:28:27Z</time>
      </trkpt>
      <trkpt lat="48.72346" lon="2.03636">
        <ele>144.2</ele>
        <time>2022-02-06T14:28:30Z</time>
      </trkpt>
      <trkpt lat="48.72345" lon="2.03657">
        <ele>144.5</ele>
        <time>2022-02-06T14:28:41Z</time>
      </trkpt>
      <trkpt lat="48.72344" lon="2.03665">
        <ele>144.3</ele>
        <time>2022-02-06T14:28:45Z</time>
      </trkpt>
      <trkpt lat="48.72345" lon="2.03672">
        <ele>144</ele>
        <time>2022-02-06T14:28:49Z</time>
      </trkpt>
      <trkpt lat="48.72345" lon="2.03679">
        <ele>143.6</ele>
        <time>2022-02-06T14:28:52Z</time>
      </trkpt>
      <trkpt lat="48.72347" lon="2.03686">
        <ele>142.9</ele>
        <time>2022-02-06T14:28:56Z</time>
      </trkpt>
      <trkpt lat="48.72348" lon="2.03694">
        <ele>142.6</ele>
        <time>2022-02-06T14:28:59Z</time>
      </trkpt>
      <trkpt lat="48.72348" lon="2.03702">
        <ele>141.9</ele>
        <time>2022-02-06T14:29:02Z</time>
      </trkpt>
      <trkpt lat="48.72349" lon="2.03709">
        <ele>141.5</ele>
        <time>2022-02-06T14:29:05Z</time>
      </trkpt>
      <trkpt lat="48.72349" lon="2.03716">
        <ele>140.5</ele>
        <time>2022-02-06T14:29:08Z</time>
      </trkpt>
      <trkpt lat="48.72349" lon="2.03724">
        <ele>139.9</ele>
        <time>2022-02-06T14:29:13Z</time>
      </trkpt>
      <trkpt lat="48.72349" lon="2.03731">
        <ele>139.8</ele>
        <time>2022-02-06T14:29:16Z</time>
      </trkpt>
      <trkpt lat="48.72349" lon="2.03739">
        <ele>140.2</ele>
        <time>2022-02-06T14:29:20Z</time>
      </trkpt>
      <trkpt lat="48.7235" lon="2.03747">
        <ele>140.2</ele>
        <time>2022-02-06T14:29:25Z</time>
      </trkpt>
      <trkpt lat="48.72351" lon="2.03755">
        <ele>140.5</ele>
        <time>2022-02-06T14:29:28Z</time>
      </trkpt>
      <trkpt lat="48.72352" lon="2.03762">
        <ele>141.6</ele>
        <time>2022-02-06T14:29:32Z</time>
      </trkpt>
      <trkpt lat="48.72352" lon="2.03769">
        <ele>142.6</ele>
        <time>2022-02-06T14:29:35Z</time>
      </trkpt>
      <trkpt lat="48.72351" lon="2.03777">
        <ele>143.3</ele>
        <time>2022-02-06T14:29:39Z</time>
      </trkpt>
      <trkpt lat="48.72351" lon="2.03784">
        <ele>143.7</ele>
        <time>2022-02-06T14:29:42Z</time>
      </trkpt>
      <trkpt lat="48.72351" lon="2.03791">
        <ele>143.8</ele>
        <time>2022-02-06T14:29:46Z</time>
      </trkpt>
      <trkpt lat="48.72351" lon="2.03799">
        <ele>144</ele>
        <time>2022-02-06T14:29:49Z</time>
      </trkpt>
      <trkpt lat="48.7235" lon="2.03807">
        <ele>144.7</ele>
        <time>2022-02-06T14:29:53Z</time>
      </trkpt>
      <trkpt lat="48.72349" lon="2.03814">
        <ele>145</ele>
        <time>2022-02-06T14:29:56Z</time>
      </trkpt>
      <trkpt lat="48.72348" lon="2.03821">
        <ele>145.3</ele>
        <time>2022-02-06T14:30:00Z</time>
      </trkpt>
      <trkpt lat="48.72346" lon="2.03828">
        <ele>145.6</ele>
        <time>2022-02-06T14:30:03Z</time>
      </trkpt>
      <trkpt lat="48.72345" lon="2.03835">
        <ele>146.3</ele>
        <time>2022-02-06T14:30:05Z</time>
      </trkpt>
      <trkpt lat="48.72342" lon="2.03843">
        <ele>147.4</ele>
        <time>2022-02-06T14:30:09Z</time>
      </trkpt>
      <trkpt lat="48.7234" lon="2.03851">
        <ele>148.4</ele>
        <time>2022-02-06T14:30:12Z</time>
      </trkpt>
      <trkpt lat="48.72337" lon="2.03858">
        <ele>149.4</ele>
        <time>2022-02-06T14:30:16Z</time>
      </trkpt>
      <trkpt lat="48.72331" lon="2.03871">
        <ele>150.2</ele>
        <time>2022-02-06T14:30:22Z</time>
      </trkpt>
      <trkpt lat="48.72328" lon="2.03877">
        <ele>150.8</ele>
        <time>2022-02-06T14:30:25Z</time>
      </trkpt>
      <trkpt lat="48.72326" lon="2.03883">
        <ele>151.8</ele>
        <time>2022-02-06T14:30:28Z</time>
      </trkpt>
      <trkpt lat="48.72323" lon="2.03891">
        <ele>152.5</ele>
        <time>2022-02-06T14:30:31Z</time>
      </trkpt>
      <trkpt lat="48.72321" lon="2.03897">
        <ele>152.9</ele>
        <time>2022-02-06T14:30:34Z</time>
      </trkpt>
      <trkpt lat="48.72319" lon="2.03904">
        <ele>152.9</ele>
        <time>2022-02-06T14:30:37Z</time>
      </trkpt>
      <trkpt lat="48.72317" lon="2.0391">
        <ele>153</ele>
        <time>2022-02-06T14:30:40Z</time>
      </trkpt>
      <trkpt lat="48.72315" lon="2.03918">
        <ele>153.6</ele>
        <time>2022-02-06T14:30:44Z</time>
      </trkpt>
      <trkpt lat="48.72308" lon="2.03924">
        <ele>153.6</ele>
        <time>2022-02-06T14:30:51Z</time>
      </trkpt>
      <trkpt lat="48.72304" lon="2.03929">
        <ele>153</ele>
        <time>2022-02-06T14:30:55Z</time>
      </trkpt>
      <trkpt lat="48.72302" lon="2.03935">
        <ele>153.1</ele>
        <time>2022-02-06T14:30:58Z</time>
      </trkpt>
      <trkpt lat="48.723" lon="2.03942">
        <ele>154</ele>
        <time>2022-02-06T14:31:00Z</time>
      </trkpt>
      <trkpt lat="48.72298" lon="2.0395">
        <ele>155.4</ele>
        <time>2022-02-06T14:31:04Z</time>
      </trkpt>
      <trkpt lat="48.72295" lon="2.03958">
        <ele>155.9</ele>
        <time>2022-02-06T14:31:08Z</time>
      </trkpt>
      <trkpt lat="48.72292" lon="2.03963">
        <ele>156.3</ele>
        <time>2022-02-06T14:31:11Z</time>
      </trkpt>
      <trkpt lat="48.72288" lon="2.03968">
        <ele>156.6</ele>
        <time>2022-02-06T14:31:16Z</time>
      </trkpt>
      <trkpt lat="48.72284" lon="2.03972">
        <ele>156.6</ele>
        <time>2022-02-06T14:31:19Z</time>
      </trkpt>
      <trkpt lat="48.72279" lon="2.03976">
        <ele>156.5</ele>
        <time>2022-02-06T14:31:22Z</time>
      </trkpt>
      <trkpt lat="48.72274" lon="2.03979">
        <ele>156.3</ele>
        <time>2022-02-06T14:31:26Z</time>
      </trkpt>
      <trkpt lat="48.72268" lon="2.03983">
        <ele>157.4</ele>
        <time>2022-02-06T14:31:30Z</time>
      </trkpt>
      <trkpt lat="48.72263" lon="2.03988">
        <ele>157.6</ele>
        <time>2022-02-06T14:31:34Z</time>
      </trkpt>
      <trkpt lat="48.72259" lon="2.03992">
        <ele>157.6</ele>
        <time>2022-02-06T14:31:38Z</time>
      </trkpt>
      <trkpt lat="48.72254" lon="2.03996">
        <ele>157</ele>
        <time>2022-02-06T14:31:41Z</time>
      </trkpt>
      <trkpt lat="48.7225" lon="2.04001">
        <ele>158</ele>
        <time>2022-02-06T14:31:45Z</time>
      </trkpt>
      <trkpt lat="48.72246" lon="2.04004">
        <ele>159</ele>
        <time>2022-02-06T14:31:48Z</time>
      </trkpt>
      <trkpt lat="48.72242" lon="2.04008">
        <ele>158.6</ele>
        <time>2022-02-06T14:31:51Z</time>
      </trkpt>
      <trkpt lat="48.72236" lon="2.04013">
        <ele>156</ele>
        <time>2022-02-06T14:31:56Z</time>
      </trkpt>
      <trkpt lat="48.72232" lon="2.04018">
        <ele>154</ele>
        <time>2022-02-06T14:31:59Z</time>
      </trkpt>
      <trkpt lat="48.72228" lon="2.04023">
        <ele>154.5</ele>
        <time>2022-02-06T14:32:03Z</time>
      </trkpt>
      <trkpt lat="48.72224" lon="2.04027">
        <ele>155.7</ele>
        <time>2022-02-06T14:32:07Z</time>
      </trkpt>
      <trkpt lat="48.72219" lon="2.04031">
        <ele>155.6</ele>
        <time>2022-02-06T14:32:10Z</time>
      </trkpt>
      <trkpt lat="48.72214" lon="2.04035">
        <ele>153.7</ele>
        <time>2022-02-06T14:32:14Z</time>
      </trkpt>
      <trkpt lat="48.72211" lon="2.04039">
        <ele>151.7</ele>
        <time>2022-02-06T14:32:16Z</time>
      </trkpt>
      <trkpt lat="48.72206" lon="2.04045">
        <ele>151</ele>
        <time>2022-02-06T14:32:21Z</time>
      </trkpt>
      <trkpt lat="48.72203" lon="2.04051">
        <ele>151.9</ele>
        <time>2022-02-06T14:32:24Z</time>
      </trkpt>
      <trkpt lat="48.72199" lon="2.04058">
        <ele>153.9</ele>
        <time>2022-02-06T14:32:28Z</time>
      </trkpt>
      <trkpt lat="48.72196" lon="2.04063">
        <ele>155.1</ele>
        <time>2022-02-06T14:32:31Z</time>
      </trkpt>
      <trkpt lat="48.72192" lon="2.04068">
        <ele>155.7</ele>
        <time>2022-02-06T14:32:35Z</time>
      </trkpt>
      <trkpt lat="48.72188" lon="2.04073">
        <ele>155.7</ele>
        <time>2022-02-06T14:32:38Z</time>
      </trkpt>
      <trkpt lat="48.72184" lon="2.04079">
        <ele>157</ele>
        <time>2022-02-06T14:32:42Z</time>
      </trkpt>
      <trkpt lat="48.72181" lon="2.04085">
        <ele>158.5</ele>
        <time>2022-02-06T14:32:45Z</time>
      </trkpt>
      <trkpt lat="48.72178" lon="2.0409">
        <ele>159.5</ele>
        <time>2022-02-06T14:32:49Z</time>
      </trkpt>
      <trkpt lat="48.72175" lon="2.04096">
        <ele>159.5</ele>
        <time>2022-02-06T14:32:52Z</time>
      </trkpt>
      <trkpt lat="48.72172" lon="2.04102">
        <ele>158.9</ele>
        <time>2022-02-06T14:32:55Z</time>
      </trkpt>
      <trkpt lat="48.72169" lon="2.0411">
        <ele>158.6</ele>
        <time>2022-02-06T14:33:00Z</time>
      </trkpt>
      <trkpt lat="48.72167" lon="2.04116">
        <ele>159.2</ele>
        <time>2022-02-06T14:33:04Z</time>
      </trkpt>
      <trkpt lat="48.72165" lon="2.04124">
        <ele>159.5</ele>
        <time>2022-02-06T14:33:07Z</time>
      </trkpt>
      <trkpt lat="48.72162" lon="2.04131">
        <ele>160</ele>
        <time>2022-02-06T14:33:11Z</time>
      </trkpt>
      <trkpt lat="48.72159" lon="2.04138">
        <ele>161</ele>
        <time>2022-02-06T14:33:16Z</time>
      </trkpt>
      <trkpt lat="48.72157" lon="2.04146">
        <ele>160.9</ele>
        <time>2022-02-06T14:33:20Z</time>
      </trkpt>
      <trkpt lat="48.72155" lon="2.04153">
        <ele>159.7</ele>
        <time>2022-02-06T14:33:23Z</time>
      </trkpt>
      <trkpt lat="48.72154" lon="2.0416">
        <ele>158.7</ele>
        <time>2022-02-06T14:33:27Z</time>
      </trkpt>
      <trkpt lat="48.72152" lon="2.04168">
        <ele>157.5</ele>
        <time>2022-02-06T14:33:31Z</time>
      </trkpt>
      <trkpt lat="48.72149" lon="2.04175">
        <ele>158.2</ele>
        <time>2022-02-06T14:33:35Z</time>
      </trkpt>
      <trkpt lat="48.72145" lon="2.0418">
        <ele>158.6</ele>
        <time>2022-02-06T14:33:39Z</time>
      </trkpt>
      <trkpt lat="48.72142" lon="2.04185">
        <ele>159.7</ele>
        <time>2022-02-06T14:33:43Z</time>
      </trkpt>
      <trkpt lat="48.72138" lon="2.04191">
        <ele>160.8</ele>
        <time>2022-02-06T14:33:46Z</time>
      </trkpt>
      <trkpt lat="48.72134" lon="2.04197">
        <ele>161.7</ele>
        <time>2022-02-06T14:33:50Z</time>
      </trkpt>
      <trkpt lat="48.72131" lon="2.04202">
        <ele>162.1</ele>
        <time>2022-02-06T14:33:53Z</time>
      </trkpt>
      <trkpt lat="48.72127" lon="2.04209">
        <ele>162.5</ele>
        <time>2022-02-06T14:33:58Z</time>
      </trkpt>
      <trkpt lat="48.72123" lon="2.04215">
        <ele>163.1</ele>
        <time>2022-02-06T14:34:02Z</time>
      </trkpt>
      <trkpt lat="48.72118" lon="2.04221">
        <ele>163.4</ele>
        <time>2022-02-06T14:34:07Z</time>
      </trkpt>
      <trkpt lat="48.72114" lon="2.04226">
        <ele>164.4</ele>
        <time>2022-02-06T14:34:11Z</time>
      </trkpt>
      <trkpt lat="48.7211" lon="2.04232">
        <ele>165.3</ele>
        <time>2022-02-06T14:34:15Z</time>
      </trkpt>
      <trkpt lat="48.72107" lon="2.04239">
        <ele>165.9</ele>
        <time>2022-02-06T14:34:18Z</time>
      </trkpt>
      <trkpt lat="48.72104" lon="2.04246">
        <ele>167.2</ele>
        <time>2022-02-06T14:34:22Z</time>
      </trkpt>
      <trkpt lat="48.72101" lon="2.04253">
        <ele>168.8</ele>
        <time>2022-02-06T14:34:26Z</time>
      </trkpt>
      <trkpt lat="48.72099" lon="2.04261">
        <ele>168.1</ele>
        <time>2022-02-06T14:34:31Z</time>
      </trkpt>
      <trkpt lat="48.72098" lon="2.04269">
        <ele>166.1</ele>
        <time>2022-02-06T14:34:35Z</time>
      </trkpt>
      <trkpt lat="48.72097" lon="2.04277">
        <ele>163.8</ele>
        <time>2022-02-06T14:34:39Z</time>
      </trkpt>
      <trkpt lat="48.72096" lon="2.04285">
        <ele>162.5</ele>
        <time>2022-02-06T14:34:43Z</time>
      </trkpt>
      <trkpt lat="48.72095" lon="2.04294">
        <ele>160.4</ele>
        <time>2022-02-06T14:34:47Z</time>
      </trkpt>
      <trkpt lat="48.72095" lon="2.04301">
        <ele>158.6</ele>
        <time>2022-02-06T14:34:51Z</time>
      </trkpt>
      <trkpt lat="48.72095" lon="2.04309">
        <ele>157.2</ele>
        <time>2022-02-06T14:34:54Z</time>
      </trkpt>
      <trkpt lat="48.72094" lon="2.04317">
        <ele>155.3</ele>
        <time>2022-02-06T14:34:58Z</time>
      </trkpt>
      <trkpt lat="48.72094" lon="2.04324">
        <ele>154.3</ele>
        <time>2022-02-06T14:35:02Z</time>
      </trkpt>
      <trkpt lat="48.72094" lon="2.04332">
        <ele>153.7</ele>
        <time>2022-02-06T14:35:06Z</time>
      </trkpt>
      <trkpt lat="48.72094" lon="2.04341">
        <ele>153.1</ele>
        <time>2022-02-06T14:35:10Z</time>
      </trkpt>
      <trkpt lat="48.72093" lon="2.04349">
        <ele>152.6</ele>
        <time>2022-02-06T14:35:14Z</time>
      </trkpt>
      <trkpt lat="48.72091" lon="2.04358">
        <ele>153.2</ele>
        <time>2022-02-06T14:35:19Z</time>
      </trkpt>
      <trkpt lat="48.7209" lon="2.04367">
        <ele>155.3</ele>
        <time>2022-02-06T14:35:22Z</time>
      </trkpt>
      <trkpt lat="48.72088" lon="2.04374">
        <ele>155.6</ele>
        <time>2022-02-06T14:35:26Z</time>
      </trkpt>
      <trkpt lat="48.72086" lon="2.04381">
        <ele>155.1</ele>
        <time>2022-02-06T14:35:29Z</time>
      </trkpt>
      <trkpt lat="48.72083" lon="2.04388">
        <ele>154.9</ele>
        <time>2022-02-06T14:35:33Z</time>
      </trkpt>
      <trkpt lat="48.72081" lon="2.04393">
        <ele>155.7</ele>
        <time>2022-02-06T14:35:37Z</time>
      </trkpt>
      <trkpt lat="48.72078" lon="2.044">
        <ele>156.3</ele>
        <time>2022-02-06T14:35:41Z</time>
      </trkpt>
      <trkpt lat="48.72076" lon="2.04407">
        <ele>155.4</ele>
        <time>2022-02-06T14:35:45Z</time>
      </trkpt>
      <trkpt lat="48.72074" lon="2.04415">
        <ele>154.4</ele>
        <time>2022-02-06T14:35:50Z</time>
      </trkpt>
      <trkpt lat="48.72074" lon="2.04423">
        <ele>153.7</ele>
        <time>2022-02-06T14:35:54Z</time>
      </trkpt>
      <trkpt lat="48.72075" lon="2.04431">
        <ele>153.2</ele>
        <time>2022-02-06T14:35:59Z</time>
      </trkpt>
      <trkpt lat="48.72076" lon="2.04438">
        <ele>152.6</ele>
        <time>2022-02-06T14:36:04Z</time>
      </trkpt>
      <trkpt lat="48.72076" lon="2.04447">
        <ele>152.1</ele>
        <time>2022-02-06T14:36:08Z</time>
      </trkpt>
      <trkpt lat="48.72075" lon="2.04453">
        <ele>151.4</ele>
        <time>2022-02-06T14:36:11Z</time>
      </trkpt>
      <trkpt lat="48.72074" lon="2.0446">
        <ele>151.4</ele>
        <time>2022-02-06T14:36:15Z</time>
      </trkpt>
      <trkpt lat="48.72073" lon="2.04469">
        <ele>151.3</ele>
        <time>2022-02-06T14:36:20Z</time>
      </trkpt>
      <trkpt lat="48.72073" lon="2.04476">
        <ele>151.4</ele>
        <time>2022-02-06T14:36:23Z</time>
      </trkpt>
      <trkpt lat="48.72071" lon="2.04484">
        <ele>151.9</ele>
        <time>2022-02-06T14:36:28Z</time>
      </trkpt>
      <trkpt lat="48.7207" lon="2.04491">
        <ele>152.5</ele>
        <time>2022-02-06T14:36:31Z</time>
      </trkpt>
      <trkpt lat="48.72068" lon="2.04497">
        <ele>153.2</ele>
        <time>2022-02-06T14:36:35Z</time>
      </trkpt>
      <trkpt lat="48.72066" lon="2.04506">
        <ele>153.4</ele>
        <time>2022-02-06T14:36:40Z</time>
      </trkpt>
      <trkpt lat="48.72064" lon="2.04513">
        <ele>153.6</ele>
        <time>2022-02-06T14:36:44Z</time>
      </trkpt>
      <trkpt lat="48.72061" lon="2.0452">
        <ele>153.7</ele>
        <time>2022-02-06T14:36:47Z</time>
      </trkpt>
      <trkpt lat="48.7206" lon="2.04527">
        <ele>153.2</ele>
        <time>2022-02-06T14:36:55Z</time>
      </trkpt>
      <trkpt lat="48.72063" lon="2.0452">
        <ele>150.3</ele>
        <time>2022-02-06T14:37:09Z</time>
      </trkpt>
      <trkpt lat="48.72066" lon="2.04512">
        <ele>147.7</ele>
        <time>2022-02-06T14:37:13Z</time>
      </trkpt>
      <trkpt lat="48.72069" lon="2.04503">
        <ele>145.8</ele>
        <time>2022-02-06T14:37:16Z</time>
      </trkpt>
      <trkpt lat="48.72072" lon="2.04497">
        <ele>144.7</ele>
        <time>2022-02-06T14:37:19Z</time>
      </trkpt>
      <trkpt lat="48.72075" lon="2.04491">
        <ele>143.8</ele>
        <time>2022-02-06T14:37:22Z</time>
      </trkpt>
      <trkpt lat="48.72078" lon="2.04484">
        <ele>143</ele>
        <time>2022-02-06T14:37:25Z</time>
      </trkpt>
      <trkpt lat="48.72081" lon="2.04477">
        <ele>143.4</ele>
        <time>2022-02-06T14:37:31Z</time>
      </trkpt>
      <trkpt lat="48.7208" lon="2.04469">
        <ele>145</ele>
        <time>2022-02-06T14:37:34Z</time>
      </trkpt>
      <trkpt lat="48.7208" lon="2.0446">
        <ele>146.9</ele>
        <time>2022-02-06T14:37:38Z</time>
      </trkpt>
      <trkpt lat="48.72084" lon="2.04454">
        <ele>147.3</ele>
        <time>2022-02-06T14:37:41Z</time>
      </trkpt>
      <trkpt lat="48.72085" lon="2.04443">
        <ele>146.9</ele>
        <time>2022-02-06T14:37:45Z</time>
      </trkpt>
      <trkpt lat="48.72083" lon="2.04434">
        <ele>146.6</ele>
        <time>2022-02-06T14:37:47Z</time>
      </trkpt>
      <trkpt lat="48.72081" lon="2.04427">
        <ele>146.6</ele>
        <time>2022-02-06T14:37:50Z</time>
      </trkpt>
      <trkpt lat="48.72082" lon="2.04419">
        <ele>146.3</ele>
        <time>2022-02-06T14:37:55Z</time>
      </trkpt>
      <trkpt lat="48.72083" lon="2.04411">
        <ele>146</ele>
        <time>2022-02-06T14:37:59Z</time>
      </trkpt>
      <trkpt lat="48.72085" lon="2.04404">
        <ele>145</ele>
        <time>2022-02-06T14:38:02Z</time>
      </trkpt>
      <trkpt lat="48.72085" lon="2.04397">
        <ele>144.8</ele>
        <time>2022-02-06T14:38:06Z</time>
      </trkpt>
      <trkpt lat="48.72084" lon="2.04389">
        <ele>144.9</ele>
        <time>2022-02-06T14:38:10Z</time>
      </trkpt>
      <trkpt lat="48.72086" lon="2.0438">
        <ele>145.4</ele>
        <time>2022-02-06T14:38:14Z</time>
      </trkpt>
      <trkpt lat="48.72088" lon="2.04374">
        <ele>145.3</ele>
        <time>2022-02-06T14:38:17Z</time>
      </trkpt>
      <trkpt lat="48.72089" lon="2.04365">
        <ele>145.7</ele>
        <time>2022-02-06T14:38:22Z</time>
      </trkpt>
      <trkpt lat="48.72092" lon="2.04359">
        <ele>146.8</ele>
        <time>2022-02-06T14:38:26Z</time>
      </trkpt>
      <trkpt lat="48.72092" lon="2.04352">
        <ele>148.8</ele>
        <time>2022-02-06T14:38:31Z</time>
      </trkpt>
      <trkpt lat="48.72094" lon="2.04344">
        <ele>148.6</ele>
        <time>2022-02-06T14:38:34Z</time>
      </trkpt>
      <trkpt lat="48.72096" lon="2.04336">
        <ele>147.6</ele>
        <time>2022-02-06T14:38:38Z</time>
      </trkpt>
      <trkpt lat="48.72098" lon="2.04329">
        <ele>145.8</ele>
        <time>2022-02-06T14:38:40Z</time>
      </trkpt>
      <trkpt lat="48.72099" lon="2.04322">
        <ele>144.9</ele>
        <time>2022-02-06T14:38:44Z</time>
      </trkpt>
      <trkpt lat="48.72097" lon="2.04316">
        <ele>144.5</ele>
        <time>2022-02-06T14:38:46Z</time>
      </trkpt>
      <trkpt lat="48.72095" lon="2.04308">
        <ele>144.6</ele>
        <time>2022-02-06T14:38:50Z</time>
      </trkpt>
      <trkpt lat="48.72094" lon="2.04298">
        <ele>145.2</ele>
        <time>2022-02-06T14:38:54Z</time>
      </trkpt>
      <trkpt lat="48.72095" lon="2.0429">
        <ele>145.4</ele>
        <time>2022-02-06T14:38:57Z</time>
      </trkpt>
      <trkpt lat="48.72098" lon="2.04283">
        <ele>144.9</ele>
        <time>2022-02-06T14:39:00Z</time>
      </trkpt>
      <trkpt lat="48.72102" lon="2.04277">
        <ele>144.8</ele>
        <time>2022-02-06T14:39:06Z</time>
      </trkpt>
      <trkpt lat="48.72104" lon="2.0427">
        <ele>144.4</ele>
        <time>2022-02-06T14:39:09Z</time>
      </trkpt>
      <trkpt lat="48.72106" lon="2.04263">
        <ele>143.4</ele>
        <time>2022-02-06T14:39:13Z</time>
      </trkpt>
      <trkpt lat="48.72107" lon="2.04255">
        <ele>142.9</ele>
        <time>2022-02-06T14:39:16Z</time>
      </trkpt>
      <trkpt lat="48.72108" lon="2.04247">
        <ele>142.2</ele>
        <time>2022-02-06T14:39:20Z</time>
      </trkpt>
      <trkpt lat="48.72111" lon="2.04239">
        <ele>142</ele>
        <time>2022-02-06T14:39:24Z</time>
      </trkpt>
      <trkpt lat="48.72114" lon="2.04231">
        <ele>142.6</ele>
        <time>2022-02-06T14:39:28Z</time>
      </trkpt>
      <trkpt lat="48.72117" lon="2.04225">
        <ele>143.3</ele>
        <time>2022-02-06T14:39:32Z</time>
      </trkpt>
      <trkpt lat="48.72121" lon="2.0422">
        <ele>144</ele>
        <time>2022-02-06T14:39:35Z</time>
      </trkpt>
      <trkpt lat="48.72133" lon="2.04215">
        <ele>146.3</ele>
        <time>2022-02-06T14:39:44Z</time>
      </trkpt>
      <trkpt lat="48.72137" lon="2.04208">
        <ele>147.3</ele>
        <time>2022-02-06T14:39:48Z</time>
      </trkpt>
      <trkpt lat="48.72139" lon="2.04201">
        <ele>148.4</ele>
        <time>2022-02-06T14:39:51Z</time>
      </trkpt>
      <trkpt lat="48.72143" lon="2.04195">
        <ele>148.5</ele>
        <time>2022-02-06T14:39:54Z</time>
      </trkpt>
      <trkpt lat="48.72147" lon="2.04189">
        <ele>147.1</ele>
        <time>2022-02-06T14:39:58Z</time>
      </trkpt>
      <trkpt lat="48.72151" lon="2.04185">
        <ele>145.7</ele>
        <time>2022-02-06T14:40:02Z</time>
      </trkpt>
      <trkpt lat="48.72154" lon="2.04179">
        <ele>145.3</ele>
        <time>2022-02-06T14:40:07Z</time>
      </trkpt>
      <trkpt lat="48.72157" lon="2.04173">
        <ele>146.5</ele>
        <time>2022-02-06T14:40:12Z</time>
      </trkpt>
      <trkpt lat="48.72161" lon="2.04167">
        <ele>147.7</ele>
        <time>2022-02-06T14:40:16Z</time>
      </trkpt>
      <trkpt lat="48.72164" lon="2.04161">
        <ele>148</ele>
        <time>2022-02-06T14:40:19Z</time>
      </trkpt>
      <trkpt lat="48.72168" lon="2.04155">
        <ele>147.8</ele>
        <time>2022-02-06T14:40:23Z</time>
      </trkpt>
      <trkpt lat="48.72171" lon="2.04148">
        <ele>147.7</ele>
        <time>2022-02-06T14:40:26Z</time>
      </trkpt>
      <trkpt lat="48.72173" lon="2.0414">
        <ele>147.5</ele>
        <time>2022-02-06T14:40:30Z</time>
      </trkpt>
      <trkpt lat="48.72173" lon="2.04133">
        <ele>147.8</ele>
        <time>2022-02-06T14:40:33Z</time>
      </trkpt>
      <trkpt lat="48.72173" lon="2.04126">
        <ele>148</ele>
        <time>2022-02-06T14:40:37Z</time>
      </trkpt>
      <trkpt lat="48.72173" lon="2.04119">
        <ele>147.3</ele>
        <time>2022-02-06T14:40:41Z</time>
      </trkpt>
      <trkpt lat="48.72175" lon="2.04112">
        <ele>145.8</ele>
        <time>2022-02-06T14:40:46Z</time>
      </trkpt>
      <trkpt lat="48.72179" lon="2.04107">
        <ele>147.1</ele>
        <time>2022-02-06T14:40:50Z</time>
      </trkpt>
      <trkpt lat="48.72182" lon="2.04101">
        <ele>149</ele>
        <time>2022-02-06T14:40:54Z</time>
      </trkpt>
      <trkpt lat="48.72185" lon="2.04095">
        <ele>149.5</ele>
        <time>2022-02-06T14:40:59Z</time>
      </trkpt>
      <trkpt lat="48.7219" lon="2.0409">
        <ele>149.1</ele>
        <time>2022-02-06T14:41:03Z</time>
      </trkpt>
      <trkpt lat="48.72194" lon="2.04086">
        <ele>148.6</ele>
        <time>2022-02-06T14:41:05Z</time>
      </trkpt>
      <trkpt lat="48.72198" lon="2.04081">
        <ele>147.7</ele>
        <time>2022-02-06T14:41:08Z</time>
      </trkpt>
      <trkpt lat="48.72201" lon="2.04075">
        <ele>147.6</ele>
        <time>2022-02-06T14:41:11Z</time>
      </trkpt>
      <trkpt lat="48.72206" lon="2.04072">
        <ele>148.2</ele>
        <time>2022-02-06T14:41:15Z</time>
      </trkpt>
      <trkpt lat="48.7221" lon="2.04066">
        <ele>148.8</ele>
        <time>2022-02-06T14:41:19Z</time>
      </trkpt>
      <trkpt lat="48.72213" lon="2.0406">
        <ele>149.2</ele>
        <time>2022-02-06T14:41:22Z</time>
      </trkpt>
      <trkpt lat="48.72216" lon="2.04053">
        <ele>148.5</ele>
        <time>2022-02-06T14:41:26Z</time>
      </trkpt>
      <trkpt lat="48.72212" lon="2.04047">
        <ele>147.6</ele>
        <time>2022-02-06T14:41:31Z</time>
      </trkpt>
      <trkpt lat="48.72209" lon="2.0404">
        <ele>145.5</ele>
        <time>2022-02-06T14:41:36Z</time>
      </trkpt>
      <trkpt lat="48.72207" lon="2.04032">
        <ele>144.6</ele>
        <time>2022-02-06T14:41:39Z</time>
      </trkpt>
      <trkpt lat="48.72205" lon="2.04026">
        <ele>144.4</ele>
        <time>2022-02-06T14:41:42Z</time>
      </trkpt>
      <trkpt lat="48.72202" lon="2.0402">
        <ele>144.4</ele>
        <time>2022-02-06T14:41:45Z</time>
      </trkpt>
      <trkpt lat="48.722" lon="2.04011">
        <ele>144</ele>
        <time>2022-02-06T14:41:49Z</time>
      </trkpt>
      <trkpt lat="48.72199" lon="2.04004">
        <ele>143.4</ele>
        <time>2022-02-06T14:41:53Z</time>
      </trkpt>
      <trkpt lat="48.72198" lon="2.03996">
        <ele>142.7</ele>
        <time>2022-02-06T14:41:58Z</time>
      </trkpt>
      <trkpt lat="48.72193" lon="2.03997">
        <ele>142.3</ele>
        <time>2022-02-06T14:42:02Z</time>
      </trkpt>
      <trkpt lat="48.72188" lon="2.03997">
        <ele>143.2</ele>
        <time>2022-02-06T14:42:07Z</time>
      </trkpt>
      <trkpt lat="48.72183" lon="2.03993">
        <ele>147.1</ele>
        <time>2022-02-06T14:42:10Z</time>
      </trkpt>
      <trkpt lat="48.72178" lon="2.0399">
        <ele>150.5</ele>
        <time>2022-02-06T14:42:13Z</time>
      </trkpt>
      <trkpt lat="48.72172" lon="2.03986">
        <ele>151.7</ele>
        <time>2022-02-06T14:42:16Z</time>
      </trkpt>
      <trkpt lat="48.72161" lon="2.0398">
        <ele>151.5</ele>
        <time>2022-02-06T14:42:23Z</time>
      </trkpt>
      <trkpt lat="48.72156" lon="2.0398">
        <ele>151.2</ele>
        <time>2022-02-06T14:42:27Z</time>
      </trkpt>
      <trkpt lat="48.72151" lon="2.0398">
        <ele>153</ele>
        <time>2022-02-06T14:42:32Z</time>
      </trkpt>
      <trkpt lat="48.72145" lon="2.03978">
        <ele>156.4</ele>
        <time>2022-02-06T14:42:37Z</time>
      </trkpt>
      <trkpt lat="48.7214" lon="2.03978">
        <ele>157.1</ele>
        <time>2022-02-06T14:42:40Z</time>
      </trkpt>
      <trkpt lat="48.72134" lon="2.03979">
        <ele>156.1</ele>
        <time>2022-02-06T14:42:43Z</time>
      </trkpt>
      <trkpt lat="48.72129" lon="2.0398">
        <ele>154.4</ele>
        <time>2022-02-06T14:42:46Z</time>
      </trkpt>
      <trkpt lat="48.72125" lon="2.03979">
        <ele>153.9</ele>
        <time>2022-02-06T14:42:50Z</time>
      </trkpt>
      <trkpt lat="48.72119" lon="2.03977">
        <ele>155.9</ele>
        <time>2022-02-06T14:42:54Z</time>
      </trkpt>
      <trkpt lat="48.72114" lon="2.03975">
        <ele>158</ele>
        <time>2022-02-06T14:42:58Z</time>
      </trkpt>
      <trkpt lat="48.72109" lon="2.03974">
        <ele>159.5</ele>
        <time>2022-02-06T14:43:01Z</time>
      </trkpt>
      <trkpt lat="48.72105" lon="2.03971">
        <ele>161.6</ele>
        <time>2022-02-06T14:43:05Z</time>
      </trkpt>
      <trkpt lat="48.72099" lon="2.03966">
        <ele>160.9</ele>
        <time>2022-02-06T14:43:10Z</time>
      </trkpt>
      <trkpt lat="48.72096" lon="2.03961">
        <ele>159</ele>
        <time>2022-02-06T14:43:13Z</time>
      </trkpt>
      <trkpt lat="48.72091" lon="2.03957">
        <ele>157.4</ele>
        <time>2022-02-06T14:43:17Z</time>
      </trkpt>
      <trkpt lat="48.72087" lon="2.03952">
        <ele>156</ele>
        <time>2022-02-06T14:43:21Z</time>
      </trkpt>
      <trkpt lat="48.72083" lon="2.03948">
        <ele>154.8</ele>
        <time>2022-02-06T14:43:24Z</time>
      </trkpt>
      <trkpt lat="48.72077" lon="2.03946">
        <ele>156.7</ele>
        <time>2022-02-06T14:43:28Z</time>
      </trkpt>
      <trkpt lat="48.72072" lon="2.03947">
        <ele>161.3</ele>
        <time>2022-02-06T14:43:31Z</time>
      </trkpt>
      <trkpt lat="48.72068" lon="2.03947">
        <ele>165.3</ele>
        <time>2022-02-06T14:43:34Z</time>
      </trkpt>
      <trkpt lat="48.72063" lon="2.03948">
        <ele>167.1</ele>
        <time>2022-02-06T14:43:38Z</time>
      </trkpt>
      <trkpt lat="48.72058" lon="2.03946">
        <ele>167.2</ele>
        <time>2022-02-06T14:43:43Z</time>
      </trkpt>
      <trkpt lat="48.72052" lon="2.03943">
        <ele>167.9</ele>
        <time>2022-02-06T14:43:47Z</time>
      </trkpt>
      <trkpt lat="48.72047" lon="2.0394">
        <ele>167.7</ele>
        <time>2022-02-06T14:43:51Z</time>
      </trkpt>
      <trkpt lat="48.72043" lon="2.03937">
        <ele>167</ele>
        <time>2022-02-06T14:43:55Z</time>
      </trkpt>
      <trkpt lat="48.72038" lon="2.03935">
        <ele>166.5</ele>
        <time>2022-02-06T14:43:59Z</time>
      </trkpt>
      <trkpt lat="48.72032" lon="2.03934">
        <ele>165.3</ele>
        <time>2022-02-06T14:44:04Z</time>
      </trkpt>
      <trkpt lat="48.72027" lon="2.03932">
        <ele>164.6</ele>
        <time>2022-02-06T14:44:10Z</time>
      </trkpt>
      <trkpt lat="48.72022" lon="2.03929">
        <ele>163.7</ele>
        <time>2022-02-06T14:44:15Z</time>
      </trkpt>
      <trkpt lat="48.72018" lon="2.03926">
        <ele>161.4</ele>
        <time>2022-02-06T14:44:21Z</time>
      </trkpt>
      <trkpt lat="48.72013" lon="2.03923">
        <ele>159.6</ele>
        <time>2022-02-06T14:44:26Z</time>
      </trkpt>
      <trkpt lat="48.72008" lon="2.0392">
        <ele>157.5</ele>
        <time>2022-02-06T14:44:30Z</time>
      </trkpt>
      <trkpt lat="48.72003" lon="2.03918">
        <ele>155.6</ele>
        <time>2022-02-06T14:44:36Z</time>
      </trkpt>
      <trkpt lat="48.71998" lon="2.03916">
        <ele>155.2</ele>
        <time>2022-02-06T14:44:40Z</time>
      </trkpt>
      <trkpt lat="48.71992" lon="2.03915">
        <ele>155.6</ele>
        <time>2022-02-06T14:44:44Z</time>
      </trkpt>
      <trkpt lat="48.71988" lon="2.03914">
        <ele>155.2</ele>
        <time>2022-02-06T14:44:47Z</time>
      </trkpt>
      <trkpt lat="48.71983" lon="2.03912">
        <ele>155</ele>
        <time>2022-02-06T14:44:52Z</time>
      </trkpt>
      <trkpt lat="48.71977" lon="2.03909">
        <ele>154.7</ele>
        <time>2022-02-06T14:44:56Z</time>
      </trkpt>
      <trkpt lat="48.71972" lon="2.03906">
        <ele>155.7</ele>
        <time>2022-02-06T14:45:01Z</time>
      </trkpt>
      <trkpt lat="48.71967" lon="2.03904">
        <ele>156.6</ele>
        <time>2022-02-06T14:45:05Z</time>
      </trkpt>
      <trkpt lat="48.71962" lon="2.03902">
        <ele>157.1</ele>
        <time>2022-02-06T14:45:10Z</time>
      </trkpt>
      <trkpt lat="48.71957" lon="2.039">
        <ele>158.2</ele>
        <time>2022-02-06T14:45:14Z</time>
      </trkpt>
      <trkpt lat="48.71952" lon="2.03899">
        <ele>158.6</ele>
        <time>2022-02-06T14:45:19Z</time>
      </trkpt>
      <trkpt lat="48.71946" lon="2.03897">
        <ele>158</ele>
        <time>2022-02-06T14:45:23Z</time>
      </trkpt>
      <trkpt lat="48.71941" lon="2.03895">
        <ele>156.9</ele>
        <time>2022-02-06T14:45:28Z</time>
      </trkpt>
      <trkpt lat="48.71936" lon="2.03892">
        <ele>156.9</ele>
        <time>2022-02-06T14:45:32Z</time>
      </trkpt>
      <trkpt lat="48.71931" lon="2.0389">
        <ele>157.8</ele>
        <time>2022-02-06T14:45:37Z</time>
      </trkpt>
      <trkpt lat="48.71925" lon="2.03889">
        <ele>159.3</ele>
        <time>2022-02-06T14:45:41Z</time>
      </trkpt>
      <trkpt lat="48.71921" lon="2.03887">
        <ele>159.9</ele>
        <time>2022-02-06T14:45:46Z</time>
      </trkpt>
      <trkpt lat="48.71916" lon="2.03884">
        <ele>159.3</ele>
        <time>2022-02-06T14:45:50Z</time>
      </trkpt>
      <trkpt lat="48.71912" lon="2.03882">
        <ele>158.9</ele>
        <time>2022-02-06T14:45:53Z</time>
      </trkpt>
      <trkpt lat="48.71907" lon="2.0388">
        <ele>158.8</ele>
        <time>2022-02-06T14:45:57Z</time>
      </trkpt>
      <trkpt lat="48.71902" lon="2.03878">
        <ele>158.7</ele>
        <time>2022-02-06T14:46:00Z</time>
      </trkpt>
      <trkpt lat="48.71897" lon="2.03876">
        <ele>158.8</ele>
        <time>2022-02-06T14:46:05Z</time>
      </trkpt>
      <trkpt lat="48.71892" lon="2.03874">
        <ele>158.8</ele>
        <time>2022-02-06T14:46:09Z</time>
      </trkpt>
      <trkpt lat="48.71887" lon="2.03873">
        <ele>158.5</ele>
        <time>2022-02-06T14:46:13Z</time>
      </trkpt>
      <trkpt lat="48.71882" lon="2.03872">
        <ele>158.7</ele>
        <time>2022-02-06T14:46:18Z</time>
      </trkpt>
      <trkpt lat="48.71878" lon="2.03871">
        <ele>158.8</ele>
        <time>2022-02-06T14:46:22Z</time>
      </trkpt>
      <trkpt lat="48.71872" lon="2.03868">
        <ele>158.9</ele>
        <time>2022-02-06T14:46:26Z</time>
      </trkpt>
      <trkpt lat="48.71867" lon="2.03866">
        <ele>158.5</ele>
        <time>2022-02-06T14:46:31Z</time>
      </trkpt>
      <trkpt lat="48.71862" lon="2.03864">
        <ele>157.1</ele>
        <time>2022-02-06T14:46:36Z</time>
      </trkpt>
      <trkpt lat="48.71857" lon="2.03861">
        <ele>156</ele>
        <time>2022-02-06T14:46:41Z</time>
      </trkpt>
      <trkpt lat="48.71852" lon="2.03858">
        <ele>156.6</ele>
        <time>2022-02-06T14:46:46Z</time>
      </trkpt>
      <trkpt lat="48.71847" lon="2.03856">
        <ele>157.9</ele>
        <time>2022-02-06T14:46:51Z</time>
      </trkpt>
      <trkpt lat="48.71843" lon="2.03858">
        <ele>159.3</ele>
        <time>2022-02-06T14:46:55Z</time>
      </trkpt>
      <trkpt lat="48.7184" lon="2.03863">
        <ele>160.5</ele>
        <time>2022-02-06T14:46:58Z</time>
      </trkpt>
      <trkpt lat="48.71838" lon="2.03871">
        <ele>162.1</ele>
        <time>2022-02-06T14:47:03Z</time>
      </trkpt>
      <trkpt lat="48.71836" lon="2.03878">
        <ele>162.6</ele>
        <time>2022-02-06T14:47:06Z</time>
      </trkpt>
      <trkpt lat="48.71835" lon="2.03887">
        <ele>161.8</ele>
        <time>2022-02-06T14:47:11Z</time>
      </trkpt>
      <trkpt lat="48.71835" lon="2.03895">
        <ele>161.4</ele>
        <time>2022-02-06T14:47:15Z</time>
      </trkpt>
      <trkpt lat="48.71834" lon="2.03902">
        <ele>161.8</ele>
        <time>2022-02-06T14:47:19Z</time>
      </trkpt>
      <trkpt lat="48.71833" lon="2.03909">
        <ele>162.9</ele>
        <time>2022-02-06T14:47:25Z</time>
      </trkpt>
      <trkpt lat="48.71832" lon="2.03917">
        <ele>164.4</ele>
        <time>2022-02-06T14:47:31Z</time>
      </trkpt>
      <trkpt lat="48.71832" lon="2.03924">
        <ele>164.9</ele>
        <time>2022-02-06T14:47:37Z</time>
      </trkpt>
      <trkpt lat="48.71828" lon="2.03929">
        <ele>164.6</ele>
        <time>2022-02-06T14:47:41Z</time>
      </trkpt>
      <trkpt lat="48.71823" lon="2.03931">
        <ele>164.2</ele>
        <time>2022-02-06T14:47:46Z</time>
      </trkpt>
      <trkpt lat="48.71818" lon="2.03932">
        <ele>163.7</ele>
        <time>2022-02-06T14:47:50Z</time>
      </trkpt>
      <trkpt lat="48.71813" lon="2.03933">
        <ele>163.6</ele>
        <time>2022-02-06T14:47:53Z</time>
      </trkpt>
      <trkpt lat="48.71808" lon="2.03934">
        <ele>163.8</ele>
        <time>2022-02-06T14:47:57Z</time>
      </trkpt>
      <trkpt lat="48.71803" lon="2.03934">
        <ele>163.8</ele>
        <time>2022-02-06T14:48:02Z</time>
      </trkpt>
      <trkpt lat="48.71797" lon="2.03934">
        <ele>163.6</ele>
        <time>2022-02-06T14:48:06Z</time>
      </trkpt>
      <trkpt lat="48.71792" lon="2.03933">
        <ele>163.6</ele>
        <time>2022-02-06T14:48:11Z</time>
      </trkpt>
      <trkpt lat="48.71786" lon="2.03933">
        <ele>163.9</ele>
        <time>2022-02-06T14:48:15Z</time>
      </trkpt>
      <trkpt lat="48.71781" lon="2.03932">
        <ele>164</ele>
        <time>2022-02-06T14:48:20Z</time>
      </trkpt>
      <trkpt lat="48.71776" lon="2.03933">
        <ele>164.3</ele>
        <time>2022-02-06T14:48:24Z</time>
      </trkpt>
      <trkpt lat="48.71771" lon="2.03933">
        <ele>165</ele>
        <time>2022-02-06T14:48:29Z</time>
      </trkpt>
      <trkpt lat="48.71766" lon="2.03933">
        <ele>165.7</ele>
        <time>2022-02-06T14:48:33Z</time>
      </trkpt>
      <trkpt lat="48.71762" lon="2.03933">
        <ele>166.2</ele>
        <time>2022-02-06T14:48:37Z</time>
      </trkpt>
      <trkpt lat="48.71757" lon="2.03932">
        <ele>166.3</ele>
        <time>2022-02-06T14:48:41Z</time>
      </trkpt>
      <trkpt lat="48.71752" lon="2.03933">
        <ele>166.2</ele>
        <time>2022-02-06T14:48:46Z</time>
      </trkpt>
      <trkpt lat="48.71747" lon="2.03933">
        <ele>166.1</ele>
        <time>2022-02-06T14:48:50Z</time>
      </trkpt>
      <trkpt lat="48.71742" lon="2.03932">
        <ele>166</ele>
        <time>2022-02-06T14:48:54Z</time>
      </trkpt>
      <trkpt lat="48.71737" lon="2.03932">
        <ele>166.2</ele>
        <time>2022-02-06T14:48:58Z</time>
      </trkpt>
      <trkpt lat="48.71732" lon="2.03932">
        <ele>166.5</ele>
        <time>2022-02-06T14:49:02Z</time>
      </trkpt>
      <trkpt lat="48.71726" lon="2.03933">
        <ele>166.5</ele>
        <time>2022-02-06T14:49:07Z</time>
      </trkpt>
      <trkpt lat="48.71721" lon="2.03933">
        <ele>166.7</ele>
        <time>2022-02-06T14:49:12Z</time>
      </trkpt>
      <trkpt lat="48.71715" lon="2.03933">
        <ele>167</ele>
        <time>2022-02-06T14:49:16Z</time>
      </trkpt>
      <trkpt lat="48.7171" lon="2.03933">
        <ele>167.1</ele>
        <time>2022-02-06T14:49:20Z</time>
      </trkpt>
      <trkpt lat="48.71706" lon="2.03932">
        <ele>166.9</ele>
        <time>2022-02-06T14:49:24Z</time>
      </trkpt>
      <trkpt lat="48.71701" lon="2.03931">
        <ele>166.9</ele>
        <time>2022-02-06T14:49:27Z</time>
      </trkpt>
      <trkpt lat="48.71696" lon="2.03931">
        <ele>167</ele>
        <time>2022-02-06T14:49:32Z</time>
      </trkpt>
      <trkpt lat="48.7169" lon="2.03931">
        <ele>167.3</ele>
        <time>2022-02-06T14:49:36Z</time>
      </trkpt>
      <trkpt lat="48.71685" lon="2.0393">
        <ele>167.6</ele>
        <time>2022-02-06T14:49:40Z</time>
      </trkpt>
      <trkpt lat="48.71679" lon="2.03929">
        <ele>168</ele>
        <time>2022-02-06T14:49:44Z</time>
      </trkpt>
      <trkpt lat="48.71674" lon="2.03929">
        <ele>168.6</ele>
        <time>2022-02-06T14:49:48Z</time>
      </trkpt>
      <trkpt lat="48.71669" lon="2.0393">
        <ele>168.8</ele>
        <time>2022-02-06T14:49:52Z</time>
      </trkpt>
      <trkpt lat="48.71663" lon="2.0393">
        <ele>168.9</ele>
        <time>2022-02-06T14:49:56Z</time>
      </trkpt>
      <trkpt lat="48.71659" lon="2.0393">
        <ele>169</ele>
        <time>2022-02-06T14:50:00Z</time>
      </trkpt>
      <trkpt lat="48.71653" lon="2.03931">
        <ele>169</ele>
        <time>2022-02-06T14:50:04Z</time>
      </trkpt>
      <trkpt lat="48.71648" lon="2.03932">
        <ele>168.9</ele>
        <time>2022-02-06T14:50:08Z</time>
      </trkpt>
      <trkpt lat="48.71643" lon="2.03931">
        <ele>168.8</ele>
        <time>2022-02-06T14:50:13Z</time>
      </trkpt>
      <trkpt lat="48.71638" lon="2.03931">
        <ele>168.9</ele>
        <time>2022-02-06T14:50:17Z</time>
      </trkpt>
      <trkpt lat="48.71633" lon="2.03933">
        <ele>168.8</ele>
        <time>2022-02-06T14:50:21Z</time>
      </trkpt>
      <trkpt lat="48.71629" lon="2.03933">
        <ele>168.7</ele>
        <time>2022-02-06T14:50:25Z</time>
      </trkpt>
      <trkpt lat="48.71624" lon="2.03933">
        <ele>168.7</ele>
        <time>2022-02-06T14:50:29Z</time>
      </trkpt>
      <trkpt lat="48.71619" lon="2.03934">
        <ele>168.7</ele>
        <time>2022-02-06T14:50:34Z</time>
      </trkpt>
      <trkpt lat="48.71613" lon="2.03935">
        <ele>168.7</ele>
        <time>2022-02-06T14:50:38Z</time>
      </trkpt>
      <trkpt lat="48.71608" lon="2.03935">
        <ele>168.6</ele>
        <time>2022-02-06T14:50:42Z</time>
      </trkpt>
      <trkpt lat="48.71603" lon="2.03935">
        <ele>168.6</ele>
        <time>2022-02-06T14:50:46Z</time>
      </trkpt>
      <trkpt lat="48.71598" lon="2.03936">
        <ele>168.5</ele>
        <time>2022-02-06T14:50:50Z</time>
      </trkpt>
      <trkpt lat="48.71594" lon="2.03938">
        <ele>168.3</ele>
        <time>2022-02-06T14:50:54Z</time>
      </trkpt>
      <trkpt lat="48.71589" lon="2.03939">
        <ele>167.8</ele>
        <time>2022-02-06T14:50:57Z</time>
      </trkpt>
      <trkpt lat="48.71584" lon="2.03941">
        <ele>167.3</ele>
        <time>2022-02-06T14:51:00Z</time>
      </trkpt>
      <trkpt lat="48.71579" lon="2.03943">
        <ele>167</ele>
        <time>2022-02-06T14:51:04Z</time>
      </trkpt>
      <trkpt lat="48.71575" lon="2.03945">
        <ele>166.6</ele>
        <time>2022-02-06T14:51:07Z</time>
      </trkpt>
      <trkpt lat="48.71569" lon="2.03948">
        <ele>166.3</ele>
        <time>2022-02-06T14:51:12Z</time>
      </trkpt>
      <trkpt lat="48.71564" lon="2.03951">
        <ele>166.1</ele>
        <time>2022-02-06T14:51:15Z</time>
      </trkpt>
      <trkpt lat="48.71559" lon="2.03953">
        <ele>166</ele>
        <time>2022-02-06T14:51:19Z</time>
      </trkpt>
      <trkpt lat="48.71554" lon="2.03955">
        <ele>166</ele>
        <time>2022-02-06T14:51:22Z</time>
      </trkpt>
      <trkpt lat="48.71549" lon="2.03957">
        <ele>166</ele>
        <time>2022-02-06T14:51:26Z</time>
      </trkpt>
      <trkpt lat="48.71544" lon="2.03959">
        <ele>166.1</ele>
        <time>2022-02-06T14:51:29Z</time>
      </trkpt>
      <trkpt lat="48.71539" lon="2.03962">
        <ele>166.2</ele>
        <time>2022-02-06T14:51:33Z</time>
      </trkpt>
      <trkpt lat="48.71534" lon="2.03965">
        <ele>166.5</ele>
        <time>2022-02-06T14:51:36Z</time>
      </trkpt>
      <trkpt lat="48.71529" lon="2.03968">
        <ele>166.9</ele>
        <time>2022-02-06T14:51:40Z</time>
      </trkpt>
      <trkpt lat="48.71525" lon="2.0397">
        <ele>167.3</ele>
        <time>2022-02-06T14:51:43Z</time>
      </trkpt>
      <trkpt lat="48.7152" lon="2.03972">
        <ele>167.6</ele>
        <time>2022-02-06T14:51:45Z</time>
      </trkpt>
      <trkpt lat="48.71515" lon="2.03974">
        <ele>167.9</ele>
        <time>2022-02-06T14:51:50Z</time>
      </trkpt>
      <trkpt lat="48.71509" lon="2.03977">
        <ele>168.2</ele>
        <time>2022-02-06T14:51:54Z</time>
      </trkpt>
      <trkpt lat="48.71505" lon="2.03978">
        <ele>168.5</ele>
        <time>2022-02-06T14:51:58Z</time>
      </trkpt>
      <trkpt lat="48.715" lon="2.03979">
        <ele>168.6</ele>
        <time>2022-02-06T14:52:01Z</time>
      </trkpt>
      <trkpt lat="48.71495" lon="2.03981">
        <ele>168.5</ele>
        <time>2022-02-06T14:52:05Z</time>
      </trkpt>
      <trkpt lat="48.7149" lon="2.03982">
        <ele>168.1</ele>
        <time>2022-02-06T14:52:10Z</time>
      </trkpt>
      <trkpt lat="48.71485" lon="2.03984">
        <ele>167.9</ele>
        <time>2022-02-06T14:52:13Z</time>
      </trkpt>
      <trkpt lat="48.71479" lon="2.03986">
        <ele>168.1</ele>
        <time>2022-02-06T14:52:17Z</time>
      </trkpt>
      <trkpt lat="48.71474" lon="2.03988">
        <ele>168.4</ele>
        <time>2022-02-06T14:52:21Z</time>
      </trkpt>
      <trkpt lat="48.7147" lon="2.03991">
        <ele>168.1</ele>
        <time>2022-02-06T14:52:25Z</time>
      </trkpt>
      <trkpt lat="48.71466" lon="2.03995">
        <ele>167.4</ele>
        <time>2022-02-06T14:52:28Z</time>
      </trkpt>
      <trkpt lat="48.71461" lon="2.03999">
        <ele>166.8</ele>
        <time>2022-02-06T14:52:32Z</time>
      </trkpt>
      <trkpt lat="48.71457" lon="2.04002">
        <ele>167.4</ele>
        <time>2022-02-06T14:52:38Z</time>
      </trkpt>
      <trkpt lat="48.71452" lon="2.04005">
        <ele>168.2</ele>
        <time>2022-02-06T14:52:42Z</time>
      </trkpt>
      <trkpt lat="48.71448" lon="2.04006">
        <ele>168.7</ele>
        <time>2022-02-06T14:52:47Z</time>
      </trkpt>
      <trkpt lat="48.71443" lon="2.04007">
        <ele>168.7</ele>
        <time>2022-02-06T14:52:51Z</time>
      </trkpt>
      <trkpt lat="48.71437" lon="2.04008">
        <ele>168.6</ele>
        <time>2022-02-06T14:52:56Z</time>
      </trkpt>
      <trkpt lat="48.71432" lon="2.04009">
        <ele>168.4</ele>
        <time>2022-02-06T14:53:00Z</time>
      </trkpt>
      <trkpt lat="48.71426" lon="2.04008">
        <ele>168.2</ele>
        <time>2022-02-06T14:53:04Z</time>
      </trkpt>
      <trkpt lat="48.71422" lon="2.0401">
        <ele>168.1</ele>
        <time>2022-02-06T14:53:07Z</time>
      </trkpt>
      <trkpt lat="48.71417" lon="2.0401">
        <ele>166.6</ele>
        <time>2022-02-06T14:53:12Z</time>
      </trkpt>
      <trkpt lat="48.71412" lon="2.04009">
        <ele>165</ele>
        <time>2022-02-06T14:53:17Z</time>
      </trkpt>
      <trkpt lat="48.71407" lon="2.04008">
        <ele>162.7</ele>
        <time>2022-02-06T14:53:23Z</time>
      </trkpt>
      <trkpt lat="48.71403" lon="2.04002">
        <ele>161</ele>
        <time>2022-02-06T14:53:27Z</time>
      </trkpt>
      <trkpt lat="48.71408" lon="2.04002">
        <ele>160</ele>
        <time>2022-02-06T14:53:34Z</time>
      </trkpt>
      <trkpt lat="48.71405" lon="2.03995">
        <ele>158.3</ele>
        <time>2022-02-06T14:53:45Z</time>
      </trkpt>
      <trkpt lat="48.71401" lon="2.0399">
        <ele>157.4</ele>
        <time>2022-02-06T14:53:48Z</time>
      </trkpt>
      <trkpt lat="48.71396" lon="2.03987">
        <ele>151.3</ele>
        <time>2022-02-06T14:53:56Z</time>
      </trkpt>
      <trkpt lat="48.71392" lon="2.03985">
        <ele>151.3</ele>
        <time>2022-02-06T14:54:02Z</time>
      </trkpt>
      <trkpt lat="48.71387" lon="2.03987">
        <ele>151.8</ele>
        <time>2022-02-06T14:54:05Z</time>
      </trkpt>
      <trkpt lat="48.71382" lon="2.0399">
        <ele>152.5</ele>
        <time>2022-02-06T14:54:08Z</time>
      </trkpt>
      <trkpt lat="48.71376" lon="2.03991">
        <ele>154</ele>
        <time>2022-02-06T14:54:11Z</time>
      </trkpt>
      <trkpt lat="48.7137" lon="2.03993">
        <ele>155.3</ele>
        <time>2022-02-06T14:54:15Z</time>
      </trkpt>
      <trkpt lat="48.71365" lon="2.03994">
        <ele>156.5</ele>
        <time>2022-02-06T14:54:18Z</time>
      </trkpt>
      <trkpt lat="48.7136" lon="2.03995">
        <ele>157.8</ele>
        <time>2022-02-06T14:54:22Z</time>
      </trkpt>
      <trkpt lat="48.71355" lon="2.03996">
        <ele>158.6</ele>
        <time>2022-02-06T14:54:26Z</time>
      </trkpt>
      <trkpt lat="48.7135" lon="2.03997">
        <ele>158.6</ele>
        <time>2022-02-06T14:54:29Z</time>
      </trkpt>
      <trkpt lat="48.71345" lon="2.03997">
        <ele>158.3</ele>
        <time>2022-02-06T14:54:33Z</time>
      </trkpt>
      <trkpt lat="48.71341" lon="2.03999">
        <ele>158.3</ele>
        <time>2022-02-06T14:54:36Z</time>
      </trkpt>
      <trkpt lat="48.71335" lon="2.04003">
        <ele>158.5</ele>
        <time>2022-02-06T14:54:41Z</time>
      </trkpt>
      <trkpt lat="48.7133" lon="2.04006">
        <ele>159</ele>
        <time>2022-02-06T14:54:45Z</time>
      </trkpt>
      <trkpt lat="48.71326" lon="2.04008">
        <ele>159.3</ele>
        <time>2022-02-06T14:54:49Z</time>
      </trkpt>
      <trkpt lat="48.71322" lon="2.04013">
        <ele>159.8</ele>
        <time>2022-02-06T14:54:52Z</time>
      </trkpt>
      <trkpt lat="48.71319" lon="2.0402">
        <ele>160.5</ele>
        <time>2022-02-06T14:54:55Z</time>
      </trkpt>
      <trkpt lat="48.71315" lon="2.04025">
        <ele>161.5</ele>
        <time>2022-02-06T14:54:58Z</time>
      </trkpt>
      <trkpt lat="48.71311" lon="2.04027">
        <ele>161.9</ele>
        <time>2022-02-06T14:55:03Z</time>
      </trkpt>
      <trkpt lat="48.71315" lon="2.04022">
        <ele>154.4</ele>
        <time>2022-02-06T14:55:28Z</time>
      </trkpt>
      <trkpt lat="48.71315" lon="2.04014">
        <ele>151.6</ele>
        <time>2022-02-06T14:55:48Z</time>
      </trkpt>
      <trkpt lat="48.71315" lon="2.04004">
        <ele>150.1</ele>
        <time>2022-02-06T14:55:51Z</time>
      </trkpt>
      <trkpt lat="48.71311" lon="2.03999">
        <ele>147.6</ele>
        <time>2022-02-06T14:56:28Z</time>
      </trkpt>
      <trkpt lat="48.71307" lon="2.03993">
        <ele>147.7</ele>
        <time>2022-02-06T14:56:35Z</time>
      </trkpt>
      <trkpt lat="48.71303" lon="2.0399">
        <ele>147.6</ele>
        <time>2022-02-06T14:56:38Z</time>
      </trkpt>
      <trkpt lat="48.71297" lon="2.03987">
        <ele>147.6</ele>
        <time>2022-02-06T14:56:41Z</time>
      </trkpt>
      <trkpt lat="48.71293" lon="2.03987">
        <ele>148.2</ele>
        <time>2022-02-06T14:56:45Z</time>
      </trkpt>
      <trkpt lat="48.71287" lon="2.03989">
        <ele>149.5</ele>
        <time>2022-02-06T14:56:49Z</time>
      </trkpt>
      <trkpt lat="48.71282" lon="2.0399">
        <ele>150.8</ele>
        <time>2022-02-06T14:56:54Z</time>
      </trkpt>
      <trkpt lat="48.71277" lon="2.0399">
        <ele>152.5</ele>
        <time>2022-02-06T14:56:58Z</time>
      </trkpt>
      <trkpt lat="48.71273" lon="2.03993">
        <ele>155.5</ele>
        <time>2022-02-06T14:57:03Z</time>
      </trkpt>
      <trkpt lat="48.7127" lon="2.04001">
        <ele>159.7</ele>
        <time>2022-02-06T14:57:06Z</time>
      </trkpt>
      <trkpt lat="48.71268" lon="2.04007">
        <ele>164</ele>
        <time>2022-02-06T14:57:11Z</time>
      </trkpt>
      <trkpt lat="48.71267" lon="2.04014">
        <ele>171</ele>
        <time>2022-02-06T14:57:26Z</time>
      </trkpt>
      <trkpt lat="48.71261" lon="2.04017">
        <ele>171.2</ele>
        <time>2022-02-06T14:57:32Z</time>
      </trkpt>
      <trkpt lat="48.71258" lon="2.04022">
        <ele>153.9</ele>
        <time>2022-02-06T14:57:47Z</time>
      </trkpt>
      <trkpt lat="48.71253" lon="2.04027">
        <ele>153.7</ele>
        <time>2022-02-06T14:57:52Z</time>
      </trkpt>
      <trkpt lat="48.71249" lon="2.04033">
        <ele>153.8</ele>
        <time>2022-02-06T14:57:56Z</time>
      </trkpt>
      <trkpt lat="48.71245" lon="2.04038">
        <ele>154</ele>
        <time>2022-02-06T14:57:59Z</time>
      </trkpt>
      <trkpt lat="48.71241" lon="2.04044">
        <ele>154.2</ele>
        <time>2022-02-06T14:58:04Z</time>
      </trkpt>
      <trkpt lat="48.71237" lon="2.0405">
        <ele>154.3</ele>
        <time>2022-02-06T14:58:08Z</time>
      </trkpt>
      <trkpt lat="48.71233" lon="2.04056">
        <ele>154.5</ele>
        <time>2022-02-06T14:58:12Z</time>
      </trkpt>
      <trkpt lat="48.7123" lon="2.0406">
        <ele>155</ele>
        <time>2022-02-06T14:58:15Z</time>
      </trkpt>
      <trkpt lat="48.71226" lon="2.04065">
        <ele>155.5</ele>
        <time>2022-02-06T14:58:20Z</time>
      </trkpt>
      <trkpt lat="48.71222" lon="2.04071">
        <ele>155.7</ele>
        <time>2022-02-06T14:58:24Z</time>
      </trkpt>
      <trkpt lat="48.71217" lon="2.04076">
        <ele>155.9</ele>
        <time>2022-02-06T14:58:29Z</time>
      </trkpt>
      <trkpt lat="48.71214" lon="2.04081">
        <ele>155.9</ele>
        <time>2022-02-06T14:58:32Z</time>
      </trkpt>
      <trkpt lat="48.7121" lon="2.04085">
        <ele>155.8</ele>
        <time>2022-02-06T14:58:37Z</time>
      </trkpt>
      <trkpt lat="48.71205" lon="2.04087">
        <ele>155.4</ele>
        <time>2022-02-06T14:58:41Z</time>
      </trkpt>
      <trkpt lat="48.71201" lon="2.04093">
        <ele>154.9</ele>
        <time>2022-02-06T14:58:45Z</time>
      </trkpt>
      <trkpt lat="48.71198" lon="2.041">
        <ele>154.2</ele>
        <time>2022-02-06T14:58:50Z</time>
      </trkpt>
      <trkpt lat="48.71193" lon="2.04105">
        <ele>153.2</ele>
        <time>2022-02-06T14:58:55Z</time>
      </trkpt>
      <trkpt lat="48.71189" lon="2.0411">
        <ele>152.7</ele>
        <time>2022-02-06T14:59:00Z</time>
      </trkpt>
      <trkpt lat="48.71185" lon="2.04116">
        <ele>152.8</ele>
        <time>2022-02-06T14:59:04Z</time>
      </trkpt>
      <trkpt lat="48.71181" lon="2.0412">
        <ele>153.6</ele>
        <time>2022-02-06T14:59:09Z</time>
      </trkpt>
      <trkpt lat="48.71176" lon="2.04123">
        <ele>155</ele>
        <time>2022-02-06T14:59:13Z</time>
      </trkpt>
      <trkpt lat="48.71171" lon="2.04125">
        <ele>155.6</ele>
        <time>2022-02-06T14:59:17Z</time>
      </trkpt>
      <trkpt lat="48.71166" lon="2.04128">
        <ele>155.7</ele>
        <time>2022-02-06T14:59:23Z</time>
      </trkpt>
      <trkpt lat="48.71161" lon="2.04129">
        <ele>155.7</ele>
        <time>2022-02-06T14:59:27Z</time>
      </trkpt>
      <trkpt lat="48.71155" lon="2.04131">
        <ele>155.6</ele>
        <time>2022-02-06T14:59:31Z</time>
      </trkpt>
      <trkpt lat="48.7115" lon="2.04133">
        <ele>155.5</ele>
        <time>2022-02-06T14:59:36Z</time>
      </trkpt>
      <trkpt lat="48.71145" lon="2.04134">
        <ele>156.7</ele>
        <time>2022-02-06T14:59:39Z</time>
      </trkpt>
      <trkpt lat="48.7114" lon="2.04136">
        <ele>157.3</ele>
        <time>2022-02-06T14:59:44Z</time>
      </trkpt>
      <trkpt lat="48.71134" lon="2.04138">
        <ele>157.4</ele>
        <time>2022-02-06T14:59:48Z</time>
      </trkpt>
      <trkpt lat="48.7113" lon="2.0414">
        <ele>157.9</ele>
        <time>2022-02-06T14:59:51Z</time>
      </trkpt>
      <trkpt lat="48.71124" lon="2.04141">
        <ele>159.7</ele>
        <time>2022-02-06T14:59:56Z</time>
      </trkpt>
      <trkpt lat="48.71118" lon="2.04141">
        <ele>160.9</ele>
        <time>2022-02-06T15:00:00Z</time>
      </trkpt>
      <trkpt lat="48.71113" lon="2.04141">
        <ele>161.7</ele>
        <time>2022-02-06T15:00:03Z</time>
      </trkpt>
      <trkpt lat="48.71108" lon="2.04142">
        <ele>163.5</ele>
        <time>2022-02-06T15:00:07Z</time>
      </trkpt>
      <trkpt lat="48.71103" lon="2.04142">
        <ele>165.1</ele>
        <time>2022-02-06T15:00:11Z</time>
      </trkpt>
      <trkpt lat="48.71099" lon="2.04142">
        <ele>165.7</ele>
        <time>2022-02-06T15:00:16Z</time>
      </trkpt>
      <trkpt lat="48.71094" lon="2.04142">
        <ele>165.5</ele>
        <time>2022-02-06T15:00:20Z</time>
      </trkpt>
      <trkpt lat="48.71089" lon="2.04142">
        <ele>164</ele>
        <time>2022-02-06T15:00:24Z</time>
      </trkpt>
      <trkpt lat="48.71084" lon="2.04142">
        <ele>160.4</ele>
        <time>2022-02-06T15:00:28Z</time>
      </trkpt>
      <trkpt lat="48.71079" lon="2.04141">
        <ele>158.9</ele>
        <time>2022-02-06T15:00:33Z</time>
      </trkpt>
      <trkpt lat="48.71075" lon="2.04138">
        <ele>158.6</ele>
        <time>2022-02-06T15:00:37Z</time>
      </trkpt>
      <trkpt lat="48.71071" lon="2.04134">
        <ele>158.4</ele>
        <time>2022-02-06T15:00:42Z</time>
      </trkpt>
      <trkpt lat="48.71068" lon="2.04129">
        <ele>155.2</ele>
        <time>2022-02-06T15:00:46Z</time>
      </trkpt>
      <trkpt lat="48.71064" lon="2.04126">
        <ele>151.9</ele>
        <time>2022-02-06T15:00:51Z</time>
      </trkpt>
      <trkpt lat="48.7106" lon="2.0412">
        <ele>150.7</ele>
        <time>2022-02-06T15:00:55Z</time>
      </trkpt>
      <trkpt lat="48.71056" lon="2.04115">
        <ele>149.4</ele>
        <time>2022-02-06T15:01:01Z</time>
      </trkpt>
      <trkpt lat="48.71051" lon="2.04112">
        <ele>149.6</ele>
        <time>2022-02-06T15:01:05Z</time>
      </trkpt>
      <trkpt lat="48.71046" lon="2.04112">
        <ele>150.5</ele>
        <time>2022-02-06T15:01:08Z</time>
      </trkpt>
      <trkpt lat="48.71041" lon="2.04116">
        <ele>151.1</ele>
        <time>2022-02-06T15:01:11Z</time>
      </trkpt>
      <trkpt lat="48.71037" lon="2.04122">
        <ele>150.4</ele>
        <time>2022-02-06T15:01:16Z</time>
      </trkpt>
      <trkpt lat="48.71033" lon="2.04128">
        <ele>149.7</ele>
        <time>2022-02-06T15:01:21Z</time>
      </trkpt>
      <trkpt lat="48.71029" lon="2.04132">
        <ele>149.6</ele>
        <time>2022-02-06T15:01:26Z</time>
      </trkpt>
      <trkpt lat="48.71025" lon="2.04135">
        <ele>149.9</ele>
        <time>2022-02-06T15:01:30Z</time>
      </trkpt>
      <trkpt lat="48.7102" lon="2.0414">
        <ele>149</ele>
        <time>2022-02-06T15:01:36Z</time>
      </trkpt>
      <trkpt lat="48.71016" lon="2.04144">
        <ele>148.3</ele>
        <time>2022-02-06T15:01:41Z</time>
      </trkpt>
      <trkpt lat="48.71013" lon="2.04151">
        <ele>148.7</ele>
        <time>2022-02-06T15:01:46Z</time>
      </trkpt>
      <trkpt lat="48.71012" lon="2.04158">
        <ele>149.3</ele>
        <time>2022-02-06T15:01:53Z</time>
      </trkpt>
      <trkpt lat="48.71013" lon="2.04167">
        <ele>148.3</ele>
        <time>2022-02-06T15:02:30Z</time>
      </trkpt>
      <trkpt lat="48.71012" lon="2.04175">
        <ele>147.5</ele>
        <time>2022-02-06T15:02:34Z</time>
      </trkpt>
      <trkpt lat="48.71013" lon="2.04182">
        <ele>146.2</ele>
        <time>2022-02-06T15:02:40Z</time>
      </trkpt>
      <trkpt lat="48.71009" lon="2.04181">
        <ele>140.8</ele>
        <time>2022-02-06T15:03:12Z</time>
      </trkpt>
      <trkpt lat="48.71004" lon="2.04184">
        <ele>139.9</ele>
        <time>2022-02-06T15:03:16Z</time>
      </trkpt>
      <trkpt lat="48.71007" lon="2.04176">
        <ele>143.9</ele>
        <time>2022-02-06T15:03:29Z</time>
      </trkpt>
      <trkpt lat="48.7101" lon="2.04171">
        <ele>146.1</ele>
        <time>2022-02-06T15:03:32Z</time>
      </trkpt>
      <trkpt lat="48.71012" lon="2.04163">
        <ele>146.3</ele>
        <time>2022-02-06T15:03:37Z</time>
      </trkpt>
      <trkpt lat="48.71013" lon="2.04155">
        <ele>146</ele>
        <time>2022-02-06T15:03:42Z</time>
      </trkpt>
      <trkpt lat="48.71012" lon="2.04148">
        <ele>145.5</ele>
        <time>2022-02-06T15:03:47Z</time>
      </trkpt>
      <trkpt lat="48.71011" lon="2.0414">
        <ele>145.6</ele>
        <time>2022-02-06T15:03:54Z</time>
      </trkpt>
      <trkpt lat="48.7101" lon="2.04147">
        <ele>144.1</ele>
        <time>2022-02-06T15:04:52Z</time>
      </trkpt>
      <trkpt lat="48.71007" lon="2.04155">
        <ele>147.3</ele>
        <time>2022-02-06T15:05:22Z</time>
      </trkpt>
      <trkpt lat="48.71004" lon="2.04159">
        <ele>148.7</ele>
        <time>2022-02-06T15:05:26Z</time>
      </trkpt>
      <trkpt lat="48.70998" lon="2.04163">
        <ele>151.3</ele>
        <time>2022-02-06T15:05:30Z</time>
      </trkpt>
      <trkpt lat="48.70993" lon="2.04165">
        <ele>152.8</ele>
        <time>2022-02-06T15:05:36Z</time>
      </trkpt>
      <trkpt lat="48.70989" lon="2.04166">
        <ele>154.8</ele>
        <time>2022-02-06T15:05:45Z</time>
      </trkpt>
      <trkpt lat="48.70984" lon="2.04166">
        <ele>156.9</ele>
        <time>2022-02-06T15:05:51Z</time>
      </trkpt>
      <trkpt lat="48.7098" lon="2.04164">
        <ele>159.1</ele>
        <time>2022-02-06T15:05:57Z</time>
      </trkpt>
      <trkpt lat="48.70975" lon="2.04163">
        <ele>159</ele>
        <time>2022-02-06T15:06:02Z</time>
      </trkpt>
      <trkpt lat="48.7097" lon="2.04165">
        <ele>155.6</ele>
        <time>2022-02-06T15:06:08Z</time>
      </trkpt>
      <trkpt lat="48.70966" lon="2.04169">
        <ele>154.2</ele>
        <time>2022-02-06T15:06:14Z</time>
      </trkpt>
      <trkpt lat="48.70962" lon="2.04175">
        <ele>156.2</ele>
        <time>2022-02-06T15:06:19Z</time>
      </trkpt>
      <trkpt lat="48.70959" lon="2.04181">
        <ele>157</ele>
        <time>2022-02-06T15:06:22Z</time>
      </trkpt>
      <trkpt lat="48.70956" lon="2.04186">
        <ele>158.7</ele>
        <time>2022-02-06T15:06:26Z</time>
      </trkpt>
      <trkpt lat="48.70952" lon="2.04192">
        <ele>159</ele>
        <time>2022-02-06T15:06:31Z</time>
      </trkpt>
      <trkpt lat="48.70951" lon="2.04199">
        <ele>159.1</ele>
        <time>2022-02-06T15:06:35Z</time>
      </trkpt>
      <trkpt lat="48.70955" lon="2.042">
        <ele>150.3</ele>
        <time>2022-02-06T15:06:48Z</time>
      </trkpt>
      <trkpt lat="48.70958" lon="2.04207">
        <ele>154.2</ele>
        <time>2022-02-06T15:06:54Z</time>
      </trkpt>
      <trkpt lat="48.70956" lon="2.04214">
        <ele>151.8</ele>
        <time>2022-02-06T15:07:01Z</time>
      </trkpt>
      <trkpt lat="48.70954" lon="2.04222">
        <ele>146.3</ele>
        <time>2022-02-06T15:07:07Z</time>
      </trkpt>
      <trkpt lat="48.70949" lon="2.04226">
        <ele>144.1</ele>
        <time>2022-02-06T15:07:14Z</time>
      </trkpt>
      <trkpt lat="48.70946" lon="2.0422">
        <ele>142.6</ele>
        <time>2022-02-06T15:07:19Z</time>
      </trkpt>
      <trkpt lat="48.70946" lon="2.04213">
        <ele>140.6</ele>
        <time>2022-02-06T15:07:22Z</time>
      </trkpt>
      <trkpt lat="48.70949" lon="2.04205">
        <ele>137.9</ele>
        <time>2022-02-06T15:07:27Z</time>
      </trkpt>
      <trkpt lat="48.70949" lon="2.04198">
        <ele>135.3</ele>
        <time>2022-02-06T15:07:31Z</time>
      </trkpt>
      <trkpt lat="48.7095" lon="2.04191">
        <ele>132.1</ele>
        <time>2022-02-06T15:07:37Z</time>
      </trkpt>
      <trkpt lat="48.7095" lon="2.04183">
        <ele>128.6</ele>
        <time>2022-02-06T15:07:44Z</time>
      </trkpt>
      <trkpt lat="48.7095" lon="2.04175">
        <ele>126.3</ele>
        <time>2022-02-06T15:07:50Z</time>
      </trkpt>
      <trkpt lat="48.70951" lon="2.04168">
        <ele>124.5</ele>
        <time>2022-02-06T15:07:56Z</time>
      </trkpt>
      <trkpt lat="48.70951" lon="2.0416">
        <ele>122.9</ele>
        <time>2022-02-06T15:08:01Z</time>
      </trkpt>
      <trkpt lat="48.70951" lon="2.04153">
        <ele>122.1</ele>
        <time>2022-02-06T15:08:07Z</time>
      </trkpt>
      <trkpt lat="48.70946" lon="2.04153">
        <ele>121.8</ele>
        <time>2022-02-06T15:08:12Z</time>
      </trkpt>
      <trkpt lat="48.70943" lon="2.04161">
        <ele>121.5</ele>
        <time>2022-02-06T15:08:16Z</time>
      </trkpt>
      <trkpt lat="48.70942" lon="2.04168">
        <ele>120.4</ele>
        <time>2022-02-06T15:08:21Z</time>
      </trkpt>
      <trkpt lat="48.70939" lon="2.04176">
        <ele>118.3</ele>
        <time>2022-02-06T15:08:27Z</time>
      </trkpt>
      <trkpt lat="48.70938" lon="2.04183">
        <ele>118.9</ele>
        <time>2022-02-06T15:08:32Z</time>
      </trkpt>
      <trkpt lat="48.70935" lon="2.04189">
        <ele>120.6</ele>
        <time>2022-02-06T15:08:35Z</time>
      </trkpt>
      <trkpt lat="48.7093" lon="2.04191">
        <ele>122.5</ele>
        <time>2022-02-06T15:08:45Z</time>
      </trkpt>
      <trkpt lat="48.70929" lon="2.04198">
        <ele>122.1</ele>
        <time>2022-02-06T15:08:53Z</time>
      </trkpt>
      <trkpt lat="48.70928" lon="2.04206">
        <ele>122</ele>
        <time>2022-02-06T15:08:57Z</time>
      </trkpt>
      <trkpt lat="48.70926" lon="2.04213">
        <ele>121.3</ele>
        <time>2022-02-06T15:09:00Z</time>
      </trkpt>
      <trkpt lat="48.70925" lon="2.04221">
        <ele>119</ele>
        <time>2022-02-06T15:09:10Z</time>
      </trkpt>
      <trkpt lat="48.70923" lon="2.04227">
        <ele>121</ele>
        <time>2022-02-06T15:09:16Z</time>
      </trkpt>
      <trkpt lat="48.70918" lon="2.04229">
        <ele>122.6</ele>
        <time>2022-02-06T15:09:24Z</time>
      </trkpt>
      <trkpt lat="48.70916" lon="2.04223">
        <ele>123.2</ele>
        <time>2022-02-06T15:09:28Z</time>
      </trkpt>
      <trkpt lat="48.70911" lon="2.04219">
        <ele>124.6</ele>
        <time>2022-02-06T15:09:35Z</time>
      </trkpt>
      <trkpt lat="48.70907" lon="2.04216">
        <ele>126.1</ele>
        <time>2022-02-06T15:09:39Z</time>
      </trkpt>
      <trkpt lat="48.70902" lon="2.04214">
        <ele>127.2</ele>
        <time>2022-02-06T15:09:43Z</time>
      </trkpt>
      <trkpt lat="48.70897" lon="2.04213">
        <ele>128.5</ele>
        <time>2022-02-06T15:09:49Z</time>
      </trkpt>
      <trkpt lat="48.70893" lon="2.04206">
        <ele>130</ele>
        <time>2022-02-06T15:09:56Z</time>
      </trkpt>
      <trkpt lat="48.70893" lon="2.042">
        <ele>130.6</ele>
        <time>2022-02-06T15:10:01Z</time>
      </trkpt>
      <trkpt lat="48.70893" lon="2.04191">
        <ele>130.2</ele>
        <time>2022-02-06T15:10:05Z</time>
      </trkpt>
      <trkpt lat="48.70894" lon="2.04184">
        <ele>129.4</ele>
        <time>2022-02-06T15:10:08Z</time>
      </trkpt>
      <trkpt lat="48.70894" lon="2.04176">
        <ele>128.4</ele>
        <time>2022-02-06T15:10:11Z</time>
      </trkpt>
      <trkpt lat="48.70895" lon="2.04167">
        <ele>127.6</ele>
        <time>2022-02-06T15:10:15Z</time>
      </trkpt>
      <trkpt lat="48.70898" lon="2.0416">
        <ele>127.2</ele>
        <time>2022-02-06T15:10:19Z</time>
      </trkpt>
      <trkpt lat="48.70902" lon="2.04155">
        <ele>126.6</ele>
        <time>2022-02-06T15:10:21Z</time>
      </trkpt>
      <trkpt lat="48.70908" lon="2.04152">
        <ele>123.6</ele>
        <time>2022-02-06T15:10:24Z</time>
      </trkpt>
      <trkpt lat="48.70913" lon="2.0415">
        <ele>119.3</ele>
        <time>2022-02-06T15:10:28Z</time>
      </trkpt>
      <trkpt lat="48.70917" lon="2.04148">
        <ele>117.1</ele>
        <time>2022-02-06T15:10:35Z</time>
      </trkpt>
      <trkpt lat="48.7092" lon="2.04141">
        <ele>113.7</ele>
        <time>2022-02-06T15:10:40Z</time>
      </trkpt>
      <trkpt lat="48.70921" lon="2.04132">
        <ele>107.5</ele>
        <time>2022-02-06T15:10:44Z</time>
      </trkpt>
      <trkpt lat="48.70919" lon="2.04125">
        <ele>102</ele>
        <time>2022-02-06T15:10:47Z</time>
      </trkpt>
      <trkpt lat="48.70917" lon="2.04117">
        <ele>97.3</ele>
        <time>2022-02-06T15:10:51Z</time>
      </trkpt>
      <trkpt lat="48.70913" lon="2.04108">
        <ele>95</ele>
        <time>2022-02-06T15:10:54Z</time>
      </trkpt>
      <trkpt lat="48.70909" lon="2.04101">
        <ele>93.9</ele>
        <time>2022-02-06T15:10:57Z</time>
      </trkpt>
      <trkpt lat="48.70906" lon="2.04094">
        <ele>94.1</ele>
        <time>2022-02-06T15:11:01Z</time>
      </trkpt>
      <trkpt lat="48.70901" lon="2.0409">
        <ele>94.5</ele>
        <time>2022-02-06T15:11:06Z</time>
      </trkpt>
      <trkpt lat="48.70897" lon="2.04085">
        <ele>94.2</ele>
        <time>2022-02-06T15:11:10Z</time>
      </trkpt>
      <trkpt lat="48.70892" lon="2.04083">
        <ele>94.2</ele>
        <time>2022-02-06T15:11:15Z</time>
      </trkpt>
      <trkpt lat="48.70889" lon="2.04088">
        <ele>96.6</ele>
        <time>2022-02-06T15:11:19Z</time>
      </trkpt>
      <trkpt lat="48.70887" lon="2.04095">
        <ele>100.3</ele>
        <time>2022-02-06T15:11:24Z</time>
      </trkpt>
      <trkpt lat="48.70885" lon="2.04102">
        <ele>102</ele>
        <time>2022-02-06T15:11:28Z</time>
      </trkpt>
      <trkpt lat="48.70883" lon="2.0411">
        <ele>101.2</ele>
        <time>2022-02-06T15:11:34Z</time>
      </trkpt>
      <trkpt lat="48.7088" lon="2.04115">
        <ele>99.8</ele>
        <time>2022-02-06T15:11:40Z</time>
      </trkpt>
      <trkpt lat="48.70876" lon="2.0412">
        <ele>99.1</ele>
        <time>2022-02-06T15:11:46Z</time>
      </trkpt>
      <trkpt lat="48.70872" lon="2.04124">
        <ele>99.6</ele>
        <time>2022-02-06T15:11:52Z</time>
      </trkpt>
      <trkpt lat="48.70868" lon="2.04128">
        <ele>99.5</ele>
        <time>2022-02-06T15:11:58Z</time>
      </trkpt>
      <trkpt lat="48.70863" lon="2.04131">
        <ele>96.2</ele>
        <time>2022-02-06T15:12:06Z</time>
      </trkpt>
      <trkpt lat="48.70859" lon="2.0413">
        <ele>95.6</ele>
        <time>2022-02-06T15:12:10Z</time>
      </trkpt>
      <trkpt lat="48.70854" lon="2.04128">
        <ele>96.7</ele>
        <time>2022-02-06T15:12:15Z</time>
      </trkpt>
      <trkpt lat="48.70849" lon="2.04124">
        <ele>96.5</ele>
        <time>2022-02-06T15:12:19Z</time>
      </trkpt>
      <trkpt lat="48.70845" lon="2.0412">
        <ele>93.8</ele>
        <time>2022-02-06T15:12:24Z</time>
      </trkpt>
      <trkpt lat="48.70841" lon="2.04116">
        <ele>90.6</ele>
        <time>2022-02-06T15:12:29Z</time>
      </trkpt>
      <trkpt lat="48.70836" lon="2.04116">
        <ele>88</ele>
        <time>2022-02-06T15:12:39Z</time>
      </trkpt>
      <trkpt lat="48.70832" lon="2.04109">
        <ele>88</ele>
        <time>2022-02-06T15:12:42Z</time>
      </trkpt>
      <trkpt lat="48.70829" lon="2.04104">
        <ele>89.5</ele>
        <time>2022-02-06T15:12:47Z</time>
      </trkpt>
      <trkpt lat="48.70824" lon="2.04102">
        <ele>91.9</ele>
        <time>2022-02-06T15:12:52Z</time>
      </trkpt>
      <trkpt lat="48.70823" lon="2.04109">
        <ele>89.6</ele>
        <time>2022-02-06T15:13:08Z</time>
      </trkpt>
      <trkpt lat="48.70822" lon="2.04116">
        <ele>90.2</ele>
        <time>2022-02-06T15:13:27Z</time>
      </trkpt>
      <trkpt lat="48.70827" lon="2.04113">
        <ele>85.5</ele>
        <time>2022-02-06T15:13:49Z</time>
      </trkpt>
      <trkpt lat="48.70828" lon="2.04106">
        <ele>86.1</ele>
        <time>2022-02-06T15:13:55Z</time>
      </trkpt>
      <trkpt lat="48.70825" lon="2.04112">
        <ele>91</ele>
        <time>2022-02-06T15:14:23Z</time>
      </trkpt>
      <trkpt lat="48.70825" lon="2.04121">
        <ele>83.3</ele>
        <time>2022-02-06T15:14:37Z</time>
      </trkpt>
      <trkpt lat="48.70826" lon="2.04128">
        <ele>79.7</ele>
        <time>2022-02-06T15:14:41Z</time>
      </trkpt>
      <trkpt lat="48.70828" lon="2.04136">
        <ele>79.2</ele>
        <time>2022-02-06T15:14:44Z</time>
      </trkpt>
      <trkpt lat="48.70828" lon="2.04143">
        <ele>79.1</ele>
        <time>2022-02-06T15:14:47Z</time>
      </trkpt>
      <trkpt lat="48.70827" lon="2.04151">
        <ele>80.6</ele>
        <time>2022-02-06T15:14:50Z</time>
      </trkpt>
      <trkpt lat="48.70825" lon="2.04159">
        <ele>82.6</ele>
        <time>2022-02-06T15:14:53Z</time>
      </trkpt>
      <trkpt lat="48.70822" lon="2.04166">
        <ele>83.6</ele>
        <time>2022-02-06T15:14:58Z</time>
      </trkpt>
      <trkpt lat="48.70821" lon="2.04174">
        <ele>85.4</ele>
        <time>2022-02-06T15:15:04Z</time>
      </trkpt>
      <trkpt lat="48.7082" lon="2.04183">
        <ele>91.2</ele>
        <time>2022-02-06T15:15:10Z</time>
      </trkpt>
      <trkpt lat="48.70819" lon="2.0419">
        <ele>94.3</ele>
        <time>2022-02-06T15:15:15Z</time>
      </trkpt>
      <trkpt lat="48.70819" lon="2.04198">
        <ele>94.8</ele>
        <time>2022-02-06T15:15:21Z</time>
      </trkpt>
      <trkpt lat="48.70818" lon="2.04205">
        <ele>94.1</ele>
        <time>2022-02-06T15:15:24Z</time>
      </trkpt>
      <trkpt lat="48.70817" lon="2.04213">
        <ele>93.6</ele>
        <time>2022-02-06T15:15:27Z</time>
      </trkpt>
      <trkpt lat="48.70816" lon="2.0422">
        <ele>93.4</ele>
        <time>2022-02-06T15:15:31Z</time>
      </trkpt>
      <trkpt lat="48.70811" lon="2.04261">
        <ele>92.6</ele>
        <time>2022-02-06T15:15:51Z</time>
      </trkpt>
      <trkpt lat="48.70809" lon="2.04268">
        <ele>91.3</ele>
        <time>2022-02-06T15:15:56Z</time>
      </trkpt>
      <trkpt lat="48.70807" lon="2.04276">
        <ele>91.8</ele>
        <time>2022-02-06T15:16:00Z</time>
      </trkpt>
      <trkpt lat="48.70805" lon="2.04282">
        <ele>92.9</ele>
        <time>2022-02-06T15:16:03Z</time>
      </trkpt>
      <trkpt lat="48.70802" lon="2.0429">
        <ele>94</ele>
        <time>2022-02-06T15:16:07Z</time>
      </trkpt>
      <trkpt lat="48.70799" lon="2.04296">
        <ele>93</ele>
        <time>2022-02-06T15:16:13Z</time>
      </trkpt>
      <trkpt lat="48.70797" lon="2.04303">
        <ele>91.8</ele>
        <time>2022-02-06T15:16:17Z</time>
      </trkpt>
      <trkpt lat="48.70794" lon="2.0431">
        <ele>91.7</ele>
        <time>2022-02-06T15:16:22Z</time>
      </trkpt>
      <trkpt lat="48.70793" lon="2.04319">
        <ele>86.9</ele>
        <time>2022-02-06T15:16:32Z</time>
      </trkpt>
      <trkpt lat="48.70792" lon="2.04327">
        <ele>85.6</ele>
        <time>2022-02-06T15:16:36Z</time>
      </trkpt>
      <trkpt lat="48.70791" lon="2.04335">
        <ele>85.1</ele>
        <time>2022-02-06T15:16:41Z</time>
      </trkpt>
      <trkpt lat="48.70789" lon="2.04343">
        <ele>84.4</ele>
        <time>2022-02-06T15:16:45Z</time>
      </trkpt>
      <trkpt lat="48.70787" lon="2.04351">
        <ele>83.7</ele>
        <time>2022-02-06T15:16:50Z</time>
      </trkpt>
      <trkpt lat="48.70786" lon="2.04358">
        <ele>83.1</ele>
        <time>2022-02-06T15:16:55Z</time>
      </trkpt>
      <trkpt lat="48.70785" lon="2.04365">
        <ele>82.6</ele>
        <time>2022-02-06T15:16:59Z</time>
      </trkpt>
      <trkpt lat="48.70788" lon="2.04373">
        <ele>82.8</ele>
        <time>2022-02-06T15:17:02Z</time>
      </trkpt>
      <trkpt lat="48.70792" lon="2.04379">
        <ele>83</ele>
        <time>2022-02-06T15:17:06Z</time>
      </trkpt>
      <trkpt lat="48.70787" lon="2.04385">
        <ele>83.5</ele>
        <time>2022-02-06T15:17:10Z</time>
      </trkpt>
      <trkpt lat="48.70781" lon="2.04385">
        <ele>84.2</ele>
        <time>2022-02-06T15:17:13Z</time>
      </trkpt>
      <trkpt lat="48.70776" lon="2.04386">
        <ele>85.9</ele>
        <time>2022-02-06T15:17:17Z</time>
      </trkpt>
      <trkpt lat="48.70771" lon="2.04386">
        <ele>88.1</ele>
        <time>2022-02-06T15:17:21Z</time>
      </trkpt>
      <trkpt lat="48.70766" lon="2.04386">
        <ele>89.8</ele>
        <time>2022-02-06T15:17:25Z</time>
      </trkpt>
      <trkpt lat="48.70762" lon="2.04384">
        <ele>90</ele>
        <time>2022-02-06T15:17:29Z</time>
      </trkpt>
      <trkpt lat="48.70758" lon="2.04379">
        <ele>90.1</ele>
        <time>2022-02-06T15:17:33Z</time>
      </trkpt>
      <trkpt lat="48.70753" lon="2.04377">
        <ele>87.7</ele>
        <time>2022-02-06T15:17:51Z</time>
      </trkpt>
      <trkpt lat="48.70747" lon="2.04377">
        <ele>86.6</ele>
        <time>2022-02-06T15:17:54Z</time>
      </trkpt>
      <trkpt lat="48.70743" lon="2.04382">
        <ele>84.7</ele>
        <time>2022-02-06T15:17:58Z</time>
      </trkpt>
      <trkpt lat="48.70739" lon="2.04385">
        <ele>80.9</ele>
        <time>2022-02-06T15:18:15Z</time>
      </trkpt>
      <trkpt lat="48.70734" lon="2.04388">
        <ele>82.5</ele>
        <time>2022-02-06T15:18:30Z</time>
      </trkpt>
      <trkpt lat="48.70731" lon="2.04394">
        <ele>85.3</ele>
        <time>2022-02-06T15:18:33Z</time>
      </trkpt>
      <trkpt lat="48.70726" lon="2.04398">
        <ele>87.2</ele>
        <time>2022-02-06T15:18:36Z</time>
      </trkpt>
      <trkpt lat="48.70721" lon="2.04402">
        <ele>87.6</ele>
        <time>2022-02-06T15:18:40Z</time>
      </trkpt>
      <trkpt lat="48.70718" lon="2.04408">
        <ele>86.7</ele>
        <time>2022-02-06T15:18:43Z</time>
      </trkpt>
      <trkpt lat="48.70719" lon="2.04416">
        <ele>85.6</ele>
        <time>2022-02-06T15:18:47Z</time>
      </trkpt>
      <trkpt lat="48.7072" lon="2.04424">
        <ele>84.9</ele>
        <time>2022-02-06T15:18:52Z</time>
      </trkpt>
      <trkpt lat="48.70719" lon="2.04431">
        <ele>83.6</ele>
        <time>2022-02-06T15:18:56Z</time>
      </trkpt>
      <trkpt lat="48.70714" lon="2.04433">
        <ele>80.7</ele>
        <time>2022-02-06T15:19:02Z</time>
      </trkpt>
      <trkpt lat="48.7071" lon="2.04433">
        <ele>78.6</ele>
        <time>2022-02-06T15:19:06Z</time>
      </trkpt>
      <trkpt lat="48.70704" lon="2.04429">
        <ele>76.1</ele>
        <time>2022-02-06T15:19:10Z</time>
      </trkpt>
      <trkpt lat="48.707" lon="2.04426">
        <ele>75.8</ele>
        <time>2022-02-06T15:19:14Z</time>
      </trkpt>
      <trkpt lat="48.70695" lon="2.04422">
        <ele>76.7</ele>
        <time>2022-02-06T15:19:20Z</time>
      </trkpt>
      <trkpt lat="48.7069" lon="2.04425">
        <ele>77.4</ele>
        <time>2022-02-06T15:19:25Z</time>
      </trkpt>
      <trkpt lat="48.70686" lon="2.04427">
        <ele>77.2</ele>
        <time>2022-02-06T15:19:29Z</time>
      </trkpt>
      <trkpt lat="48.70681" lon="2.04425">
        <ele>75.8</ele>
        <time>2022-02-06T15:19:35Z</time>
      </trkpt>
      <trkpt lat="48.70676" lon="2.04421">
        <ele>75.2</ele>
        <time>2022-02-06T15:19:41Z</time>
      </trkpt>
      <trkpt lat="48.70676" lon="2.04414">
        <ele>74.7</ele>
        <time>2022-02-06T15:19:45Z</time>
      </trkpt>
      <trkpt lat="48.70679" lon="2.04407">
        <ele>73.6</ele>
        <time>2022-02-06T15:19:49Z</time>
      </trkpt>
      <trkpt lat="48.70681" lon="2.04399">
        <ele>71.5</ele>
        <time>2022-02-06T15:19:54Z</time>
      </trkpt>
      <trkpt lat="48.70683" lon="2.04391">
        <ele>70.1</ele>
        <time>2022-02-06T15:20:00Z</time>
      </trkpt>
      <trkpt lat="48.70684" lon="2.04384">
        <ele>68.1</ele>
        <time>2022-02-06T15:20:07Z</time>
      </trkpt>
      <trkpt lat="48.70682" lon="2.04377">
        <ele>70</ele>
        <time>2022-02-06T15:21:03Z</time>
      </trkpt>
      <trkpt lat="48.70683" lon="2.0437">
        <ele>70.6</ele>
        <time>2022-02-06T15:21:08Z</time>
      </trkpt>
      <trkpt lat="48.70684" lon="2.04363">
        <ele>71</ele>
        <time>2022-02-06T15:21:12Z</time>
      </trkpt>
      <trkpt lat="48.70683" lon="2.04355">
        <ele>71.3</ele>
        <time>2022-02-06T15:21:16Z</time>
      </trkpt>
      <trkpt lat="48.70683" lon="2.04363">
        <ele>68.5</ele>
        <time>2022-02-06T15:21:26Z</time>
      </trkpt>
      <trkpt lat="48.70681" lon="2.04356">
        <ele>68.9</ele>
        <time>2022-02-06T15:21:32Z</time>
      </trkpt>
      <trkpt lat="48.7068" lon="2.04349">
        <ele>68.8</ele>
        <time>2022-02-06T15:21:36Z</time>
      </trkpt>
      <trkpt lat="48.70678" lon="2.04343">
        <ele>68.5</ele>
        <time>2022-02-06T15:21:39Z</time>
      </trkpt>
      <trkpt lat="48.70676" lon="2.04336">
        <ele>67.2</ele>
        <time>2022-02-06T15:21:43Z</time>
      </trkpt>
      <trkpt lat="48.70675" lon="2.04328">
        <ele>65.3</ele>
        <time>2022-02-06T15:21:46Z</time>
      </trkpt>
      <trkpt lat="48.70675" lon="2.04321">
        <ele>63.4</ele>
        <time>2022-02-06T15:21:49Z</time>
      </trkpt>
      <trkpt lat="48.70674" lon="2.04314">
        <ele>62.9</ele>
        <time>2022-02-06T15:21:53Z</time>
      </trkpt>
      <trkpt lat="48.70674" lon="2.04307">
        <ele>63.2</ele>
        <time>2022-02-06T15:21:56Z</time>
      </trkpt>
      <trkpt lat="48.70676" lon="2.04299">
        <ele>65.1</ele>
        <time>2022-02-06T15:22:01Z</time>
      </trkpt>
      <trkpt lat="48.7068" lon="2.04294">
        <ele>66.7</ele>
        <time>2022-02-06T15:22:07Z</time>
      </trkpt>
      <trkpt lat="48.7068" lon="2.04286">
        <ele>68.7</ele>
        <time>2022-02-06T15:22:13Z</time>
      </trkpt>
      <trkpt lat="48.7068" lon="2.04279">
        <ele>70.4</ele>
        <time>2022-02-06T15:22:17Z</time>
      </trkpt>
      <trkpt lat="48.70681" lon="2.04271">
        <ele>69.8</ele>
        <time>2022-02-06T15:22:22Z</time>
      </trkpt>
      <trkpt lat="48.70681" lon="2.04263">
        <ele>69.6</ele>
        <time>2022-02-06T15:22:27Z</time>
      </trkpt>
      <trkpt lat="48.7068" lon="2.04255">
        <ele>70</ele>
        <time>2022-02-06T15:22:32Z</time>
      </trkpt>
      <trkpt lat="48.7068" lon="2.04248">
        <ele>70.3</ele>
        <time>2022-02-06T15:22:38Z</time>
      </trkpt>
      <trkpt lat="48.70681" lon="2.0424">
        <ele>71.6</ele>
        <time>2022-02-06T15:22:43Z</time>
      </trkpt>
      <trkpt lat="48.70683" lon="2.04233">
        <ele>70.9</ele>
        <time>2022-02-06T15:22:49Z</time>
      </trkpt>
      <trkpt lat="48.70684" lon="2.04225">
        <ele>68.1</ele>
        <time>2022-02-06T15:22:56Z</time>
      </trkpt>
      <trkpt lat="48.70685" lon="2.04217">
        <ele>66.5</ele>
        <time>2022-02-06T15:23:01Z</time>
      </trkpt>
      <trkpt lat="48.70684" lon="2.0421">
        <ele>65.1</ele>
        <time>2022-02-06T15:23:05Z</time>
      </trkpt>
      <trkpt lat="48.70683" lon="2.04203">
        <ele>64.2</ele>
        <time>2022-02-06T15:23:10Z</time>
      </trkpt>
      <trkpt lat="48.70682" lon="2.04195">
        <ele>63.7</ele>
        <time>2022-02-06T15:23:14Z</time>
      </trkpt>
      <trkpt lat="48.70682" lon="2.04186">
        <ele>63.1</ele>
        <time>2022-02-06T15:23:18Z</time>
      </trkpt>
      <trkpt lat="48.70682" lon="2.04178">
        <ele>62.7</ele>
        <time>2022-02-06T15:23:23Z</time>
      </trkpt>
      <trkpt lat="48.70681" lon="2.04169">
        <ele>63</ele>
        <time>2022-02-06T15:23:27Z</time>
      </trkpt>
      <trkpt lat="48.7068" lon="2.0416">
        <ele>64.2</ele>
        <time>2022-02-06T15:23:30Z</time>
      </trkpt>
      <trkpt lat="48.70681" lon="2.04153">
        <ele>65.5</ele>
        <time>2022-02-06T15:23:33Z</time>
      </trkpt>
      <trkpt lat="48.7068" lon="2.04145">
        <ele>67.2</ele>
        <time>2022-02-06T15:23:35Z</time>
      </trkpt>
      <trkpt lat="48.70679" lon="2.04138">
        <ele>68.8</ele>
        <time>2022-02-06T15:23:39Z</time>
      </trkpt>
      <trkpt lat="48.70679" lon="2.0413">
        <ele>69.6</ele>
        <time>2022-02-06T15:23:44Z</time>
      </trkpt>
      <trkpt lat="48.70678" lon="2.04122">
        <ele>69.6</ele>
        <time>2022-02-06T15:23:48Z</time>
      </trkpt>
      <trkpt lat="48.70678" lon="2.04115">
        <ele>69.7</ele>
        <time>2022-02-06T15:23:52Z</time>
      </trkpt>
      <trkpt lat="48.70677" lon="2.04106">
        <ele>70.2</ele>
        <time>2022-02-06T15:23:57Z</time>
      </trkpt>
      <trkpt lat="48.70675" lon="2.04098">
        <ele>70.8</ele>
        <time>2022-02-06T15:24:03Z</time>
      </trkpt>
      <trkpt lat="48.70674" lon="2.0409">
        <ele>71</ele>
        <time>2022-02-06T15:24:07Z</time>
      </trkpt>
      <trkpt lat="48.70674" lon="2.04082">
        <ele>71.1</ele>
        <time>2022-02-06T15:24:11Z</time>
      </trkpt>
      <trkpt lat="48.70675" lon="2.04074">
        <ele>71.8</ele>
        <time>2022-02-06T15:24:16Z</time>
      </trkpt>
      <trkpt lat="48.70675" lon="2.04067">
        <ele>72.6</ele>
        <time>2022-02-06T15:24:20Z</time>
      </trkpt>
      <trkpt lat="48.70675" lon="2.04059">
        <ele>73.2</ele>
        <time>2022-02-06T15:24:24Z</time>
      </trkpt>
      <trkpt lat="48.70675" lon="2.04051">
        <ele>73</ele>
        <time>2022-02-06T15:24:28Z</time>
      </trkpt>
      <trkpt lat="48.70675" lon="2.04045">
        <ele>72.2</ele>
        <time>2022-02-06T15:24:32Z</time>
      </trkpt>
      <trkpt lat="48.70674" lon="2.04037">
        <ele>71.8</ele>
        <time>2022-02-06T15:24:38Z</time>
      </trkpt>
      <trkpt lat="48.70673" lon="2.04029">
        <ele>71.6</ele>
        <time>2022-02-06T15:24:42Z</time>
      </trkpt>
      <trkpt lat="48.70672" lon="2.04021">
        <ele>71.4</ele>
        <time>2022-02-06T15:24:47Z</time>
      </trkpt>
      <trkpt lat="48.70672" lon="2.04013">
        <ele>71.1</ele>
        <time>2022-02-06T15:24:51Z</time>
      </trkpt>
      <trkpt lat="48.7067" lon="2.04006">
        <ele>70.1</ele>
        <time>2022-02-06T15:24:56Z</time>
      </trkpt>
      <trkpt lat="48.70669" lon="2.03999">
        <ele>68.2</ele>
        <time>2022-02-06T15:25:00Z</time>
      </trkpt>
      <trkpt lat="48.70668" lon="2.03991">
        <ele>66.8</ele>
        <time>2022-02-06T15:25:04Z</time>
      </trkpt>
      <trkpt lat="48.70667" lon="2.03983">
        <ele>66.1</ele>
        <time>2022-02-06T15:25:09Z</time>
      </trkpt>
      <trkpt lat="48.70664" lon="2.03977">
        <ele>65.2</ele>
        <time>2022-02-06T15:25:13Z</time>
      </trkpt>
      <trkpt lat="48.7066" lon="2.03972">
        <ele>64.7</ele>
        <time>2022-02-06T15:25:18Z</time>
      </trkpt>
      <trkpt lat="48.70655" lon="2.03966">
        <ele>65.3</ele>
        <time>2022-02-06T15:25:22Z</time>
      </trkpt>
      <trkpt lat="48.70651" lon="2.03961">
        <ele>66.6</ele>
        <time>2022-02-06T15:25:26Z</time>
      </trkpt>
      <trkpt lat="48.70647" lon="2.03956">
        <ele>67.6</ele>
        <time>2022-02-06T15:25:31Z</time>
      </trkpt>
      <trkpt lat="48.70643" lon="2.0395">
        <ele>67.7</ele>
        <time>2022-02-06T15:25:35Z</time>
      </trkpt>
      <trkpt lat="48.70638" lon="2.03944">
        <ele>67.2</ele>
        <time>2022-02-06T15:25:39Z</time>
      </trkpt>
      <trkpt lat="48.70635" lon="2.03939">
        <ele>67.6</ele>
        <time>2022-02-06T15:25:43Z</time>
      </trkpt>
      <trkpt lat="48.70631" lon="2.03933">
        <ele>68.5</ele>
        <time>2022-02-06T15:25:48Z</time>
      </trkpt>
      <trkpt lat="48.70626" lon="2.03934">
        <ele>68.4</ele>
        <time>2022-02-06T15:25:53Z</time>
      </trkpt>
      <trkpt lat="48.70624" lon="2.03942">
        <ele>67.6</ele>
        <time>2022-02-06T15:25:58Z</time>
      </trkpt>
      <trkpt lat="48.70622" lon="2.0395">
        <ele>67.9</ele>
        <time>2022-02-06T15:26:02Z</time>
      </trkpt>
      <trkpt lat="48.70618" lon="2.03957">
        <ele>68.7</ele>
        <time>2022-02-06T15:26:06Z</time>
      </trkpt>
      <trkpt lat="48.70615" lon="2.03962">
        <ele>69.5</ele>
        <time>2022-02-06T15:26:09Z</time>
      </trkpt>
      <trkpt lat="48.7061" lon="2.03965">
        <ele>69.8</ele>
        <time>2022-02-06T15:26:13Z</time>
      </trkpt>
      <trkpt lat="48.70605" lon="2.03966">
        <ele>69.3</ele>
        <time>2022-02-06T15:26:17Z</time>
      </trkpt>
      <trkpt lat="48.706" lon="2.03966">
        <ele>68.9</ele>
        <time>2022-02-06T15:26:22Z</time>
      </trkpt>
      <trkpt lat="48.70595" lon="2.03967">
        <ele>68.5</ele>
        <time>2022-02-06T15:26:26Z</time>
      </trkpt>
      <trkpt lat="48.70589" lon="2.03968">
        <ele>67.5</ele>
        <time>2022-02-06T15:26:30Z</time>
      </trkpt>
      <trkpt lat="48.70584" lon="2.0397">
        <ele>66.5</ele>
        <time>2022-02-06T15:26:35Z</time>
      </trkpt>
      <trkpt lat="48.7058" lon="2.03976">
        <ele>66.7</ele>
        <time>2022-02-06T15:26:39Z</time>
      </trkpt>
      <trkpt lat="48.70582" lon="2.03984">
        <ele>67.3</ele>
        <time>2022-02-06T15:26:43Z</time>
      </trkpt>
      <trkpt lat="48.70583" lon="2.03991">
        <ele>67.7</ele>
        <time>2022-02-06T15:26:46Z</time>
      </trkpt>
      <trkpt lat="48.70584" lon="2.03999">
        <ele>67.9</ele>
        <time>2022-02-06T15:26:50Z</time>
      </trkpt>
      <trkpt lat="48.70584" lon="2.04005">
        <ele>68.4</ele>
        <time>2022-02-06T15:26:54Z</time>
      </trkpt>
      <trkpt lat="48.70584" lon="2.04013">
        <ele>69.4</ele>
        <time>2022-02-06T15:26:58Z</time>
      </trkpt>
      <trkpt lat="48.7058" lon="2.04019">
        <ele>70.9</ele>
        <time>2022-02-06T15:27:04Z</time>
      </trkpt>
      <trkpt lat="48.70581" lon="2.04012">
        <ele>70.5</ele>
        <time>2022-02-06T15:27:18Z</time>
      </trkpt>
      <trkpt lat="48.70582" lon="2.04006">
        <ele>70.9</ele>
        <time>2022-02-06T15:27:31Z</time>
      </trkpt>
    </trkseg>
  </trk>
</gpx>